<?xml version="1.0" encoding="UTF-8" standalone="no" ?>
<gpx xmlns="http://www.topografix.com/GPX/1/1" xmlns:xsi="http://www.w3.org/2001/XMLSchema-instance" xsi:schemaLocation="http://www.topografix.com/GPX/1/1 http://www.topografix.com/GPX/1/1/gpx.xsd" version="1.1" creator="VisuGPX - https://www.visugpx.com">
  <metadata>
    <name>2023-05-21_10-30_Sun Vallangoujard Arronville</name>
  </metadata>
  <trk>
    <name><![CDATA[2023-05-21_10-30_Sun Vallangoujard Arronville_1]]></name>
    <trkseg>
      <trkpt lat="49.13926" lon="2.11581">
        <ele>90.8</ele>
        <time>2023-05-21T08:30:09Z</time>
      </trkpt>
      <trkpt lat="49.13923" lon="2.11585">
        <ele>90.9</ele>
        <time>2023-05-21T08:30:15Z</time>
      </trkpt>
      <trkpt lat="49.13921" lon="2.11585">
        <ele>90.9</ele>
        <time>2023-05-21T08:30:20Z</time>
      </trkpt>
      <trkpt lat="49.13921" lon="2.11585">
        <ele>91</ele>
        <time>2023-05-21T08:30:26Z</time>
      </trkpt>
      <trkpt lat="49.13914" lon="2.11599">
        <ele>91.1</ele>
        <time>2023-05-21T08:30:32Z</time>
      </trkpt>
      <trkpt lat="49.13911" lon="2.11605">
        <ele>91.2</ele>
        <time>2023-05-21T08:30:37Z</time>
      </trkpt>
      <trkpt lat="49.13906" lon="2.11614">
        <ele>91.4</ele>
        <time>2023-05-21T08:30:43Z</time>
      </trkpt>
      <trkpt lat="49.139" lon="2.11623">
        <ele>91.7</ele>
        <time>2023-05-21T08:30:48Z</time>
      </trkpt>
      <trkpt lat="49.13894" lon="2.11628">
        <ele>92.2</ele>
        <time>2023-05-21T08:30:53Z</time>
      </trkpt>
      <trkpt lat="49.13888" lon="2.11635">
        <ele>92.7</ele>
        <time>2023-05-21T08:30:59Z</time>
      </trkpt>
      <trkpt lat="49.13885" lon="2.11642">
        <ele>92.9</ele>
        <time>2023-05-21T08:31:04Z</time>
      </trkpt>
      <trkpt lat="49.13883" lon="2.11651">
        <ele>93</ele>
        <time>2023-05-21T08:31:10Z</time>
      </trkpt>
      <trkpt lat="49.13878" lon="2.11657">
        <ele>92.8</ele>
        <time>2023-05-21T08:31:16Z</time>
      </trkpt>
      <trkpt lat="49.13875" lon="2.11666">
        <ele>92.7</ele>
        <time>2023-05-21T08:31:22Z</time>
      </trkpt>
      <trkpt lat="49.13875" lon="2.11676">
        <ele>92.8</ele>
        <time>2023-05-21T08:31:27Z</time>
      </trkpt>
      <trkpt lat="49.13873" lon="2.11684">
        <ele>93</ele>
        <time>2023-05-21T08:31:32Z</time>
      </trkpt>
      <trkpt lat="49.13873" lon="2.11693">
        <ele>93.1</ele>
        <time>2023-05-21T08:31:37Z</time>
      </trkpt>
      <trkpt lat="49.13872" lon="2.11699">
        <ele>93.1</ele>
        <time>2023-05-21T08:31:43Z</time>
      </trkpt>
      <trkpt lat="49.13869" lon="2.11703">
        <ele>93</ele>
        <time>2023-05-21T08:31:48Z</time>
      </trkpt>
      <trkpt lat="49.13865" lon="2.1171">
        <ele>92.8</ele>
        <time>2023-05-21T08:31:53Z</time>
      </trkpt>
      <trkpt lat="49.13862" lon="2.11717">
        <ele>92.9</ele>
        <time>2023-05-21T08:31:59Z</time>
      </trkpt>
      <trkpt lat="49.13859" lon="2.11723">
        <ele>93.1</ele>
        <time>2023-05-21T08:32:04Z</time>
      </trkpt>
      <trkpt lat="49.13854" lon="2.11734">
        <ele>93.3</ele>
        <time>2023-05-21T08:32:10Z</time>
      </trkpt>
      <trkpt lat="49.1385" lon="2.11743">
        <ele>93.1</ele>
        <time>2023-05-21T08:32:16Z</time>
      </trkpt>
      <trkpt lat="49.13844" lon="2.11751">
        <ele>92.8</ele>
        <time>2023-05-21T08:32:21Z</time>
      </trkpt>
      <trkpt lat="49.13837" lon="2.11757">
        <ele>92.4</ele>
        <time>2023-05-21T08:32:27Z</time>
      </trkpt>
      <trkpt lat="49.1383" lon="2.11763">
        <ele>91.4</ele>
        <time>2023-05-21T08:32:33Z</time>
      </trkpt>
      <trkpt lat="49.13826" lon="2.11775">
        <ele>90.7</ele>
        <time>2023-05-21T08:32:39Z</time>
      </trkpt>
      <trkpt lat="49.13819" lon="2.11782">
        <ele>90.2</ele>
        <time>2023-05-21T08:32:44Z</time>
      </trkpt>
      <trkpt lat="49.13816" lon="2.1179">
        <ele>89.9</ele>
        <time>2023-05-21T08:32:50Z</time>
      </trkpt>
      <trkpt lat="49.13811" lon="2.11799">
        <ele>89.8</ele>
        <time>2023-05-21T08:32:55Z</time>
      </trkpt>
      <trkpt lat="49.13806" lon="2.11808">
        <ele>89.8</ele>
        <time>2023-05-21T08:33:01Z</time>
      </trkpt>
      <trkpt lat="49.13802" lon="2.11815">
        <ele>89.9</ele>
        <time>2023-05-21T08:33:06Z</time>
      </trkpt>
      <trkpt lat="49.13797" lon="2.11826">
        <ele>90.1</ele>
        <time>2023-05-21T08:33:11Z</time>
      </trkpt>
      <trkpt lat="49.13793" lon="2.11832">
        <ele>90.2</ele>
        <time>2023-05-21T08:33:16Z</time>
      </trkpt>
      <trkpt lat="49.13787" lon="2.11839">
        <ele>89.9</ele>
        <time>2023-05-21T08:33:22Z</time>
      </trkpt>
      <trkpt lat="49.13782" lon="2.11849">
        <ele>89.7</ele>
        <time>2023-05-21T08:33:28Z</time>
      </trkpt>
      <trkpt lat="49.13776" lon="2.11857">
        <ele>89.3</ele>
        <time>2023-05-21T08:33:34Z</time>
      </trkpt>
      <trkpt lat="49.13769" lon="2.11865">
        <ele>89</ele>
        <time>2023-05-21T08:33:39Z</time>
      </trkpt>
      <trkpt lat="49.13766" lon="2.11869">
        <ele>89</ele>
        <time>2023-05-21T08:33:44Z</time>
      </trkpt>
      <trkpt lat="49.13765" lon="2.11872">
        <ele>89.2</ele>
        <time>2023-05-21T08:33:50Z</time>
      </trkpt>
      <trkpt lat="49.1376" lon="2.11877">
        <ele>89.3</ele>
        <time>2023-05-21T08:33:55Z</time>
      </trkpt>
      <trkpt lat="49.13754" lon="2.11883">
        <ele>89.1</ele>
        <time>2023-05-21T08:34:01Z</time>
      </trkpt>
      <trkpt lat="49.13753" lon="2.11894">
        <ele>88.9</ele>
        <time>2023-05-21T08:34:07Z</time>
      </trkpt>
      <trkpt lat="49.13754" lon="2.11908">
        <ele>88.8</ele>
        <time>2023-05-21T08:34:12Z</time>
      </trkpt>
      <trkpt lat="49.13758" lon="2.11916">
        <ele>89.1</ele>
        <time>2023-05-21T08:34:17Z</time>
      </trkpt>
      <trkpt lat="49.1376" lon="2.11924">
        <ele>89.9</ele>
        <time>2023-05-21T08:34:22Z</time>
      </trkpt>
      <trkpt lat="49.13765" lon="2.1193">
        <ele>91.3</ele>
        <time>2023-05-21T08:34:28Z</time>
      </trkpt>
      <trkpt lat="49.13774" lon="2.11927">
        <ele>92.9</ele>
        <time>2023-05-21T08:34:34Z</time>
      </trkpt>
      <trkpt lat="49.13781" lon="2.11924">
        <ele>94</ele>
        <time>2023-05-21T08:34:40Z</time>
      </trkpt>
      <trkpt lat="49.13788" lon="2.11922">
        <ele>94.9</ele>
        <time>2023-05-21T08:34:46Z</time>
      </trkpt>
      <trkpt lat="49.13793" lon="2.11919">
        <ele>95.3</ele>
        <time>2023-05-21T08:34:51Z</time>
      </trkpt>
      <trkpt lat="49.13804" lon="2.11916">
        <ele>95.7</ele>
        <time>2023-05-21T08:34:57Z</time>
      </trkpt>
      <trkpt lat="49.13809" lon="2.11915">
        <ele>96</ele>
        <time>2023-05-21T08:35:03Z</time>
      </trkpt>
      <trkpt lat="49.13814" lon="2.11913">
        <ele>96.2</ele>
        <time>2023-05-21T08:35:08Z</time>
      </trkpt>
      <trkpt lat="49.13824" lon="2.11912">
        <ele>96.3</ele>
        <time>2023-05-21T08:35:14Z</time>
      </trkpt>
      <trkpt lat="49.1383" lon="2.11912">
        <ele>96.4</ele>
        <time>2023-05-21T08:35:19Z</time>
      </trkpt>
      <trkpt lat="49.13839" lon="2.11916">
        <ele>96.5</ele>
        <time>2023-05-21T08:35:25Z</time>
      </trkpt>
      <trkpt lat="49.13844" lon="2.11917">
        <ele>96.5</ele>
        <time>2023-05-21T08:35:30Z</time>
      </trkpt>
      <trkpt lat="49.13853" lon="2.11918">
        <ele>96.9</ele>
        <time>2023-05-21T08:35:36Z</time>
      </trkpt>
      <trkpt lat="49.1386" lon="2.11914">
        <ele>97.1</ele>
        <time>2023-05-21T08:35:42Z</time>
      </trkpt>
      <trkpt lat="49.13867" lon="2.11913">
        <ele>97</ele>
        <time>2023-05-21T08:35:47Z</time>
      </trkpt>
      <trkpt lat="49.13874" lon="2.11912">
        <ele>97.1</ele>
        <time>2023-05-21T08:35:53Z</time>
      </trkpt>
      <trkpt lat="49.13881" lon="2.1191">
        <ele>97.2</ele>
        <time>2023-05-21T08:35:58Z</time>
      </trkpt>
      <trkpt lat="49.13889" lon="2.11913">
        <ele>97</ele>
        <time>2023-05-21T08:36:03Z</time>
      </trkpt>
      <trkpt lat="49.13896" lon="2.11914">
        <ele>97</ele>
        <time>2023-05-21T08:36:08Z</time>
      </trkpt>
      <trkpt lat="49.139" lon="2.11915">
        <ele>97.1</ele>
        <time>2023-05-21T08:36:13Z</time>
      </trkpt>
      <trkpt lat="49.13906" lon="2.11917">
        <ele>97.1</ele>
        <time>2023-05-21T08:36:19Z</time>
      </trkpt>
      <trkpt lat="49.13914" lon="2.11918">
        <ele>97.1</ele>
        <time>2023-05-21T08:36:25Z</time>
      </trkpt>
      <trkpt lat="49.13921" lon="2.11919">
        <ele>97.2</ele>
        <time>2023-05-21T08:36:31Z</time>
      </trkpt>
      <trkpt lat="49.1393" lon="2.11919">
        <ele>97.5</ele>
        <time>2023-05-21T08:36:37Z</time>
      </trkpt>
      <trkpt lat="49.13936" lon="2.11916">
        <ele>97.7</ele>
        <time>2023-05-21T08:36:42Z</time>
      </trkpt>
      <trkpt lat="49.13944" lon="2.11914">
        <ele>97.6</ele>
        <time>2023-05-21T08:36:48Z</time>
      </trkpt>
      <trkpt lat="49.13951" lon="2.11909">
        <ele>97.6</ele>
        <time>2023-05-21T08:36:54Z</time>
      </trkpt>
      <trkpt lat="49.13959" lon="2.11906">
        <ele>97.6</ele>
        <time>2023-05-21T08:36:59Z</time>
      </trkpt>
      <trkpt lat="49.13966" lon="2.11905">
        <ele>97.7</ele>
        <time>2023-05-21T08:37:05Z</time>
      </trkpt>
      <trkpt lat="49.13973" lon="2.11906">
        <ele>97.8</ele>
        <time>2023-05-21T08:37:10Z</time>
      </trkpt>
      <trkpt lat="49.13978" lon="2.11902">
        <ele>97.8</ele>
        <time>2023-05-21T08:37:15Z</time>
      </trkpt>
      <trkpt lat="49.13983" lon="2.119">
        <ele>97.7</ele>
        <time>2023-05-21T08:37:20Z</time>
      </trkpt>
      <trkpt lat="49.13988" lon="2.11895">
        <ele>97.5</ele>
        <time>2023-05-21T08:37:26Z</time>
      </trkpt>
      <trkpt lat="49.13994" lon="2.11892">
        <ele>97.5</ele>
        <time>2023-05-21T08:37:31Z</time>
      </trkpt>
      <trkpt lat="49.14001" lon="2.11888">
        <ele>97.6</ele>
        <time>2023-05-21T08:37:36Z</time>
      </trkpt>
      <trkpt lat="49.14007" lon="2.11891">
        <ele>97.6</ele>
        <time>2023-05-21T08:37:41Z</time>
      </trkpt>
      <trkpt lat="49.14008" lon="2.11902">
        <ele>97.7</ele>
        <time>2023-05-21T08:37:47Z</time>
      </trkpt>
      <trkpt lat="49.1401" lon="2.11911">
        <ele>97.5</ele>
        <time>2023-05-21T08:37:53Z</time>
      </trkpt>
      <trkpt lat="49.14012" lon="2.11921">
        <ele>97</ele>
        <time>2023-05-21T08:37:59Z</time>
      </trkpt>
      <trkpt lat="49.14015" lon="2.11931">
        <ele>96.5</ele>
        <time>2023-05-21T08:38:04Z</time>
      </trkpt>
      <trkpt lat="49.14019" lon="2.1194">
        <ele>96.2</ele>
        <time>2023-05-21T08:38:10Z</time>
      </trkpt>
      <trkpt lat="49.14021" lon="2.11947">
        <ele>96.1</ele>
        <time>2023-05-21T08:38:15Z</time>
      </trkpt>
      <trkpt lat="49.14023" lon="2.11954">
        <ele>96.3</ele>
        <time>2023-05-21T08:38:21Z</time>
      </trkpt>
      <trkpt lat="49.14025" lon="2.11963">
        <ele>96.6</ele>
        <time>2023-05-21T08:38:27Z</time>
      </trkpt>
      <trkpt lat="49.14028" lon="2.11971">
        <ele>96.8</ele>
        <time>2023-05-21T08:38:32Z</time>
      </trkpt>
      <trkpt lat="49.14033" lon="2.11973">
        <ele>97.3</ele>
        <time>2023-05-21T08:38:37Z</time>
      </trkpt>
      <trkpt lat="49.1404" lon="2.11978">
        <ele>98.4</ele>
        <time>2023-05-21T08:38:43Z</time>
      </trkpt>
      <trkpt lat="49.14046" lon="2.11981">
        <ele>99.8</ele>
        <time>2023-05-21T08:38:49Z</time>
      </trkpt>
      <trkpt lat="49.14051" lon="2.11984">
        <ele>100.9</ele>
        <time>2023-05-21T08:38:54Z</time>
      </trkpt>
      <trkpt lat="49.14056" lon="2.11989">
        <ele>102</ele>
        <time>2023-05-21T08:39:00Z</time>
      </trkpt>
      <trkpt lat="49.14059" lon="2.11989">
        <ele>102.6</ele>
        <time>2023-05-21T08:39:05Z</time>
      </trkpt>
      <trkpt lat="49.14062" lon="2.11991">
        <ele>103.1</ele>
        <time>2023-05-21T08:39:11Z</time>
      </trkpt>
      <trkpt lat="49.14067" lon="2.11993">
        <ele>103.6</ele>
        <time>2023-05-21T08:39:17Z</time>
      </trkpt>
      <trkpt lat="49.14069" lon="2.11997">
        <ele>103.9</ele>
        <time>2023-05-21T08:39:22Z</time>
      </trkpt>
      <trkpt lat="49.14071" lon="2.12005">
        <ele>104.2</ele>
        <time>2023-05-21T08:39:28Z</time>
      </trkpt>
      <trkpt lat="49.14074" lon="2.12014">
        <ele>104.3</ele>
        <time>2023-05-21T08:39:33Z</time>
      </trkpt>
      <trkpt lat="49.14077" lon="2.12021">
        <ele>104.3</ele>
        <time>2023-05-21T08:39:38Z</time>
      </trkpt>
      <trkpt lat="49.1408" lon="2.12029">
        <ele>104.4</ele>
        <time>2023-05-21T08:39:44Z</time>
      </trkpt>
      <trkpt lat="49.14083" lon="2.12035">
        <ele>104.6</ele>
        <time>2023-05-21T08:39:49Z</time>
      </trkpt>
      <trkpt lat="49.14087" lon="2.12044">
        <ele>104.9</ele>
        <time>2023-05-21T08:39:55Z</time>
      </trkpt>
      <trkpt lat="49.14089" lon="2.12053">
        <ele>105.3</ele>
        <time>2023-05-21T08:40:00Z</time>
      </trkpt>
      <trkpt lat="49.14091" lon="2.12061">
        <ele>105.7</ele>
        <time>2023-05-21T08:40:05Z</time>
      </trkpt>
      <trkpt lat="49.14095" lon="2.12067">
        <ele>106</ele>
        <time>2023-05-21T08:40:11Z</time>
      </trkpt>
      <trkpt lat="49.14099" lon="2.12073">
        <ele>106.2</ele>
        <time>2023-05-21T08:40:16Z</time>
      </trkpt>
      <trkpt lat="49.14105" lon="2.1208">
        <ele>106.6</ele>
        <time>2023-05-21T08:40:22Z</time>
      </trkpt>
      <trkpt lat="49.14109" lon="2.12084">
        <ele>107.2</ele>
        <time>2023-05-21T08:40:27Z</time>
      </trkpt>
      <trkpt lat="49.14114" lon="2.1209">
        <ele>108.4</ele>
        <time>2023-05-21T08:40:33Z</time>
      </trkpt>
      <trkpt lat="49.1412" lon="2.12096">
        <ele>109.2</ele>
        <time>2023-05-21T08:40:38Z</time>
      </trkpt>
      <trkpt lat="49.14127" lon="2.121">
        <ele>109.9</ele>
        <time>2023-05-21T08:40:44Z</time>
      </trkpt>
      <trkpt lat="49.14132" lon="2.12105">
        <ele>110.3</ele>
        <time>2023-05-21T08:40:49Z</time>
      </trkpt>
      <trkpt lat="49.14137" lon="2.1211">
        <ele>110.7</ele>
        <time>2023-05-21T08:40:55Z</time>
      </trkpt>
      <trkpt lat="49.14139" lon="2.12117">
        <ele>110.7</ele>
        <time>2023-05-21T08:41:01Z</time>
      </trkpt>
      <trkpt lat="49.14132" lon="2.12119">
        <ele>110.5</ele>
        <time>2023-05-21T08:41:07Z</time>
      </trkpt>
      <trkpt lat="49.14126" lon="2.1212">
        <ele>110.1</ele>
        <time>2023-05-21T08:41:13Z</time>
      </trkpt>
      <trkpt lat="49.1412" lon="2.12124">
        <ele>109.9</ele>
        <time>2023-05-21T08:41:19Z</time>
      </trkpt>
      <trkpt lat="49.14117" lon="2.12127">
        <ele>110.1</ele>
        <time>2023-05-21T08:41:25Z</time>
      </trkpt>
      <trkpt lat="49.1411" lon="2.12128">
        <ele>110.6</ele>
        <time>2023-05-21T08:41:31Z</time>
      </trkpt>
      <trkpt lat="49.14105" lon="2.12133">
        <ele>110.9</ele>
        <time>2023-05-21T08:41:36Z</time>
      </trkpt>
      <trkpt lat="49.141" lon="2.12133">
        <ele>111.2</ele>
        <time>2023-05-21T08:41:41Z</time>
      </trkpt>
      <trkpt lat="49.14094" lon="2.12135">
        <ele>111.2</ele>
        <time>2023-05-21T08:41:46Z</time>
      </trkpt>
      <trkpt lat="49.14089" lon="2.12132">
        <ele>111.2</ele>
        <time>2023-05-21T08:41:52Z</time>
      </trkpt>
      <trkpt lat="49.14086" lon="2.12134">
        <ele>111.3</ele>
        <time>2023-05-21T08:41:57Z</time>
      </trkpt>
      <trkpt lat="49.14081" lon="2.12141">
        <ele>111.5</ele>
        <time>2023-05-21T08:42:02Z</time>
      </trkpt>
      <trkpt lat="49.14072" lon="2.12142">
        <ele>111.5</ele>
        <time>2023-05-21T08:42:08Z</time>
      </trkpt>
      <trkpt lat="49.14068" lon="2.12146">
        <ele>111.2</ele>
        <time>2023-05-21T08:42:14Z</time>
      </trkpt>
      <trkpt lat="49.14063" lon="2.12148">
        <ele>111</ele>
        <time>2023-05-21T08:42:19Z</time>
      </trkpt>
      <trkpt lat="49.14058" lon="2.1215">
        <ele>111</ele>
        <time>2023-05-21T08:42:25Z</time>
      </trkpt>
      <trkpt lat="49.14051" lon="2.1215">
        <ele>111.1</ele>
        <time>2023-05-21T08:42:31Z</time>
      </trkpt>
      <trkpt lat="49.14044" lon="2.12153">
        <ele>111.4</ele>
        <time>2023-05-21T08:42:37Z</time>
      </trkpt>
      <trkpt lat="49.14035" lon="2.12157">
        <ele>111.7</ele>
        <time>2023-05-21T08:42:42Z</time>
      </trkpt>
      <trkpt lat="49.14029" lon="2.1216">
        <ele>112</ele>
        <time>2023-05-21T08:42:47Z</time>
      </trkpt>
      <trkpt lat="49.14021" lon="2.12165">
        <ele>112.4</ele>
        <time>2023-05-21T08:42:53Z</time>
      </trkpt>
      <trkpt lat="49.14014" lon="2.12169">
        <ele>112.6</ele>
        <time>2023-05-21T08:42:59Z</time>
      </trkpt>
      <trkpt lat="49.14012" lon="2.12173">
        <ele>112.6</ele>
        <time>2023-05-21T08:43:05Z</time>
      </trkpt>
      <trkpt lat="49.14006" lon="2.12176">
        <ele>112.8</ele>
        <time>2023-05-21T08:43:10Z</time>
      </trkpt>
      <trkpt lat="49.13995" lon="2.12181">
        <ele>112.9</ele>
        <time>2023-05-21T08:43:16Z</time>
      </trkpt>
      <trkpt lat="49.13989" lon="2.12181">
        <ele>113.1</ele>
        <time>2023-05-21T08:43:21Z</time>
      </trkpt>
      <trkpt lat="49.13982" lon="2.12182">
        <ele>113.4</ele>
        <time>2023-05-21T08:43:27Z</time>
      </trkpt>
      <trkpt lat="49.13975" lon="2.12182">
        <ele>113.5</ele>
        <time>2023-05-21T08:43:32Z</time>
      </trkpt>
      <trkpt lat="49.13969" lon="2.12182">
        <ele>113.4</ele>
        <time>2023-05-21T08:43:38Z</time>
      </trkpt>
      <trkpt lat="49.13962" lon="2.12187">
        <ele>112.7</ele>
        <time>2023-05-21T08:43:44Z</time>
      </trkpt>
      <trkpt lat="49.13955" lon="2.12188">
        <ele>112</ele>
        <time>2023-05-21T08:43:50Z</time>
      </trkpt>
      <trkpt lat="49.13948" lon="2.12186">
        <ele>111.9</ele>
        <time>2023-05-21T08:43:55Z</time>
      </trkpt>
      <trkpt lat="49.13941" lon="2.12185">
        <ele>112.5</ele>
        <time>2023-05-21T08:44:00Z</time>
      </trkpt>
      <trkpt lat="49.13934" lon="2.12188">
        <ele>113.3</ele>
        <time>2023-05-21T08:44:06Z</time>
      </trkpt>
      <trkpt lat="49.13928" lon="2.1219">
        <ele>113.8</ele>
        <time>2023-05-21T08:44:11Z</time>
      </trkpt>
      <trkpt lat="49.13921" lon="2.1219">
        <ele>114.4</ele>
        <time>2023-05-21T08:44:17Z</time>
      </trkpt>
      <trkpt lat="49.1391" lon="2.12193">
        <ele>114.6</ele>
        <time>2023-05-21T08:44:22Z</time>
      </trkpt>
      <trkpt lat="49.13903" lon="2.12195">
        <ele>114.8</ele>
        <time>2023-05-21T08:44:28Z</time>
      </trkpt>
      <trkpt lat="49.13898" lon="2.12196">
        <ele>114.9</ele>
        <time>2023-05-21T08:44:33Z</time>
      </trkpt>
      <trkpt lat="49.13892" lon="2.12195">
        <ele>115.2</ele>
        <time>2023-05-21T08:44:39Z</time>
      </trkpt>
      <trkpt lat="49.13885" lon="2.12197">
        <ele>115.6</ele>
        <time>2023-05-21T08:44:45Z</time>
      </trkpt>
      <trkpt lat="49.13878" lon="2.12201">
        <ele>115.8</ele>
        <time>2023-05-21T08:44:50Z</time>
      </trkpt>
      <trkpt lat="49.13869" lon="2.12201">
        <ele>116.1</ele>
        <time>2023-05-21T08:44:55Z</time>
      </trkpt>
      <trkpt lat="49.13865" lon="2.12205">
        <ele>116.4</ele>
        <time>2023-05-21T08:45:01Z</time>
      </trkpt>
      <trkpt lat="49.13862" lon="2.12213">
        <ele>116.8</ele>
        <time>2023-05-21T08:45:06Z</time>
      </trkpt>
      <trkpt lat="49.13863" lon="2.12223">
        <ele>117.5</ele>
        <time>2023-05-21T08:45:11Z</time>
      </trkpt>
      <trkpt lat="49.13867" lon="2.12232">
        <ele>118.3</ele>
        <time>2023-05-21T08:45:17Z</time>
      </trkpt>
      <trkpt lat="49.13871" lon="2.12242">
        <ele>119</ele>
        <time>2023-05-21T08:45:23Z</time>
      </trkpt>
      <trkpt lat="49.13873" lon="2.12253">
        <ele>120</ele>
        <time>2023-05-21T08:45:29Z</time>
      </trkpt>
      <trkpt lat="49.13876" lon="2.1226">
        <ele>121.1</ele>
        <time>2023-05-21T08:45:34Z</time>
      </trkpt>
      <trkpt lat="49.1388" lon="2.12271">
        <ele>122.3</ele>
        <time>2023-05-21T08:45:40Z</time>
      </trkpt>
      <trkpt lat="49.13883" lon="2.12283">
        <ele>123.4</ele>
        <time>2023-05-21T08:45:46Z</time>
      </trkpt>
      <trkpt lat="49.13886" lon="2.12289">
        <ele>124.5</ele>
        <time>2023-05-21T08:45:52Z</time>
      </trkpt>
      <trkpt lat="49.13886" lon="2.12299">
        <ele>125.7</ele>
        <time>2023-05-21T08:45:58Z</time>
      </trkpt>
      <trkpt lat="49.13891" lon="2.12308">
        <ele>126.7</ele>
        <time>2023-05-21T08:46:04Z</time>
      </trkpt>
      <trkpt lat="49.13897" lon="2.12316">
        <ele>127.5</ele>
        <time>2023-05-21T08:46:09Z</time>
      </trkpt>
      <trkpt lat="49.13899" lon="2.12325">
        <ele>128.3</ele>
        <time>2023-05-21T08:46:14Z</time>
      </trkpt>
      <trkpt lat="49.13899" lon="2.12338">
        <ele>129.2</ele>
        <time>2023-05-21T08:46:20Z</time>
      </trkpt>
      <trkpt lat="49.13899" lon="2.12348">
        <ele>130</ele>
        <time>2023-05-21T08:46:25Z</time>
      </trkpt>
      <trkpt lat="49.13898" lon="2.12358">
        <ele>130.8</ele>
        <time>2023-05-21T08:46:31Z</time>
      </trkpt>
      <trkpt lat="49.13896" lon="2.1237">
        <ele>131</ele>
        <time>2023-05-21T08:46:37Z</time>
      </trkpt>
      <trkpt lat="49.13895" lon="2.12381">
        <ele>130.9</ele>
        <time>2023-05-21T08:46:42Z</time>
      </trkpt>
      <trkpt lat="49.13892" lon="2.12388">
        <ele>131</ele>
        <time>2023-05-21T08:46:47Z</time>
      </trkpt>
      <trkpt lat="49.13889" lon="2.124">
        <ele>131.6</ele>
        <time>2023-05-21T08:46:53Z</time>
      </trkpt>
      <trkpt lat="49.13885" lon="2.12407">
        <ele>132.3</ele>
        <time>2023-05-21T08:46:58Z</time>
      </trkpt>
      <trkpt lat="49.13881" lon="2.12419">
        <ele>133</ele>
        <time>2023-05-21T08:47:04Z</time>
      </trkpt>
      <trkpt lat="49.13881" lon="2.12431">
        <ele>133.5</ele>
        <time>2023-05-21T08:47:10Z</time>
      </trkpt>
      <trkpt lat="49.13883" lon="2.12443">
        <ele>133.8</ele>
        <time>2023-05-21T08:47:15Z</time>
      </trkpt>
      <trkpt lat="49.13886" lon="2.1245">
        <ele>134</ele>
        <time>2023-05-21T08:47:20Z</time>
      </trkpt>
      <trkpt lat="49.13893" lon="2.12458">
        <ele>134.2</ele>
        <time>2023-05-21T08:47:26Z</time>
      </trkpt>
      <trkpt lat="49.13893" lon="2.12467">
        <ele>134.6</ele>
        <time>2023-05-21T08:47:32Z</time>
      </trkpt>
      <trkpt lat="49.13891" lon="2.12475">
        <ele>134.7</ele>
        <time>2023-05-21T08:47:37Z</time>
      </trkpt>
      <trkpt lat="49.1389" lon="2.12484">
        <ele>134.7</ele>
        <time>2023-05-21T08:47:42Z</time>
      </trkpt>
      <trkpt lat="49.13889" lon="2.12495">
        <ele>134.5</ele>
        <time>2023-05-21T08:47:48Z</time>
      </trkpt>
      <trkpt lat="49.13891" lon="2.12504">
        <ele>134.6</ele>
        <time>2023-05-21T08:47:53Z</time>
      </trkpt>
      <trkpt lat="49.13896" lon="2.12515">
        <ele>134.6</ele>
        <time>2023-05-21T08:47:59Z</time>
      </trkpt>
      <trkpt lat="49.13895" lon="2.12525">
        <ele>134.6</ele>
        <time>2023-05-21T08:48:04Z</time>
      </trkpt>
      <trkpt lat="49.13892" lon="2.12539">
        <ele>134.6</ele>
        <time>2023-05-21T08:48:10Z</time>
      </trkpt>
      <trkpt lat="49.13891" lon="2.1255">
        <ele>134.6</ele>
        <time>2023-05-21T08:48:16Z</time>
      </trkpt>
      <trkpt lat="49.13888" lon="2.12562">
        <ele>134.6</ele>
        <time>2023-05-21T08:48:22Z</time>
      </trkpt>
      <trkpt lat="49.13887" lon="2.12572">
        <ele>134.3</ele>
        <time>2023-05-21T08:48:27Z</time>
      </trkpt>
      <trkpt lat="49.13885" lon="2.12584">
        <ele>133.9</ele>
        <time>2023-05-21T08:48:33Z</time>
      </trkpt>
      <trkpt lat="49.13883" lon="2.12594">
        <ele>133.8</ele>
        <time>2023-05-21T08:48:38Z</time>
      </trkpt>
      <trkpt lat="49.13883" lon="2.12606">
        <ele>133.5</ele>
        <time>2023-05-21T08:48:44Z</time>
      </trkpt>
      <trkpt lat="49.13884" lon="2.12616">
        <ele>133.5</ele>
        <time>2023-05-21T08:48:49Z</time>
      </trkpt>
      <trkpt lat="49.13884" lon="2.12624">
        <ele>133.5</ele>
        <time>2023-05-21T08:48:54Z</time>
      </trkpt>
      <trkpt lat="49.13882" lon="2.12637">
        <ele>133.5</ele>
        <time>2023-05-21T08:49:00Z</time>
      </trkpt>
      <trkpt lat="49.1388" lon="2.12649">
        <ele>133.3</ele>
        <time>2023-05-21T08:49:06Z</time>
      </trkpt>
      <trkpt lat="49.1388" lon="2.1266">
        <ele>133.2</ele>
        <time>2023-05-21T08:49:12Z</time>
      </trkpt>
      <trkpt lat="49.1388" lon="2.12672">
        <ele>133.1</ele>
        <time>2023-05-21T08:49:17Z</time>
      </trkpt>
      <trkpt lat="49.1388" lon="2.12683">
        <ele>133.2</ele>
        <time>2023-05-21T08:49:23Z</time>
      </trkpt>
      <trkpt lat="49.1388" lon="2.12696">
        <ele>133.5</ele>
        <time>2023-05-21T08:49:29Z</time>
      </trkpt>
      <trkpt lat="49.13882" lon="2.12708">
        <ele>133.8</ele>
        <time>2023-05-21T08:49:35Z</time>
      </trkpt>
      <trkpt lat="49.13881" lon="2.12717">
        <ele>133.9</ele>
        <time>2023-05-21T08:49:40Z</time>
      </trkpt>
      <trkpt lat="49.1388" lon="2.12726">
        <ele>133.8</ele>
        <time>2023-05-21T08:49:46Z</time>
      </trkpt>
      <trkpt lat="49.13879" lon="2.12735">
        <ele>133.6</ele>
        <time>2023-05-21T08:49:51Z</time>
      </trkpt>
      <trkpt lat="49.13878" lon="2.12749">
        <ele>133.6</ele>
        <time>2023-05-21T08:49:57Z</time>
      </trkpt>
      <trkpt lat="49.13877" lon="2.12761">
        <ele>133.4</ele>
        <time>2023-05-21T08:50:03Z</time>
      </trkpt>
      <trkpt lat="49.13877" lon="2.12771">
        <ele>133.3</ele>
        <time>2023-05-21T08:50:09Z</time>
      </trkpt>
      <trkpt lat="49.13875" lon="2.12783">
        <ele>133.1</ele>
        <time>2023-05-21T08:50:15Z</time>
      </trkpt>
      <trkpt lat="49.13876" lon="2.12794">
        <ele>132.8</ele>
        <time>2023-05-21T08:50:21Z</time>
      </trkpt>
      <trkpt lat="49.13875" lon="2.12807">
        <ele>132.7</ele>
        <time>2023-05-21T08:50:27Z</time>
      </trkpt>
      <trkpt lat="49.13873" lon="2.12817">
        <ele>132.6</ele>
        <time>2023-05-21T08:50:32Z</time>
      </trkpt>
      <trkpt lat="49.13871" lon="2.12827">
        <ele>132.5</ele>
        <time>2023-05-21T08:50:38Z</time>
      </trkpt>
      <trkpt lat="49.13871" lon="2.12831">
        <ele>132.4</ele>
        <time>2023-05-21T08:50:44Z</time>
      </trkpt>
      <trkpt lat="49.1387" lon="2.12835">
        <ele>132.2</ele>
        <time>2023-05-21T08:50:49Z</time>
      </trkpt>
      <trkpt lat="49.13869" lon="2.12843">
        <ele>132</ele>
        <time>2023-05-21T08:50:54Z</time>
      </trkpt>
      <trkpt lat="49.13868" lon="2.12854">
        <ele>132</ele>
        <time>2023-05-21T08:51:00Z</time>
      </trkpt>
      <trkpt lat="49.13866" lon="2.12864">
        <ele>131.7</ele>
        <time>2023-05-21T08:51:06Z</time>
      </trkpt>
      <trkpt lat="49.13864" lon="2.12874">
        <ele>131.5</ele>
        <time>2023-05-21T08:51:11Z</time>
      </trkpt>
      <trkpt lat="49.13863" lon="2.12883">
        <ele>131.3</ele>
        <time>2023-05-21T08:51:16Z</time>
      </trkpt>
      <trkpt lat="49.13862" lon="2.12893">
        <ele>131.2</ele>
        <time>2023-05-21T08:51:22Z</time>
      </trkpt>
      <trkpt lat="49.1386" lon="2.12901">
        <ele>131</ele>
        <time>2023-05-21T08:51:27Z</time>
      </trkpt>
      <trkpt lat="49.1386" lon="2.12912">
        <ele>130.9</ele>
        <time>2023-05-21T08:51:33Z</time>
      </trkpt>
      <trkpt lat="49.13859" lon="2.12921">
        <ele>130.6</ele>
        <time>2023-05-21T08:51:38Z</time>
      </trkpt>
      <trkpt lat="49.13859" lon="2.12932">
        <ele>130.2</ele>
        <time>2023-05-21T08:51:44Z</time>
      </trkpt>
      <trkpt lat="49.13858" lon="2.12943">
        <ele>130</ele>
        <time>2023-05-21T08:51:49Z</time>
      </trkpt>
      <trkpt lat="49.13858" lon="2.12954">
        <ele>129.6</ele>
        <time>2023-05-21T08:51:55Z</time>
      </trkpt>
      <trkpt lat="49.13858" lon="2.12965">
        <ele>129.4</ele>
        <time>2023-05-21T08:52:00Z</time>
      </trkpt>
      <trkpt lat="49.1386" lon="2.12977">
        <ele>129.1</ele>
        <time>2023-05-21T08:52:06Z</time>
      </trkpt>
      <trkpt lat="49.13861" lon="2.12988">
        <ele>128.7</ele>
        <time>2023-05-21T08:52:12Z</time>
      </trkpt>
      <trkpt lat="49.13861" lon="2.12996">
        <ele>128.6</ele>
        <time>2023-05-21T08:52:17Z</time>
      </trkpt>
      <trkpt lat="49.13861" lon="2.13006">
        <ele>128.6</ele>
        <time>2023-05-21T08:52:22Z</time>
      </trkpt>
      <trkpt lat="49.13861" lon="2.1302">
        <ele>128.7</ele>
        <time>2023-05-21T08:52:28Z</time>
      </trkpt>
      <trkpt lat="49.13862" lon="2.13028">
        <ele>128.7</ele>
        <time>2023-05-21T08:52:33Z</time>
      </trkpt>
      <trkpt lat="49.13863" lon="2.1304">
        <ele>128.9</ele>
        <time>2023-05-21T08:52:39Z</time>
      </trkpt>
      <trkpt lat="49.13864" lon="2.13051">
        <ele>128.8</ele>
        <time>2023-05-21T08:52:44Z</time>
      </trkpt>
      <trkpt lat="49.13864" lon="2.1306">
        <ele>128.7</ele>
        <time>2023-05-21T08:52:50Z</time>
      </trkpt>
      <trkpt lat="49.13866" lon="2.13071">
        <ele>128.6</ele>
        <time>2023-05-21T08:52:56Z</time>
      </trkpt>
      <trkpt lat="49.13867" lon="2.13085">
        <ele>128.6</ele>
        <time>2023-05-21T08:53:02Z</time>
      </trkpt>
      <trkpt lat="49.13869" lon="2.13097">
        <ele>128.6</ele>
        <time>2023-05-21T08:53:08Z</time>
      </trkpt>
      <trkpt lat="49.1387" lon="2.13109">
        <ele>128.5</ele>
        <time>2023-05-21T08:53:14Z</time>
      </trkpt>
      <trkpt lat="49.13869" lon="2.1312">
        <ele>128.1</ele>
        <time>2023-05-21T08:53:19Z</time>
      </trkpt>
      <trkpt lat="49.1387" lon="2.13126">
        <ele>128</ele>
        <time>2023-05-21T08:53:24Z</time>
      </trkpt>
      <trkpt lat="49.13871" lon="2.13139">
        <ele>127.7</ele>
        <time>2023-05-21T08:53:30Z</time>
      </trkpt>
      <trkpt lat="49.13874" lon="2.13151">
        <ele>127.4</ele>
        <time>2023-05-21T08:53:35Z</time>
      </trkpt>
      <trkpt lat="49.13876" lon="2.13162">
        <ele>127.3</ele>
        <time>2023-05-21T08:53:41Z</time>
      </trkpt>
      <trkpt lat="49.13879" lon="2.13172">
        <ele>127.3</ele>
        <time>2023-05-21T08:53:46Z</time>
      </trkpt>
      <trkpt lat="49.13883" lon="2.1318">
        <ele>127.4</ele>
        <time>2023-05-21T08:53:51Z</time>
      </trkpt>
      <trkpt lat="49.13887" lon="2.13192">
        <ele>127.7</ele>
        <time>2023-05-21T08:53:57Z</time>
      </trkpt>
      <trkpt lat="49.13893" lon="2.13202">
        <ele>128.1</ele>
        <time>2023-05-21T08:54:03Z</time>
      </trkpt>
      <trkpt lat="49.13897" lon="2.13209">
        <ele>128.5</ele>
        <time>2023-05-21T08:54:08Z</time>
      </trkpt>
      <trkpt lat="49.13901" lon="2.13218">
        <ele>128.9</ele>
        <time>2023-05-21T08:54:14Z</time>
      </trkpt>
      <trkpt lat="49.13907" lon="2.13228">
        <ele>129.2</ele>
        <time>2023-05-21T08:54:20Z</time>
      </trkpt>
      <trkpt lat="49.13911" lon="2.13236">
        <ele>129.4</ele>
        <time>2023-05-21T08:54:25Z</time>
      </trkpt>
      <trkpt lat="49.13916" lon="2.13243">
        <ele>129.6</ele>
        <time>2023-05-21T08:54:31Z</time>
      </trkpt>
      <trkpt lat="49.13921" lon="2.1325">
        <ele>129.8</ele>
        <time>2023-05-21T08:54:37Z</time>
      </trkpt>
      <trkpt lat="49.13924" lon="2.13261">
        <ele>129.9</ele>
        <time>2023-05-21T08:54:43Z</time>
      </trkpt>
      <trkpt lat="49.13929" lon="2.13269">
        <ele>130.1</ele>
        <time>2023-05-21T08:54:48Z</time>
      </trkpt>
      <trkpt lat="49.13933" lon="2.13277">
        <ele>130.2</ele>
        <time>2023-05-21T08:54:53Z</time>
      </trkpt>
      <trkpt lat="49.13937" lon="2.13287">
        <ele>130.3</ele>
        <time>2023-05-21T08:54:59Z</time>
      </trkpt>
      <trkpt lat="49.13943" lon="2.133">
        <ele>130.5</ele>
        <time>2023-05-21T08:55:05Z</time>
      </trkpt>
      <trkpt lat="49.13948" lon="2.13308">
        <ele>130.7</ele>
        <time>2023-05-21T08:55:11Z</time>
      </trkpt>
      <trkpt lat="49.13953" lon="2.13314">
        <ele>130.6</ele>
        <time>2023-05-21T08:55:17Z</time>
      </trkpt>
      <trkpt lat="49.13958" lon="2.13325">
        <ele>130.4</ele>
        <time>2023-05-21T08:55:22Z</time>
      </trkpt>
      <trkpt lat="49.13964" lon="2.13332">
        <ele>130.3</ele>
        <time>2023-05-21T08:55:28Z</time>
      </trkpt>
      <trkpt lat="49.1397" lon="2.13344">
        <ele>130.2</ele>
        <time>2023-05-21T08:55:34Z</time>
      </trkpt>
      <trkpt lat="49.13971" lon="2.13356">
        <ele>130.2</ele>
        <time>2023-05-21T08:55:39Z</time>
      </trkpt>
      <trkpt lat="49.13972" lon="2.13369">
        <ele>130.3</ele>
        <time>2023-05-21T08:55:45Z</time>
      </trkpt>
      <trkpt lat="49.13971" lon="2.1338">
        <ele>130.1</ele>
        <time>2023-05-21T08:55:50Z</time>
      </trkpt>
      <trkpt lat="49.13973" lon="2.1339">
        <ele>129.8</ele>
        <time>2023-05-21T08:55:55Z</time>
      </trkpt>
      <trkpt lat="49.13972" lon="2.13404">
        <ele>129.1</ele>
        <time>2023-05-21T08:56:01Z</time>
      </trkpt>
      <trkpt lat="49.1397" lon="2.13413">
        <ele>128.5</ele>
        <time>2023-05-21T08:56:06Z</time>
      </trkpt>
      <trkpt lat="49.13971" lon="2.13421">
        <ele>128</ele>
        <time>2023-05-21T08:56:11Z</time>
      </trkpt>
      <trkpt lat="49.1397" lon="2.13434">
        <ele>127.6</ele>
        <time>2023-05-21T08:56:17Z</time>
      </trkpt>
      <trkpt lat="49.13969" lon="2.13448">
        <ele>127.3</ele>
        <time>2023-05-21T08:56:23Z</time>
      </trkpt>
      <trkpt lat="49.13968" lon="2.13458">
        <ele>127.1</ele>
        <time>2023-05-21T08:56:28Z</time>
      </trkpt>
      <trkpt lat="49.13966" lon="2.13467">
        <ele>126.8</ele>
        <time>2023-05-21T08:56:33Z</time>
      </trkpt>
      <trkpt lat="49.13964" lon="2.13482">
        <ele>126.5</ele>
        <time>2023-05-21T08:56:39Z</time>
      </trkpt>
      <trkpt lat="49.13961" lon="2.13492">
        <ele>126.4</ele>
        <time>2023-05-21T08:56:45Z</time>
      </trkpt>
      <trkpt lat="49.13959" lon="2.13502">
        <ele>126.1</ele>
        <time>2023-05-21T08:56:50Z</time>
      </trkpt>
      <trkpt lat="49.13958" lon="2.13515">
        <ele>125.6</ele>
        <time>2023-05-21T08:56:56Z</time>
      </trkpt>
      <trkpt lat="49.13955" lon="2.13529">
        <ele>125.3</ele>
        <time>2023-05-21T08:57:01Z</time>
      </trkpt>
      <trkpt lat="49.13953" lon="2.13542">
        <ele>125</ele>
        <time>2023-05-21T08:57:07Z</time>
      </trkpt>
      <trkpt lat="49.13952" lon="2.13552">
        <ele>124.8</ele>
        <time>2023-05-21T08:57:12Z</time>
      </trkpt>
      <trkpt lat="49.13951" lon="2.13565">
        <ele>124.3</ele>
        <time>2023-05-21T08:57:18Z</time>
      </trkpt>
      <trkpt lat="49.13949" lon="2.13579">
        <ele>123.9</ele>
        <time>2023-05-21T08:57:24Z</time>
      </trkpt>
      <trkpt lat="49.13949" lon="2.1359">
        <ele>123.6</ele>
        <time>2023-05-21T08:57:30Z</time>
      </trkpt>
      <trkpt lat="49.13949" lon="2.13598">
        <ele>123.3</ele>
        <time>2023-05-21T08:57:35Z</time>
      </trkpt>
      <trkpt lat="49.13947" lon="2.13609">
        <ele>122.5</ele>
        <time>2023-05-21T08:57:41Z</time>
      </trkpt>
      <trkpt lat="49.13946" lon="2.13619">
        <ele>121.7</ele>
        <time>2023-05-21T08:57:47Z</time>
      </trkpt>
      <trkpt lat="49.13946" lon="2.13631">
        <ele>121</ele>
        <time>2023-05-21T08:57:52Z</time>
      </trkpt>
      <trkpt lat="49.13945" lon="2.13644">
        <ele>120.5</ele>
        <time>2023-05-21T08:57:58Z</time>
      </trkpt>
      <trkpt lat="49.13944" lon="2.13656">
        <ele>120.1</ele>
        <time>2023-05-21T08:58:04Z</time>
      </trkpt>
      <trkpt lat="49.13943" lon="2.1367">
        <ele>119.8</ele>
        <time>2023-05-21T08:58:10Z</time>
      </trkpt>
      <trkpt lat="49.13942" lon="2.1368">
        <ele>119.5</ele>
        <time>2023-05-21T08:58:15Z</time>
      </trkpt>
      <trkpt lat="49.13941" lon="2.1369">
        <ele>119.3</ele>
        <time>2023-05-21T08:58:21Z</time>
      </trkpt>
      <trkpt lat="49.1394" lon="2.13699">
        <ele>119</ele>
        <time>2023-05-21T08:58:26Z</time>
      </trkpt>
      <trkpt lat="49.13937" lon="2.13712">
        <ele>118.7</ele>
        <time>2023-05-21T08:58:32Z</time>
      </trkpt>
      <trkpt lat="49.13935" lon="2.1372">
        <ele>118.4</ele>
        <time>2023-05-21T08:58:37Z</time>
      </trkpt>
      <trkpt lat="49.13933" lon="2.13731">
        <ele>118</ele>
        <time>2023-05-21T08:58:42Z</time>
      </trkpt>
      <trkpt lat="49.13933" lon="2.13744">
        <ele>117.7</ele>
        <time>2023-05-21T08:58:48Z</time>
      </trkpt>
      <trkpt lat="49.13932" lon="2.13758">
        <ele>117.5</ele>
        <time>2023-05-21T08:58:53Z</time>
      </trkpt>
      <trkpt lat="49.13931" lon="2.13767">
        <ele>117.5</ele>
        <time>2023-05-21T08:58:58Z</time>
      </trkpt>
      <trkpt lat="49.13931" lon="2.13781">
        <ele>117.4</ele>
        <time>2023-05-21T08:59:04Z</time>
      </trkpt>
      <trkpt lat="49.1393" lon="2.13793">
        <ele>117.3</ele>
        <time>2023-05-21T08:59:09Z</time>
      </trkpt>
      <trkpt lat="49.13927" lon="2.13805">
        <ele>117.2</ele>
        <time>2023-05-21T08:59:15Z</time>
      </trkpt>
      <trkpt lat="49.13926" lon="2.13816">
        <ele>117.2</ele>
        <time>2023-05-21T08:59:21Z</time>
      </trkpt>
      <trkpt lat="49.13929" lon="2.13814">
        <ele>117</ele>
        <time>2023-05-21T08:59:26Z</time>
      </trkpt>
      <trkpt lat="49.1393" lon="2.13812">
        <ele>116.8</ele>
        <time>2023-05-21T08:59:32Z</time>
      </trkpt>
      <trkpt lat="49.13929" lon="2.1381">
        <ele>116.7</ele>
        <time>2023-05-21T08:59:37Z</time>
      </trkpt>
      <trkpt lat="49.13928" lon="2.1382">
        <ele>116.1</ele>
        <time>2023-05-21T08:59:43Z</time>
      </trkpt>
      <trkpt lat="49.13927" lon="2.13828">
        <ele>115.5</ele>
        <time>2023-05-21T08:59:48Z</time>
      </trkpt>
      <trkpt lat="49.13925" lon="2.13841">
        <ele>114.9</ele>
        <time>2023-05-21T08:59:54Z</time>
      </trkpt>
      <trkpt lat="49.13925" lon="2.1385">
        <ele>114.5</ele>
        <time>2023-05-21T08:59:59Z</time>
      </trkpt>
      <trkpt lat="49.13921" lon="2.13862">
        <ele>114.1</ele>
        <time>2023-05-21T09:00:05Z</time>
      </trkpt>
      <trkpt lat="49.13921" lon="2.13875">
        <ele>113.7</ele>
        <time>2023-05-21T09:00:11Z</time>
      </trkpt>
      <trkpt lat="49.13921" lon="2.13885">
        <ele>113.5</ele>
        <time>2023-05-21T09:00:16Z</time>
      </trkpt>
      <trkpt lat="49.13918" lon="2.13896">
        <ele>113.4</ele>
        <time>2023-05-21T09:00:21Z</time>
      </trkpt>
      <trkpt lat="49.13919" lon="2.1391">
        <ele>113.3</ele>
        <time>2023-05-21T09:00:27Z</time>
      </trkpt>
      <trkpt lat="49.13917" lon="2.13922">
        <ele>113.6</ele>
        <time>2023-05-21T09:00:32Z</time>
      </trkpt>
      <trkpt lat="49.13914" lon="2.13935">
        <ele>114</ele>
        <time>2023-05-21T09:00:38Z</time>
      </trkpt>
      <trkpt lat="49.13916" lon="2.13947">
        <ele>114.3</ele>
        <time>2023-05-21T09:00:44Z</time>
      </trkpt>
      <trkpt lat="49.13915" lon="2.13959">
        <ele>114.3</ele>
        <time>2023-05-21T09:00:49Z</time>
      </trkpt>
      <trkpt lat="49.13917" lon="2.13972">
        <ele>114.1</ele>
        <time>2023-05-21T09:00:55Z</time>
      </trkpt>
      <trkpt lat="49.13919" lon="2.13979">
        <ele>113.9</ele>
        <time>2023-05-21T09:01:00Z</time>
      </trkpt>
      <trkpt lat="49.13919" lon="2.13991">
        <ele>113.6</ele>
        <time>2023-05-21T09:01:06Z</time>
      </trkpt>
      <trkpt lat="49.13916" lon="2.14002">
        <ele>113.5</ele>
        <time>2023-05-21T09:01:11Z</time>
      </trkpt>
      <trkpt lat="49.13914" lon="2.1401">
        <ele>113.4</ele>
        <time>2023-05-21T09:01:16Z</time>
      </trkpt>
      <trkpt lat="49.13913" lon="2.1402">
        <ele>113.4</ele>
        <time>2023-05-21T09:01:22Z</time>
      </trkpt>
      <trkpt lat="49.13907" lon="2.14022">
        <ele>113.6</ele>
        <time>2023-05-21T09:01:28Z</time>
      </trkpt>
      <trkpt lat="49.13899" lon="2.14018">
        <ele>113.4</ele>
        <time>2023-05-21T09:01:34Z</time>
      </trkpt>
      <trkpt lat="49.13892" lon="2.14015">
        <ele>112.7</ele>
        <time>2023-05-21T09:01:40Z</time>
      </trkpt>
      <trkpt lat="49.13886" lon="2.14014">
        <ele>111.7</ele>
        <time>2023-05-21T09:01:45Z</time>
      </trkpt>
      <trkpt lat="49.13878" lon="2.14012">
        <ele>110.5</ele>
        <time>2023-05-21T09:01:51Z</time>
      </trkpt>
      <trkpt lat="49.13871" lon="2.14012">
        <ele>109.2</ele>
        <time>2023-05-21T09:01:57Z</time>
      </trkpt>
      <trkpt lat="49.13863" lon="2.14012">
        <ele>108</ele>
        <time>2023-05-21T09:02:03Z</time>
      </trkpt>
      <trkpt lat="49.13855" lon="2.14013">
        <ele>106.8</ele>
        <time>2023-05-21T09:02:09Z</time>
      </trkpt>
      <trkpt lat="49.1385" lon="2.14014">
        <ele>105.8</ele>
        <time>2023-05-21T09:02:14Z</time>
      </trkpt>
      <trkpt lat="49.13842" lon="2.14015">
        <ele>104.7</ele>
        <time>2023-05-21T09:02:20Z</time>
      </trkpt>
      <trkpt lat="49.13832" lon="2.14017">
        <ele>103.6</ele>
        <time>2023-05-21T09:02:26Z</time>
      </trkpt>
      <trkpt lat="49.13825" lon="2.14019">
        <ele>102.7</ele>
        <time>2023-05-21T09:02:32Z</time>
      </trkpt>
      <trkpt lat="49.13818" lon="2.1402">
        <ele>102</ele>
        <time>2023-05-21T09:02:37Z</time>
      </trkpt>
      <trkpt lat="49.13813" lon="2.1402">
        <ele>101.2</ele>
        <time>2023-05-21T09:02:42Z</time>
      </trkpt>
      <trkpt lat="49.13804" lon="2.14019">
        <ele>100</ele>
        <time>2023-05-21T09:02:48Z</time>
      </trkpt>
      <trkpt lat="49.13797" lon="2.14019">
        <ele>98.9</ele>
        <time>2023-05-21T09:02:54Z</time>
      </trkpt>
      <trkpt lat="49.13791" lon="2.14018">
        <ele>97.9</ele>
        <time>2023-05-21T09:03:00Z</time>
      </trkpt>
      <trkpt lat="49.13784" lon="2.14019">
        <ele>97</ele>
        <time>2023-05-21T09:03:05Z</time>
      </trkpt>
      <trkpt lat="49.13776" lon="2.14021">
        <ele>95.9</ele>
        <time>2023-05-21T09:03:11Z</time>
      </trkpt>
      <trkpt lat="49.13769" lon="2.14025">
        <ele>95.5</ele>
        <time>2023-05-21T09:03:16Z</time>
      </trkpt>
      <trkpt lat="49.1376" lon="2.14033">
        <ele>95.6</ele>
        <time>2023-05-21T09:03:22Z</time>
      </trkpt>
      <trkpt lat="49.13756" lon="2.14046">
        <ele>96.1</ele>
        <time>2023-05-21T09:03:28Z</time>
      </trkpt>
      <trkpt lat="49.13755" lon="2.14056">
        <ele>96.6</ele>
        <time>2023-05-21T09:03:33Z</time>
      </trkpt>
      <trkpt lat="49.13755" lon="2.14066">
        <ele>97</ele>
        <time>2023-05-21T09:03:38Z</time>
      </trkpt>
      <trkpt lat="49.13756" lon="2.1408">
        <ele>97.3</ele>
        <time>2023-05-21T09:03:44Z</time>
      </trkpt>
      <trkpt lat="49.13759" lon="2.1409">
        <ele>97.5</ele>
        <time>2023-05-21T09:03:50Z</time>
      </trkpt>
      <trkpt lat="49.13763" lon="2.14102">
        <ele>97.7</ele>
        <time>2023-05-21T09:03:56Z</time>
      </trkpt>
      <trkpt lat="49.13767" lon="2.1411">
        <ele>97.6</ele>
        <time>2023-05-21T09:04:02Z</time>
      </trkpt>
      <trkpt lat="49.13769" lon="2.14121">
        <ele>97.5</ele>
        <time>2023-05-21T09:04:07Z</time>
      </trkpt>
      <trkpt lat="49.13772" lon="2.14132">
        <ele>97.1</ele>
        <time>2023-05-21T09:04:13Z</time>
      </trkpt>
      <trkpt lat="49.13773" lon="2.1414">
        <ele>96.8</ele>
        <time>2023-05-21T09:04:18Z</time>
      </trkpt>
      <trkpt lat="49.13777" lon="2.14152">
        <ele>96.3</ele>
        <time>2023-05-21T09:04:24Z</time>
      </trkpt>
      <trkpt lat="49.13777" lon="2.14166">
        <ele>95.9</ele>
        <time>2023-05-21T09:04:30Z</time>
      </trkpt>
      <trkpt lat="49.13777" lon="2.14176">
        <ele>95.7</ele>
        <time>2023-05-21T09:04:35Z</time>
      </trkpt>
      <trkpt lat="49.13779" lon="2.1419">
        <ele>95.6</ele>
        <time>2023-05-21T09:04:41Z</time>
      </trkpt>
      <trkpt lat="49.13775" lon="2.14205">
        <ele>95.6</ele>
        <time>2023-05-21T09:04:47Z</time>
      </trkpt>
      <trkpt lat="49.13773" lon="2.14212">
        <ele>95.2</ele>
        <time>2023-05-21T09:04:53Z</time>
      </trkpt>
      <trkpt lat="49.13774" lon="2.14222">
        <ele>94.5</ele>
        <time>2023-05-21T09:04:58Z</time>
      </trkpt>
      <trkpt lat="49.13774" lon="2.14232">
        <ele>93.4</ele>
        <time>2023-05-21T09:05:04Z</time>
      </trkpt>
      <trkpt lat="49.13774" lon="2.14243">
        <ele>92.3</ele>
        <time>2023-05-21T09:05:10Z</time>
      </trkpt>
      <trkpt lat="49.13773" lon="2.14254">
        <ele>91.3</ele>
        <time>2023-05-21T09:05:15Z</time>
      </trkpt>
      <trkpt lat="49.13774" lon="2.14267">
        <ele>90.4</ele>
        <time>2023-05-21T09:05:21Z</time>
      </trkpt>
      <trkpt lat="49.13776" lon="2.14274">
        <ele>89.6</ele>
        <time>2023-05-21T09:05:26Z</time>
      </trkpt>
      <trkpt lat="49.13775" lon="2.14287">
        <ele>88.7</ele>
        <time>2023-05-21T09:05:32Z</time>
      </trkpt>
      <trkpt lat="49.13774" lon="2.14299">
        <ele>88.1</ele>
        <time>2023-05-21T09:05:38Z</time>
      </trkpt>
      <trkpt lat="49.13773" lon="2.14312">
        <ele>88</ele>
        <time>2023-05-21T09:05:44Z</time>
      </trkpt>
      <trkpt lat="49.13769" lon="2.14323">
        <ele>88.3</ele>
        <time>2023-05-21T09:05:49Z</time>
      </trkpt>
      <trkpt lat="49.13761" lon="2.14331">
        <ele>88.8</ele>
        <time>2023-05-21T09:05:55Z</time>
      </trkpt>
      <trkpt lat="49.13755" lon="2.14336">
        <ele>89.4</ele>
        <time>2023-05-21T09:06:01Z</time>
      </trkpt>
      <trkpt lat="49.13746" lon="2.14341">
        <ele>89.8</ele>
        <time>2023-05-21T09:06:07Z</time>
      </trkpt>
      <trkpt lat="49.13739" lon="2.14344">
        <ele>90.1</ele>
        <time>2023-05-21T09:06:12Z</time>
      </trkpt>
      <trkpt lat="49.13733" lon="2.14349">
        <ele>90.2</ele>
        <time>2023-05-21T09:06:18Z</time>
      </trkpt>
      <trkpt lat="49.13725" lon="2.14353">
        <ele>90.3</ele>
        <time>2023-05-21T09:06:24Z</time>
      </trkpt>
      <trkpt lat="49.13718" lon="2.14358">
        <ele>90.3</ele>
        <time>2023-05-21T09:06:29Z</time>
      </trkpt>
      <trkpt lat="49.13712" lon="2.14361">
        <ele>90.5</ele>
        <time>2023-05-21T09:06:34Z</time>
      </trkpt>
      <trkpt lat="49.13705" lon="2.14366">
        <ele>90.5</ele>
        <time>2023-05-21T09:06:39Z</time>
      </trkpt>
      <trkpt lat="49.13697" lon="2.14371">
        <ele>90.8</ele>
        <time>2023-05-21T09:06:45Z</time>
      </trkpt>
      <trkpt lat="49.1369" lon="2.14376">
        <ele>91</ele>
        <time>2023-05-21T09:06:51Z</time>
      </trkpt>
      <trkpt lat="49.13685" lon="2.1438">
        <ele>91.2</ele>
        <time>2023-05-21T09:06:56Z</time>
      </trkpt>
      <trkpt lat="49.13686" lon="2.14394">
        <ele>91.3</ele>
        <time>2023-05-21T09:07:02Z</time>
      </trkpt>
      <trkpt lat="49.13688" lon="2.14403">
        <ele>91.5</ele>
        <time>2023-05-21T09:07:07Z</time>
      </trkpt>
      <trkpt lat="49.13693" lon="2.14414">
        <ele>91.7</ele>
        <time>2023-05-21T09:07:13Z</time>
      </trkpt>
      <trkpt lat="49.13696" lon="2.1442">
        <ele>91.9</ele>
        <time>2023-05-21T09:07:18Z</time>
      </trkpt>
      <trkpt lat="49.13695" lon="2.14428">
        <ele>92</ele>
        <time>2023-05-21T09:07:24Z</time>
      </trkpt>
      <trkpt lat="49.13692" lon="2.14434">
        <ele>91.9</ele>
        <time>2023-05-21T09:07:29Z</time>
      </trkpt>
      <trkpt lat="49.13685" lon="2.14439">
        <ele>91.8</ele>
        <time>2023-05-21T09:07:34Z</time>
      </trkpt>
      <trkpt lat="49.13678" lon="2.14446">
        <ele>91.8</ele>
        <time>2023-05-21T09:07:40Z</time>
      </trkpt>
      <trkpt lat="49.13672" lon="2.14453">
        <ele>92.2</ele>
        <time>2023-05-21T09:07:45Z</time>
      </trkpt>
      <trkpt lat="49.13665" lon="2.14462">
        <ele>93.4</ele>
        <time>2023-05-21T09:07:51Z</time>
      </trkpt>
      <trkpt lat="49.13659" lon="2.14466">
        <ele>94.5</ele>
        <time>2023-05-21T09:07:57Z</time>
      </trkpt>
      <trkpt lat="49.13656" lon="2.14468">
        <ele>95.6</ele>
        <time>2023-05-21T09:08:02Z</time>
      </trkpt>
      <trkpt lat="49.13655" lon="2.14469">
        <ele>95.8</ele>
        <time>2023-05-21T09:08:08Z</time>
      </trkpt>
      <trkpt lat="49.13657" lon="2.1447">
        <ele>95.7</ele>
        <time>2023-05-21T09:08:14Z</time>
      </trkpt>
      <trkpt lat="49.13656" lon="2.14469">
        <ele>95.7</ele>
        <time>2023-05-21T09:08:19Z</time>
      </trkpt>
      <trkpt lat="49.13656" lon="2.14469">
        <ele>95.7</ele>
        <time>2023-05-21T09:08:24Z</time>
      </trkpt>
      <trkpt lat="49.13653" lon="2.1447">
        <ele>96.1</ele>
        <time>2023-05-21T09:08:29Z</time>
      </trkpt>
      <trkpt lat="49.13647" lon="2.14469">
        <ele>96.8</ele>
        <time>2023-05-21T09:08:35Z</time>
      </trkpt>
      <trkpt lat="49.1364" lon="2.14469">
        <ele>97.2</ele>
        <time>2023-05-21T09:08:41Z</time>
      </trkpt>
      <trkpt lat="49.13633" lon="2.1447">
        <ele>97.5</ele>
        <time>2023-05-21T09:08:46Z</time>
      </trkpt>
      <trkpt lat="49.13633" lon="2.14479">
        <ele>97.7</ele>
        <time>2023-05-21T09:08:52Z</time>
      </trkpt>
      <trkpt lat="49.13635" lon="2.14487">
        <ele>97.8</ele>
        <time>2023-05-21T09:08:57Z</time>
      </trkpt>
      <trkpt lat="49.13635" lon="2.14492">
        <ele>98.2</ele>
        <time>2023-05-21T09:09:02Z</time>
      </trkpt>
      <trkpt lat="49.13636" lon="2.14495">
        <ele>98.2</ele>
        <time>2023-05-21T09:09:08Z</time>
      </trkpt>
      <trkpt lat="49.13636" lon="2.14496">
        <ele>98.2</ele>
        <time>2023-05-21T09:09:13Z</time>
      </trkpt>
      <trkpt lat="49.13636" lon="2.14496">
        <ele>98.1</ele>
        <time>2023-05-21T09:09:19Z</time>
      </trkpt>
      <trkpt lat="49.13636" lon="2.14496">
        <ele>97.8</ele>
        <time>2023-05-21T09:09:24Z</time>
      </trkpt>
      <trkpt lat="49.13634" lon="2.14495">
        <ele>97.7</ele>
        <time>2023-05-21T09:09:29Z</time>
      </trkpt>
      <trkpt lat="49.13633" lon="2.14496">
        <ele>97</ele>
        <time>2023-05-21T09:09:35Z</time>
      </trkpt>
      <trkpt lat="49.13632" lon="2.14502">
        <ele>96.3</ele>
        <time>2023-05-21T09:09:41Z</time>
      </trkpt>
      <trkpt lat="49.13633" lon="2.1451">
        <ele>96.5</ele>
        <time>2023-05-21T09:09:47Z</time>
      </trkpt>
      <trkpt lat="49.13634" lon="2.14519">
        <ele>97.1</ele>
        <time>2023-05-21T09:09:52Z</time>
      </trkpt>
      <trkpt lat="49.13634" lon="2.14529">
        <ele>97.9</ele>
        <time>2023-05-21T09:09:58Z</time>
      </trkpt>
      <trkpt lat="49.13633" lon="2.14534">
        <ele>98.6</ele>
        <time>2023-05-21T09:10:03Z</time>
      </trkpt>
      <trkpt lat="49.1363" lon="2.14533">
        <ele>99.4</ele>
        <time>2023-05-21T09:10:09Z</time>
      </trkpt>
      <trkpt lat="49.13623" lon="2.14528">
        <ele>99.8</ele>
        <time>2023-05-21T09:10:15Z</time>
      </trkpt>
      <trkpt lat="49.13618" lon="2.14526">
        <ele>99.9</ele>
        <time>2023-05-21T09:10:20Z</time>
      </trkpt>
      <trkpt lat="49.13618" lon="2.14524">
        <ele>99.9</ele>
        <time>2023-05-21T09:10:26Z</time>
      </trkpt>
      <trkpt lat="49.13622" lon="2.14527">
        <ele>100</ele>
        <time>2023-05-21T09:10:31Z</time>
      </trkpt>
      <trkpt lat="49.1363" lon="2.14531">
        <ele>100.5</ele>
        <time>2023-05-21T09:10:37Z</time>
      </trkpt>
      <trkpt lat="49.13634" lon="2.14532">
        <ele>101</ele>
        <time>2023-05-21T09:10:42Z</time>
      </trkpt>
      <trkpt lat="49.13641" lon="2.14529">
        <ele>101.7</ele>
        <time>2023-05-21T09:10:48Z</time>
      </trkpt>
      <trkpt lat="49.13646" lon="2.14529">
        <ele>102</ele>
        <time>2023-05-21T09:10:53Z</time>
      </trkpt>
      <trkpt lat="49.13647" lon="2.14534">
        <ele>102.3</ele>
        <time>2023-05-21T09:10:59Z</time>
      </trkpt>
      <trkpt lat="49.1364" lon="2.14541">
        <ele>102</ele>
        <time>2023-05-21T09:11:04Z</time>
      </trkpt>
      <trkpt lat="49.13633" lon="2.14545">
        <ele>101.6</ele>
        <time>2023-05-21T09:11:09Z</time>
      </trkpt>
      <trkpt lat="49.13627" lon="2.1455">
        <ele>101.1</ele>
        <time>2023-05-21T09:11:14Z</time>
      </trkpt>
      <trkpt lat="49.13621" lon="2.14554">
        <ele>100.8</ele>
        <time>2023-05-21T09:11:20Z</time>
      </trkpt>
      <trkpt lat="49.13615" lon="2.14555">
        <ele>100.8</ele>
        <time>2023-05-21T09:11:25Z</time>
      </trkpt>
      <trkpt lat="49.13608" lon="2.14559">
        <ele>100.9</ele>
        <time>2023-05-21T09:11:30Z</time>
      </trkpt>
      <trkpt lat="49.13603" lon="2.14563">
        <ele>101</ele>
        <time>2023-05-21T09:11:35Z</time>
      </trkpt>
      <trkpt lat="49.13596" lon="2.14567">
        <ele>101</ele>
        <time>2023-05-21T09:11:41Z</time>
      </trkpt>
      <trkpt lat="49.13589" lon="2.14572">
        <ele>100.9</ele>
        <time>2023-05-21T09:11:47Z</time>
      </trkpt>
      <trkpt lat="49.13584" lon="2.14577">
        <ele>100.8</ele>
        <time>2023-05-21T09:11:52Z</time>
      </trkpt>
      <trkpt lat="49.13579" lon="2.14584">
        <ele>100.5</ele>
        <time>2023-05-21T09:11:58Z</time>
      </trkpt>
      <trkpt lat="49.13573" lon="2.14588">
        <ele>100.2</ele>
        <time>2023-05-21T09:12:03Z</time>
      </trkpt>
      <trkpt lat="49.13568" lon="2.14594">
        <ele>99.8</ele>
        <time>2023-05-21T09:12:09Z</time>
      </trkpt>
      <trkpt lat="49.13568" lon="2.14597">
        <ele>99.4</ele>
        <time>2023-05-21T09:12:14Z</time>
      </trkpt>
      <trkpt lat="49.1357" lon="2.14603">
        <ele>99.4</ele>
        <time>2023-05-21T09:12:20Z</time>
      </trkpt>
      <trkpt lat="49.13572" lon="2.14609">
        <ele>99.6</ele>
        <time>2023-05-21T09:12:25Z</time>
      </trkpt>
      <trkpt lat="49.13576" lon="2.14618">
        <ele>100.4</ele>
        <time>2023-05-21T09:12:31Z</time>
      </trkpt>
      <trkpt lat="49.13578" lon="2.14627">
        <ele>101.3</ele>
        <time>2023-05-21T09:12:36Z</time>
      </trkpt>
      <trkpt lat="49.13584" lon="2.14634">
        <ele>102.3</ele>
        <time>2023-05-21T09:12:42Z</time>
      </trkpt>
      <trkpt lat="49.13586" lon="2.14641">
        <ele>102.8</ele>
        <time>2023-05-21T09:12:47Z</time>
      </trkpt>
      <trkpt lat="49.13589" lon="2.1465">
        <ele>103</ele>
        <time>2023-05-21T09:12:53Z</time>
      </trkpt>
      <trkpt lat="49.13595" lon="2.14652">
        <ele>102.9</ele>
        <time>2023-05-21T09:12:59Z</time>
      </trkpt>
      <trkpt lat="49.136" lon="2.14653">
        <ele>102.8</ele>
        <time>2023-05-21T09:13:04Z</time>
      </trkpt>
      <trkpt lat="49.13605" lon="2.14651">
        <ele>102.6</ele>
        <time>2023-05-21T09:13:09Z</time>
      </trkpt>
      <trkpt lat="49.13611" lon="2.14658">
        <ele>102.4</ele>
        <time>2023-05-21T09:13:15Z</time>
      </trkpt>
      <trkpt lat="49.13615" lon="2.14664">
        <ele>101.7</ele>
        <time>2023-05-21T09:13:20Z</time>
      </trkpt>
      <trkpt lat="49.13618" lon="2.14675">
        <ele>100.7</ele>
        <time>2023-05-21T09:13:26Z</time>
      </trkpt>
      <trkpt lat="49.13621" lon="2.14683">
        <ele>99.7</ele>
        <time>2023-05-21T09:13:31Z</time>
      </trkpt>
      <trkpt lat="49.13625" lon="2.14698">
        <ele>98.4</ele>
        <time>2023-05-21T09:13:37Z</time>
      </trkpt>
      <trkpt lat="49.13628" lon="2.14708">
        <ele>97.6</ele>
        <time>2023-05-21T09:13:42Z</time>
      </trkpt>
      <trkpt lat="49.1363" lon="2.14718">
        <ele>96.7</ele>
        <time>2023-05-21T09:13:48Z</time>
      </trkpt>
      <trkpt lat="49.13634" lon="2.14726">
        <ele>96.1</ele>
        <time>2023-05-21T09:13:53Z</time>
      </trkpt>
      <trkpt lat="49.13639" lon="2.14738">
        <ele>95.5</ele>
        <time>2023-05-21T09:13:59Z</time>
      </trkpt>
      <trkpt lat="49.13642" lon="2.14747">
        <ele>95.2</ele>
        <time>2023-05-21T09:14:04Z</time>
      </trkpt>
      <trkpt lat="49.13646" lon="2.14758">
        <ele>94.8</ele>
        <time>2023-05-21T09:14:10Z</time>
      </trkpt>
      <trkpt lat="49.13651" lon="2.14764">
        <ele>94.8</ele>
        <time>2023-05-21T09:14:15Z</time>
      </trkpt>
      <trkpt lat="49.1366" lon="2.14761">
        <ele>94.8</ele>
        <time>2023-05-21T09:14:21Z</time>
      </trkpt>
      <trkpt lat="49.13664" lon="2.14755">
        <ele>94.6</ele>
        <time>2023-05-21T09:14:26Z</time>
      </trkpt>
      <trkpt lat="49.13672" lon="2.14749">
        <ele>94.8</ele>
        <time>2023-05-21T09:14:32Z</time>
      </trkpt>
      <trkpt lat="49.13679" lon="2.14745">
        <ele>95</ele>
        <time>2023-05-21T09:14:37Z</time>
      </trkpt>
      <trkpt lat="49.13683" lon="2.14738">
        <ele>95.4</ele>
        <time>2023-05-21T09:14:43Z</time>
      </trkpt>
      <trkpt lat="49.13689" lon="2.14735">
        <ele>95.5</ele>
        <time>2023-05-21T09:14:48Z</time>
      </trkpt>
      <trkpt lat="49.13698" lon="2.1473">
        <ele>95.6</ele>
        <time>2023-05-21T09:14:54Z</time>
      </trkpt>
      <trkpt lat="49.13703" lon="2.14728">
        <ele>95.5</ele>
        <time>2023-05-21T09:14:59Z</time>
      </trkpt>
      <trkpt lat="49.13711" lon="2.14721">
        <ele>94.8</ele>
        <time>2023-05-21T09:15:05Z</time>
      </trkpt>
      <trkpt lat="49.13719" lon="2.14719">
        <ele>93.9</ele>
        <time>2023-05-21T09:15:10Z</time>
      </trkpt>
      <trkpt lat="49.13722" lon="2.14722">
        <ele>92.6</ele>
        <time>2023-05-21T09:15:16Z</time>
      </trkpt>
      <trkpt lat="49.13724" lon="2.14739">
        <ele>91.8</ele>
        <time>2023-05-21T09:15:22Z</time>
      </trkpt>
      <trkpt lat="49.13727" lon="2.1475">
        <ele>91.5</ele>
        <time>2023-05-21T09:15:27Z</time>
      </trkpt>
      <trkpt lat="49.13731" lon="2.14766">
        <ele>91.5</ele>
        <time>2023-05-21T09:15:33Z</time>
      </trkpt>
      <trkpt lat="49.13735" lon="2.14777">
        <ele>91.6</ele>
        <time>2023-05-21T09:15:39Z</time>
      </trkpt>
      <trkpt lat="49.13742" lon="2.14785">
        <ele>91.7</ele>
        <time>2023-05-21T09:15:45Z</time>
      </trkpt>
      <trkpt lat="49.13745" lon="2.14796">
        <ele>91.8</ele>
        <time>2023-05-21T09:15:51Z</time>
      </trkpt>
      <trkpt lat="49.13751" lon="2.14805">
        <ele>91.9</ele>
        <time>2023-05-21T09:15:57Z</time>
      </trkpt>
      <trkpt lat="49.13758" lon="2.14815">
        <ele>91.8</ele>
        <time>2023-05-21T09:16:03Z</time>
      </trkpt>
      <trkpt lat="49.13762" lon="2.14822">
        <ele>91.7</ele>
        <time>2023-05-21T09:16:08Z</time>
      </trkpt>
      <trkpt lat="49.13767" lon="2.14831">
        <ele>91.5</ele>
        <time>2023-05-21T09:16:14Z</time>
      </trkpt>
      <trkpt lat="49.1377" lon="2.14842">
        <ele>91.2</ele>
        <time>2023-05-21T09:16:19Z</time>
      </trkpt>
      <trkpt lat="49.13774" lon="2.14851">
        <ele>91</ele>
        <time>2023-05-21T09:16:25Z</time>
      </trkpt>
      <trkpt lat="49.13779" lon="2.14863">
        <ele>90.8</ele>
        <time>2023-05-21T09:16:31Z</time>
      </trkpt>
      <trkpt lat="49.13784" lon="2.14874">
        <ele>90.6</ele>
        <time>2023-05-21T09:16:37Z</time>
      </trkpt>
      <trkpt lat="49.13787" lon="2.14881">
        <ele>90.3</ele>
        <time>2023-05-21T09:16:42Z</time>
      </trkpt>
      <trkpt lat="49.13792" lon="2.14889">
        <ele>90</ele>
        <time>2023-05-21T09:16:47Z</time>
      </trkpt>
      <trkpt lat="49.13798" lon="2.14896">
        <ele>89.6</ele>
        <time>2023-05-21T09:16:53Z</time>
      </trkpt>
      <trkpt lat="49.13804" lon="2.14904">
        <ele>89.6</ele>
        <time>2023-05-21T09:16:59Z</time>
      </trkpt>
      <trkpt lat="49.1381" lon="2.14911">
        <ele>89.6</ele>
        <time>2023-05-21T09:17:04Z</time>
      </trkpt>
      <trkpt lat="49.13814" lon="2.14916">
        <ele>89.3</ele>
        <time>2023-05-21T09:17:10Z</time>
      </trkpt>
      <trkpt lat="49.13818" lon="2.14922">
        <ele>89</ele>
        <time>2023-05-21T09:17:16Z</time>
      </trkpt>
      <trkpt lat="49.13823" lon="2.14931">
        <ele>89</ele>
        <time>2023-05-21T09:17:21Z</time>
      </trkpt>
      <trkpt lat="49.13827" lon="2.14938">
        <ele>88.9</ele>
        <time>2023-05-21T09:17:26Z</time>
      </trkpt>
      <trkpt lat="49.13832" lon="2.14948">
        <ele>88.8</ele>
        <time>2023-05-21T09:17:32Z</time>
      </trkpt>
      <trkpt lat="49.13838" lon="2.14949">
        <ele>88.7</ele>
        <time>2023-05-21T09:17:37Z</time>
      </trkpt>
      <trkpt lat="49.13847" lon="2.1494">
        <ele>88.5</ele>
        <time>2023-05-21T09:17:42Z</time>
      </trkpt>
      <trkpt lat="49.13853" lon="2.14929">
        <ele>87.9</ele>
        <time>2023-05-21T09:17:48Z</time>
      </trkpt>
      <trkpt lat="49.13858" lon="2.1492">
        <ele>87.4</ele>
        <time>2023-05-21T09:17:53Z</time>
      </trkpt>
      <trkpt lat="49.13863" lon="2.14911">
        <ele>86.6</ele>
        <time>2023-05-21T09:17:59Z</time>
      </trkpt>
      <trkpt lat="49.1387" lon="2.14901">
        <ele>85.6</ele>
        <time>2023-05-21T09:18:05Z</time>
      </trkpt>
      <trkpt lat="49.13875" lon="2.14895">
        <ele>84.9</ele>
        <time>2023-05-21T09:18:10Z</time>
      </trkpt>
      <trkpt lat="49.13881" lon="2.14883">
        <ele>83.8</ele>
        <time>2023-05-21T09:18:17Z</time>
      </trkpt>
      <trkpt lat="49.13885" lon="2.14872">
        <ele>83.1</ele>
        <time>2023-05-21T09:18:23Z</time>
      </trkpt>
      <trkpt lat="49.13888" lon="2.14866">
        <ele>82.8</ele>
        <time>2023-05-21T09:18:29Z</time>
      </trkpt>
      <trkpt lat="49.13893" lon="2.1486">
        <ele>82.6</ele>
        <time>2023-05-21T09:18:34Z</time>
      </trkpt>
      <trkpt lat="49.13898" lon="2.14855">
        <ele>82.5</ele>
        <time>2023-05-21T09:18:40Z</time>
      </trkpt>
      <trkpt lat="49.13902" lon="2.14847">
        <ele>82.3</ele>
        <time>2023-05-21T09:18:45Z</time>
      </trkpt>
      <trkpt lat="49.13909" lon="2.1484">
        <ele>82</ele>
        <time>2023-05-21T09:18:51Z</time>
      </trkpt>
      <trkpt lat="49.13914" lon="2.14834">
        <ele>81.8</ele>
        <time>2023-05-21T09:18:56Z</time>
      </trkpt>
      <trkpt lat="49.1392" lon="2.14825">
        <ele>81.5</ele>
        <time>2023-05-21T09:19:02Z</time>
      </trkpt>
      <trkpt lat="49.13924" lon="2.14817">
        <ele>81.6</ele>
        <time>2023-05-21T09:19:07Z</time>
      </trkpt>
      <trkpt lat="49.13928" lon="2.14804">
        <ele>81.5</ele>
        <time>2023-05-21T09:19:13Z</time>
      </trkpt>
      <trkpt lat="49.1393" lon="2.14795">
        <ele>81.4</ele>
        <time>2023-05-21T09:19:18Z</time>
      </trkpt>
      <trkpt lat="49.13932" lon="2.14783">
        <ele>81.4</ele>
        <time>2023-05-21T09:19:24Z</time>
      </trkpt>
      <trkpt lat="49.13932" lon="2.14772">
        <ele>81.3</ele>
        <time>2023-05-21T09:19:30Z</time>
      </trkpt>
      <trkpt lat="49.13933" lon="2.14757">
        <ele>81.3</ele>
        <time>2023-05-21T09:19:36Z</time>
      </trkpt>
      <trkpt lat="49.13933" lon="2.14749">
        <ele>81.3</ele>
        <time>2023-05-21T09:19:41Z</time>
      </trkpt>
      <trkpt lat="49.13935" lon="2.14735">
        <ele>81.4</ele>
        <time>2023-05-21T09:19:47Z</time>
      </trkpt>
      <trkpt lat="49.13936" lon="2.14727">
        <ele>81.4</ele>
        <time>2023-05-21T09:19:52Z</time>
      </trkpt>
      <trkpt lat="49.13939" lon="2.14714">
        <ele>81.4</ele>
        <time>2023-05-21T09:19:58Z</time>
      </trkpt>
      <trkpt lat="49.13941" lon="2.14703">
        <ele>81.3</ele>
        <time>2023-05-21T09:20:04Z</time>
      </trkpt>
      <trkpt lat="49.13944" lon="2.14693">
        <ele>81.6</ele>
        <time>2023-05-21T09:20:10Z</time>
      </trkpt>
      <trkpt lat="49.13948" lon="2.14682">
        <ele>82</ele>
        <time>2023-05-21T09:20:16Z</time>
      </trkpt>
      <trkpt lat="49.13951" lon="2.14673">
        <ele>82.2</ele>
        <time>2023-05-21T09:20:22Z</time>
      </trkpt>
      <trkpt lat="49.13955" lon="2.1466">
        <ele>82.2</ele>
        <time>2023-05-21T09:20:28Z</time>
      </trkpt>
      <trkpt lat="49.13956" lon="2.14649">
        <ele>82.3</ele>
        <time>2023-05-21T09:20:33Z</time>
      </trkpt>
      <trkpt lat="49.13958" lon="2.14643">
        <ele>82.5</ele>
        <time>2023-05-21T09:20:38Z</time>
      </trkpt>
      <trkpt lat="49.13962" lon="2.14633">
        <ele>82.5</ele>
        <time>2023-05-21T09:20:44Z</time>
      </trkpt>
      <trkpt lat="49.13963" lon="2.14625">
        <ele>82.7</ele>
        <time>2023-05-21T09:20:49Z</time>
      </trkpt>
      <trkpt lat="49.13964" lon="2.14616">
        <ele>83</ele>
        <time>2023-05-21T09:20:54Z</time>
      </trkpt>
      <trkpt lat="49.13965" lon="2.14606">
        <ele>83.7</ele>
        <time>2023-05-21T09:20:59Z</time>
      </trkpt>
      <trkpt lat="49.13967" lon="2.14594">
        <ele>84.6</ele>
        <time>2023-05-21T09:21:05Z</time>
      </trkpt>
      <trkpt lat="49.13968" lon="2.14585">
        <ele>85</ele>
        <time>2023-05-21T09:21:11Z</time>
      </trkpt>
      <trkpt lat="49.13969" lon="2.14577">
        <ele>85</ele>
        <time>2023-05-21T09:21:16Z</time>
      </trkpt>
      <trkpt lat="49.13973" lon="2.14571">
        <ele>85.4</ele>
        <time>2023-05-21T09:21:22Z</time>
      </trkpt>
      <trkpt lat="49.13975" lon="2.1457">
        <ele>86.1</ele>
        <time>2023-05-21T09:21:27Z</time>
      </trkpt>
      <trkpt lat="49.1398" lon="2.14573">
        <ele>86.6</ele>
        <time>2023-05-21T09:21:32Z</time>
      </trkpt>
      <trkpt lat="49.13986" lon="2.1458">
        <ele>87.3</ele>
        <time>2023-05-21T09:21:38Z</time>
      </trkpt>
      <trkpt lat="49.13993" lon="2.14587">
        <ele>88.1</ele>
        <time>2023-05-21T09:21:44Z</time>
      </trkpt>
      <trkpt lat="49.13998" lon="2.14592">
        <ele>88.6</ele>
        <time>2023-05-21T09:21:49Z</time>
      </trkpt>
      <trkpt lat="49.14004" lon="2.14599">
        <ele>89.4</ele>
        <time>2023-05-21T09:21:55Z</time>
      </trkpt>
      <trkpt lat="49.14009" lon="2.14605">
        <ele>90.1</ele>
        <time>2023-05-21T09:22:01Z</time>
      </trkpt>
      <trkpt lat="49.14016" lon="2.14611">
        <ele>90.1</ele>
        <time>2023-05-21T09:22:06Z</time>
      </trkpt>
      <trkpt lat="49.14023" lon="2.14619">
        <ele>90.1</ele>
        <time>2023-05-21T09:22:12Z</time>
      </trkpt>
      <trkpt lat="49.14031" lon="2.14616">
        <ele>90.4</ele>
        <time>2023-05-21T09:22:18Z</time>
      </trkpt>
      <trkpt lat="49.14038" lon="2.14606">
        <ele>90.6</ele>
        <time>2023-05-21T09:22:24Z</time>
      </trkpt>
      <trkpt lat="49.14042" lon="2.14596">
        <ele>90.8</ele>
        <time>2023-05-21T09:22:30Z</time>
      </trkpt>
      <trkpt lat="49.14047" lon="2.14587">
        <ele>91.3</ele>
        <time>2023-05-21T09:22:36Z</time>
      </trkpt>
      <trkpt lat="49.14053" lon="2.14582">
        <ele>92</ele>
        <time>2023-05-21T09:22:41Z</time>
      </trkpt>
      <trkpt lat="49.14059" lon="2.14579">
        <ele>92.8</ele>
        <time>2023-05-21T09:22:46Z</time>
      </trkpt>
      <trkpt lat="49.14067" lon="2.14578">
        <ele>93.5</ele>
        <time>2023-05-21T09:22:52Z</time>
      </trkpt>
      <trkpt lat="49.14074" lon="2.14575">
        <ele>94.1</ele>
        <time>2023-05-21T09:22:58Z</time>
      </trkpt>
      <trkpt lat="49.14081" lon="2.14573">
        <ele>94.5</ele>
        <time>2023-05-21T09:23:03Z</time>
      </trkpt>
      <trkpt lat="49.14088" lon="2.1457">
        <ele>94.8</ele>
        <time>2023-05-21T09:23:09Z</time>
      </trkpt>
      <trkpt lat="49.14095" lon="2.14567">
        <ele>95.2</ele>
        <time>2023-05-21T09:23:14Z</time>
      </trkpt>
      <trkpt lat="49.14101" lon="2.14564">
        <ele>95.6</ele>
        <time>2023-05-21T09:23:19Z</time>
      </trkpt>
      <trkpt lat="49.14108" lon="2.14564">
        <ele>96.5</ele>
        <time>2023-05-21T09:23:25Z</time>
      </trkpt>
      <trkpt lat="49.14114" lon="2.14563">
        <ele>97.1</ele>
        <time>2023-05-21T09:23:30Z</time>
      </trkpt>
      <trkpt lat="49.14121" lon="2.14559">
        <ele>97.4</ele>
        <time>2023-05-21T09:23:36Z</time>
      </trkpt>
      <trkpt lat="49.14127" lon="2.14555">
        <ele>97.8</ele>
        <time>2023-05-21T09:23:41Z</time>
      </trkpt>
      <trkpt lat="49.14135" lon="2.14553">
        <ele>98.7</ele>
        <time>2023-05-21T09:23:47Z</time>
      </trkpt>
      <trkpt lat="49.1414" lon="2.14551">
        <ele>99.5</ele>
        <time>2023-05-21T09:23:52Z</time>
      </trkpt>
      <trkpt lat="49.14147" lon="2.14548">
        <ele>100.2</ele>
        <time>2023-05-21T09:23:57Z</time>
      </trkpt>
      <trkpt lat="49.14154" lon="2.14546">
        <ele>101</ele>
        <time>2023-05-21T09:24:03Z</time>
      </trkpt>
      <trkpt lat="49.1416" lon="2.14542">
        <ele>101.5</ele>
        <time>2023-05-21T09:24:08Z</time>
      </trkpt>
      <trkpt lat="49.14166" lon="2.14538">
        <ele>102</ele>
        <time>2023-05-21T09:24:14Z</time>
      </trkpt>
      <trkpt lat="49.14172" lon="2.14534">
        <ele>102.5</ele>
        <time>2023-05-21T09:24:20Z</time>
      </trkpt>
      <trkpt lat="49.14177" lon="2.14536">
        <ele>103.1</ele>
        <time>2023-05-21T09:24:25Z</time>
      </trkpt>
      <trkpt lat="49.14184" lon="2.14536">
        <ele>104</ele>
        <time>2023-05-21T09:24:31Z</time>
      </trkpt>
      <trkpt lat="49.14194" lon="2.1453">
        <ele>105.1</ele>
        <time>2023-05-21T09:24:37Z</time>
      </trkpt>
      <trkpt lat="49.14201" lon="2.14526">
        <ele>106.3</ele>
        <time>2023-05-21T09:24:43Z</time>
      </trkpt>
      <trkpt lat="49.14208" lon="2.14525">
        <ele>107.2</ele>
        <time>2023-05-21T09:24:48Z</time>
      </trkpt>
      <trkpt lat="49.14218" lon="2.14523">
        <ele>108.1</ele>
        <time>2023-05-21T09:24:54Z</time>
      </trkpt>
      <trkpt lat="49.14225" lon="2.1452">
        <ele>108.3</ele>
        <time>2023-05-21T09:25:00Z</time>
      </trkpt>
      <trkpt lat="49.1423" lon="2.14518">
        <ele>108.4</ele>
        <time>2023-05-21T09:25:06Z</time>
      </trkpt>
      <trkpt lat="49.14235" lon="2.14516">
        <ele>108.4</ele>
        <time>2023-05-21T09:25:11Z</time>
      </trkpt>
      <trkpt lat="49.14242" lon="2.14512">
        <ele>108.3</ele>
        <time>2023-05-21T09:25:17Z</time>
      </trkpt>
      <trkpt lat="49.14248" lon="2.14508">
        <ele>107.8</ele>
        <time>2023-05-21T09:25:22Z</time>
      </trkpt>
      <trkpt lat="49.14259" lon="2.14494">
        <ele>107.1</ele>
        <time>2023-05-21T09:25:28Z</time>
      </trkpt>
      <trkpt lat="49.14266" lon="2.14487">
        <ele>106.2</ele>
        <time>2023-05-21T09:25:34Z</time>
      </trkpt>
      <trkpt lat="49.14273" lon="2.14482">
        <ele>105.5</ele>
        <time>2023-05-21T09:25:39Z</time>
      </trkpt>
      <trkpt lat="49.14282" lon="2.14474">
        <ele>104.6</ele>
        <time>2023-05-21T09:25:45Z</time>
      </trkpt>
      <trkpt lat="49.14286" lon="2.1447">
        <ele>103.7</ele>
        <time>2023-05-21T09:25:50Z</time>
      </trkpt>
      <trkpt lat="49.1429" lon="2.14465">
        <ele>103</ele>
        <time>2023-05-21T09:25:55Z</time>
      </trkpt>
      <trkpt lat="49.14295" lon="2.14458">
        <ele>102.2</ele>
        <time>2023-05-21T09:26:00Z</time>
      </trkpt>
      <trkpt lat="49.14302" lon="2.14456">
        <ele>101.2</ele>
        <time>2023-05-21T09:26:06Z</time>
      </trkpt>
      <trkpt lat="49.14311" lon="2.14453">
        <ele>100.1</ele>
        <time>2023-05-21T09:26:12Z</time>
      </trkpt>
      <trkpt lat="49.14321" lon="2.14449">
        <ele>99.2</ele>
        <time>2023-05-21T09:26:18Z</time>
      </trkpt>
      <trkpt lat="49.14328" lon="2.14448">
        <ele>98.3</ele>
        <time>2023-05-21T09:26:24Z</time>
      </trkpt>
      <trkpt lat="49.14336" lon="2.14447">
        <ele>97.5</ele>
        <time>2023-05-21T09:26:29Z</time>
      </trkpt>
      <trkpt lat="49.14342" lon="2.14447">
        <ele>96.9</ele>
        <time>2023-05-21T09:26:34Z</time>
      </trkpt>
      <trkpt lat="49.1435" lon="2.1445">
        <ele>96.4</ele>
        <time>2023-05-21T09:26:40Z</time>
      </trkpt>
      <trkpt lat="49.1436" lon="2.14452">
        <ele>95.9</ele>
        <time>2023-05-21T09:26:46Z</time>
      </trkpt>
      <trkpt lat="49.14366" lon="2.14454">
        <ele>95.5</ele>
        <time>2023-05-21T09:26:51Z</time>
      </trkpt>
      <trkpt lat="49.14375" lon="2.14457">
        <ele>95</ele>
        <time>2023-05-21T09:26:57Z</time>
      </trkpt>
      <trkpt lat="49.14381" lon="2.14461">
        <ele>94.3</ele>
        <time>2023-05-21T09:27:02Z</time>
      </trkpt>
      <trkpt lat="49.14387" lon="2.14465">
        <ele>93.7</ele>
        <time>2023-05-21T09:27:07Z</time>
      </trkpt>
      <trkpt lat="49.14395" lon="2.14471">
        <ele>93</ele>
        <time>2023-05-21T09:27:13Z</time>
      </trkpt>
      <trkpt lat="49.14402" lon="2.14479">
        <ele>92.6</ele>
        <time>2023-05-21T09:27:19Z</time>
      </trkpt>
      <trkpt lat="49.14406" lon="2.14486">
        <ele>92.3</ele>
        <time>2023-05-21T09:27:24Z</time>
      </trkpt>
      <trkpt lat="49.14414" lon="2.14491">
        <ele>92.2</ele>
        <time>2023-05-21T09:27:30Z</time>
      </trkpt>
      <trkpt lat="49.14421" lon="2.14497">
        <ele>92.4</ele>
        <time>2023-05-21T09:27:36Z</time>
      </trkpt>
      <trkpt lat="49.14429" lon="2.14504">
        <ele>92.5</ele>
        <time>2023-05-21T09:27:42Z</time>
      </trkpt>
      <trkpt lat="49.14435" lon="2.14507">
        <ele>92.7</ele>
        <time>2023-05-21T09:27:47Z</time>
      </trkpt>
      <trkpt lat="49.1444" lon="2.1451">
        <ele>92.8</ele>
        <time>2023-05-21T09:27:52Z</time>
      </trkpt>
      <trkpt lat="49.14448" lon="2.14512">
        <ele>92.8</ele>
        <time>2023-05-21T09:27:58Z</time>
      </trkpt>
      <trkpt lat="49.14449" lon="2.14513">
        <ele>93</ele>
        <time>2023-05-21T09:28:04Z</time>
      </trkpt>
      <trkpt lat="49.1445" lon="2.14513">
        <ele>93.2</ele>
        <time>2023-05-21T09:28:09Z</time>
      </trkpt>
      <trkpt lat="49.14451" lon="2.14516">
        <ele>93.8</ele>
        <time>2023-05-21T09:28:14Z</time>
      </trkpt>
      <trkpt lat="49.14451" lon="2.14517">
        <ele>94.3</ele>
        <time>2023-05-21T09:28:19Z</time>
      </trkpt>
      <trkpt lat="49.14452" lon="2.14517">
        <ele>94.9</ele>
        <time>2023-05-21T09:28:25Z</time>
      </trkpt>
      <trkpt lat="49.14452" lon="2.14516">
        <ele>95.6</ele>
        <time>2023-05-21T09:28:30Z</time>
      </trkpt>
      <trkpt lat="49.14455" lon="2.14517">
        <ele>95.8</ele>
        <time>2023-05-21T09:28:36Z</time>
      </trkpt>
      <trkpt lat="49.1446" lon="2.14519">
        <ele>95.8</ele>
        <time>2023-05-21T09:28:42Z</time>
      </trkpt>
      <trkpt lat="49.14461" lon="2.14517">
        <ele>95.9</ele>
        <time>2023-05-21T09:28:47Z</time>
      </trkpt>
      <trkpt lat="49.14466" lon="2.14521">
        <ele>96</ele>
        <time>2023-05-21T09:28:53Z</time>
      </trkpt>
      <trkpt lat="49.14471" lon="2.14524">
        <ele>96</ele>
        <time>2023-05-21T09:28:58Z</time>
      </trkpt>
      <trkpt lat="49.14476" lon="2.14524">
        <ele>96.1</ele>
        <time>2023-05-21T09:29:03Z</time>
      </trkpt>
      <trkpt lat="49.14482" lon="2.14525">
        <ele>96.3</ele>
        <time>2023-05-21T09:29:09Z</time>
      </trkpt>
      <trkpt lat="49.14487" lon="2.14526">
        <ele>96.5</ele>
        <time>2023-05-21T09:29:15Z</time>
      </trkpt>
      <trkpt lat="49.14493" lon="2.14528">
        <ele>96.9</ele>
        <time>2023-05-21T09:29:21Z</time>
      </trkpt>
      <trkpt lat="49.14498" lon="2.1453">
        <ele>97.1</ele>
        <time>2023-05-21T09:29:27Z</time>
      </trkpt>
      <trkpt lat="49.14502" lon="2.14533">
        <ele>97.5</ele>
        <time>2023-05-21T09:29:32Z</time>
      </trkpt>
      <trkpt lat="49.1451" lon="2.14533">
        <ele>97.6</ele>
        <time>2023-05-21T09:29:38Z</time>
      </trkpt>
      <trkpt lat="49.14515" lon="2.14534">
        <ele>97.8</ele>
        <time>2023-05-21T09:29:43Z</time>
      </trkpt>
      <trkpt lat="49.1452" lon="2.14536">
        <ele>98.1</ele>
        <time>2023-05-21T09:29:49Z</time>
      </trkpt>
      <trkpt lat="49.14526" lon="2.14536">
        <ele>98.6</ele>
        <time>2023-05-21T09:29:54Z</time>
      </trkpt>
      <trkpt lat="49.14532" lon="2.14536">
        <ele>99.2</ele>
        <time>2023-05-21T09:29:59Z</time>
      </trkpt>
      <trkpt lat="49.14539" lon="2.14535">
        <ele>99.8</ele>
        <time>2023-05-21T09:30:05Z</time>
      </trkpt>
      <trkpt lat="49.14545" lon="2.14529">
        <ele>100.2</ele>
        <time>2023-05-21T09:30:11Z</time>
      </trkpt>
      <trkpt lat="49.1455" lon="2.14529">
        <ele>100.5</ele>
        <time>2023-05-21T09:30:16Z</time>
      </trkpt>
      <trkpt lat="49.14557" lon="2.14525">
        <ele>100.9</ele>
        <time>2023-05-21T09:30:22Z</time>
      </trkpt>
      <trkpt lat="49.14562" lon="2.14525">
        <ele>101.4</ele>
        <time>2023-05-21T09:30:27Z</time>
      </trkpt>
      <trkpt lat="49.14567" lon="2.14525">
        <ele>102</ele>
        <time>2023-05-21T09:30:33Z</time>
      </trkpt>
      <trkpt lat="49.14572" lon="2.14523">
        <ele>102.4</ele>
        <time>2023-05-21T09:30:38Z</time>
      </trkpt>
      <trkpt lat="49.14579" lon="2.14523">
        <ele>102.8</ele>
        <time>2023-05-21T09:30:44Z</time>
      </trkpt>
      <trkpt lat="49.14587" lon="2.1452">
        <ele>103.4</ele>
        <time>2023-05-21T09:30:50Z</time>
      </trkpt>
      <trkpt lat="49.14592" lon="2.14522">
        <ele>104.2</ele>
        <time>2023-05-21T09:30:55Z</time>
      </trkpt>
      <trkpt lat="49.14593" lon="2.1452">
        <ele>105</ele>
        <time>2023-05-21T09:31:01Z</time>
      </trkpt>
      <trkpt lat="49.14592" lon="2.14518">
        <ele>105.1</ele>
        <time>2023-05-21T09:31:06Z</time>
      </trkpt>
      <trkpt lat="49.14592" lon="2.14516">
        <ele>105.1</ele>
        <time>2023-05-21T09:31:11Z</time>
      </trkpt>
      <trkpt lat="49.14593" lon="2.14515">
        <ele>105.1</ele>
        <time>2023-05-21T09:31:16Z</time>
      </trkpt>
      <trkpt lat="49.14593" lon="2.14515">
        <ele>105.1</ele>
        <time>2023-05-21T09:31:22Z</time>
      </trkpt>
      <trkpt lat="49.14593" lon="2.14513">
        <ele>105.3</ele>
        <time>2023-05-21T09:31:27Z</time>
      </trkpt>
      <trkpt lat="49.14593" lon="2.14512">
        <ele>105.5</ele>
        <time>2023-05-21T09:31:33Z</time>
      </trkpt>
      <trkpt lat="49.14593" lon="2.14511">
        <ele>105.8</ele>
        <time>2023-05-21T09:31:39Z</time>
      </trkpt>
      <trkpt lat="49.14594" lon="2.14511">
        <ele>106.2</ele>
        <time>2023-05-21T09:31:44Z</time>
      </trkpt>
      <trkpt lat="49.14594" lon="2.14511">
        <ele>106.4</ele>
        <time>2023-05-21T09:31:49Z</time>
      </trkpt>
      <trkpt lat="49.14594" lon="2.14511">
        <ele>106.5</ele>
        <time>2023-05-21T09:31:55Z</time>
      </trkpt>
      <trkpt lat="49.14593" lon="2.14511">
        <ele>106.7</ele>
        <time>2023-05-21T09:32:00Z</time>
      </trkpt>
      <trkpt lat="49.14595" lon="2.14514">
        <ele>107.1</ele>
        <time>2023-05-21T09:32:06Z</time>
      </trkpt>
      <trkpt lat="49.14594" lon="2.14514">
        <ele>107.2</ele>
        <time>2023-05-21T09:32:11Z</time>
      </trkpt>
      <trkpt lat="49.14594" lon="2.14514">
        <ele>107.1</ele>
        <time>2023-05-21T09:32:16Z</time>
      </trkpt>
      <trkpt lat="49.14593" lon="2.14514">
        <ele>106.8</ele>
        <time>2023-05-21T09:32:22Z</time>
      </trkpt>
      <trkpt lat="49.14594" lon="2.14517">
        <ele>106.8</ele>
        <time>2023-05-21T09:32:30Z</time>
      </trkpt>
      <trkpt lat="49.14595" lon="2.14518">
        <ele>107</ele>
        <time>2023-05-21T09:32:36Z</time>
      </trkpt>
      <trkpt lat="49.14602" lon="2.14517">
        <ele>107.1</ele>
        <time>2023-05-21T09:32:41Z</time>
      </trkpt>
      <trkpt lat="49.1461" lon="2.14515">
        <ele>107.5</ele>
        <time>2023-05-21T09:32:47Z</time>
      </trkpt>
      <trkpt lat="49.14614" lon="2.14513">
        <ele>107.7</ele>
        <time>2023-05-21T09:32:53Z</time>
      </trkpt>
      <trkpt lat="49.14619" lon="2.14507">
        <ele>108</ele>
        <time>2023-05-21T09:32:59Z</time>
      </trkpt>
      <trkpt lat="49.14628" lon="2.14505">
        <ele>108.4</ele>
        <time>2023-05-21T09:33:04Z</time>
      </trkpt>
      <trkpt lat="49.14636" lon="2.14505">
        <ele>108.7</ele>
        <time>2023-05-21T09:33:09Z</time>
      </trkpt>
      <trkpt lat="49.14641" lon="2.14505">
        <ele>108.7</ele>
        <time>2023-05-21T09:33:15Z</time>
      </trkpt>
      <trkpt lat="49.14648" lon="2.14509">
        <ele>108.5</ele>
        <time>2023-05-21T09:33:20Z</time>
      </trkpt>
      <trkpt lat="49.14652" lon="2.14513">
        <ele>108.2</ele>
        <time>2023-05-21T09:33:25Z</time>
      </trkpt>
      <trkpt lat="49.14658" lon="2.14517">
        <ele>107.9</ele>
        <time>2023-05-21T09:33:30Z</time>
      </trkpt>
      <trkpt lat="49.14666" lon="2.1452">
        <ele>107.4</ele>
        <time>2023-05-21T09:33:36Z</time>
      </trkpt>
      <trkpt lat="49.14671" lon="2.14524">
        <ele>107.3</ele>
        <time>2023-05-21T09:33:41Z</time>
      </trkpt>
      <trkpt lat="49.14679" lon="2.14529">
        <ele>107.1</ele>
        <time>2023-05-21T09:33:47Z</time>
      </trkpt>
      <trkpt lat="49.14683" lon="2.14534">
        <ele>107.1</ele>
        <time>2023-05-21T09:33:52Z</time>
      </trkpt>
      <trkpt lat="49.14689" lon="2.14539">
        <ele>107</ele>
        <time>2023-05-21T09:33:58Z</time>
      </trkpt>
      <trkpt lat="49.14694" lon="2.14545">
        <ele>106.7</ele>
        <time>2023-05-21T09:34:04Z</time>
      </trkpt>
      <trkpt lat="49.147" lon="2.14545">
        <ele>106.5</ele>
        <time>2023-05-21T09:34:10Z</time>
      </trkpt>
      <trkpt lat="49.14708" lon="2.14539">
        <ele>106.1</ele>
        <time>2023-05-21T09:34:16Z</time>
      </trkpt>
      <trkpt lat="49.14712" lon="2.14537">
        <ele>105.9</ele>
        <time>2023-05-21T09:34:22Z</time>
      </trkpt>
      <trkpt lat="49.14718" lon="2.14534">
        <ele>105.7</ele>
        <time>2023-05-21T09:34:27Z</time>
      </trkpt>
      <trkpt lat="49.14726" lon="2.14531">
        <ele>105.5</ele>
        <time>2023-05-21T09:34:32Z</time>
      </trkpt>
      <trkpt lat="49.14731" lon="2.14527">
        <ele>105.2</ele>
        <time>2023-05-21T09:34:37Z</time>
      </trkpt>
      <trkpt lat="49.1474" lon="2.14521">
        <ele>104.8</ele>
        <time>2023-05-21T09:34:43Z</time>
      </trkpt>
      <trkpt lat="49.14747" lon="2.1452">
        <ele>104</ele>
        <time>2023-05-21T09:34:49Z</time>
      </trkpt>
      <trkpt lat="49.14754" lon="2.14518">
        <ele>103.2</ele>
        <time>2023-05-21T09:34:55Z</time>
      </trkpt>
      <trkpt lat="49.14759" lon="2.14516">
        <ele>102.7</ele>
        <time>2023-05-21T09:35:01Z</time>
      </trkpt>
      <trkpt lat="49.14765" lon="2.14514">
        <ele>102.4</ele>
        <time>2023-05-21T09:35:06Z</time>
      </trkpt>
      <trkpt lat="49.14773" lon="2.14512">
        <ele>102.2</ele>
        <time>2023-05-21T09:35:12Z</time>
      </trkpt>
      <trkpt lat="49.1478" lon="2.14509">
        <ele>102.2</ele>
        <time>2023-05-21T09:35:17Z</time>
      </trkpt>
      <trkpt lat="49.14787" lon="2.14507">
        <ele>102.3</ele>
        <time>2023-05-21T09:35:22Z</time>
      </trkpt>
      <trkpt lat="49.14793" lon="2.14504">
        <ele>102.5</ele>
        <time>2023-05-21T09:35:27Z</time>
      </trkpt>
      <trkpt lat="49.148" lon="2.145">
        <ele>102.6</ele>
        <time>2023-05-21T09:35:32Z</time>
      </trkpt>
      <trkpt lat="49.14807" lon="2.14499">
        <ele>102.8</ele>
        <time>2023-05-21T09:35:38Z</time>
      </trkpt>
      <trkpt lat="49.14813" lon="2.145">
        <ele>102.7</ele>
        <time>2023-05-21T09:35:44Z</time>
      </trkpt>
      <trkpt lat="49.14811" lon="2.14503">
        <ele>102.4</ele>
        <time>2023-05-21T09:35:49Z</time>
      </trkpt>
      <trkpt lat="49.14813" lon="2.14514">
        <ele>101.8</ele>
        <time>2023-05-21T09:35:55Z</time>
      </trkpt>
      <trkpt lat="49.14817" lon="2.14522">
        <ele>100.8</ele>
        <time>2023-05-21T09:36:01Z</time>
      </trkpt>
      <trkpt lat="49.14818" lon="2.14533">
        <ele>100.3</ele>
        <time>2023-05-21T09:36:06Z</time>
      </trkpt>
      <trkpt lat="49.14822" lon="2.14544">
        <ele>99.8</ele>
        <time>2023-05-21T09:36:12Z</time>
      </trkpt>
      <trkpt lat="49.14825" lon="2.14552">
        <ele>99.4</ele>
        <time>2023-05-21T09:36:17Z</time>
      </trkpt>
      <trkpt lat="49.14826" lon="2.14563">
        <ele>98.6</ele>
        <time>2023-05-21T09:36:23Z</time>
      </trkpt>
      <trkpt lat="49.14823" lon="2.14575">
        <ele>97.8</ele>
        <time>2023-05-21T09:36:29Z</time>
      </trkpt>
      <trkpt lat="49.14825" lon="2.14583">
        <ele>97.3</ele>
        <time>2023-05-21T09:36:35Z</time>
      </trkpt>
      <trkpt lat="49.14828" lon="2.146">
        <ele>96.6</ele>
        <time>2023-05-21T09:36:41Z</time>
      </trkpt>
      <trkpt lat="49.14831" lon="2.14612">
        <ele>95.9</ele>
        <time>2023-05-21T09:36:47Z</time>
      </trkpt>
      <trkpt lat="49.14834" lon="2.1462">
        <ele>95.2</ele>
        <time>2023-05-21T09:36:52Z</time>
      </trkpt>
      <trkpt lat="49.14837" lon="2.14632">
        <ele>94.8</ele>
        <time>2023-05-21T09:36:58Z</time>
      </trkpt>
      <trkpt lat="49.1484" lon="2.1464">
        <ele>94.6</ele>
        <time>2023-05-21T09:37:03Z</time>
      </trkpt>
      <trkpt lat="49.1484" lon="2.1465">
        <ele>94.1</ele>
        <time>2023-05-21T09:37:08Z</time>
      </trkpt>
      <trkpt lat="49.14838" lon="2.14665">
        <ele>93.8</ele>
        <time>2023-05-21T09:37:14Z</time>
      </trkpt>
      <trkpt lat="49.14839" lon="2.14673">
        <ele>93.7</ele>
        <time>2023-05-21T09:37:19Z</time>
      </trkpt>
      <trkpt lat="49.14841" lon="2.14686">
        <ele>93.4</ele>
        <time>2023-05-21T09:37:25Z</time>
      </trkpt>
      <trkpt lat="49.14842" lon="2.14695">
        <ele>92.8</ele>
        <time>2023-05-21T09:37:31Z</time>
      </trkpt>
      <trkpt lat="49.14845" lon="2.14709">
        <ele>92.3</ele>
        <time>2023-05-21T09:37:37Z</time>
      </trkpt>
      <trkpt lat="49.14846" lon="2.14717">
        <ele>91.8</ele>
        <time>2023-05-21T09:37:42Z</time>
      </trkpt>
      <trkpt lat="49.1485" lon="2.1473">
        <ele>91.2</ele>
        <time>2023-05-21T09:37:48Z</time>
      </trkpt>
      <trkpt lat="49.14853" lon="2.1474">
        <ele>90.9</ele>
        <time>2023-05-21T09:37:53Z</time>
      </trkpt>
      <trkpt lat="49.14856" lon="2.14748">
        <ele>90.5</ele>
        <time>2023-05-21T09:37:59Z</time>
      </trkpt>
      <trkpt lat="49.14859" lon="2.14757">
        <ele>90.1</ele>
        <time>2023-05-21T09:38:04Z</time>
      </trkpt>
      <trkpt lat="49.14863" lon="2.14768">
        <ele>89.8</ele>
        <time>2023-05-21T09:38:10Z</time>
      </trkpt>
      <trkpt lat="49.14866" lon="2.14778">
        <ele>89.7</ele>
        <time>2023-05-21T09:38:16Z</time>
      </trkpt>
      <trkpt lat="49.1487" lon="2.14789">
        <ele>89.7</ele>
        <time>2023-05-21T09:38:22Z</time>
      </trkpt>
      <trkpt lat="49.14874" lon="2.14802">
        <ele>89.6</ele>
        <time>2023-05-21T09:38:28Z</time>
      </trkpt>
      <trkpt lat="49.14877" lon="2.14808">
        <ele>89.4</ele>
        <time>2023-05-21T09:38:33Z</time>
      </trkpt>
      <trkpt lat="49.14881" lon="2.14815">
        <ele>89.1</ele>
        <time>2023-05-21T09:38:38Z</time>
      </trkpt>
      <trkpt lat="49.14884" lon="2.14825">
        <ele>89</ele>
        <time>2023-05-21T09:38:44Z</time>
      </trkpt>
      <trkpt lat="49.14887" lon="2.14834">
        <ele>88.9</ele>
        <time>2023-05-21T09:38:49Z</time>
      </trkpt>
      <trkpt lat="49.14893" lon="2.14844">
        <ele>89</ele>
        <time>2023-05-21T09:38:55Z</time>
      </trkpt>
      <trkpt lat="49.14898" lon="2.1485">
        <ele>89.1</ele>
        <time>2023-05-21T09:39:00Z</time>
      </trkpt>
      <trkpt lat="49.14901" lon="2.14862">
        <ele>89.3</ele>
        <time>2023-05-21T09:39:06Z</time>
      </trkpt>
      <trkpt lat="49.14905" lon="2.14872">
        <ele>89.4</ele>
        <time>2023-05-21T09:39:12Z</time>
      </trkpt>
      <trkpt lat="49.14906" lon="2.1488">
        <ele>89.5</ele>
        <time>2023-05-21T09:39:17Z</time>
      </trkpt>
      <trkpt lat="49.14907" lon="2.14891">
        <ele>89.5</ele>
        <time>2023-05-21T09:39:23Z</time>
      </trkpt>
      <trkpt lat="49.14912" lon="2.149">
        <ele>89.6</ele>
        <time>2023-05-21T09:39:28Z</time>
      </trkpt>
      <trkpt lat="49.14914" lon="2.1491">
        <ele>89.8</ele>
        <time>2023-05-21T09:39:33Z</time>
      </trkpt>
      <trkpt lat="49.14919" lon="2.14919">
        <ele>90.2</ele>
        <time>2023-05-21T09:39:39Z</time>
      </trkpt>
      <trkpt lat="49.14922" lon="2.14928">
        <ele>90.6</ele>
        <time>2023-05-21T09:39:44Z</time>
      </trkpt>
      <trkpt lat="49.14925" lon="2.14937">
        <ele>91.1</ele>
        <time>2023-05-21T09:39:49Z</time>
      </trkpt>
      <trkpt lat="49.14926" lon="2.14947">
        <ele>91.6</ele>
        <time>2023-05-21T09:39:55Z</time>
      </trkpt>
      <trkpt lat="49.14919" lon="2.1495">
        <ele>92.5</ele>
        <time>2023-05-21T09:40:01Z</time>
      </trkpt>
      <trkpt lat="49.14913" lon="2.14949">
        <ele>93.1</ele>
        <time>2023-05-21T09:40:06Z</time>
      </trkpt>
      <trkpt lat="49.14907" lon="2.14949">
        <ele>93.8</ele>
        <time>2023-05-21T09:40:11Z</time>
      </trkpt>
      <trkpt lat="49.14902" lon="2.14949">
        <ele>94.5</ele>
        <time>2023-05-21T09:40:16Z</time>
      </trkpt>
      <trkpt lat="49.14896" lon="2.14951">
        <ele>95</ele>
        <time>2023-05-21T09:40:21Z</time>
      </trkpt>
      <trkpt lat="49.14891" lon="2.1496">
        <ele>95.9</ele>
        <time>2023-05-21T09:40:27Z</time>
      </trkpt>
      <trkpt lat="49.14885" lon="2.14969">
        <ele>96.6</ele>
        <time>2023-05-21T09:40:33Z</time>
      </trkpt>
      <trkpt lat="49.14884" lon="2.14975">
        <ele>97.2</ele>
        <time>2023-05-21T09:40:38Z</time>
      </trkpt>
      <trkpt lat="49.1488" lon="2.14983">
        <ele>97.8</ele>
        <time>2023-05-21T09:40:44Z</time>
      </trkpt>
      <trkpt lat="49.14875" lon="2.14991">
        <ele>97.8</ele>
        <time>2023-05-21T09:40:50Z</time>
      </trkpt>
      <trkpt lat="49.14869" lon="2.15002">
        <ele>97.3</ele>
        <time>2023-05-21T09:40:56Z</time>
      </trkpt>
      <trkpt lat="49.14864" lon="2.1501">
        <ele>96.8</ele>
        <time>2023-05-21T09:41:02Z</time>
      </trkpt>
      <trkpt lat="49.1486" lon="2.15016">
        <ele>96.5</ele>
        <time>2023-05-21T09:41:08Z</time>
      </trkpt>
      <trkpt lat="49.14854" lon="2.15019">
        <ele>96.4</ele>
        <time>2023-05-21T09:41:14Z</time>
      </trkpt>
      <trkpt lat="49.14853" lon="2.15022">
        <ele>96.5</ele>
        <time>2023-05-21T09:41:19Z</time>
      </trkpt>
      <trkpt lat="49.14854" lon="2.15033">
        <ele>96.8</ele>
        <time>2023-05-21T09:41:25Z</time>
      </trkpt>
      <trkpt lat="49.14855" lon="2.15031">
        <ele>96.8</ele>
        <time>2023-05-21T09:41:30Z</time>
      </trkpt>
      <trkpt lat="49.14856" lon="2.1503">
        <ele>97</ele>
        <time>2023-05-21T09:41:36Z</time>
      </trkpt>
      <trkpt lat="49.14856" lon="2.1503">
        <ele>97</ele>
        <time>2023-05-21T09:41:41Z</time>
      </trkpt>
      <trkpt lat="49.14855" lon="2.15031">
        <ele>97.1</ele>
        <time>2023-05-21T09:41:47Z</time>
      </trkpt>
      <trkpt lat="49.14855" lon="2.15032">
        <ele>97.1</ele>
        <time>2023-05-21T09:41:52Z</time>
      </trkpt>
      <trkpt lat="49.14855" lon="2.15032">
        <ele>97.1</ele>
        <time>2023-05-21T09:41:58Z</time>
      </trkpt>
      <trkpt lat="49.14855" lon="2.15032">
        <ele>97.1</ele>
        <time>2023-05-21T09:42:04Z</time>
      </trkpt>
      <trkpt lat="49.14855" lon="2.15032">
        <ele>97</ele>
        <time>2023-05-21T09:42:09Z</time>
      </trkpt>
      <trkpt lat="49.14855" lon="2.15032">
        <ele>97</ele>
        <time>2023-05-21T09:42:15Z</time>
      </trkpt>
      <trkpt lat="49.14855" lon="2.15032">
        <ele>96.9</ele>
        <time>2023-05-21T09:42:20Z</time>
      </trkpt>
      <trkpt lat="49.14855" lon="2.15032">
        <ele>96.9</ele>
        <time>2023-05-21T09:42:25Z</time>
      </trkpt>
      <trkpt lat="49.14855" lon="2.15032">
        <ele>96.8</ele>
        <time>2023-05-21T09:42:31Z</time>
      </trkpt>
      <trkpt lat="49.14855" lon="2.15032">
        <ele>96.7</ele>
        <time>2023-05-21T09:42:37Z</time>
      </trkpt>
      <trkpt lat="49.14855" lon="2.15032">
        <ele>96.7</ele>
        <time>2023-05-21T09:42:42Z</time>
      </trkpt>
      <trkpt lat="49.14855" lon="2.15033">
        <ele>96.6</ele>
        <time>2023-05-21T09:42:48Z</time>
      </trkpt>
      <trkpt lat="49.14855" lon="2.15033">
        <ele>96.6</ele>
        <time>2023-05-21T09:42:54Z</time>
      </trkpt>
      <trkpt lat="49.14855" lon="2.15032">
        <ele>96.5</ele>
        <time>2023-05-21T09:43:00Z</time>
      </trkpt>
      <trkpt lat="49.14855" lon="2.15033">
        <ele>96.5</ele>
        <time>2023-05-21T09:43:05Z</time>
      </trkpt>
      <trkpt lat="49.14855" lon="2.15033">
        <ele>96.4</ele>
        <time>2023-05-21T09:43:11Z</time>
      </trkpt>
      <trkpt lat="49.14855" lon="2.15033">
        <ele>96.3</ele>
        <time>2023-05-21T09:43:17Z</time>
      </trkpt>
      <trkpt lat="49.14855" lon="2.15032">
        <ele>96.3</ele>
        <time>2023-05-21T09:43:22Z</time>
      </trkpt>
      <trkpt lat="49.14856" lon="2.15032">
        <ele>95.5</ele>
        <time>2023-05-21T09:43:28Z</time>
      </trkpt>
      <trkpt lat="49.14861" lon="2.15031">
        <ele>95</ele>
        <time>2023-05-21T09:43:33Z</time>
      </trkpt>
      <trkpt lat="49.14867" lon="2.15035">
        <ele>94.5</ele>
        <time>2023-05-21T09:43:39Z</time>
      </trkpt>
      <trkpt lat="49.14874" lon="2.1504">
        <ele>94</ele>
        <time>2023-05-21T09:43:45Z</time>
      </trkpt>
      <trkpt lat="49.1488" lon="2.15046">
        <ele>93.8</ele>
        <time>2023-05-21T09:43:50Z</time>
      </trkpt>
      <trkpt lat="49.14886" lon="2.15051">
        <ele>93.4</ele>
        <time>2023-05-21T09:43:55Z</time>
      </trkpt>
      <trkpt lat="49.14895" lon="2.1505">
        <ele>92.8</ele>
        <time>2023-05-21T09:44:01Z</time>
      </trkpt>
      <trkpt lat="49.14902" lon="2.15047">
        <ele>92.4</ele>
        <time>2023-05-21T09:44:06Z</time>
      </trkpt>
      <trkpt lat="49.14908" lon="2.15042">
        <ele>92.2</ele>
        <time>2023-05-21T09:44:11Z</time>
      </trkpt>
      <trkpt lat="49.14915" lon="2.15035">
        <ele>92.2</ele>
        <time>2023-05-21T09:44:17Z</time>
      </trkpt>
      <trkpt lat="49.14919" lon="2.15029">
        <ele>92</ele>
        <time>2023-05-21T09:44:22Z</time>
      </trkpt>
      <trkpt lat="49.14925" lon="2.15021">
        <ele>92.1</ele>
        <time>2023-05-21T09:44:28Z</time>
      </trkpt>
      <trkpt lat="49.14932" lon="2.15012">
        <ele>92.4</ele>
        <time>2023-05-21T09:44:34Z</time>
      </trkpt>
      <trkpt lat="49.14937" lon="2.15006">
        <ele>92.8</ele>
        <time>2023-05-21T09:44:39Z</time>
      </trkpt>
      <trkpt lat="49.14944" lon="2.15001">
        <ele>93.1</ele>
        <time>2023-05-21T09:44:45Z</time>
      </trkpt>
      <trkpt lat="49.14949" lon="2.14997">
        <ele>93.3</ele>
        <time>2023-05-21T09:44:50Z</time>
      </trkpt>
      <trkpt lat="49.14956" lon="2.14993">
        <ele>93.5</ele>
        <time>2023-05-21T09:44:56Z</time>
      </trkpt>
      <trkpt lat="49.14963" lon="2.14991">
        <ele>93.7</ele>
        <time>2023-05-21T09:45:02Z</time>
      </trkpt>
      <trkpt lat="49.14973" lon="2.14991">
        <ele>94.4</ele>
        <time>2023-05-21T09:45:08Z</time>
      </trkpt>
      <trkpt lat="49.14981" lon="2.1499">
        <ele>95.1</ele>
        <time>2023-05-21T09:45:14Z</time>
      </trkpt>
      <trkpt lat="49.14988" lon="2.1499">
        <ele>95.7</ele>
        <time>2023-05-21T09:45:19Z</time>
      </trkpt>
      <trkpt lat="49.14995" lon="2.14992">
        <ele>96.5</ele>
        <time>2023-05-21T09:45:25Z</time>
      </trkpt>
      <trkpt lat="49.14999" lon="2.14994">
        <ele>97</ele>
        <time>2023-05-21T09:45:30Z</time>
      </trkpt>
      <trkpt lat="49.15005" lon="2.14996">
        <ele>97.7</ele>
        <time>2023-05-21T09:45:36Z</time>
      </trkpt>
      <trkpt lat="49.15011" lon="2.14997">
        <ele>98.2</ele>
        <time>2023-05-21T09:45:41Z</time>
      </trkpt>
      <trkpt lat="49.15019" lon="2.14997">
        <ele>98.8</ele>
        <time>2023-05-21T09:45:47Z</time>
      </trkpt>
      <trkpt lat="49.15026" lon="2.14997">
        <ele>99.3</ele>
        <time>2023-05-21T09:45:52Z</time>
      </trkpt>
      <trkpt lat="49.15035" lon="2.14993">
        <ele>99.9</ele>
        <time>2023-05-21T09:45:58Z</time>
      </trkpt>
      <trkpt lat="49.15041" lon="2.14991">
        <ele>100.6</ele>
        <time>2023-05-21T09:46:03Z</time>
      </trkpt>
      <trkpt lat="49.15046" lon="2.14987">
        <ele>101.2</ele>
        <time>2023-05-21T09:46:08Z</time>
      </trkpt>
      <trkpt lat="49.15055" lon="2.14981">
        <ele>101.9</ele>
        <time>2023-05-21T09:46:14Z</time>
      </trkpt>
      <trkpt lat="49.15061" lon="2.14977">
        <ele>102.6</ele>
        <time>2023-05-21T09:46:19Z</time>
      </trkpt>
      <trkpt lat="49.15069" lon="2.1497">
        <ele>103.1</ele>
        <time>2023-05-21T09:46:25Z</time>
      </trkpt>
      <trkpt lat="49.15074" lon="2.14969">
        <ele>103.1</ele>
        <time>2023-05-21T09:46:30Z</time>
      </trkpt>
      <trkpt lat="49.15082" lon="2.14967">
        <ele>103</ele>
        <time>2023-05-21T09:46:36Z</time>
      </trkpt>
      <trkpt lat="49.15091" lon="2.14965">
        <ele>102.9</ele>
        <time>2023-05-21T09:46:42Z</time>
      </trkpt>
      <trkpt lat="49.15096" lon="2.14959">
        <ele>103</ele>
        <time>2023-05-21T09:46:47Z</time>
      </trkpt>
      <trkpt lat="49.15101" lon="2.14956">
        <ele>102.7</ele>
        <time>2023-05-21T09:46:53Z</time>
      </trkpt>
      <trkpt lat="49.15106" lon="2.14946">
        <ele>102.2</ele>
        <time>2023-05-21T09:46:58Z</time>
      </trkpt>
      <trkpt lat="49.15113" lon="2.1494">
        <ele>101.4</ele>
        <time>2023-05-21T09:47:04Z</time>
      </trkpt>
      <trkpt lat="49.15119" lon="2.1493">
        <ele>100.4</ele>
        <time>2023-05-21T09:47:10Z</time>
      </trkpt>
      <trkpt lat="49.15124" lon="2.14917">
        <ele>99.5</ele>
        <time>2023-05-21T09:47:16Z</time>
      </trkpt>
      <trkpt lat="49.15127" lon="2.14906">
        <ele>99.1</ele>
        <time>2023-05-21T09:47:21Z</time>
      </trkpt>
      <trkpt lat="49.15131" lon="2.14896">
        <ele>98.8</ele>
        <time>2023-05-21T09:47:26Z</time>
      </trkpt>
      <trkpt lat="49.15136" lon="2.14889">
        <ele>98.3</ele>
        <time>2023-05-21T09:47:32Z</time>
      </trkpt>
      <trkpt lat="49.1514" lon="2.14878">
        <ele>98</ele>
        <time>2023-05-21T09:47:38Z</time>
      </trkpt>
      <trkpt lat="49.15145" lon="2.14868">
        <ele>97.5</ele>
        <time>2023-05-21T09:47:43Z</time>
      </trkpt>
      <trkpt lat="49.1515" lon="2.14858">
        <ele>96.7</ele>
        <time>2023-05-21T09:47:48Z</time>
      </trkpt>
      <trkpt lat="49.15156" lon="2.1485">
        <ele>95.8</ele>
        <time>2023-05-21T09:47:54Z</time>
      </trkpt>
      <trkpt lat="49.15161" lon="2.14845">
        <ele>95.3</ele>
        <time>2023-05-21T09:47:59Z</time>
      </trkpt>
      <trkpt lat="49.15168" lon="2.14838">
        <ele>94.8</ele>
        <time>2023-05-21T09:48:05Z</time>
      </trkpt>
      <trkpt lat="49.15175" lon="2.14834">
        <ele>94.5</ele>
        <time>2023-05-21T09:48:11Z</time>
      </trkpt>
      <trkpt lat="49.15183" lon="2.14829">
        <ele>94.3</ele>
        <time>2023-05-21T09:48:17Z</time>
      </trkpt>
      <trkpt lat="49.15191" lon="2.14825">
        <ele>94.5</ele>
        <time>2023-05-21T09:48:23Z</time>
      </trkpt>
      <trkpt lat="49.15198" lon="2.1482">
        <ele>94.7</ele>
        <time>2023-05-21T09:48:28Z</time>
      </trkpt>
      <trkpt lat="49.15206" lon="2.14816">
        <ele>94.6</ele>
        <time>2023-05-21T09:48:34Z</time>
      </trkpt>
      <trkpt lat="49.15212" lon="2.14812">
        <ele>94.5</ele>
        <time>2023-05-21T09:48:39Z</time>
      </trkpt>
      <trkpt lat="49.15218" lon="2.14807">
        <ele>94.5</ele>
        <time>2023-05-21T09:48:45Z</time>
      </trkpt>
      <trkpt lat="49.15225" lon="2.14803">
        <ele>94.7</ele>
        <time>2023-05-21T09:48:50Z</time>
      </trkpt>
      <trkpt lat="49.15235" lon="2.14798">
        <ele>95.3</ele>
        <time>2023-05-21T09:48:56Z</time>
      </trkpt>
      <trkpt lat="49.15239" lon="2.14799">
        <ele>96.1</ele>
        <time>2023-05-21T09:49:02Z</time>
      </trkpt>
      <trkpt lat="49.15246" lon="2.14796">
        <ele>96.9</ele>
        <time>2023-05-21T09:49:07Z</time>
      </trkpt>
      <trkpt lat="49.15256" lon="2.14791">
        <ele>97.8</ele>
        <time>2023-05-21T09:49:13Z</time>
      </trkpt>
      <trkpt lat="49.15261" lon="2.1479">
        <ele>98.2</ele>
        <time>2023-05-21T09:49:18Z</time>
      </trkpt>
      <trkpt lat="49.1527" lon="2.14783">
        <ele>98.7</ele>
        <time>2023-05-21T09:49:24Z</time>
      </trkpt>
      <trkpt lat="49.15278" lon="2.14778">
        <ele>98.7</ele>
        <time>2023-05-21T09:49:29Z</time>
      </trkpt>
      <trkpt lat="49.15283" lon="2.14775">
        <ele>98.3</ele>
        <time>2023-05-21T09:49:34Z</time>
      </trkpt>
      <trkpt lat="49.15291" lon="2.14769">
        <ele>98</ele>
        <time>2023-05-21T09:49:40Z</time>
      </trkpt>
      <trkpt lat="49.15299" lon="2.14763">
        <ele>97.8</ele>
        <time>2023-05-21T09:49:45Z</time>
      </trkpt>
      <trkpt lat="49.15306" lon="2.14757">
        <ele>97.6</ele>
        <time>2023-05-21T09:49:51Z</time>
      </trkpt>
      <trkpt lat="49.15314" lon="2.14753">
        <ele>97.7</ele>
        <time>2023-05-21T09:49:57Z</time>
      </trkpt>
      <trkpt lat="49.15322" lon="2.14749">
        <ele>97.8</ele>
        <time>2023-05-21T09:50:03Z</time>
      </trkpt>
      <trkpt lat="49.15328" lon="2.14746">
        <ele>97.6</ele>
        <time>2023-05-21T09:50:09Z</time>
      </trkpt>
      <trkpt lat="49.15333" lon="2.14742">
        <ele>97.5</ele>
        <time>2023-05-21T09:50:14Z</time>
      </trkpt>
      <trkpt lat="49.15338" lon="2.14736">
        <ele>97.2</ele>
        <time>2023-05-21T09:50:20Z</time>
      </trkpt>
      <trkpt lat="49.15342" lon="2.14727">
        <ele>97.2</ele>
        <time>2023-05-21T09:50:25Z</time>
      </trkpt>
      <trkpt lat="49.15346" lon="2.14719">
        <ele>97.4</ele>
        <time>2023-05-21T09:50:31Z</time>
      </trkpt>
      <trkpt lat="49.15351" lon="2.14714">
        <ele>97.6</ele>
        <time>2023-05-21T09:50:37Z</time>
      </trkpt>
      <trkpt lat="49.15357" lon="2.14709">
        <ele>97.7</ele>
        <time>2023-05-21T09:50:42Z</time>
      </trkpt>
      <trkpt lat="49.15362" lon="2.14705">
        <ele>97.8</ele>
        <time>2023-05-21T09:50:47Z</time>
      </trkpt>
      <trkpt lat="49.15368" lon="2.14699">
        <ele>97.9</ele>
        <time>2023-05-21T09:50:53Z</time>
      </trkpt>
      <trkpt lat="49.15373" lon="2.14696">
        <ele>97.8</ele>
        <time>2023-05-21T09:50:58Z</time>
      </trkpt>
      <trkpt lat="49.1538" lon="2.14692">
        <ele>97.4</ele>
        <time>2023-05-21T09:51:04Z</time>
      </trkpt>
      <trkpt lat="49.15389" lon="2.14689">
        <ele>97.3</ele>
        <time>2023-05-21T09:51:09Z</time>
      </trkpt>
      <trkpt lat="49.15396" lon="2.14679">
        <ele>97.3</ele>
        <time>2023-05-21T09:51:15Z</time>
      </trkpt>
      <trkpt lat="49.15397" lon="2.14669">
        <ele>97.2</ele>
        <time>2023-05-21T09:51:20Z</time>
      </trkpt>
      <trkpt lat="49.15396" lon="2.14671">
        <ele>97.1</ele>
        <time>2023-05-21T09:51:26Z</time>
      </trkpt>
      <trkpt lat="49.15395" lon="2.14673">
        <ele>97</ele>
        <time>2023-05-21T09:51:32Z</time>
      </trkpt>
      <trkpt lat="49.15395" lon="2.14674">
        <ele>96.9</ele>
        <time>2023-05-21T09:51:38Z</time>
      </trkpt>
      <trkpt lat="49.15395" lon="2.14674">
        <ele>96.9</ele>
        <time>2023-05-21T09:51:43Z</time>
      </trkpt>
      <trkpt lat="49.15395" lon="2.14674">
        <ele>96.9</ele>
        <time>2023-05-21T09:51:49Z</time>
      </trkpt>
      <trkpt lat="49.15395" lon="2.14675">
        <ele>97</ele>
        <time>2023-05-21T09:51:55Z</time>
      </trkpt>
      <trkpt lat="49.15399" lon="2.14669">
        <ele>97.3</ele>
        <time>2023-05-21T09:52:00Z</time>
      </trkpt>
      <trkpt lat="49.15399" lon="2.14654">
        <ele>97</ele>
        <time>2023-05-21T09:52:06Z</time>
      </trkpt>
      <trkpt lat="49.15399" lon="2.14641">
        <ele>96.7</ele>
        <time>2023-05-21T09:52:11Z</time>
      </trkpt>
      <trkpt lat="49.15396" lon="2.14631">
        <ele>96.5</ele>
        <time>2023-05-21T09:52:16Z</time>
      </trkpt>
      <trkpt lat="49.15394" lon="2.1462">
        <ele>96.2</ele>
        <time>2023-05-21T09:52:22Z</time>
      </trkpt>
      <trkpt lat="49.15393" lon="2.14611">
        <ele>96</ele>
        <time>2023-05-21T09:52:27Z</time>
      </trkpt>
      <trkpt lat="49.15389" lon="2.14599">
        <ele>95.5</ele>
        <time>2023-05-21T09:52:33Z</time>
      </trkpt>
      <trkpt lat="49.15388" lon="2.14585">
        <ele>95.2</ele>
        <time>2023-05-21T09:52:39Z</time>
      </trkpt>
      <trkpt lat="49.15386" lon="2.14575">
        <ele>95.1</ele>
        <time>2023-05-21T09:52:44Z</time>
      </trkpt>
      <trkpt lat="49.15385" lon="2.14564">
        <ele>95</ele>
        <time>2023-05-21T09:52:50Z</time>
      </trkpt>
      <trkpt lat="49.15383" lon="2.14551">
        <ele>94.8</ele>
        <time>2023-05-21T09:52:56Z</time>
      </trkpt>
      <trkpt lat="49.1538" lon="2.14539">
        <ele>94.4</ele>
        <time>2023-05-21T09:53:02Z</time>
      </trkpt>
      <trkpt lat="49.15375" lon="2.14528">
        <ele>93.9</ele>
        <time>2023-05-21T09:53:08Z</time>
      </trkpt>
      <trkpt lat="49.1537" lon="2.14522">
        <ele>93.5</ele>
        <time>2023-05-21T09:53:14Z</time>
      </trkpt>
      <trkpt lat="49.15368" lon="2.14522">
        <ele>93.4</ele>
        <time>2023-05-21T09:53:20Z</time>
      </trkpt>
      <trkpt lat="49.15367" lon="2.14523">
        <ele>93.4</ele>
        <time>2023-05-21T09:53:25Z</time>
      </trkpt>
      <trkpt lat="49.15367" lon="2.14523">
        <ele>93.4</ele>
        <time>2023-05-21T09:53:30Z</time>
      </trkpt>
      <trkpt lat="49.15367" lon="2.14524">
        <ele>93.4</ele>
        <time>2023-05-21T09:53:36Z</time>
      </trkpt>
      <trkpt lat="49.15366" lon="2.14526">
        <ele>93.4</ele>
        <time>2023-05-21T09:53:42Z</time>
      </trkpt>
      <trkpt lat="49.15366" lon="2.1453">
        <ele>93.3</ele>
        <time>2023-05-21T09:53:48Z</time>
      </trkpt>
      <trkpt lat="49.15366" lon="2.1453">
        <ele>93.2</ele>
        <time>2023-05-21T09:53:54Z</time>
      </trkpt>
      <trkpt lat="49.15365" lon="2.14531">
        <ele>93.1</ele>
        <time>2023-05-21T09:54:00Z</time>
      </trkpt>
      <trkpt lat="49.15366" lon="2.14532">
        <ele>92.9</ele>
        <time>2023-05-21T09:54:06Z</time>
      </trkpt>
      <trkpt lat="49.15367" lon="2.14532">
        <ele>92.6</ele>
        <time>2023-05-21T09:54:11Z</time>
      </trkpt>
      <trkpt lat="49.1537" lon="2.1453">
        <ele>92.2</ele>
        <time>2023-05-21T09:54:16Z</time>
      </trkpt>
      <trkpt lat="49.15372" lon="2.14524">
        <ele>91.7</ele>
        <time>2023-05-21T09:54:22Z</time>
      </trkpt>
      <trkpt lat="49.15371" lon="2.14519">
        <ele>91.2</ele>
        <time>2023-05-21T09:54:27Z</time>
      </trkpt>
      <trkpt lat="49.15368" lon="2.14506">
        <ele>91</ele>
        <time>2023-05-21T09:54:33Z</time>
      </trkpt>
      <trkpt lat="49.15367" lon="2.14494">
        <ele>90.9</ele>
        <time>2023-05-21T09:54:39Z</time>
      </trkpt>
      <trkpt lat="49.15366" lon="2.1448">
        <ele>91</ele>
        <time>2023-05-21T09:54:45Z</time>
      </trkpt>
      <trkpt lat="49.15368" lon="2.1447">
        <ele>91.4</ele>
        <time>2023-05-21T09:54:51Z</time>
      </trkpt>
      <trkpt lat="49.1537" lon="2.14462">
        <ele>91.7</ele>
        <time>2023-05-21T09:54:56Z</time>
      </trkpt>
      <trkpt lat="49.15372" lon="2.14452">
        <ele>92.1</ele>
        <time>2023-05-21T09:55:02Z</time>
      </trkpt>
      <trkpt lat="49.1537" lon="2.14443">
        <ele>92.2</ele>
        <time>2023-05-21T09:55:07Z</time>
      </trkpt>
      <trkpt lat="49.1537" lon="2.14431">
        <ele>92.3</ele>
        <time>2023-05-21T09:55:12Z</time>
      </trkpt>
      <trkpt lat="49.15368" lon="2.14415">
        <ele>92.4</ele>
        <time>2023-05-21T09:55:18Z</time>
      </trkpt>
      <trkpt lat="49.15368" lon="2.14404">
        <ele>92.6</ele>
        <time>2023-05-21T09:55:23Z</time>
      </trkpt>
      <trkpt lat="49.15368" lon="2.14397">
        <ele>92.8</ele>
        <time>2023-05-21T09:55:28Z</time>
      </trkpt>
      <trkpt lat="49.15369" lon="2.14383">
        <ele>93</ele>
        <time>2023-05-21T09:55:34Z</time>
      </trkpt>
      <trkpt lat="49.15371" lon="2.14372">
        <ele>93.2</ele>
        <time>2023-05-21T09:55:40Z</time>
      </trkpt>
      <trkpt lat="49.15369" lon="2.14363">
        <ele>92.9</ele>
        <time>2023-05-21T09:55:46Z</time>
      </trkpt>
      <trkpt lat="49.15369" lon="2.14362">
        <ele>92.5</ele>
        <time>2023-05-21T09:55:51Z</time>
      </trkpt>
      <trkpt lat="49.15368" lon="2.14352">
        <ele>91.7</ele>
        <time>2023-05-21T09:55:56Z</time>
      </trkpt>
      <trkpt lat="49.15367" lon="2.1434">
        <ele>91</ele>
        <time>2023-05-21T09:56:02Z</time>
      </trkpt>
      <trkpt lat="49.15366" lon="2.14329">
        <ele>90.7</ele>
        <time>2023-05-21T09:56:07Z</time>
      </trkpt>
      <trkpt lat="49.15366" lon="2.14317">
        <ele>90.6</ele>
        <time>2023-05-21T09:56:13Z</time>
      </trkpt>
      <trkpt lat="49.15367" lon="2.14308">
        <ele>90.9</ele>
        <time>2023-05-21T09:56:19Z</time>
      </trkpt>
      <trkpt lat="49.15369" lon="2.14298">
        <ele>91.1</ele>
        <time>2023-05-21T09:56:24Z</time>
      </trkpt>
      <trkpt lat="49.15369" lon="2.14279">
        <ele>91.2</ele>
        <time>2023-05-21T09:56:30Z</time>
      </trkpt>
      <trkpt lat="49.15368" lon="2.1427">
        <ele>91.4</ele>
        <time>2023-05-21T09:56:35Z</time>
      </trkpt>
      <trkpt lat="49.15368" lon="2.14258">
        <ele>91.3</ele>
        <time>2023-05-21T09:56:41Z</time>
      </trkpt>
      <trkpt lat="49.15368" lon="2.1425">
        <ele>91.5</ele>
        <time>2023-05-21T09:56:46Z</time>
      </trkpt>
      <trkpt lat="49.1537" lon="2.14245">
        <ele>91.9</ele>
        <time>2023-05-21T09:56:51Z</time>
      </trkpt>
      <trkpt lat="49.15375" lon="2.14239">
        <ele>92.2</ele>
        <time>2023-05-21T09:56:57Z</time>
      </trkpt>
      <trkpt lat="49.15379" lon="2.14239">
        <ele>92.5</ele>
        <time>2023-05-21T09:57:02Z</time>
      </trkpt>
      <trkpt lat="49.15387" lon="2.1424">
        <ele>92.9</ele>
        <time>2023-05-21T09:57:07Z</time>
      </trkpt>
      <trkpt lat="49.15394" lon="2.14243">
        <ele>93.4</ele>
        <time>2023-05-21T09:57:12Z</time>
      </trkpt>
      <trkpt lat="49.15404" lon="2.14244">
        <ele>94</ele>
        <time>2023-05-21T09:57:18Z</time>
      </trkpt>
      <trkpt lat="49.15411" lon="2.14245">
        <ele>94.4</ele>
        <time>2023-05-21T09:57:23Z</time>
      </trkpt>
      <trkpt lat="49.15421" lon="2.14246">
        <ele>94.7</ele>
        <time>2023-05-21T09:57:29Z</time>
      </trkpt>
      <trkpt lat="49.15426" lon="2.14249">
        <ele>94.9</ele>
        <time>2023-05-21T09:57:34Z</time>
      </trkpt>
      <trkpt lat="49.15432" lon="2.14252">
        <ele>95.1</ele>
        <time>2023-05-21T09:57:40Z</time>
      </trkpt>
      <trkpt lat="49.15439" lon="2.14254">
        <ele>95</ele>
        <time>2023-05-21T09:57:46Z</time>
      </trkpt>
      <trkpt lat="49.15447" lon="2.14255">
        <ele>94.8</ele>
        <time>2023-05-21T09:57:52Z</time>
      </trkpt>
      <trkpt lat="49.15454" lon="2.14257">
        <ele>94.8</ele>
        <time>2023-05-21T09:57:58Z</time>
      </trkpt>
      <trkpt lat="49.15463" lon="2.14258">
        <ele>94.9</ele>
        <time>2023-05-21T09:58:04Z</time>
      </trkpt>
      <trkpt lat="49.15471" lon="2.14256">
        <ele>95.1</ele>
        <time>2023-05-21T09:58:09Z</time>
      </trkpt>
      <trkpt lat="49.1548" lon="2.14256">
        <ele>95.5</ele>
        <time>2023-05-21T09:58:15Z</time>
      </trkpt>
      <trkpt lat="49.15485" lon="2.14256">
        <ele>95.9</ele>
        <time>2023-05-21T09:58:20Z</time>
      </trkpt>
      <trkpt lat="49.15495" lon="2.14258">
        <ele>96.2</ele>
        <time>2023-05-21T09:58:26Z</time>
      </trkpt>
      <trkpt lat="49.15503" lon="2.14259">
        <ele>96.2</ele>
        <time>2023-05-21T09:58:32Z</time>
      </trkpt>
      <trkpt lat="49.1551" lon="2.1426">
        <ele>96.5</ele>
        <time>2023-05-21T09:58:38Z</time>
      </trkpt>
      <trkpt lat="49.15517" lon="2.14261">
        <ele>96.5</ele>
        <time>2023-05-21T09:58:43Z</time>
      </trkpt>
      <trkpt lat="49.1552" lon="2.1426">
        <ele>96.6</ele>
        <time>2023-05-21T09:58:49Z</time>
      </trkpt>
      <trkpt lat="49.1552" lon="2.14263">
        <ele>96.6</ele>
        <time>2023-05-21T09:58:54Z</time>
      </trkpt>
      <trkpt lat="49.15519" lon="2.14267">
        <ele>96.5</ele>
        <time>2023-05-21T09:59:00Z</time>
      </trkpt>
      <trkpt lat="49.1552" lon="2.14277">
        <ele>96.6</ele>
        <time>2023-05-21T09:59:05Z</time>
      </trkpt>
      <trkpt lat="49.15522" lon="2.14286">
        <ele>97</ele>
        <time>2023-05-21T09:59:11Z</time>
      </trkpt>
      <trkpt lat="49.15527" lon="2.14295">
        <ele>97.2</ele>
        <time>2023-05-21T09:59:17Z</time>
      </trkpt>
      <trkpt lat="49.1553" lon="2.14304">
        <ele>97.1</ele>
        <time>2023-05-21T09:59:22Z</time>
      </trkpt>
      <trkpt lat="49.15532" lon="2.14311">
        <ele>96.9</ele>
        <time>2023-05-21T09:59:28Z</time>
      </trkpt>
      <trkpt lat="49.15534" lon="2.14319">
        <ele>96.6</ele>
        <time>2023-05-21T09:59:33Z</time>
      </trkpt>
      <trkpt lat="49.15537" lon="2.14329">
        <ele>96.2</ele>
        <time>2023-05-21T09:59:39Z</time>
      </trkpt>
      <trkpt lat="49.15539" lon="2.14337">
        <ele>96.1</ele>
        <time>2023-05-21T09:59:44Z</time>
      </trkpt>
      <trkpt lat="49.15541" lon="2.14345">
        <ele>96.1</ele>
        <time>2023-05-21T09:59:49Z</time>
      </trkpt>
      <trkpt lat="49.15545" lon="2.14358">
        <ele>96.2</ele>
        <time>2023-05-21T09:59:55Z</time>
      </trkpt>
      <trkpt lat="49.15548" lon="2.14364">
        <ele>96.1</ele>
        <time>2023-05-21T10:00:00Z</time>
      </trkpt>
      <trkpt lat="49.15549" lon="2.14372">
        <ele>95.6</ele>
        <time>2023-05-21T10:00:06Z</time>
      </trkpt>
      <trkpt lat="49.15549" lon="2.14375">
        <ele>95</ele>
        <time>2023-05-21T10:00:12Z</time>
      </trkpt>
      <trkpt lat="49.15552" lon="2.14378">
        <ele>94.8</ele>
        <time>2023-05-21T10:00:18Z</time>
      </trkpt>
      <trkpt lat="49.15552" lon="2.14378">
        <ele>94.8</ele>
        <time>2023-05-21T10:00:24Z</time>
      </trkpt>
      <trkpt lat="49.15552" lon="2.14376">
        <ele>94.3</ele>
        <time>2023-05-21T10:00:30Z</time>
      </trkpt>
      <trkpt lat="49.15551" lon="2.14367">
        <ele>94</ele>
        <time>2023-05-21T10:00:36Z</time>
      </trkpt>
      <trkpt lat="49.15551" lon="2.14366">
        <ele>94</ele>
        <time>2023-05-21T10:00:41Z</time>
      </trkpt>
      <trkpt lat="49.15551" lon="2.14365">
        <ele>94</ele>
        <time>2023-05-21T10:00:46Z</time>
      </trkpt>
      <trkpt lat="49.15551" lon="2.14365">
        <ele>94</ele>
        <time>2023-05-21T10:00:52Z</time>
      </trkpt>
      <trkpt lat="49.15551" lon="2.14365">
        <ele>93.9</ele>
        <time>2023-05-21T10:00:57Z</time>
      </trkpt>
      <trkpt lat="49.15552" lon="2.14366">
        <ele>93.8</ele>
        <time>2023-05-21T10:01:03Z</time>
      </trkpt>
      <trkpt lat="49.15551" lon="2.14368">
        <ele>93.7</ele>
        <time>2023-05-21T10:01:08Z</time>
      </trkpt>
      <trkpt lat="49.15551" lon="2.14368">
        <ele>93.5</ele>
        <time>2023-05-21T10:01:13Z</time>
      </trkpt>
      <trkpt lat="49.15552" lon="2.14369">
        <ele>93.3</ele>
        <time>2023-05-21T10:01:19Z</time>
      </trkpt>
      <trkpt lat="49.15554" lon="2.14369">
        <ele>92.8</ele>
        <time>2023-05-21T10:01:25Z</time>
      </trkpt>
      <trkpt lat="49.15559" lon="2.14371">
        <ele>93.1</ele>
        <time>2023-05-21T10:01:31Z</time>
      </trkpt>
      <trkpt lat="49.15559" lon="2.14375">
        <ele>93.4</ele>
        <time>2023-05-21T10:01:36Z</time>
      </trkpt>
      <trkpt lat="49.15558" lon="2.14375">
        <ele>93.5</ele>
        <time>2023-05-21T10:01:42Z</time>
      </trkpt>
      <trkpt lat="49.15555" lon="2.14368">
        <ele>93.6</ele>
        <time>2023-05-21T10:01:47Z</time>
      </trkpt>
      <trkpt lat="49.1555" lon="2.14357">
        <ele>93.4</ele>
        <time>2023-05-21T10:01:53Z</time>
      </trkpt>
      <trkpt lat="49.15547" lon="2.14347">
        <ele>93.2</ele>
        <time>2023-05-21T10:01:58Z</time>
      </trkpt>
      <trkpt lat="49.15544" lon="2.1434">
        <ele>92.9</ele>
        <time>2023-05-21T10:02:04Z</time>
      </trkpt>
      <trkpt lat="49.15541" lon="2.14332">
        <ele>92.6</ele>
        <time>2023-05-21T10:02:10Z</time>
      </trkpt>
      <trkpt lat="49.15539" lon="2.14325">
        <ele>92.7</ele>
        <time>2023-05-21T10:02:16Z</time>
      </trkpt>
      <trkpt lat="49.15537" lon="2.14317">
        <ele>92.9</ele>
        <time>2023-05-21T10:02:21Z</time>
      </trkpt>
      <trkpt lat="49.15535" lon="2.14309">
        <ele>93.2</ele>
        <time>2023-05-21T10:02:26Z</time>
      </trkpt>
      <trkpt lat="49.15533" lon="2.143">
        <ele>93.3</ele>
        <time>2023-05-21T10:02:32Z</time>
      </trkpt>
      <trkpt lat="49.15533" lon="2.14292">
        <ele>93.9</ele>
        <time>2023-05-21T10:02:38Z</time>
      </trkpt>
      <trkpt lat="49.1553" lon="2.14283">
        <ele>94.6</ele>
        <time>2023-05-21T10:02:44Z</time>
      </trkpt>
      <trkpt lat="49.15526" lon="2.14274">
        <ele>95.4</ele>
        <time>2023-05-21T10:02:50Z</time>
      </trkpt>
      <trkpt lat="49.15525" lon="2.14269">
        <ele>96</ele>
        <time>2023-05-21T10:02:55Z</time>
      </trkpt>
      <trkpt lat="49.15521" lon="2.1426">
        <ele>96.6</ele>
        <time>2023-05-21T10:03:01Z</time>
      </trkpt>
      <trkpt lat="49.15522" lon="2.14257">
        <ele>97.1</ele>
        <time>2023-05-21T10:03:07Z</time>
      </trkpt>
      <trkpt lat="49.15528" lon="2.14256">
        <ele>97.4</ele>
        <time>2023-05-21T10:03:12Z</time>
      </trkpt>
      <trkpt lat="49.15535" lon="2.14255">
        <ele>97.9</ele>
        <time>2023-05-21T10:03:18Z</time>
      </trkpt>
      <trkpt lat="49.1554" lon="2.14254">
        <ele>98.5</ele>
        <time>2023-05-21T10:03:23Z</time>
      </trkpt>
      <trkpt lat="49.1555" lon="2.14247">
        <ele>99.3</ele>
        <time>2023-05-21T10:03:29Z</time>
      </trkpt>
      <trkpt lat="49.15556" lon="2.1424">
        <ele>100.1</ele>
        <time>2023-05-21T10:03:34Z</time>
      </trkpt>
      <trkpt lat="49.1556" lon="2.14233">
        <ele>101.2</ele>
        <time>2023-05-21T10:03:40Z</time>
      </trkpt>
      <trkpt lat="49.15565" lon="2.14224">
        <ele>102.3</ele>
        <time>2023-05-21T10:03:46Z</time>
      </trkpt>
      <trkpt lat="49.15571" lon="2.14216">
        <ele>103</ele>
        <time>2023-05-21T10:03:51Z</time>
      </trkpt>
      <trkpt lat="49.15579" lon="2.14212">
        <ele>103.9</ele>
        <time>2023-05-21T10:03:57Z</time>
      </trkpt>
      <trkpt lat="49.15584" lon="2.14203">
        <ele>104.9</ele>
        <time>2023-05-21T10:04:02Z</time>
      </trkpt>
      <trkpt lat="49.15589" lon="2.14191">
        <ele>105.8</ele>
        <time>2023-05-21T10:04:08Z</time>
      </trkpt>
      <trkpt lat="49.15594" lon="2.14184">
        <ele>106.8</ele>
        <time>2023-05-21T10:04:14Z</time>
      </trkpt>
      <trkpt lat="49.15598" lon="2.14183">
        <ele>107.6</ele>
        <time>2023-05-21T10:04:20Z</time>
      </trkpt>
      <trkpt lat="49.15602" lon="2.14177">
        <ele>108</ele>
        <time>2023-05-21T10:04:26Z</time>
      </trkpt>
      <trkpt lat="49.15604" lon="2.14167">
        <ele>108.4</ele>
        <time>2023-05-21T10:04:31Z</time>
      </trkpt>
      <trkpt lat="49.15608" lon="2.14156">
        <ele>108.7</ele>
        <time>2023-05-21T10:04:37Z</time>
      </trkpt>
      <trkpt lat="49.15612" lon="2.14151">
        <ele>108.9</ele>
        <time>2023-05-21T10:04:42Z</time>
      </trkpt>
      <trkpt lat="49.15617" lon="2.14145">
        <ele>109.4</ele>
        <time>2023-05-21T10:04:47Z</time>
      </trkpt>
      <trkpt lat="49.15622" lon="2.14137">
        <ele>109.7</ele>
        <time>2023-05-21T10:04:53Z</time>
      </trkpt>
      <trkpt lat="49.15625" lon="2.1413">
        <ele>109.5</ele>
        <time>2023-05-21T10:04:58Z</time>
      </trkpt>
      <trkpt lat="49.15627" lon="2.14121">
        <ele>109.2</ele>
        <time>2023-05-21T10:05:04Z</time>
      </trkpt>
      <trkpt lat="49.1563" lon="2.14114">
        <ele>109.2</ele>
        <time>2023-05-21T10:05:09Z</time>
      </trkpt>
      <trkpt lat="49.15634" lon="2.14109">
        <ele>109.3</ele>
        <time>2023-05-21T10:05:15Z</time>
      </trkpt>
      <trkpt lat="49.15636" lon="2.141">
        <ele>109.4</ele>
        <time>2023-05-21T10:05:21Z</time>
      </trkpt>
      <trkpt lat="49.15637" lon="2.14097">
        <ele>109.3</ele>
        <time>2023-05-21T10:05:27Z</time>
      </trkpt>
      <trkpt lat="49.15638" lon="2.14094">
        <ele>109.1</ele>
        <time>2023-05-21T10:05:33Z</time>
      </trkpt>
      <trkpt lat="49.15639" lon="2.14093">
        <ele>109.1</ele>
        <time>2023-05-21T10:05:39Z</time>
      </trkpt>
      <trkpt lat="49.15644" lon="2.14089">
        <ele>109.3</ele>
        <time>2023-05-21T10:05:44Z</time>
      </trkpt>
      <trkpt lat="49.15646" lon="2.1408">
        <ele>109.8</ele>
        <time>2023-05-21T10:05:50Z</time>
      </trkpt>
      <trkpt lat="49.15648" lon="2.14074">
        <ele>110.1</ele>
        <time>2023-05-21T10:05:55Z</time>
      </trkpt>
      <trkpt lat="49.15646" lon="2.1407">
        <ele>110.3</ele>
        <time>2023-05-21T10:06:01Z</time>
      </trkpt>
      <trkpt lat="49.15648" lon="2.14062">
        <ele>109.5</ele>
        <time>2023-05-21T10:06:07Z</time>
      </trkpt>
      <trkpt lat="49.15657" lon="2.14055">
        <ele>108.7</ele>
        <time>2023-05-21T10:06:13Z</time>
      </trkpt>
      <trkpt lat="49.15664" lon="2.14049">
        <ele>108.1</ele>
        <time>2023-05-21T10:06:19Z</time>
      </trkpt>
      <trkpt lat="49.1567" lon="2.14047">
        <ele>107.7</ele>
        <time>2023-05-21T10:06:25Z</time>
      </trkpt>
      <trkpt lat="49.15675" lon="2.14042">
        <ele>107.1</ele>
        <time>2023-05-21T10:06:31Z</time>
      </trkpt>
      <trkpt lat="49.15682" lon="2.14041">
        <ele>106.4</ele>
        <time>2023-05-21T10:06:36Z</time>
      </trkpt>
      <trkpt lat="49.15689" lon="2.14033">
        <ele>105.9</ele>
        <time>2023-05-21T10:06:42Z</time>
      </trkpt>
      <trkpt lat="49.15696" lon="2.14025">
        <ele>105.8</ele>
        <time>2023-05-21T10:06:47Z</time>
      </trkpt>
      <trkpt lat="49.15701" lon="2.14019">
        <ele>105.6</ele>
        <time>2023-05-21T10:06:53Z</time>
      </trkpt>
      <trkpt lat="49.15706" lon="2.14012">
        <ele>105.4</ele>
        <time>2023-05-21T10:06:58Z</time>
      </trkpt>
      <trkpt lat="49.15712" lon="2.14004">
        <ele>105.1</ele>
        <time>2023-05-21T10:07:04Z</time>
      </trkpt>
      <trkpt lat="49.15715" lon="2.13994">
        <ele>104.8</ele>
        <time>2023-05-21T10:07:09Z</time>
      </trkpt>
      <trkpt lat="49.15721" lon="2.13983">
        <ele>104.5</ele>
        <time>2023-05-21T10:07:14Z</time>
      </trkpt>
      <trkpt lat="49.15726" lon="2.13974">
        <ele>104.4</ele>
        <time>2023-05-21T10:07:20Z</time>
      </trkpt>
      <trkpt lat="49.1573" lon="2.13966">
        <ele>104.5</ele>
        <time>2023-05-21T10:07:26Z</time>
      </trkpt>
      <trkpt lat="49.15732" lon="2.13961">
        <ele>104.5</ele>
        <time>2023-05-21T10:07:31Z</time>
      </trkpt>
      <trkpt lat="49.15738" lon="2.13951">
        <ele>104.5</ele>
        <time>2023-05-21T10:07:37Z</time>
      </trkpt>
      <trkpt lat="49.1574" lon="2.13944">
        <ele>104.5</ele>
        <time>2023-05-21T10:07:42Z</time>
      </trkpt>
      <trkpt lat="49.15746" lon="2.13938">
        <ele>104.2</ele>
        <time>2023-05-21T10:07:48Z</time>
      </trkpt>
      <trkpt lat="49.1575" lon="2.13932">
        <ele>104</ele>
        <time>2023-05-21T10:07:53Z</time>
      </trkpt>
      <trkpt lat="49.15753" lon="2.13927">
        <ele>103.8</ele>
        <time>2023-05-21T10:07:59Z</time>
      </trkpt>
      <trkpt lat="49.1576" lon="2.13919">
        <ele>103.8</ele>
        <time>2023-05-21T10:08:04Z</time>
      </trkpt>
      <trkpt lat="49.15766" lon="2.13909">
        <ele>103.5</ele>
        <time>2023-05-21T10:08:10Z</time>
      </trkpt>
      <trkpt lat="49.1577" lon="2.13904">
        <ele>103.1</ele>
        <time>2023-05-21T10:08:15Z</time>
      </trkpt>
      <trkpt lat="49.15778" lon="2.13897">
        <ele>103</ele>
        <time>2023-05-21T10:08:21Z</time>
      </trkpt>
      <trkpt lat="49.15784" lon="2.13891">
        <ele>103</ele>
        <time>2023-05-21T10:08:26Z</time>
      </trkpt>
      <trkpt lat="49.1579" lon="2.13884">
        <ele>103</ele>
        <time>2023-05-21T10:08:31Z</time>
      </trkpt>
      <trkpt lat="49.15794" lon="2.13878">
        <ele>103.1</ele>
        <time>2023-05-21T10:08:36Z</time>
      </trkpt>
      <trkpt lat="49.15798" lon="2.13877">
        <ele>103.5</ele>
        <time>2023-05-21T10:08:42Z</time>
      </trkpt>
      <trkpt lat="49.15805" lon="2.13872">
        <ele>103.9</ele>
        <time>2023-05-21T10:08:48Z</time>
      </trkpt>
      <trkpt lat="49.15811" lon="2.13861">
        <ele>104.3</ele>
        <time>2023-05-21T10:08:54Z</time>
      </trkpt>
      <trkpt lat="49.15819" lon="2.13849">
        <ele>104.6</ele>
        <time>2023-05-21T10:08:59Z</time>
      </trkpt>
      <trkpt lat="49.15826" lon="2.13843">
        <ele>104.6</ele>
        <time>2023-05-21T10:09:04Z</time>
      </trkpt>
      <trkpt lat="49.15834" lon="2.13835">
        <ele>105</ele>
        <time>2023-05-21T10:09:10Z</time>
      </trkpt>
      <trkpt lat="49.15837" lon="2.13829">
        <ele>105.6</ele>
        <time>2023-05-21T10:09:15Z</time>
      </trkpt>
      <trkpt lat="49.15842" lon="2.13826">
        <ele>106.2</ele>
        <time>2023-05-21T10:09:21Z</time>
      </trkpt>
      <trkpt lat="49.15845" lon="2.13822">
        <ele>106.6</ele>
        <time>2023-05-21T10:09:27Z</time>
      </trkpt>
      <trkpt lat="49.15849" lon="2.13817">
        <ele>107.2</ele>
        <time>2023-05-21T10:09:33Z</time>
      </trkpt>
      <trkpt lat="49.15854" lon="2.13812">
        <ele>107.4</ele>
        <time>2023-05-21T10:09:38Z</time>
      </trkpt>
      <trkpt lat="49.15861" lon="2.13807">
        <ele>107.6</ele>
        <time>2023-05-21T10:09:44Z</time>
      </trkpt>
      <trkpt lat="49.15864" lon="2.13804">
        <ele>108</ele>
        <time>2023-05-21T10:09:50Z</time>
      </trkpt>
      <trkpt lat="49.1587" lon="2.13802">
        <ele>108.1</ele>
        <time>2023-05-21T10:09:55Z</time>
      </trkpt>
      <trkpt lat="49.15877" lon="2.13803">
        <ele>108.1</ele>
        <time>2023-05-21T10:10:00Z</time>
      </trkpt>
      <trkpt lat="49.15883" lon="2.13807">
        <ele>108</ele>
        <time>2023-05-21T10:10:05Z</time>
      </trkpt>
      <trkpt lat="49.15886" lon="2.13817">
        <ele>107.6</ele>
        <time>2023-05-21T10:10:11Z</time>
      </trkpt>
      <trkpt lat="49.15892" lon="2.13825">
        <ele>106.9</ele>
        <time>2023-05-21T10:10:17Z</time>
      </trkpt>
      <trkpt lat="49.15901" lon="2.13833">
        <ele>106.1</ele>
        <time>2023-05-21T10:10:23Z</time>
      </trkpt>
      <trkpt lat="49.15907" lon="2.13841">
        <ele>105.1</ele>
        <time>2023-05-21T10:10:28Z</time>
      </trkpt>
      <trkpt lat="49.15913" lon="2.13851">
        <ele>103.8</ele>
        <time>2023-05-21T10:10:34Z</time>
      </trkpt>
      <trkpt lat="49.15918" lon="2.13865">
        <ele>102.8</ele>
        <time>2023-05-21T10:10:40Z</time>
      </trkpt>
      <trkpt lat="49.15925" lon="2.13874">
        <ele>102.2</ele>
        <time>2023-05-21T10:10:46Z</time>
      </trkpt>
      <trkpt lat="49.1593" lon="2.13875">
        <ele>101.5</ele>
        <time>2023-05-21T10:10:52Z</time>
      </trkpt>
      <trkpt lat="49.15938" lon="2.13873">
        <ele>100.9</ele>
        <time>2023-05-21T10:10:58Z</time>
      </trkpt>
      <trkpt lat="49.15945" lon="2.13872">
        <ele>100.6</ele>
        <time>2023-05-21T10:11:03Z</time>
      </trkpt>
      <trkpt lat="49.15951" lon="2.13874">
        <ele>100.1</ele>
        <time>2023-05-21T10:11:08Z</time>
      </trkpt>
      <trkpt lat="49.15958" lon="2.13877">
        <ele>99.7</ele>
        <time>2023-05-21T10:11:13Z</time>
      </trkpt>
      <trkpt lat="49.15966" lon="2.1388">
        <ele>99.6</ele>
        <time>2023-05-21T10:11:19Z</time>
      </trkpt>
      <trkpt lat="49.15971" lon="2.13884">
        <ele>99.5</ele>
        <time>2023-05-21T10:11:24Z</time>
      </trkpt>
      <trkpt lat="49.15979" lon="2.13888">
        <ele>99.6</ele>
        <time>2023-05-21T10:11:30Z</time>
      </trkpt>
      <trkpt lat="49.15989" lon="2.13892">
        <ele>99.3</ele>
        <time>2023-05-21T10:11:36Z</time>
      </trkpt>
      <trkpt lat="49.15997" lon="2.13889">
        <ele>99.1</ele>
        <time>2023-05-21T10:11:41Z</time>
      </trkpt>
      <trkpt lat="49.16004" lon="2.1389">
        <ele>98.6</ele>
        <time>2023-05-21T10:11:47Z</time>
      </trkpt>
      <trkpt lat="49.16011" lon="2.13896">
        <ele>98.1</ele>
        <time>2023-05-21T10:11:53Z</time>
      </trkpt>
      <trkpt lat="49.16018" lon="2.139">
        <ele>97.9</ele>
        <time>2023-05-21T10:11:58Z</time>
      </trkpt>
      <trkpt lat="49.16023" lon="2.13905">
        <ele>97.8</ele>
        <time>2023-05-21T10:12:03Z</time>
      </trkpt>
      <trkpt lat="49.16028" lon="2.13912">
        <ele>97.9</ele>
        <time>2023-05-21T10:12:09Z</time>
      </trkpt>
      <trkpt lat="49.16033" lon="2.13915">
        <ele>97.9</ele>
        <time>2023-05-21T10:12:14Z</time>
      </trkpt>
      <trkpt lat="49.1604" lon="2.13924">
        <ele>97.7</ele>
        <time>2023-05-21T10:12:20Z</time>
      </trkpt>
      <trkpt lat="49.16044" lon="2.13929">
        <ele>97.6</ele>
        <time>2023-05-21T10:12:25Z</time>
      </trkpt>
      <trkpt lat="49.16049" lon="2.13937">
        <ele>97.6</ele>
        <time>2023-05-21T10:12:30Z</time>
      </trkpt>
      <trkpt lat="49.16057" lon="2.13946">
        <ele>97.9</ele>
        <time>2023-05-21T10:12:36Z</time>
      </trkpt>
      <trkpt lat="49.16061" lon="2.13954">
        <ele>98.1</ele>
        <time>2023-05-21T10:12:41Z</time>
      </trkpt>
      <trkpt lat="49.16067" lon="2.1396">
        <ele>98.6</ele>
        <time>2023-05-21T10:12:47Z</time>
      </trkpt>
      <trkpt lat="49.16068" lon="2.13966">
        <ele>99.2</ele>
        <time>2023-05-21T10:12:53Z</time>
      </trkpt>
      <trkpt lat="49.1607" lon="2.13969">
        <ele>99.6</ele>
        <time>2023-05-21T10:12:58Z</time>
      </trkpt>
      <trkpt lat="49.16069" lon="2.13968">
        <ele>99.7</ele>
        <time>2023-05-21T10:13:03Z</time>
      </trkpt>
      <trkpt lat="49.16069" lon="2.13966">
        <ele>99.7</ele>
        <time>2023-05-21T10:13:09Z</time>
      </trkpt>
      <trkpt lat="49.16069" lon="2.13965">
        <ele>99.6</ele>
        <time>2023-05-21T10:13:15Z</time>
      </trkpt>
      <trkpt lat="49.16069" lon="2.13966">
        <ele>99.5</ele>
        <time>2023-05-21T10:13:22Z</time>
      </trkpt>
      <trkpt lat="49.16069" lon="2.13966">
        <ele>99.3</ele>
        <time>2023-05-21T10:13:28Z</time>
      </trkpt>
      <trkpt lat="49.16069" lon="2.13967">
        <ele>99.3</ele>
        <time>2023-05-21T10:13:34Z</time>
      </trkpt>
      <trkpt lat="49.16069" lon="2.13967">
        <ele>99.3</ele>
        <time>2023-05-21T10:13:39Z</time>
      </trkpt>
      <trkpt lat="49.16069" lon="2.13967">
        <ele>99.2</ele>
        <time>2023-05-21T10:13:45Z</time>
      </trkpt>
      <trkpt lat="49.16069" lon="2.13968">
        <ele>99.2</ele>
        <time>2023-05-21T10:13:50Z</time>
      </trkpt>
      <trkpt lat="49.16069" lon="2.13967">
        <ele>99.2</ele>
        <time>2023-05-21T10:13:56Z</time>
      </trkpt>
      <trkpt lat="49.16069" lon="2.13967">
        <ele>99.3</ele>
        <time>2023-05-21T10:14:02Z</time>
      </trkpt>
      <trkpt lat="49.16069" lon="2.13966">
        <ele>99.4</ele>
        <time>2023-05-21T10:14:07Z</time>
      </trkpt>
      <trkpt lat="49.1607" lon="2.13964">
        <ele>99.6</ele>
        <time>2023-05-21T10:14:12Z</time>
      </trkpt>
      <trkpt lat="49.16071" lon="2.1396">
        <ele>99.8</ele>
        <time>2023-05-21T10:14:17Z</time>
      </trkpt>
      <trkpt lat="49.16072" lon="2.13961">
        <ele>100</ele>
        <time>2023-05-21T10:14:23Z</time>
      </trkpt>
      <trkpt lat="49.16074" lon="2.1396">
        <ele>100.5</ele>
        <time>2023-05-21T10:14:29Z</time>
      </trkpt>
      <trkpt lat="49.16081" lon="2.13953">
        <ele>100.6</ele>
        <time>2023-05-21T10:14:35Z</time>
      </trkpt>
      <trkpt lat="49.16086" lon="2.13946">
        <ele>100.6</ele>
        <time>2023-05-21T10:14:40Z</time>
      </trkpt>
      <trkpt lat="49.16094" lon="2.1394">
        <ele>100.7</ele>
        <time>2023-05-21T10:14:46Z</time>
      </trkpt>
      <trkpt lat="49.16097" lon="2.13934">
        <ele>101</ele>
        <time>2023-05-21T10:14:51Z</time>
      </trkpt>
      <trkpt lat="49.16099" lon="2.13925">
        <ele>101.3</ele>
        <time>2023-05-21T10:14:56Z</time>
      </trkpt>
      <trkpt lat="49.16102" lon="2.13916">
        <ele>101.4</ele>
        <time>2023-05-21T10:15:02Z</time>
      </trkpt>
      <trkpt lat="49.16105" lon="2.13907">
        <ele>101.5</ele>
        <time>2023-05-21T10:15:07Z</time>
      </trkpt>
      <trkpt lat="49.16109" lon="2.13898">
        <ele>101.2</ele>
        <time>2023-05-21T10:15:12Z</time>
      </trkpt>
      <trkpt lat="49.16113" lon="2.13886">
        <ele>100.7</ele>
        <time>2023-05-21T10:15:18Z</time>
      </trkpt>
      <trkpt lat="49.16119" lon="2.13878">
        <ele>100.4</ele>
        <time>2023-05-21T10:15:24Z</time>
      </trkpt>
      <trkpt lat="49.16124" lon="2.13871">
        <ele>100.1</ele>
        <time>2023-05-21T10:15:29Z</time>
      </trkpt>
      <trkpt lat="49.16126" lon="2.13865">
        <ele>99.8</ele>
        <time>2023-05-21T10:15:35Z</time>
      </trkpt>
      <trkpt lat="49.16126" lon="2.13865">
        <ele>99.7</ele>
        <time>2023-05-21T10:15:41Z</time>
      </trkpt>
      <trkpt lat="49.16125" lon="2.13866">
        <ele>99.7</ele>
        <time>2023-05-21T10:15:46Z</time>
      </trkpt>
      <trkpt lat="49.16125" lon="2.13866">
        <ele>99.7</ele>
        <time>2023-05-21T10:15:51Z</time>
      </trkpt>
      <trkpt lat="49.16125" lon="2.13866">
        <ele>99.5</ele>
        <time>2023-05-21T10:15:56Z</time>
      </trkpt>
      <trkpt lat="49.16123" lon="2.13867">
        <ele>99.1</ele>
        <time>2023-05-21T10:16:02Z</time>
      </trkpt>
      <trkpt lat="49.16123" lon="2.13867">
        <ele>99</ele>
        <time>2023-05-21T10:16:07Z</time>
      </trkpt>
      <trkpt lat="49.16128" lon="2.13863">
        <ele>98.7</ele>
        <time>2023-05-21T10:16:12Z</time>
      </trkpt>
      <trkpt lat="49.16133" lon="2.13857">
        <ele>98.3</ele>
        <time>2023-05-21T10:16:17Z</time>
      </trkpt>
      <trkpt lat="49.16141" lon="2.13851">
        <ele>98</ele>
        <time>2023-05-21T10:16:23Z</time>
      </trkpt>
      <trkpt lat="49.16147" lon="2.13846">
        <ele>97.6</ele>
        <time>2023-05-21T10:16:28Z</time>
      </trkpt>
      <trkpt lat="49.16152" lon="2.1384">
        <ele>97.3</ele>
        <time>2023-05-21T10:16:34Z</time>
      </trkpt>
      <trkpt lat="49.16158" lon="2.13836">
        <ele>97.2</ele>
        <time>2023-05-21T10:16:39Z</time>
      </trkpt>
      <trkpt lat="49.16164" lon="2.13831">
        <ele>97.3</ele>
        <time>2023-05-21T10:16:45Z</time>
      </trkpt>
      <trkpt lat="49.16168" lon="2.13826">
        <ele>97.5</ele>
        <time>2023-05-21T10:16:50Z</time>
      </trkpt>
      <trkpt lat="49.16174" lon="2.13816">
        <ele>97.6</ele>
        <time>2023-05-21T10:16:56Z</time>
      </trkpt>
      <trkpt lat="49.16178" lon="2.13807">
        <ele>97.7</ele>
        <time>2023-05-21T10:17:01Z</time>
      </trkpt>
      <trkpt lat="49.16182" lon="2.13798">
        <ele>97.8</ele>
        <time>2023-05-21T10:17:06Z</time>
      </trkpt>
      <trkpt lat="49.16187" lon="2.13788">
        <ele>98</ele>
        <time>2023-05-21T10:17:12Z</time>
      </trkpt>
      <trkpt lat="49.16189" lon="2.1378">
        <ele>98.1</ele>
        <time>2023-05-21T10:17:17Z</time>
      </trkpt>
      <trkpt lat="49.16193" lon="2.13772">
        <ele>98.4</ele>
        <time>2023-05-21T10:17:23Z</time>
      </trkpt>
      <trkpt lat="49.16196" lon="2.13767">
        <ele>98.7</ele>
        <time>2023-05-21T10:17:28Z</time>
      </trkpt>
      <trkpt lat="49.162" lon="2.13761">
        <ele>99</ele>
        <time>2023-05-21T10:17:34Z</time>
      </trkpt>
      <trkpt lat="49.16205" lon="2.13756">
        <ele>99.2</ele>
        <time>2023-05-21T10:17:40Z</time>
      </trkpt>
      <trkpt lat="49.1621" lon="2.1375">
        <ele>99.4</ele>
        <time>2023-05-21T10:17:46Z</time>
      </trkpt>
      <trkpt lat="49.16214" lon="2.13743">
        <ele>99.7</ele>
        <time>2023-05-21T10:17:52Z</time>
      </trkpt>
      <trkpt lat="49.16215" lon="2.13738">
        <ele>100.1</ele>
        <time>2023-05-21T10:17:58Z</time>
      </trkpt>
      <trkpt lat="49.1622" lon="2.13729">
        <ele>100.7</ele>
        <time>2023-05-21T10:18:04Z</time>
      </trkpt>
      <trkpt lat="49.16222" lon="2.13723">
        <ele>101.2</ele>
        <time>2023-05-21T10:18:10Z</time>
      </trkpt>
      <trkpt lat="49.16226" lon="2.13715">
        <ele>101.7</ele>
        <time>2023-05-21T10:18:15Z</time>
      </trkpt>
      <trkpt lat="49.1623" lon="2.13702">
        <ele>102.4</ele>
        <time>2023-05-21T10:18:20Z</time>
      </trkpt>
      <trkpt lat="49.16233" lon="2.13691">
        <ele>103</ele>
        <time>2023-05-21T10:18:25Z</time>
      </trkpt>
      <trkpt lat="49.16235" lon="2.1368">
        <ele>103.8</ele>
        <time>2023-05-21T10:18:31Z</time>
      </trkpt>
      <trkpt lat="49.16236" lon="2.13673">
        <ele>104.8</ele>
        <time>2023-05-21T10:18:37Z</time>
      </trkpt>
      <trkpt lat="49.16238" lon="2.13665">
        <ele>105.2</ele>
        <time>2023-05-21T10:18:42Z</time>
      </trkpt>
      <trkpt lat="49.16238" lon="2.13654">
        <ele>105.3</ele>
        <time>2023-05-21T10:18:48Z</time>
      </trkpt>
      <trkpt lat="49.1624" lon="2.13649">
        <ele>105.2</ele>
        <time>2023-05-21T10:18:53Z</time>
      </trkpt>
      <trkpt lat="49.16241" lon="2.13637">
        <ele>105.2</ele>
        <time>2023-05-21T10:18:58Z</time>
      </trkpt>
      <trkpt lat="49.16242" lon="2.13626">
        <ele>105.4</ele>
        <time>2023-05-21T10:19:03Z</time>
      </trkpt>
      <trkpt lat="49.16245" lon="2.1362">
        <ele>105.6</ele>
        <time>2023-05-21T10:19:09Z</time>
      </trkpt>
      <trkpt lat="49.16247" lon="2.13609">
        <ele>105.5</ele>
        <time>2023-05-21T10:19:15Z</time>
      </trkpt>
      <trkpt lat="49.16249" lon="2.13598">
        <ele>105.5</ele>
        <time>2023-05-21T10:19:20Z</time>
      </trkpt>
      <trkpt lat="49.16247" lon="2.13583">
        <ele>105.9</ele>
        <time>2023-05-21T10:19:26Z</time>
      </trkpt>
      <trkpt lat="49.16244" lon="2.13568">
        <ele>106.8</ele>
        <time>2023-05-21T10:19:32Z</time>
      </trkpt>
      <trkpt lat="49.16245" lon="2.1356">
        <ele>107.6</ele>
        <time>2023-05-21T10:19:37Z</time>
      </trkpt>
      <trkpt lat="49.16246" lon="2.1355">
        <ele>108.7</ele>
        <time>2023-05-21T10:19:43Z</time>
      </trkpt>
      <trkpt lat="49.16247" lon="2.13542">
        <ele>109.5</ele>
        <time>2023-05-21T10:19:48Z</time>
      </trkpt>
      <trkpt lat="49.16248" lon="2.13531">
        <ele>110.3</ele>
        <time>2023-05-21T10:19:54Z</time>
      </trkpt>
      <trkpt lat="49.1625" lon="2.13519">
        <ele>111</ele>
        <time>2023-05-21T10:19:59Z</time>
      </trkpt>
      <trkpt lat="49.16251" lon="2.13507">
        <ele>111.6</ele>
        <time>2023-05-21T10:20:05Z</time>
      </trkpt>
      <trkpt lat="49.16251" lon="2.135">
        <ele>112</ele>
        <time>2023-05-21T10:20:10Z</time>
      </trkpt>
      <trkpt lat="49.16251" lon="2.13489">
        <ele>112.6</ele>
        <time>2023-05-21T10:20:15Z</time>
      </trkpt>
      <trkpt lat="49.1625" lon="2.13479">
        <ele>113</ele>
        <time>2023-05-21T10:20:20Z</time>
      </trkpt>
      <trkpt lat="49.16254" lon="2.13466">
        <ele>113.9</ele>
        <time>2023-05-21T10:20:26Z</time>
      </trkpt>
      <trkpt lat="49.16255" lon="2.13456">
        <ele>114.7</ele>
        <time>2023-05-21T10:20:32Z</time>
      </trkpt>
      <trkpt lat="49.16258" lon="2.13446">
        <ele>115.2</ele>
        <time>2023-05-21T10:20:38Z</time>
      </trkpt>
      <trkpt lat="49.1626" lon="2.13437">
        <ele>115.4</ele>
        <time>2023-05-21T10:20:43Z</time>
      </trkpt>
      <trkpt lat="49.16262" lon="2.1343">
        <ele>115.6</ele>
        <time>2023-05-21T10:20:48Z</time>
      </trkpt>
      <trkpt lat="49.16266" lon="2.13418">
        <ele>116.1</ele>
        <time>2023-05-21T10:20:54Z</time>
      </trkpt>
      <trkpt lat="49.1627" lon="2.13405">
        <ele>116.4</ele>
        <time>2023-05-21T10:21:00Z</time>
      </trkpt>
      <trkpt lat="49.16274" lon="2.13397">
        <ele>116.5</ele>
        <time>2023-05-21T10:21:06Z</time>
      </trkpt>
      <trkpt lat="49.16279" lon="2.13388">
        <ele>116.7</ele>
        <time>2023-05-21T10:21:11Z</time>
      </trkpt>
      <trkpt lat="49.16285" lon="2.13377">
        <ele>117.1</ele>
        <time>2023-05-21T10:21:17Z</time>
      </trkpt>
      <trkpt lat="49.16288" lon="2.13369">
        <ele>117.4</ele>
        <time>2023-05-21T10:21:22Z</time>
      </trkpt>
      <trkpt lat="49.16293" lon="2.13362">
        <ele>117.7</ele>
        <time>2023-05-21T10:21:28Z</time>
      </trkpt>
      <trkpt lat="49.16299" lon="2.13355">
        <ele>118.3</ele>
        <time>2023-05-21T10:21:34Z</time>
      </trkpt>
      <trkpt lat="49.16306" lon="2.13345">
        <ele>118.9</ele>
        <time>2023-05-21T10:21:39Z</time>
      </trkpt>
      <trkpt lat="49.16313" lon="2.13339">
        <ele>119.5</ele>
        <time>2023-05-21T10:21:44Z</time>
      </trkpt>
      <trkpt lat="49.16318" lon="2.13331">
        <ele>120.4</ele>
        <time>2023-05-21T10:21:50Z</time>
      </trkpt>
      <trkpt lat="49.16322" lon="2.13325">
        <ele>121.2</ele>
        <time>2023-05-21T10:21:55Z</time>
      </trkpt>
      <trkpt lat="49.16327" lon="2.13317">
        <ele>121.9</ele>
        <time>2023-05-21T10:22:01Z</time>
      </trkpt>
      <trkpt lat="49.16331" lon="2.13309">
        <ele>122.5</ele>
        <time>2023-05-21T10:22:06Z</time>
      </trkpt>
      <trkpt lat="49.16335" lon="2.13301">
        <ele>123.4</ele>
        <time>2023-05-21T10:22:12Z</time>
      </trkpt>
      <trkpt lat="49.1634" lon="2.13293">
        <ele>123.9</ele>
        <time>2023-05-21T10:22:17Z</time>
      </trkpt>
      <trkpt lat="49.16345" lon="2.13285">
        <ele>124.4</ele>
        <time>2023-05-21T10:22:23Z</time>
      </trkpt>
      <trkpt lat="49.16349" lon="2.13278">
        <ele>124.8</ele>
        <time>2023-05-21T10:22:28Z</time>
      </trkpt>
      <trkpt lat="49.16357" lon="2.13269">
        <ele>125.2</ele>
        <time>2023-05-21T10:22:34Z</time>
      </trkpt>
      <trkpt lat="49.1636" lon="2.13262">
        <ele>125.6</ele>
        <time>2023-05-21T10:22:39Z</time>
      </trkpt>
      <trkpt lat="49.16363" lon="2.13255">
        <ele>126</ele>
        <time>2023-05-21T10:22:45Z</time>
      </trkpt>
      <trkpt lat="49.16368" lon="2.1325">
        <ele>126.1</ele>
        <time>2023-05-21T10:22:50Z</time>
      </trkpt>
      <trkpt lat="49.16374" lon="2.13241">
        <ele>126.2</ele>
        <time>2023-05-21T10:22:56Z</time>
      </trkpt>
      <trkpt lat="49.1638" lon="2.13237">
        <ele>126.4</ele>
        <time>2023-05-21T10:23:02Z</time>
      </trkpt>
      <trkpt lat="49.16384" lon="2.13231">
        <ele>126.7</ele>
        <time>2023-05-21T10:23:07Z</time>
      </trkpt>
      <trkpt lat="49.16393" lon="2.13226">
        <ele>126.9</ele>
        <time>2023-05-21T10:23:13Z</time>
      </trkpt>
      <trkpt lat="49.16398" lon="2.13219">
        <ele>127</ele>
        <time>2023-05-21T10:23:18Z</time>
      </trkpt>
      <trkpt lat="49.16403" lon="2.13214">
        <ele>127.2</ele>
        <time>2023-05-21T10:23:24Z</time>
      </trkpt>
      <trkpt lat="49.16411" lon="2.13208">
        <ele>127.6</ele>
        <time>2023-05-21T10:23:30Z</time>
      </trkpt>
      <trkpt lat="49.16414" lon="2.13204">
        <ele>128</ele>
        <time>2023-05-21T10:23:35Z</time>
      </trkpt>
      <trkpt lat="49.16419" lon="2.13198">
        <ele>128.6</ele>
        <time>2023-05-21T10:23:41Z</time>
      </trkpt>
      <trkpt lat="49.16424" lon="2.13192">
        <ele>128.9</ele>
        <time>2023-05-21T10:23:47Z</time>
      </trkpt>
      <trkpt lat="49.16428" lon="2.13189">
        <ele>129.1</ele>
        <time>2023-05-21T10:23:52Z</time>
      </trkpt>
      <trkpt lat="49.16435" lon="2.13181">
        <ele>129.6</ele>
        <time>2023-05-21T10:23:58Z</time>
      </trkpt>
      <trkpt lat="49.16441" lon="2.13173">
        <ele>130.1</ele>
        <time>2023-05-21T10:24:04Z</time>
      </trkpt>
      <trkpt lat="49.16446" lon="2.13163">
        <ele>130.8</ele>
        <time>2023-05-21T10:24:10Z</time>
      </trkpt>
      <trkpt lat="49.1645" lon="2.13156">
        <ele>131.3</ele>
        <time>2023-05-21T10:24:15Z</time>
      </trkpt>
      <trkpt lat="49.16456" lon="2.13149">
        <ele>131.7</ele>
        <time>2023-05-21T10:24:20Z</time>
      </trkpt>
      <trkpt lat="49.16461" lon="2.13143">
        <ele>131.8</ele>
        <time>2023-05-21T10:24:26Z</time>
      </trkpt>
      <trkpt lat="49.16466" lon="2.13137">
        <ele>132</ele>
        <time>2023-05-21T10:24:32Z</time>
      </trkpt>
      <trkpt lat="49.16472" lon="2.1313">
        <ele>132.2</ele>
        <time>2023-05-21T10:24:37Z</time>
      </trkpt>
      <trkpt lat="49.16478" lon="2.1312">
        <ele>132.7</ele>
        <time>2023-05-21T10:24:43Z</time>
      </trkpt>
      <trkpt lat="49.16484" lon="2.13112">
        <ele>133.1</ele>
        <time>2023-05-21T10:24:48Z</time>
      </trkpt>
      <trkpt lat="49.16489" lon="2.13102">
        <ele>133.8</ele>
        <time>2023-05-21T10:24:54Z</time>
      </trkpt>
      <trkpt lat="49.16495" lon="2.13094">
        <ele>134.3</ele>
        <time>2023-05-21T10:24:59Z</time>
      </trkpt>
      <trkpt lat="49.16498" lon="2.13089">
        <ele>134.8</ele>
        <time>2023-05-21T10:25:05Z</time>
      </trkpt>
      <trkpt lat="49.165" lon="2.13087">
        <ele>134.9</ele>
        <time>2023-05-21T10:25:10Z</time>
      </trkpt>
      <trkpt lat="49.16504" lon="2.13082">
        <ele>134.8</ele>
        <time>2023-05-21T10:25:15Z</time>
      </trkpt>
      <trkpt lat="49.16509" lon="2.13077">
        <ele>134.8</ele>
        <time>2023-05-21T10:25:21Z</time>
      </trkpt>
      <trkpt lat="49.16515" lon="2.13072">
        <ele>134.9</ele>
        <time>2023-05-21T10:25:27Z</time>
      </trkpt>
      <trkpt lat="49.16519" lon="2.13068">
        <ele>135.2</ele>
        <time>2023-05-21T10:25:32Z</time>
      </trkpt>
      <trkpt lat="49.16525" lon="2.13065">
        <ele>135.6</ele>
        <time>2023-05-21T10:25:37Z</time>
      </trkpt>
      <trkpt lat="49.16531" lon="2.13059">
        <ele>136</ele>
        <time>2023-05-21T10:25:43Z</time>
      </trkpt>
      <trkpt lat="49.16538" lon="2.13052">
        <ele>136.4</ele>
        <time>2023-05-21T10:25:49Z</time>
      </trkpt>
      <trkpt lat="49.16544" lon="2.13051">
        <ele>136.9</ele>
        <time>2023-05-21T10:25:54Z</time>
      </trkpt>
      <trkpt lat="49.16552" lon="2.13047">
        <ele>137.9</ele>
        <time>2023-05-21T10:26:00Z</time>
      </trkpt>
      <trkpt lat="49.16557" lon="2.1304">
        <ele>138.8</ele>
        <time>2023-05-21T10:26:06Z</time>
      </trkpt>
      <trkpt lat="49.16565" lon="2.13033">
        <ele>139.5</ele>
        <time>2023-05-21T10:26:12Z</time>
      </trkpt>
      <trkpt lat="49.16572" lon="2.13028">
        <ele>140</ele>
        <time>2023-05-21T10:26:18Z</time>
      </trkpt>
      <trkpt lat="49.16576" lon="2.13024">
        <ele>140.1</ele>
        <time>2023-05-21T10:26:23Z</time>
      </trkpt>
      <trkpt lat="49.16581" lon="2.13016">
        <ele>140.2</ele>
        <time>2023-05-21T10:26:28Z</time>
      </trkpt>
      <trkpt lat="49.16587" lon="2.13007">
        <ele>140.2</ele>
        <time>2023-05-21T10:26:34Z</time>
      </trkpt>
      <trkpt lat="49.16593" lon="2.12998">
        <ele>140.3</ele>
        <time>2023-05-21T10:26:40Z</time>
      </trkpt>
      <trkpt lat="49.166" lon="2.12991">
        <ele>140.4</ele>
        <time>2023-05-21T10:26:46Z</time>
      </trkpt>
      <trkpt lat="49.16607" lon="2.12985">
        <ele>140.6</ele>
        <time>2023-05-21T10:26:51Z</time>
      </trkpt>
      <trkpt lat="49.16614" lon="2.12977">
        <ele>140.9</ele>
        <time>2023-05-21T10:26:57Z</time>
      </trkpt>
      <trkpt lat="49.16621" lon="2.12972">
        <ele>141.2</ele>
        <time>2023-05-21T10:27:03Z</time>
      </trkpt>
      <trkpt lat="49.16627" lon="2.12967">
        <ele>141.6</ele>
        <time>2023-05-21T10:27:09Z</time>
      </trkpt>
      <trkpt lat="49.16631" lon="2.12962">
        <ele>141.9</ele>
        <time>2023-05-21T10:27:14Z</time>
      </trkpt>
      <trkpt lat="49.16636" lon="2.12957">
        <ele>142.4</ele>
        <time>2023-05-21T10:27:20Z</time>
      </trkpt>
      <trkpt lat="49.16643" lon="2.12951">
        <ele>142.9</ele>
        <time>2023-05-21T10:27:26Z</time>
      </trkpt>
      <trkpt lat="49.16652" lon="2.12946">
        <ele>143.2</ele>
        <time>2023-05-21T10:27:32Z</time>
      </trkpt>
      <trkpt lat="49.16661" lon="2.12943">
        <ele>143.4</ele>
        <time>2023-05-21T10:27:38Z</time>
      </trkpt>
      <trkpt lat="49.16671" lon="2.12939">
        <ele>143.4</ele>
        <time>2023-05-21T10:27:44Z</time>
      </trkpt>
      <trkpt lat="49.16676" lon="2.12934">
        <ele>143.3</ele>
        <time>2023-05-21T10:27:49Z</time>
      </trkpt>
      <trkpt lat="49.16681" lon="2.12929">
        <ele>143.1</ele>
        <time>2023-05-21T10:27:54Z</time>
      </trkpt>
      <trkpt lat="49.16687" lon="2.12922">
        <ele>142.8</ele>
        <time>2023-05-21T10:28:00Z</time>
      </trkpt>
      <trkpt lat="49.16696" lon="2.12913">
        <ele>142.6</ele>
        <time>2023-05-21T10:28:07Z</time>
      </trkpt>
      <trkpt lat="49.16703" lon="2.12902">
        <ele>142.4</ele>
        <time>2023-05-21T10:28:13Z</time>
      </trkpt>
      <trkpt lat="49.16706" lon="2.12895">
        <ele>142.2</ele>
        <time>2023-05-21T10:28:18Z</time>
      </trkpt>
      <trkpt lat="49.16711" lon="2.12882">
        <ele>141.9</ele>
        <time>2023-05-21T10:28:24Z</time>
      </trkpt>
      <trkpt lat="49.16716" lon="2.12872">
        <ele>141.8</ele>
        <time>2023-05-21T10:28:30Z</time>
      </trkpt>
      <trkpt lat="49.1672" lon="2.12863">
        <ele>141.8</ele>
        <time>2023-05-21T10:28:36Z</time>
      </trkpt>
      <trkpt lat="49.16722" lon="2.12853">
        <ele>141.6</ele>
        <time>2023-05-21T10:28:41Z</time>
      </trkpt>
      <trkpt lat="49.16724" lon="2.12845">
        <ele>141.5</ele>
        <time>2023-05-21T10:28:46Z</time>
      </trkpt>
      <trkpt lat="49.1673" lon="2.12836">
        <ele>141.5</ele>
        <time>2023-05-21T10:28:52Z</time>
      </trkpt>
      <trkpt lat="49.16733" lon="2.12828">
        <ele>141.7</ele>
        <time>2023-05-21T10:28:57Z</time>
      </trkpt>
      <trkpt lat="49.16738" lon="2.12818">
        <ele>141.9</ele>
        <time>2023-05-21T10:29:03Z</time>
      </trkpt>
      <trkpt lat="49.16741" lon="2.12809">
        <ele>142.2</ele>
        <time>2023-05-21T10:29:08Z</time>
      </trkpt>
      <trkpt lat="49.16745" lon="2.12798">
        <ele>142.6</ele>
        <time>2023-05-21T10:29:14Z</time>
      </trkpt>
      <trkpt lat="49.16748" lon="2.12788">
        <ele>142.8</ele>
        <time>2023-05-21T10:29:20Z</time>
      </trkpt>
      <trkpt lat="49.16753" lon="2.1278">
        <ele>143.2</ele>
        <time>2023-05-21T10:29:26Z</time>
      </trkpt>
      <trkpt lat="49.16756" lon="2.1277">
        <ele>143.6</ele>
        <time>2023-05-21T10:29:31Z</time>
      </trkpt>
      <trkpt lat="49.1676" lon="2.12761">
        <ele>143.8</ele>
        <time>2023-05-21T10:29:37Z</time>
      </trkpt>
      <trkpt lat="49.16762" lon="2.12752">
        <ele>143.9</ele>
        <time>2023-05-21T10:29:42Z</time>
      </trkpt>
      <trkpt lat="49.16765" lon="2.12745">
        <ele>143.8</ele>
        <time>2023-05-21T10:29:48Z</time>
      </trkpt>
      <trkpt lat="49.1677" lon="2.12736">
        <ele>143.9</ele>
        <time>2023-05-21T10:29:54Z</time>
      </trkpt>
      <trkpt lat="49.16774" lon="2.12727">
        <ele>143.9</ele>
        <time>2023-05-21T10:29:59Z</time>
      </trkpt>
      <trkpt lat="49.16778" lon="2.12717">
        <ele>143.9</ele>
        <time>2023-05-21T10:30:05Z</time>
      </trkpt>
      <trkpt lat="49.16781" lon="2.12708">
        <ele>144</ele>
        <time>2023-05-21T10:30:10Z</time>
      </trkpt>
      <trkpt lat="49.16787" lon="2.12697">
        <ele>144.3</ele>
        <time>2023-05-21T10:30:16Z</time>
      </trkpt>
      <trkpt lat="49.16792" lon="2.12686">
        <ele>144.5</ele>
        <time>2023-05-21T10:30:22Z</time>
      </trkpt>
      <trkpt lat="49.16795" lon="2.12678">
        <ele>144.8</ele>
        <time>2023-05-21T10:30:27Z</time>
      </trkpt>
      <trkpt lat="49.168" lon="2.12669">
        <ele>145.2</ele>
        <time>2023-05-21T10:30:33Z</time>
      </trkpt>
      <trkpt lat="49.16804" lon="2.12661">
        <ele>145.6</ele>
        <time>2023-05-21T10:30:38Z</time>
      </trkpt>
      <trkpt lat="49.16809" lon="2.12655">
        <ele>145.8</ele>
        <time>2023-05-21T10:30:43Z</time>
      </trkpt>
      <trkpt lat="49.16812" lon="2.12646">
        <ele>146</ele>
        <time>2023-05-21T10:30:49Z</time>
      </trkpt>
      <trkpt lat="49.16815" lon="2.12638">
        <ele>146.1</ele>
        <time>2023-05-21T10:30:54Z</time>
      </trkpt>
      <trkpt lat="49.16819" lon="2.12629">
        <ele>146.1</ele>
        <time>2023-05-21T10:31:00Z</time>
      </trkpt>
      <trkpt lat="49.16825" lon="2.12618">
        <ele>146</ele>
        <time>2023-05-21T10:31:06Z</time>
      </trkpt>
      <trkpt lat="49.1683" lon="2.12607">
        <ele>146.1</ele>
        <time>2023-05-21T10:31:12Z</time>
      </trkpt>
      <trkpt lat="49.16835" lon="2.12599">
        <ele>146.2</ele>
        <time>2023-05-21T10:31:17Z</time>
      </trkpt>
      <trkpt lat="49.16841" lon="2.12588">
        <ele>146.3</ele>
        <time>2023-05-21T10:31:23Z</time>
      </trkpt>
      <trkpt lat="49.16845" lon="2.12581">
        <ele>146.5</ele>
        <time>2023-05-21T10:31:28Z</time>
      </trkpt>
      <trkpt lat="49.16849" lon="2.12572">
        <ele>146.8</ele>
        <time>2023-05-21T10:31:34Z</time>
      </trkpt>
      <trkpt lat="49.16853" lon="2.12562">
        <ele>147.2</ele>
        <time>2023-05-21T10:31:40Z</time>
      </trkpt>
      <trkpt lat="49.16857" lon="2.12551">
        <ele>147.4</ele>
        <time>2023-05-21T10:31:46Z</time>
      </trkpt>
      <trkpt lat="49.16862" lon="2.12537">
        <ele>147.3</ele>
        <time>2023-05-21T10:31:52Z</time>
      </trkpt>
      <trkpt lat="49.16865" lon="2.12529">
        <ele>147.2</ele>
        <time>2023-05-21T10:31:58Z</time>
      </trkpt>
      <trkpt lat="49.16869" lon="2.12517">
        <ele>146.9</ele>
        <time>2023-05-21T10:32:04Z</time>
      </trkpt>
      <trkpt lat="49.16871" lon="2.12509">
        <ele>146.8</ele>
        <time>2023-05-21T10:32:09Z</time>
      </trkpt>
      <trkpt lat="49.16874" lon="2.12497">
        <ele>146.7</ele>
        <time>2023-05-21T10:32:15Z</time>
      </trkpt>
      <trkpt lat="49.16877" lon="2.12486">
        <ele>146.7</ele>
        <time>2023-05-21T10:32:21Z</time>
      </trkpt>
      <trkpt lat="49.1688" lon="2.12474">
        <ele>147</ele>
        <time>2023-05-21T10:32:27Z</time>
      </trkpt>
      <trkpt lat="49.16884" lon="2.12464">
        <ele>147.4</ele>
        <time>2023-05-21T10:32:32Z</time>
      </trkpt>
      <trkpt lat="49.16886" lon="2.12453">
        <ele>147.8</ele>
        <time>2023-05-21T10:32:38Z</time>
      </trkpt>
      <trkpt lat="49.16889" lon="2.12439">
        <ele>148.1</ele>
        <time>2023-05-21T10:32:44Z</time>
      </trkpt>
      <trkpt lat="49.1689" lon="2.12431">
        <ele>148.3</ele>
        <time>2023-05-21T10:32:49Z</time>
      </trkpt>
      <trkpt lat="49.16894" lon="2.12416">
        <ele>148.4</ele>
        <time>2023-05-21T10:32:55Z</time>
      </trkpt>
      <trkpt lat="49.16896" lon="2.12406">
        <ele>148.1</ele>
        <time>2023-05-21T10:33:00Z</time>
      </trkpt>
      <trkpt lat="49.16897" lon="2.12397">
        <ele>147.8</ele>
        <time>2023-05-21T10:33:05Z</time>
      </trkpt>
      <trkpt lat="49.16897" lon="2.12389">
        <ele>147.2</ele>
        <time>2023-05-21T10:33:11Z</time>
      </trkpt>
      <trkpt lat="49.16897" lon="2.12383">
        <ele>146.5</ele>
        <time>2023-05-21T10:33:16Z</time>
      </trkpt>
      <trkpt lat="49.16897" lon="2.1238">
        <ele>146.2</ele>
        <time>2023-05-21T10:33:21Z</time>
      </trkpt>
      <trkpt lat="49.16896" lon="2.12379">
        <ele>146.1</ele>
        <time>2023-05-21T10:33:26Z</time>
      </trkpt>
      <trkpt lat="49.16896" lon="2.12378">
        <ele>146</ele>
        <time>2023-05-21T10:33:31Z</time>
      </trkpt>
      <trkpt lat="49.16896" lon="2.12374">
        <ele>145.9</ele>
        <time>2023-05-21T10:33:37Z</time>
      </trkpt>
      <trkpt lat="49.16895" lon="2.12368">
        <ele>145.9</ele>
        <time>2023-05-21T10:33:42Z</time>
      </trkpt>
      <trkpt lat="49.16895" lon="2.12358">
        <ele>146</ele>
        <time>2023-05-21T10:33:48Z</time>
      </trkpt>
      <trkpt lat="49.16895" lon="2.1235">
        <ele>146</ele>
        <time>2023-05-21T10:33:53Z</time>
      </trkpt>
      <trkpt lat="49.16895" lon="2.12341">
        <ele>146</ele>
        <time>2023-05-21T10:33:59Z</time>
      </trkpt>
      <trkpt lat="49.16895" lon="2.12335">
        <ele>146</ele>
        <time>2023-05-21T10:34:04Z</time>
      </trkpt>
      <trkpt lat="49.16895" lon="2.12325">
        <ele>145.6</ele>
        <time>2023-05-21T10:34:10Z</time>
      </trkpt>
      <trkpt lat="49.16897" lon="2.12313">
        <ele>144.9</ele>
        <time>2023-05-21T10:34:16Z</time>
      </trkpt>
      <trkpt lat="49.16899" lon="2.12303">
        <ele>144.3</ele>
        <time>2023-05-21T10:34:21Z</time>
      </trkpt>
      <trkpt lat="49.16899" lon="2.12291">
        <ele>143.5</ele>
        <time>2023-05-21T10:34:27Z</time>
      </trkpt>
      <trkpt lat="49.169" lon="2.12279">
        <ele>142.8</ele>
        <time>2023-05-21T10:34:33Z</time>
      </trkpt>
      <trkpt lat="49.16899" lon="2.1227">
        <ele>142.4</ele>
        <time>2023-05-21T10:34:38Z</time>
      </trkpt>
      <trkpt lat="49.169" lon="2.12262">
        <ele>142</ele>
        <time>2023-05-21T10:34:43Z</time>
      </trkpt>
      <trkpt lat="49.16901" lon="2.12254">
        <ele>141.2</ele>
        <time>2023-05-21T10:34:48Z</time>
      </trkpt>
      <trkpt lat="49.169" lon="2.12247">
        <ele>140.4</ele>
        <time>2023-05-21T10:34:53Z</time>
      </trkpt>
      <trkpt lat="49.169" lon="2.12238">
        <ele>139.9</ele>
        <time>2023-05-21T10:34:58Z</time>
      </trkpt>
      <trkpt lat="49.16901" lon="2.12225">
        <ele>139.6</ele>
        <time>2023-05-21T10:35:04Z</time>
      </trkpt>
      <trkpt lat="49.16901" lon="2.12209">
        <ele>139.3</ele>
        <time>2023-05-21T10:35:10Z</time>
      </trkpt>
      <trkpt lat="49.16901" lon="2.12199">
        <ele>139.1</ele>
        <time>2023-05-21T10:35:15Z</time>
      </trkpt>
      <trkpt lat="49.16901" lon="2.1219">
        <ele>139</ele>
        <time>2023-05-21T10:35:20Z</time>
      </trkpt>
      <trkpt lat="49.16901" lon="2.12181">
        <ele>138.9</ele>
        <time>2023-05-21T10:35:25Z</time>
      </trkpt>
      <trkpt lat="49.16901" lon="2.12172">
        <ele>138.7</ele>
        <time>2023-05-21T10:35:30Z</time>
      </trkpt>
      <trkpt lat="49.16902" lon="2.12162">
        <ele>138.4</ele>
        <time>2023-05-21T10:35:36Z</time>
      </trkpt>
      <trkpt lat="49.16905" lon="2.12152">
        <ele>138.2</ele>
        <time>2023-05-21T10:35:42Z</time>
      </trkpt>
      <trkpt lat="49.16908" lon="2.12141">
        <ele>137.9</ele>
        <time>2023-05-21T10:35:48Z</time>
      </trkpt>
      <trkpt lat="49.1691" lon="2.12134">
        <ele>137.8</ele>
        <time>2023-05-21T10:35:53Z</time>
      </trkpt>
      <trkpt lat="49.16911" lon="2.12123">
        <ele>137.4</ele>
        <time>2023-05-21T10:35:59Z</time>
      </trkpt>
      <trkpt lat="49.16912" lon="2.12111">
        <ele>137.2</ele>
        <time>2023-05-21T10:36:05Z</time>
      </trkpt>
      <trkpt lat="49.16914" lon="2.12101">
        <ele>136.8</ele>
        <time>2023-05-21T10:36:11Z</time>
      </trkpt>
      <trkpt lat="49.16915" lon="2.12091">
        <ele>136.5</ele>
        <time>2023-05-21T10:36:17Z</time>
      </trkpt>
      <trkpt lat="49.16918" lon="2.1208">
        <ele>136.3</ele>
        <time>2023-05-21T10:36:23Z</time>
      </trkpt>
      <trkpt lat="49.16921" lon="2.12072">
        <ele>136</ele>
        <time>2023-05-21T10:36:28Z</time>
      </trkpt>
      <trkpt lat="49.16923" lon="2.12062">
        <ele>135.1</ele>
        <time>2023-05-21T10:36:34Z</time>
      </trkpt>
      <trkpt lat="49.16924" lon="2.12053">
        <ele>134</ele>
        <time>2023-05-21T10:36:39Z</time>
      </trkpt>
      <trkpt lat="49.16924" lon="2.12045">
        <ele>132.8</ele>
        <time>2023-05-21T10:36:44Z</time>
      </trkpt>
      <trkpt lat="49.16926" lon="2.12035">
        <ele>131.2</ele>
        <time>2023-05-21T10:36:50Z</time>
      </trkpt>
      <trkpt lat="49.16928" lon="2.12027">
        <ele>129.9</ele>
        <time>2023-05-21T10:36:55Z</time>
      </trkpt>
      <trkpt lat="49.16927" lon="2.12023">
        <ele>128.8</ele>
        <time>2023-05-21T10:37:01Z</time>
      </trkpt>
      <trkpt lat="49.16928" lon="2.12018">
        <ele>127.7</ele>
        <time>2023-05-21T10:37:07Z</time>
      </trkpt>
      <trkpt lat="49.16928" lon="2.12014">
        <ele>126.9</ele>
        <time>2023-05-21T10:37:13Z</time>
      </trkpt>
      <trkpt lat="49.16929" lon="2.12009">
        <ele>125.9</ele>
        <time>2023-05-21T10:37:18Z</time>
      </trkpt>
      <trkpt lat="49.16932" lon="2.12001">
        <ele>124.6</ele>
        <time>2023-05-21T10:37:24Z</time>
      </trkpt>
      <trkpt lat="49.16936" lon="2.11993">
        <ele>123.5</ele>
        <time>2023-05-21T10:37:29Z</time>
      </trkpt>
      <trkpt lat="49.16939" lon="2.11985">
        <ele>122.5</ele>
        <time>2023-05-21T10:37:34Z</time>
      </trkpt>
      <trkpt lat="49.16942" lon="2.11977">
        <ele>121.6</ele>
        <time>2023-05-21T10:37:39Z</time>
      </trkpt>
      <trkpt lat="49.16946" lon="2.11968">
        <ele>120.6</ele>
        <time>2023-05-21T10:37:45Z</time>
      </trkpt>
      <trkpt lat="49.1695" lon="2.11959">
        <ele>119.8</ele>
        <time>2023-05-21T10:37:51Z</time>
      </trkpt>
      <trkpt lat="49.16953" lon="2.11951">
        <ele>119</ele>
        <time>2023-05-21T10:37:56Z</time>
      </trkpt>
      <trkpt lat="49.16958" lon="2.11941">
        <ele>118</ele>
        <time>2023-05-21T10:38:02Z</time>
      </trkpt>
      <trkpt lat="49.16963" lon="2.11932">
        <ele>117.1</ele>
        <time>2023-05-21T10:38:08Z</time>
      </trkpt>
      <trkpt lat="49.16968" lon="2.11924">
        <ele>116.3</ele>
        <time>2023-05-21T10:38:14Z</time>
      </trkpt>
      <trkpt lat="49.16972" lon="2.11917">
        <ele>115.6</ele>
        <time>2023-05-21T10:38:19Z</time>
      </trkpt>
      <trkpt lat="49.16977" lon="2.1191">
        <ele>114.8</ele>
        <time>2023-05-21T10:38:25Z</time>
      </trkpt>
      <trkpt lat="49.1698" lon="2.11906">
        <ele>114.1</ele>
        <time>2023-05-21T10:38:30Z</time>
      </trkpt>
      <trkpt lat="49.16982" lon="2.11905">
        <ele>113.7</ele>
        <time>2023-05-21T10:38:36Z</time>
      </trkpt>
      <trkpt lat="49.16981" lon="2.11906">
        <ele>113.6</ele>
        <time>2023-05-21T10:38:42Z</time>
      </trkpt>
      <trkpt lat="49.1698" lon="2.11906">
        <ele>112.7</ele>
        <time>2023-05-21T10:38:47Z</time>
      </trkpt>
      <trkpt lat="49.16979" lon="2.11906">
        <ele>112.7</ele>
        <time>2023-05-21T10:38:53Z</time>
      </trkpt>
      <trkpt lat="49.16979" lon="2.11907">
        <ele>112.4</ele>
        <time>2023-05-21T10:38:59Z</time>
      </trkpt>
      <trkpt lat="49.16979" lon="2.11907">
        <ele>112.1</ele>
        <time>2023-05-21T10:39:04Z</time>
      </trkpt>
      <trkpt lat="49.1698" lon="2.11907">
        <ele>111.8</ele>
        <time>2023-05-21T10:39:10Z</time>
      </trkpt>
      <trkpt lat="49.1698" lon="2.11907">
        <ele>111.6</ele>
        <time>2023-05-21T10:39:16Z</time>
      </trkpt>
      <trkpt lat="49.1698" lon="2.11907">
        <ele>111.5</ele>
        <time>2023-05-21T10:39:21Z</time>
      </trkpt>
      <trkpt lat="49.1698" lon="2.11908">
        <ele>111.4</ele>
        <time>2023-05-21T10:39:27Z</time>
      </trkpt>
      <trkpt lat="49.1698" lon="2.11908">
        <ele>111.3</ele>
        <time>2023-05-21T10:39:32Z</time>
      </trkpt>
      <trkpt lat="49.1698" lon="2.11908">
        <ele>111.1</ele>
        <time>2023-05-21T10:39:38Z</time>
      </trkpt>
      <trkpt lat="49.1698" lon="2.11908">
        <ele>111</ele>
        <time>2023-05-21T10:39:43Z</time>
      </trkpt>
      <trkpt lat="49.1698" lon="2.11908">
        <ele>110.9</ele>
        <time>2023-05-21T10:39:49Z</time>
      </trkpt>
      <trkpt lat="49.1698" lon="2.11909">
        <ele>110.8</ele>
        <time>2023-05-21T10:39:54Z</time>
      </trkpt>
      <trkpt lat="49.1698" lon="2.11909">
        <ele>110.4</ele>
        <time>2023-05-21T10:40:00Z</time>
      </trkpt>
      <trkpt lat="49.16979" lon="2.11908">
        <ele>109.7</ele>
        <time>2023-05-21T10:40:06Z</time>
      </trkpt>
      <trkpt lat="49.16979" lon="2.11908">
        <ele>109.6</ele>
        <time>2023-05-21T10:40:11Z</time>
      </trkpt>
      <trkpt lat="49.16979" lon="2.11908">
        <ele>109.5</ele>
        <time>2023-05-21T10:40:16Z</time>
      </trkpt>
      <trkpt lat="49.16979" lon="2.11908">
        <ele>109.5</ele>
        <time>2023-05-21T10:40:22Z</time>
      </trkpt>
      <trkpt lat="49.1698" lon="2.11909">
        <ele>109.3</ele>
        <time>2023-05-21T10:40:27Z</time>
      </trkpt>
      <trkpt lat="49.16982" lon="2.11905">
        <ele>108.7</ele>
        <time>2023-05-21T10:40:33Z</time>
      </trkpt>
      <trkpt lat="49.16986" lon="2.11902">
        <ele>108.4</ele>
        <time>2023-05-21T10:40:38Z</time>
      </trkpt>
      <trkpt lat="49.16991" lon="2.11896">
        <ele>108</ele>
        <time>2023-05-21T10:40:43Z</time>
      </trkpt>
      <trkpt lat="49.16995" lon="2.11889">
        <ele>107.7</ele>
        <time>2023-05-21T10:40:48Z</time>
      </trkpt>
      <trkpt lat="49.16999" lon="2.11881">
        <ele>107.4</ele>
        <time>2023-05-21T10:40:53Z</time>
      </trkpt>
      <trkpt lat="49.17003" lon="2.11868">
        <ele>106.9</ele>
        <time>2023-05-21T10:40:59Z</time>
      </trkpt>
      <trkpt lat="49.17006" lon="2.11859">
        <ele>106.6</ele>
        <time>2023-05-21T10:41:04Z</time>
      </trkpt>
      <trkpt lat="49.17009" lon="2.11846">
        <ele>106.2</ele>
        <time>2023-05-21T10:41:10Z</time>
      </trkpt>
      <trkpt lat="49.1701" lon="2.11837">
        <ele>106</ele>
        <time>2023-05-21T10:41:15Z</time>
      </trkpt>
      <trkpt lat="49.17013" lon="2.11826">
        <ele>105.7</ele>
        <time>2023-05-21T10:41:21Z</time>
      </trkpt>
      <trkpt lat="49.17015" lon="2.11815">
        <ele>105.4</ele>
        <time>2023-05-21T10:41:27Z</time>
      </trkpt>
      <trkpt lat="49.17018" lon="2.11803">
        <ele>105.2</ele>
        <time>2023-05-21T10:41:33Z</time>
      </trkpt>
      <trkpt lat="49.1702" lon="2.11794">
        <ele>105.2</ele>
        <time>2023-05-21T10:41:39Z</time>
      </trkpt>
      <trkpt lat="49.17022" lon="2.11787">
        <ele>105.3</ele>
        <time>2023-05-21T10:41:44Z</time>
      </trkpt>
      <trkpt lat="49.17023" lon="2.11779">
        <ele>105.5</ele>
        <time>2023-05-21T10:41:49Z</time>
      </trkpt>
      <trkpt lat="49.17026" lon="2.11769">
        <ele>105.8</ele>
        <time>2023-05-21T10:41:55Z</time>
      </trkpt>
      <trkpt lat="49.17029" lon="2.11759">
        <ele>105.8</ele>
        <time>2023-05-21T10:42:00Z</time>
      </trkpt>
      <trkpt lat="49.17034" lon="2.11751">
        <ele>106</ele>
        <time>2023-05-21T10:42:06Z</time>
      </trkpt>
      <trkpt lat="49.1704" lon="2.11741">
        <ele>106.4</ele>
        <time>2023-05-21T10:42:12Z</time>
      </trkpt>
      <trkpt lat="49.17044" lon="2.11731">
        <ele>106.9</ele>
        <time>2023-05-21T10:42:18Z</time>
      </trkpt>
      <trkpt lat="49.1705" lon="2.11725">
        <ele>107.6</ele>
        <time>2023-05-21T10:42:24Z</time>
      </trkpt>
      <trkpt lat="49.17055" lon="2.11724">
        <ele>108.4</ele>
        <time>2023-05-21T10:42:30Z</time>
      </trkpt>
      <trkpt lat="49.17061" lon="2.11723">
        <ele>108.9</ele>
        <time>2023-05-21T10:42:35Z</time>
      </trkpt>
      <trkpt lat="49.17061" lon="2.11717">
        <ele>109.3</ele>
        <time>2023-05-21T10:42:41Z</time>
      </trkpt>
      <trkpt lat="49.17056" lon="2.11713">
        <ele>109.7</ele>
        <time>2023-05-21T10:42:46Z</time>
      </trkpt>
      <trkpt lat="49.17047" lon="2.11706">
        <ele>110.2</ele>
        <time>2023-05-21T10:42:52Z</time>
      </trkpt>
      <trkpt lat="49.17039" lon="2.11697">
        <ele>110.7</ele>
        <time>2023-05-21T10:42:58Z</time>
      </trkpt>
      <trkpt lat="49.17034" lon="2.11691">
        <ele>111</ele>
        <time>2023-05-21T10:43:04Z</time>
      </trkpt>
      <trkpt lat="49.1703" lon="2.11685">
        <ele>111.2</ele>
        <time>2023-05-21T10:43:09Z</time>
      </trkpt>
      <trkpt lat="49.17022" lon="2.11679">
        <ele>111.1</ele>
        <time>2023-05-21T10:43:15Z</time>
      </trkpt>
      <trkpt lat="49.17016" lon="2.11672">
        <ele>110.9</ele>
        <time>2023-05-21T10:43:20Z</time>
      </trkpt>
      <trkpt lat="49.17009" lon="2.11668">
        <ele>110.5</ele>
        <time>2023-05-21T10:43:26Z</time>
      </trkpt>
      <trkpt lat="49.17" lon="2.11658">
        <ele>110.2</ele>
        <time>2023-05-21T10:43:32Z</time>
      </trkpt>
      <trkpt lat="49.16996" lon="2.11651">
        <ele>110.3</ele>
        <time>2023-05-21T10:43:38Z</time>
      </trkpt>
      <trkpt lat="49.16988" lon="2.11645">
        <ele>110.3</ele>
        <time>2023-05-21T10:43:43Z</time>
      </trkpt>
      <trkpt lat="49.16982" lon="2.11634">
        <ele>110.6</ele>
        <time>2023-05-21T10:43:49Z</time>
      </trkpt>
      <trkpt lat="49.16978" lon="2.11631">
        <ele>110.7</ele>
        <time>2023-05-21T10:43:54Z</time>
      </trkpt>
      <trkpt lat="49.16974" lon="2.11626">
        <ele>110.6</ele>
        <time>2023-05-21T10:43:59Z</time>
      </trkpt>
      <trkpt lat="49.16971" lon="2.11618">
        <ele>110</ele>
        <time>2023-05-21T10:44:05Z</time>
      </trkpt>
      <trkpt lat="49.16966" lon="2.1161">
        <ele>109.1</ele>
        <time>2023-05-21T10:44:11Z</time>
      </trkpt>
      <trkpt lat="49.16959" lon="2.11599">
        <ele>108.7</ele>
        <time>2023-05-21T10:44:17Z</time>
      </trkpt>
      <trkpt lat="49.16954" lon="2.11593">
        <ele>108.5</ele>
        <time>2023-05-21T10:44:23Z</time>
      </trkpt>
      <trkpt lat="49.16955" lon="2.11591">
        <ele>108.4</ele>
        <time>2023-05-21T10:44:28Z</time>
      </trkpt>
      <trkpt lat="49.16954" lon="2.11592">
        <ele>108.4</ele>
        <time>2023-05-21T10:44:33Z</time>
      </trkpt>
      <trkpt lat="49.16954" lon="2.11593">
        <ele>108.4</ele>
        <time>2023-05-21T10:44:38Z</time>
      </trkpt>
      <trkpt lat="49.16952" lon="2.11596">
        <ele>108.3</ele>
        <time>2023-05-21T10:44:44Z</time>
      </trkpt>
      <trkpt lat="49.16952" lon="2.11596">
        <ele>108.3</ele>
        <time>2023-05-21T10:44:50Z</time>
      </trkpt>
      <trkpt lat="49.16952" lon="2.11596">
        <ele>108.3</ele>
        <time>2023-05-21T10:44:55Z</time>
      </trkpt>
      <trkpt lat="49.16952" lon="2.11596">
        <ele>108.2</ele>
        <time>2023-05-21T10:45:00Z</time>
      </trkpt>
      <trkpt lat="49.16952" lon="2.11596">
        <ele>108.2</ele>
        <time>2023-05-21T10:45:06Z</time>
      </trkpt>
      <trkpt lat="49.16952" lon="2.11596">
        <ele>108.2</ele>
        <time>2023-05-21T10:45:12Z</time>
      </trkpt>
      <trkpt lat="49.16952" lon="2.11596">
        <ele>108.1</ele>
        <time>2023-05-21T10:45:18Z</time>
      </trkpt>
      <trkpt lat="49.16956" lon="2.1159">
        <ele>107.7</ele>
        <time>2023-05-21T10:45:24Z</time>
      </trkpt>
      <trkpt lat="49.16961" lon="2.11588">
        <ele>107.5</ele>
        <time>2023-05-21T10:45:30Z</time>
      </trkpt>
      <trkpt lat="49.16963" lon="2.11589">
        <ele>107.3</ele>
        <time>2023-05-21T10:45:36Z</time>
      </trkpt>
      <trkpt lat="49.16963" lon="2.11591">
        <ele>107.2</ele>
        <time>2023-05-21T10:45:42Z</time>
      </trkpt>
      <trkpt lat="49.16964" lon="2.11591">
        <ele>107.1</ele>
        <time>2023-05-21T10:45:48Z</time>
      </trkpt>
      <trkpt lat="49.16966" lon="2.1159">
        <ele>107</ele>
        <time>2023-05-21T10:45:53Z</time>
      </trkpt>
      <trkpt lat="49.16967" lon="2.11588">
        <ele>106.9</ele>
        <time>2023-05-21T10:45:59Z</time>
      </trkpt>
      <trkpt lat="49.16966" lon="2.11586">
        <ele>103.1</ele>
        <time>2023-05-21T11:26:14Z</time>
      </trkpt>
      <trkpt lat="49.16965" lon="2.11584">
        <ele>103.5</ele>
        <time>2023-05-21T11:26:19Z</time>
      </trkpt>
      <trkpt lat="49.16961" lon="2.11591">
        <ele>104.1</ele>
        <time>2023-05-21T11:26:25Z</time>
      </trkpt>
      <trkpt lat="49.16959" lon="2.11593">
        <ele>104.6</ele>
        <time>2023-05-21T11:26:30Z</time>
      </trkpt>
      <trkpt lat="49.16958" lon="2.1159">
        <ele>104.9</ele>
        <time>2023-05-21T11:26:36Z</time>
      </trkpt>
      <trkpt lat="49.16956" lon="2.11587">
        <ele>105.2</ele>
        <time>2023-05-21T11:26:42Z</time>
      </trkpt>
      <trkpt lat="49.16953" lon="2.11587">
        <ele>105.1</ele>
        <time>2023-05-21T11:26:48Z</time>
      </trkpt>
      <trkpt lat="49.1695" lon="2.11584">
        <ele>104.9</ele>
        <time>2023-05-21T11:26:53Z</time>
      </trkpt>
      <trkpt lat="49.1695" lon="2.11586">
        <ele>104.8</ele>
        <time>2023-05-21T11:26:59Z</time>
      </trkpt>
      <trkpt lat="49.16949" lon="2.11587">
        <ele>104.8</ele>
        <time>2023-05-21T11:27:05Z</time>
      </trkpt>
      <trkpt lat="49.16949" lon="2.11587">
        <ele>104.8</ele>
        <time>2023-05-21T11:27:11Z</time>
      </trkpt>
      <trkpt lat="49.16942" lon="2.11579">
        <ele>104.7</ele>
        <time>2023-05-21T11:27:17Z</time>
      </trkpt>
      <trkpt lat="49.16936" lon="2.11573">
        <ele>104.7</ele>
        <time>2023-05-21T11:27:23Z</time>
      </trkpt>
      <trkpt lat="49.1693" lon="2.11568">
        <ele>104.8</ele>
        <time>2023-05-21T11:27:29Z</time>
      </trkpt>
      <trkpt lat="49.16925" lon="2.11564">
        <ele>105.2</ele>
        <time>2023-05-21T11:27:34Z</time>
      </trkpt>
      <trkpt lat="49.16918" lon="2.11561">
        <ele>105.6</ele>
        <time>2023-05-21T11:27:39Z</time>
      </trkpt>
      <trkpt lat="49.16912" lon="2.11557">
        <ele>106.1</ele>
        <time>2023-05-21T11:27:45Z</time>
      </trkpt>
      <trkpt lat="49.16906" lon="2.11552">
        <ele>106.9</ele>
        <time>2023-05-21T11:27:51Z</time>
      </trkpt>
      <trkpt lat="49.169" lon="2.11546">
        <ele>107.6</ele>
        <time>2023-05-21T11:27:57Z</time>
      </trkpt>
      <trkpt lat="49.16895" lon="2.11541">
        <ele>108.1</ele>
        <time>2023-05-21T11:28:02Z</time>
      </trkpt>
      <trkpt lat="49.16889" lon="2.11535">
        <ele>108.6</ele>
        <time>2023-05-21T11:28:08Z</time>
      </trkpt>
      <trkpt lat="49.16884" lon="2.11529">
        <ele>108.9</ele>
        <time>2023-05-21T11:28:14Z</time>
      </trkpt>
      <trkpt lat="49.16879" lon="2.11525">
        <ele>108.9</ele>
        <time>2023-05-21T11:28:20Z</time>
      </trkpt>
      <trkpt lat="49.16878" lon="2.11524">
        <ele>108.7</ele>
        <time>2023-05-21T11:28:25Z</time>
      </trkpt>
      <trkpt lat="49.16876" lon="2.11519">
        <ele>108.3</ele>
        <time>2023-05-21T11:28:31Z</time>
      </trkpt>
      <trkpt lat="49.16871" lon="2.11514">
        <ele>108.1</ele>
        <time>2023-05-21T11:28:37Z</time>
      </trkpt>
      <trkpt lat="49.16867" lon="2.11507">
        <ele>108</ele>
        <time>2023-05-21T11:28:43Z</time>
      </trkpt>
      <trkpt lat="49.16864" lon="2.11499">
        <ele>108.1</ele>
        <time>2023-05-21T11:28:48Z</time>
      </trkpt>
      <trkpt lat="49.16862" lon="2.1149">
        <ele>108.3</ele>
        <time>2023-05-21T11:28:54Z</time>
      </trkpt>
      <trkpt lat="49.1686" lon="2.11483">
        <ele>108.6</ele>
        <time>2023-05-21T11:28:59Z</time>
      </trkpt>
      <trkpt lat="49.16861" lon="2.1148">
        <ele>109</ele>
        <time>2023-05-21T11:29:05Z</time>
      </trkpt>
      <trkpt lat="49.16859" lon="2.11483">
        <ele>109.5</ele>
        <time>2023-05-21T11:29:10Z</time>
      </trkpt>
      <trkpt lat="49.16859" lon="2.11486">
        <ele>109.6</ele>
        <time>2023-05-21T11:29:16Z</time>
      </trkpt>
      <trkpt lat="49.16859" lon="2.11487">
        <ele>110.1</ele>
        <time>2023-05-21T11:29:21Z</time>
      </trkpt>
      <trkpt lat="49.16866" lon="2.11485">
        <ele>111.3</ele>
        <time>2023-05-21T11:29:27Z</time>
      </trkpt>
      <trkpt lat="49.16874" lon="2.11481">
        <ele>112.2</ele>
        <time>2023-05-21T11:29:33Z</time>
      </trkpt>
      <trkpt lat="49.16881" lon="2.11476">
        <ele>112.9</ele>
        <time>2023-05-21T11:29:39Z</time>
      </trkpt>
      <trkpt lat="49.16886" lon="2.11472">
        <ele>113.3</ele>
        <time>2023-05-21T11:29:44Z</time>
      </trkpt>
      <trkpt lat="49.16893" lon="2.11466">
        <ele>114.1</ele>
        <time>2023-05-21T11:29:50Z</time>
      </trkpt>
      <trkpt lat="49.16899" lon="2.11459">
        <ele>114.8</ele>
        <time>2023-05-21T11:29:56Z</time>
      </trkpt>
      <trkpt lat="49.16903" lon="2.11454">
        <ele>115.3</ele>
        <time>2023-05-21T11:30:01Z</time>
      </trkpt>
      <trkpt lat="49.1691" lon="2.11451">
        <ele>115.6</ele>
        <time>2023-05-21T11:30:06Z</time>
      </trkpt>
      <trkpt lat="49.16916" lon="2.11445">
        <ele>115.7</ele>
        <time>2023-05-21T11:30:11Z</time>
      </trkpt>
      <trkpt lat="49.16922" lon="2.11437">
        <ele>115.7</ele>
        <time>2023-05-21T11:30:17Z</time>
      </trkpt>
      <trkpt lat="49.16928" lon="2.11431">
        <ele>115.8</ele>
        <time>2023-05-21T11:30:22Z</time>
      </trkpt>
      <trkpt lat="49.16934" lon="2.11423">
        <ele>116</ele>
        <time>2023-05-21T11:30:28Z</time>
      </trkpt>
      <trkpt lat="49.1694" lon="2.11415">
        <ele>116.3</ele>
        <time>2023-05-21T11:30:34Z</time>
      </trkpt>
      <trkpt lat="49.16944" lon="2.11409">
        <ele>116.7</ele>
        <time>2023-05-21T11:30:39Z</time>
      </trkpt>
      <trkpt lat="49.16949" lon="2.11402">
        <ele>117</ele>
        <time>2023-05-21T11:30:44Z</time>
      </trkpt>
      <trkpt lat="49.16957" lon="2.11394">
        <ele>117.2</ele>
        <time>2023-05-21T11:30:50Z</time>
      </trkpt>
      <trkpt lat="49.16963" lon="2.11389">
        <ele>117.5</ele>
        <time>2023-05-21T11:30:56Z</time>
      </trkpt>
      <trkpt lat="49.1697" lon="2.11381">
        <ele>117.7</ele>
        <time>2023-05-21T11:31:02Z</time>
      </trkpt>
      <trkpt lat="49.16978" lon="2.11374">
        <ele>118</ele>
        <time>2023-05-21T11:31:07Z</time>
      </trkpt>
      <trkpt lat="49.16982" lon="2.11367">
        <ele>118.3</ele>
        <time>2023-05-21T11:31:12Z</time>
      </trkpt>
      <trkpt lat="49.16986" lon="2.1136">
        <ele>118.6</ele>
        <time>2023-05-21T11:31:17Z</time>
      </trkpt>
      <trkpt lat="49.16994" lon="2.11354">
        <ele>118.5</ele>
        <time>2023-05-21T11:31:23Z</time>
      </trkpt>
      <trkpt lat="49.16999" lon="2.11347">
        <ele>118</ele>
        <time>2023-05-21T11:31:28Z</time>
      </trkpt>
      <trkpt lat="49.17005" lon="2.11342">
        <ele>117.6</ele>
        <time>2023-05-21T11:31:33Z</time>
      </trkpt>
      <trkpt lat="49.17013" lon="2.11333">
        <ele>117.6</ele>
        <time>2023-05-21T11:31:39Z</time>
      </trkpt>
      <trkpt lat="49.17021" lon="2.11325">
        <ele>117.6</ele>
        <time>2023-05-21T11:31:45Z</time>
      </trkpt>
      <trkpt lat="49.17026" lon="2.11318">
        <ele>117.7</ele>
        <time>2023-05-21T11:31:50Z</time>
      </trkpt>
      <trkpt lat="49.17031" lon="2.11309">
        <ele>117.9</ele>
        <time>2023-05-21T11:31:56Z</time>
      </trkpt>
      <trkpt lat="49.17038" lon="2.11302">
        <ele>117.9</ele>
        <time>2023-05-21T11:32:02Z</time>
      </trkpt>
      <trkpt lat="49.17044" lon="2.11295">
        <ele>118</ele>
        <time>2023-05-21T11:32:08Z</time>
      </trkpt>
      <trkpt lat="49.17051" lon="2.11288">
        <ele>117.9</ele>
        <time>2023-05-21T11:32:14Z</time>
      </trkpt>
      <trkpt lat="49.17056" lon="2.11281">
        <ele>117.7</ele>
        <time>2023-05-21T11:32:19Z</time>
      </trkpt>
      <trkpt lat="49.17061" lon="2.11277">
        <ele>117.5</ele>
        <time>2023-05-21T11:32:24Z</time>
      </trkpt>
      <trkpt lat="49.17068" lon="2.1127">
        <ele>117.5</ele>
        <time>2023-05-21T11:32:30Z</time>
      </trkpt>
      <trkpt lat="49.17073" lon="2.11263">
        <ele>117.5</ele>
        <time>2023-05-21T11:32:36Z</time>
      </trkpt>
      <trkpt lat="49.17077" lon="2.11255">
        <ele>117.4</ele>
        <time>2023-05-21T11:32:41Z</time>
      </trkpt>
      <trkpt lat="49.17086" lon="2.11249">
        <ele>117.4</ele>
        <time>2023-05-21T11:32:47Z</time>
      </trkpt>
      <trkpt lat="49.17092" lon="2.11243">
        <ele>117.7</ele>
        <time>2023-05-21T11:32:53Z</time>
      </trkpt>
      <trkpt lat="49.17095" lon="2.11234">
        <ele>117.9</ele>
        <time>2023-05-21T11:32:58Z</time>
      </trkpt>
      <trkpt lat="49.17101" lon="2.11224">
        <ele>117.9</ele>
        <time>2023-05-21T11:33:04Z</time>
      </trkpt>
      <trkpt lat="49.17106" lon="2.11218">
        <ele>117.6</ele>
        <time>2023-05-21T11:33:09Z</time>
      </trkpt>
      <trkpt lat="49.17112" lon="2.11209">
        <ele>117.1</ele>
        <time>2023-05-21T11:33:15Z</time>
      </trkpt>
      <trkpt lat="49.17119" lon="2.11198">
        <ele>116.4</ele>
        <time>2023-05-21T11:33:21Z</time>
      </trkpt>
      <trkpt lat="49.17124" lon="2.11188">
        <ele>115.5</ele>
        <time>2023-05-21T11:33:27Z</time>
      </trkpt>
      <trkpt lat="49.17127" lon="2.11179">
        <ele>114.7</ele>
        <time>2023-05-21T11:33:32Z</time>
      </trkpt>
      <trkpt lat="49.17129" lon="2.1117">
        <ele>113.7</ele>
        <time>2023-05-21T11:33:37Z</time>
      </trkpt>
      <trkpt lat="49.17133" lon="2.1116">
        <ele>112.8</ele>
        <time>2023-05-21T11:33:42Z</time>
      </trkpt>
      <trkpt lat="49.17136" lon="2.11148">
        <ele>111.7</ele>
        <time>2023-05-21T11:33:48Z</time>
      </trkpt>
      <trkpt lat="49.1714" lon="2.11137">
        <ele>111.1</ele>
        <time>2023-05-21T11:33:53Z</time>
      </trkpt>
      <trkpt lat="49.17149" lon="2.11128">
        <ele>110.6</ele>
        <time>2023-05-21T11:33:59Z</time>
      </trkpt>
      <trkpt lat="49.17153" lon="2.1112">
        <ele>110.4</ele>
        <time>2023-05-21T11:34:04Z</time>
      </trkpt>
      <trkpt lat="49.17157" lon="2.11109">
        <ele>110.4</ele>
        <time>2023-05-21T11:34:10Z</time>
      </trkpt>
      <trkpt lat="49.17162" lon="2.111">
        <ele>110.6</ele>
        <time>2023-05-21T11:34:15Z</time>
      </trkpt>
      <trkpt lat="49.17165" lon="2.11088">
        <ele>110.9</ele>
        <time>2023-05-21T11:34:21Z</time>
      </trkpt>
      <trkpt lat="49.1717" lon="2.11078">
        <ele>110.8</ele>
        <time>2023-05-21T11:34:27Z</time>
      </trkpt>
      <trkpt lat="49.17175" lon="2.1107">
        <ele>110.7</ele>
        <time>2023-05-21T11:34:32Z</time>
      </trkpt>
      <trkpt lat="49.17179" lon="2.11062">
        <ele>110.5</ele>
        <time>2023-05-21T11:34:37Z</time>
      </trkpt>
      <trkpt lat="49.17182" lon="2.11054">
        <ele>110.4</ele>
        <time>2023-05-21T11:34:42Z</time>
      </trkpt>
      <trkpt lat="49.17188" lon="2.11045">
        <ele>110.3</ele>
        <time>2023-05-21T11:34:48Z</time>
      </trkpt>
      <trkpt lat="49.17193" lon="2.11036">
        <ele>110.1</ele>
        <time>2023-05-21T11:34:54Z</time>
      </trkpt>
      <trkpt lat="49.17198" lon="2.1103">
        <ele>109.9</ele>
        <time>2023-05-21T11:34:59Z</time>
      </trkpt>
      <trkpt lat="49.17202" lon="2.11027">
        <ele>109.8</ele>
        <time>2023-05-21T11:35:04Z</time>
      </trkpt>
      <trkpt lat="49.17207" lon="2.11018">
        <ele>110.6</ele>
        <time>2023-05-21T11:35:10Z</time>
      </trkpt>
      <trkpt lat="49.17209" lon="2.1101">
        <ele>112</ele>
        <time>2023-05-21T11:35:15Z</time>
      </trkpt>
      <trkpt lat="49.17215" lon="2.10994">
        <ele>113.2</ele>
        <time>2023-05-21T11:35:21Z</time>
      </trkpt>
      <trkpt lat="49.17219" lon="2.10983">
        <ele>113.3</ele>
        <time>2023-05-21T11:35:26Z</time>
      </trkpt>
      <trkpt lat="49.1722" lon="2.1097">
        <ele>113.3</ele>
        <time>2023-05-21T11:35:32Z</time>
      </trkpt>
      <trkpt lat="49.17223" lon="2.10958">
        <ele>113.2</ele>
        <time>2023-05-21T11:35:38Z</time>
      </trkpt>
      <trkpt lat="49.17224" lon="2.10946">
        <ele>112.8</ele>
        <time>2023-05-21T11:35:44Z</time>
      </trkpt>
      <trkpt lat="49.17228" lon="2.10932">
        <ele>112.4</ele>
        <time>2023-05-21T11:35:50Z</time>
      </trkpt>
      <trkpt lat="49.1723" lon="2.10921">
        <ele>112.2</ele>
        <time>2023-05-21T11:35:55Z</time>
      </trkpt>
      <trkpt lat="49.17235" lon="2.10911">
        <ele>112</ele>
        <time>2023-05-21T11:36:01Z</time>
      </trkpt>
      <trkpt lat="49.17237" lon="2.10899">
        <ele>111.9</ele>
        <time>2023-05-21T11:36:06Z</time>
      </trkpt>
      <trkpt lat="49.17238" lon="2.10892">
        <ele>111.8</ele>
        <time>2023-05-21T11:36:11Z</time>
      </trkpt>
      <trkpt lat="49.1724" lon="2.10879">
        <ele>111.8</ele>
        <time>2023-05-21T11:36:17Z</time>
      </trkpt>
      <trkpt lat="49.17242" lon="2.10869">
        <ele>112</ele>
        <time>2023-05-21T11:36:22Z</time>
      </trkpt>
      <trkpt lat="49.17244" lon="2.10857">
        <ele>112.3</ele>
        <time>2023-05-21T11:36:28Z</time>
      </trkpt>
      <trkpt lat="49.17245" lon="2.1084">
        <ele>112.3</ele>
        <time>2023-05-21T11:36:34Z</time>
      </trkpt>
      <trkpt lat="49.17245" lon="2.10827">
        <ele>112.4</ele>
        <time>2023-05-21T11:36:40Z</time>
      </trkpt>
      <trkpt lat="49.17244" lon="2.10816">
        <ele>112.3</ele>
        <time>2023-05-21T11:36:46Z</time>
      </trkpt>
      <trkpt lat="49.17247" lon="2.10803">
        <ele>112.1</ele>
        <time>2023-05-21T11:36:52Z</time>
      </trkpt>
      <trkpt lat="49.17248" lon="2.10794">
        <ele>112.2</ele>
        <time>2023-05-21T11:36:57Z</time>
      </trkpt>
      <trkpt lat="49.17249" lon="2.10781">
        <ele>112.1</ele>
        <time>2023-05-21T11:37:03Z</time>
      </trkpt>
      <trkpt lat="49.1725" lon="2.1077">
        <ele>111.8</ele>
        <time>2023-05-21T11:37:08Z</time>
      </trkpt>
      <trkpt lat="49.17253" lon="2.10761">
        <ele>111.8</ele>
        <time>2023-05-21T11:37:14Z</time>
      </trkpt>
      <trkpt lat="49.17257" lon="2.10758">
        <ele>111.9</ele>
        <time>2023-05-21T11:37:20Z</time>
      </trkpt>
      <trkpt lat="49.17264" lon="2.10764">
        <ele>111.9</ele>
        <time>2023-05-21T11:37:26Z</time>
      </trkpt>
      <trkpt lat="49.17273" lon="2.10771">
        <ele>112.3</ele>
        <time>2023-05-21T11:37:32Z</time>
      </trkpt>
      <trkpt lat="49.17278" lon="2.10775">
        <ele>112.6</ele>
        <time>2023-05-21T11:37:37Z</time>
      </trkpt>
      <trkpt lat="49.17285" lon="2.10779">
        <ele>112.8</ele>
        <time>2023-05-21T11:37:43Z</time>
      </trkpt>
      <trkpt lat="49.17293" lon="2.10784">
        <ele>113.1</ele>
        <time>2023-05-21T11:37:49Z</time>
      </trkpt>
      <trkpt lat="49.17301" lon="2.10786">
        <ele>113.6</ele>
        <time>2023-05-21T11:37:55Z</time>
      </trkpt>
      <trkpt lat="49.17308" lon="2.10788">
        <ele>113.7</ele>
        <time>2023-05-21T11:38:00Z</time>
      </trkpt>
      <trkpt lat="49.17319" lon="2.10791">
        <ele>113.9</ele>
        <time>2023-05-21T11:38:06Z</time>
      </trkpt>
      <trkpt lat="49.17326" lon="2.10794">
        <ele>114.1</ele>
        <time>2023-05-21T11:38:11Z</time>
      </trkpt>
      <trkpt lat="49.17335" lon="2.10793">
        <ele>114.3</ele>
        <time>2023-05-21T11:38:17Z</time>
      </trkpt>
      <trkpt lat="49.1734" lon="2.10791">
        <ele>114.5</ele>
        <time>2023-05-21T11:38:22Z</time>
      </trkpt>
      <trkpt lat="49.17347" lon="2.10786">
        <ele>114.9</ele>
        <time>2023-05-21T11:38:28Z</time>
      </trkpt>
      <trkpt lat="49.17352" lon="2.10782">
        <ele>115</ele>
        <time>2023-05-21T11:38:33Z</time>
      </trkpt>
      <trkpt lat="49.1736" lon="2.10783">
        <ele>115.3</ele>
        <time>2023-05-21T11:38:39Z</time>
      </trkpt>
      <trkpt lat="49.17369" lon="2.10787">
        <ele>115.6</ele>
        <time>2023-05-21T11:38:45Z</time>
      </trkpt>
      <trkpt lat="49.17377" lon="2.10794">
        <ele>115.6</ele>
        <time>2023-05-21T11:38:51Z</time>
      </trkpt>
      <trkpt lat="49.17379" lon="2.10801">
        <ele>115.6</ele>
        <time>2023-05-21T11:38:56Z</time>
      </trkpt>
      <trkpt lat="49.17382" lon="2.1081">
        <ele>115.4</ele>
        <time>2023-05-21T11:39:02Z</time>
      </trkpt>
      <trkpt lat="49.17384" lon="2.10822">
        <ele>115</ele>
        <time>2023-05-21T11:39:07Z</time>
      </trkpt>
      <trkpt lat="49.17385" lon="2.10833">
        <ele>114.8</ele>
        <time>2023-05-21T11:39:12Z</time>
      </trkpt>
      <trkpt lat="49.17387" lon="2.10844">
        <ele>114.8</ele>
        <time>2023-05-21T11:39:18Z</time>
      </trkpt>
      <trkpt lat="49.17389" lon="2.10857">
        <ele>114.8</ele>
        <time>2023-05-21T11:39:24Z</time>
      </trkpt>
      <trkpt lat="49.17387" lon="2.10867">
        <ele>115.2</ele>
        <time>2023-05-21T11:39:29Z</time>
      </trkpt>
      <trkpt lat="49.17387" lon="2.10878">
        <ele>115.4</ele>
        <time>2023-05-21T11:39:34Z</time>
      </trkpt>
      <trkpt lat="49.17387" lon="2.1089">
        <ele>115.4</ele>
        <time>2023-05-21T11:39:40Z</time>
      </trkpt>
      <trkpt lat="49.17388" lon="2.10902">
        <ele>115.1</ele>
        <time>2023-05-21T11:39:46Z</time>
      </trkpt>
      <trkpt lat="49.1739" lon="2.10912">
        <ele>114.7</ele>
        <time>2023-05-21T11:39:51Z</time>
      </trkpt>
      <trkpt lat="49.17391" lon="2.1092">
        <ele>114.4</ele>
        <time>2023-05-21T11:39:56Z</time>
      </trkpt>
      <trkpt lat="49.17391" lon="2.10937">
        <ele>113.8</ele>
        <time>2023-05-21T11:40:02Z</time>
      </trkpt>
      <trkpt lat="49.1739" lon="2.10949">
        <ele>113.4</ele>
        <time>2023-05-21T11:40:07Z</time>
      </trkpt>
      <trkpt lat="49.1739" lon="2.10958">
        <ele>113</ele>
        <time>2023-05-21T11:40:12Z</time>
      </trkpt>
      <trkpt lat="49.17391" lon="2.10968">
        <ele>112.5</ele>
        <time>2023-05-21T11:40:17Z</time>
      </trkpt>
      <trkpt lat="49.17393" lon="2.10976">
        <ele>112.1</ele>
        <time>2023-05-21T11:40:22Z</time>
      </trkpt>
      <trkpt lat="49.17397" lon="2.10986">
        <ele>111.5</ele>
        <time>2023-05-21T11:40:28Z</time>
      </trkpt>
      <trkpt lat="49.174" lon="2.10993">
        <ele>111</ele>
        <time>2023-05-21T11:40:33Z</time>
      </trkpt>
      <trkpt lat="49.17405" lon="2.11001">
        <ele>110.6</ele>
        <time>2023-05-21T11:40:38Z</time>
      </trkpt>
      <trkpt lat="49.1741" lon="2.1101">
        <ele>110.6</ele>
        <time>2023-05-21T11:40:44Z</time>
      </trkpt>
      <trkpt lat="49.17415" lon="2.11019">
        <ele>110.8</ele>
        <time>2023-05-21T11:40:50Z</time>
      </trkpt>
      <trkpt lat="49.1742" lon="2.11028">
        <ele>111</ele>
        <time>2023-05-21T11:40:55Z</time>
      </trkpt>
      <trkpt lat="49.17425" lon="2.11035">
        <ele>111.3</ele>
        <time>2023-05-21T11:41:01Z</time>
      </trkpt>
      <trkpt lat="49.17429" lon="2.11042">
        <ele>111.7</ele>
        <time>2023-05-21T11:41:06Z</time>
      </trkpt>
      <trkpt lat="49.17434" lon="2.11047">
        <ele>112.3</ele>
        <time>2023-05-21T11:41:11Z</time>
      </trkpt>
      <trkpt lat="49.1744" lon="2.11055">
        <ele>113.1</ele>
        <time>2023-05-21T11:41:17Z</time>
      </trkpt>
      <trkpt lat="49.17448" lon="2.11061">
        <ele>114.1</ele>
        <time>2023-05-21T11:41:23Z</time>
      </trkpt>
      <trkpt lat="49.17457" lon="2.11066">
        <ele>114.9</ele>
        <time>2023-05-21T11:41:29Z</time>
      </trkpt>
      <trkpt lat="49.17463" lon="2.11069">
        <ele>115.4</ele>
        <time>2023-05-21T11:41:35Z</time>
      </trkpt>
      <trkpt lat="49.17471" lon="2.1107">
        <ele>115.5</ele>
        <time>2023-05-21T11:41:40Z</time>
      </trkpt>
      <trkpt lat="49.17479" lon="2.11071">
        <ele>115.6</ele>
        <time>2023-05-21T11:41:45Z</time>
      </trkpt>
      <trkpt lat="49.17487" lon="2.11072">
        <ele>115.4</ele>
        <time>2023-05-21T11:41:51Z</time>
      </trkpt>
      <trkpt lat="49.17494" lon="2.11075">
        <ele>115.2</ele>
        <time>2023-05-21T11:41:57Z</time>
      </trkpt>
      <trkpt lat="49.17501" lon="2.11074">
        <ele>115.5</ele>
        <time>2023-05-21T11:42:03Z</time>
      </trkpt>
      <trkpt lat="49.17508" lon="2.11073">
        <ele>115.9</ele>
        <time>2023-05-21T11:42:08Z</time>
      </trkpt>
      <trkpt lat="49.17516" lon="2.11071">
        <ele>115.9</ele>
        <time>2023-05-21T11:42:13Z</time>
      </trkpt>
      <trkpt lat="49.17525" lon="2.11067">
        <ele>115.6</ele>
        <time>2023-05-21T11:42:19Z</time>
      </trkpt>
      <trkpt lat="49.17532" lon="2.11063">
        <ele>115.4</ele>
        <time>2023-05-21T11:42:24Z</time>
      </trkpt>
      <trkpt lat="49.17538" lon="2.1106">
        <ele>115</ele>
        <time>2023-05-21T11:42:29Z</time>
      </trkpt>
      <trkpt lat="49.17546" lon="2.11055">
        <ele>114.9</ele>
        <time>2023-05-21T11:42:35Z</time>
      </trkpt>
      <trkpt lat="49.17552" lon="2.1105">
        <ele>114.7</ele>
        <time>2023-05-21T11:42:40Z</time>
      </trkpt>
      <trkpt lat="49.1756" lon="2.11043">
        <ele>114.1</ele>
        <time>2023-05-21T11:42:46Z</time>
      </trkpt>
      <trkpt lat="49.17567" lon="2.11036">
        <ele>113.8</ele>
        <time>2023-05-21T11:42:52Z</time>
      </trkpt>
      <trkpt lat="49.17573" lon="2.11034">
        <ele>113.7</ele>
        <time>2023-05-21T11:42:57Z</time>
      </trkpt>
      <trkpt lat="49.1758" lon="2.11035">
        <ele>113.7</ele>
        <time>2023-05-21T11:43:03Z</time>
      </trkpt>
      <trkpt lat="49.17586" lon="2.11031">
        <ele>113.3</ele>
        <time>2023-05-21T11:43:08Z</time>
      </trkpt>
      <trkpt lat="49.17595" lon="2.11024">
        <ele>112.4</ele>
        <time>2023-05-21T11:43:14Z</time>
      </trkpt>
      <trkpt lat="49.17603" lon="2.11018">
        <ele>111.7</ele>
        <time>2023-05-21T11:43:19Z</time>
      </trkpt>
      <trkpt lat="49.17611" lon="2.11013">
        <ele>111.1</ele>
        <time>2023-05-21T11:43:24Z</time>
      </trkpt>
      <trkpt lat="49.17618" lon="2.11003">
        <ele>110.4</ele>
        <time>2023-05-21T11:43:30Z</time>
      </trkpt>
      <trkpt lat="49.17621" lon="2.10995">
        <ele>109.8</ele>
        <time>2023-05-21T11:43:36Z</time>
      </trkpt>
      <trkpt lat="49.17624" lon="2.10986">
        <ele>109.3</ele>
        <time>2023-05-21T11:43:42Z</time>
      </trkpt>
      <trkpt lat="49.17628" lon="2.10978">
        <ele>109</ele>
        <time>2023-05-21T11:43:47Z</time>
      </trkpt>
      <trkpt lat="49.17634" lon="2.10969">
        <ele>108.9</ele>
        <time>2023-05-21T11:43:52Z</time>
      </trkpt>
      <trkpt lat="49.17638" lon="2.10962">
        <ele>108.9</ele>
        <time>2023-05-21T11:43:58Z</time>
      </trkpt>
      <trkpt lat="49.17643" lon="2.10951">
        <ele>108.4</ele>
        <time>2023-05-21T11:44:04Z</time>
      </trkpt>
      <trkpt lat="49.17653" lon="2.10946">
        <ele>107.9</ele>
        <time>2023-05-21T11:44:09Z</time>
      </trkpt>
      <trkpt lat="49.17661" lon="2.10942">
        <ele>107.6</ele>
        <time>2023-05-21T11:44:14Z</time>
      </trkpt>
      <trkpt lat="49.17673" lon="2.1094">
        <ele>107.3</ele>
        <time>2023-05-21T11:44:20Z</time>
      </trkpt>
      <trkpt lat="49.17681" lon="2.10939">
        <ele>106.8</ele>
        <time>2023-05-21T11:44:25Z</time>
      </trkpt>
      <trkpt lat="49.17687" lon="2.10937">
        <ele>106.2</ele>
        <time>2023-05-21T11:44:31Z</time>
      </trkpt>
      <trkpt lat="49.17696" lon="2.10931">
        <ele>106</ele>
        <time>2023-05-21T11:44:37Z</time>
      </trkpt>
      <trkpt lat="49.17703" lon="2.10924">
        <ele>105.9</ele>
        <time>2023-05-21T11:44:42Z</time>
      </trkpt>
      <trkpt lat="49.1771" lon="2.10917">
        <ele>105.9</ele>
        <time>2023-05-21T11:44:48Z</time>
      </trkpt>
      <trkpt lat="49.17715" lon="2.10913">
        <ele>105.9</ele>
        <time>2023-05-21T11:44:53Z</time>
      </trkpt>
      <trkpt lat="49.17724" lon="2.10907">
        <ele>105.9</ele>
        <time>2023-05-21T11:44:59Z</time>
      </trkpt>
      <trkpt lat="49.1773" lon="2.10902">
        <ele>105.7</ele>
        <time>2023-05-21T11:45:04Z</time>
      </trkpt>
      <trkpt lat="49.17736" lon="2.10898">
        <ele>105.5</ele>
        <time>2023-05-21T11:45:10Z</time>
      </trkpt>
      <trkpt lat="49.17744" lon="2.10893">
        <ele>105.2</ele>
        <time>2023-05-21T11:45:16Z</time>
      </trkpt>
      <trkpt lat="49.17746" lon="2.10893">
        <ele>105</ele>
        <time>2023-05-21T11:45:22Z</time>
      </trkpt>
      <trkpt lat="49.17745" lon="2.10891">
        <ele>104.8</ele>
        <time>2023-05-21T11:45:28Z</time>
      </trkpt>
      <trkpt lat="49.17744" lon="2.10889">
        <ele>104.7</ele>
        <time>2023-05-21T11:45:33Z</time>
      </trkpt>
      <trkpt lat="49.17744" lon="2.10889">
        <ele>104.7</ele>
        <time>2023-05-21T11:45:38Z</time>
      </trkpt>
      <trkpt lat="49.17743" lon="2.10889">
        <ele>104.7</ele>
        <time>2023-05-21T11:45:44Z</time>
      </trkpt>
      <trkpt lat="49.17743" lon="2.10889">
        <ele>104.7</ele>
        <time>2023-05-21T11:45:49Z</time>
      </trkpt>
      <trkpt lat="49.17743" lon="2.10889">
        <ele>104.8</ele>
        <time>2023-05-21T11:45:54Z</time>
      </trkpt>
      <trkpt lat="49.17743" lon="2.10889">
        <ele>104.8</ele>
        <time>2023-05-21T11:45:59Z</time>
      </trkpt>
      <trkpt lat="49.17743" lon="2.10889">
        <ele>104.9</ele>
        <time>2023-05-21T11:46:04Z</time>
      </trkpt>
      <trkpt lat="49.17743" lon="2.10889">
        <ele>104.9</ele>
        <time>2023-05-21T11:46:10Z</time>
      </trkpt>
      <trkpt lat="49.17743" lon="2.1089">
        <ele>104.9</ele>
        <time>2023-05-21T11:46:15Z</time>
      </trkpt>
      <trkpt lat="49.17744" lon="2.1089">
        <ele>105</ele>
        <time>2023-05-21T11:46:21Z</time>
      </trkpt>
      <trkpt lat="49.17744" lon="2.1089">
        <ele>105</ele>
        <time>2023-05-21T11:46:26Z</time>
      </trkpt>
      <trkpt lat="49.17744" lon="2.1089">
        <ele>105.1</ele>
        <time>2023-05-21T11:46:32Z</time>
      </trkpt>
      <trkpt lat="49.17744" lon="2.1089">
        <ele>105.1</ele>
        <time>2023-05-21T11:46:37Z</time>
      </trkpt>
      <trkpt lat="49.17744" lon="2.10891">
        <ele>105.5</ele>
        <time>2023-05-21T11:46:43Z</time>
      </trkpt>
      <trkpt lat="49.17744" lon="2.10893">
        <ele>105.6</ele>
        <time>2023-05-21T11:46:48Z</time>
      </trkpt>
      <trkpt lat="49.17744" lon="2.10893">
        <ele>105.7</ele>
        <time>2023-05-21T11:46:54Z</time>
      </trkpt>
      <trkpt lat="49.17744" lon="2.10893">
        <ele>105.7</ele>
        <time>2023-05-21T11:46:59Z</time>
      </trkpt>
      <trkpt lat="49.17745" lon="2.10892">
        <ele>105.8</ele>
        <time>2023-05-21T11:47:05Z</time>
      </trkpt>
      <trkpt lat="49.17744" lon="2.10891">
        <ele>105.8</ele>
        <time>2023-05-21T11:47:11Z</time>
      </trkpt>
      <trkpt lat="49.17744" lon="2.1089">
        <ele>105.7</ele>
        <time>2023-05-21T11:47:16Z</time>
      </trkpt>
      <trkpt lat="49.17744" lon="2.10889">
        <ele>105.8</ele>
        <time>2023-05-21T11:47:22Z</time>
      </trkpt>
      <trkpt lat="49.17743" lon="2.10888">
        <ele>105.8</ele>
        <time>2023-05-21T11:47:28Z</time>
      </trkpt>
      <trkpt lat="49.17742" lon="2.10889">
        <ele>106.1</ele>
        <time>2023-05-21T11:47:34Z</time>
      </trkpt>
      <trkpt lat="49.17743" lon="2.10889">
        <ele>106.1</ele>
        <time>2023-05-21T11:47:39Z</time>
      </trkpt>
      <trkpt lat="49.17743" lon="2.10889">
        <ele>106.2</ele>
        <time>2023-05-21T11:47:45Z</time>
      </trkpt>
      <trkpt lat="49.17744" lon="2.10889">
        <ele>106.2</ele>
        <time>2023-05-21T11:47:51Z</time>
      </trkpt>
      <trkpt lat="49.1775" lon="2.10891">
        <ele>106.4</ele>
        <time>2023-05-21T11:47:56Z</time>
      </trkpt>
      <trkpt lat="49.17757" lon="2.10886">
        <ele>106.7</ele>
        <time>2023-05-21T11:48:02Z</time>
      </trkpt>
      <trkpt lat="49.17763" lon="2.10883">
        <ele>107.1</ele>
        <time>2023-05-21T11:48:07Z</time>
      </trkpt>
      <trkpt lat="49.1777" lon="2.10878">
        <ele>107.4</ele>
        <time>2023-05-21T11:48:13Z</time>
      </trkpt>
      <trkpt lat="49.17776" lon="2.10874">
        <ele>107.6</ele>
        <time>2023-05-21T11:48:18Z</time>
      </trkpt>
      <trkpt lat="49.17781" lon="2.10871">
        <ele>107.7</ele>
        <time>2023-05-21T11:48:23Z</time>
      </trkpt>
      <trkpt lat="49.17788" lon="2.10867">
        <ele>107.5</ele>
        <time>2023-05-21T11:48:29Z</time>
      </trkpt>
      <trkpt lat="49.17795" lon="2.10862">
        <ele>107.4</ele>
        <time>2023-05-21T11:48:34Z</time>
      </trkpt>
      <trkpt lat="49.17804" lon="2.10858">
        <ele>107.2</ele>
        <time>2023-05-21T11:48:40Z</time>
      </trkpt>
      <trkpt lat="49.17809" lon="2.10854">
        <ele>107.4</ele>
        <time>2023-05-21T11:48:46Z</time>
      </trkpt>
      <trkpt lat="49.17815" lon="2.10848">
        <ele>107.8</ele>
        <time>2023-05-21T11:48:52Z</time>
      </trkpt>
      <trkpt lat="49.1782" lon="2.10843">
        <ele>108.1</ele>
        <time>2023-05-21T11:48:57Z</time>
      </trkpt>
      <trkpt lat="49.17828" lon="2.10839">
        <ele>108.3</ele>
        <time>2023-05-21T11:49:03Z</time>
      </trkpt>
      <trkpt lat="49.17834" lon="2.10835">
        <ele>108.1</ele>
        <time>2023-05-21T11:49:08Z</time>
      </trkpt>
      <trkpt lat="49.17841" lon="2.10837">
        <ele>108</ele>
        <time>2023-05-21T11:49:14Z</time>
      </trkpt>
      <trkpt lat="49.17843" lon="2.1084">
        <ele>107.6</ele>
        <time>2023-05-21T11:49:20Z</time>
      </trkpt>
      <trkpt lat="49.17843" lon="2.10841">
        <ele>107.5</ele>
        <time>2023-05-21T11:49:25Z</time>
      </trkpt>
      <trkpt lat="49.17843" lon="2.10841">
        <ele>107.5</ele>
        <time>2023-05-21T11:49:30Z</time>
      </trkpt>
      <trkpt lat="49.17842" lon="2.10841">
        <ele>107.5</ele>
        <time>2023-05-21T11:49:36Z</time>
      </trkpt>
      <trkpt lat="49.17842" lon="2.10841">
        <ele>107.6</ele>
        <time>2023-05-21T11:49:41Z</time>
      </trkpt>
      <trkpt lat="49.17842" lon="2.10841">
        <ele>107.6</ele>
        <time>2023-05-21T11:49:46Z</time>
      </trkpt>
      <trkpt lat="49.17842" lon="2.10841">
        <ele>107.6</ele>
        <time>2023-05-21T11:49:52Z</time>
      </trkpt>
      <trkpt lat="49.17842" lon="2.1084">
        <ele>107.7</ele>
        <time>2023-05-21T11:49:58Z</time>
      </trkpt>
      <trkpt lat="49.17842" lon="2.1084">
        <ele>107.7</ele>
        <time>2023-05-21T11:50:04Z</time>
      </trkpt>
      <trkpt lat="49.17842" lon="2.10841">
        <ele>107.8</ele>
        <time>2023-05-21T11:50:09Z</time>
      </trkpt>
      <trkpt lat="49.17842" lon="2.10841">
        <ele>107.9</ele>
        <time>2023-05-21T11:50:15Z</time>
      </trkpt>
      <trkpt lat="49.17842" lon="2.10844">
        <ele>108.3</ele>
        <time>2023-05-21T11:50:21Z</time>
      </trkpt>
      <trkpt lat="49.17845" lon="2.10855">
        <ele>108.9</ele>
        <time>2023-05-21T11:50:26Z</time>
      </trkpt>
      <trkpt lat="49.17849" lon="2.10865">
        <ele>108.9</ele>
        <time>2023-05-21T11:50:31Z</time>
      </trkpt>
      <trkpt lat="49.17852" lon="2.10874">
        <ele>108.7</ele>
        <time>2023-05-21T11:50:37Z</time>
      </trkpt>
      <trkpt lat="49.17855" lon="2.10883">
        <ele>108.4</ele>
        <time>2023-05-21T11:50:42Z</time>
      </trkpt>
      <trkpt lat="49.17859" lon="2.10896">
        <ele>108.5</ele>
        <time>2023-05-21T11:50:48Z</time>
      </trkpt>
      <trkpt lat="49.1786" lon="2.10904">
        <ele>108.6</ele>
        <time>2023-05-21T11:50:53Z</time>
      </trkpt>
      <trkpt lat="49.17862" lon="2.10917">
        <ele>108.5</ele>
        <time>2023-05-21T11:50:59Z</time>
      </trkpt>
      <trkpt lat="49.17863" lon="2.10931">
        <ele>108.2</ele>
        <time>2023-05-21T11:51:05Z</time>
      </trkpt>
      <trkpt lat="49.17861" lon="2.10943">
        <ele>107.7</ele>
        <time>2023-05-21T11:51:11Z</time>
      </trkpt>
      <trkpt lat="49.17859" lon="2.1095">
        <ele>107.1</ele>
        <time>2023-05-21T11:51:16Z</time>
      </trkpt>
      <trkpt lat="49.17857" lon="2.1096">
        <ele>106.6</ele>
        <time>2023-05-21T11:51:21Z</time>
      </trkpt>
      <trkpt lat="49.17854" lon="2.10971">
        <ele>106.4</ele>
        <time>2023-05-21T11:51:26Z</time>
      </trkpt>
      <trkpt lat="49.17851" lon="2.10985">
        <ele>106.3</ele>
        <time>2023-05-21T11:51:32Z</time>
      </trkpt>
      <trkpt lat="49.1785" lon="2.10995">
        <ele>106.3</ele>
        <time>2023-05-21T11:51:37Z</time>
      </trkpt>
      <trkpt lat="49.17848" lon="2.11004">
        <ele>106.4</ele>
        <time>2023-05-21T11:51:42Z</time>
      </trkpt>
      <trkpt lat="49.17847" lon="2.11015">
        <ele>106.5</ele>
        <time>2023-05-21T11:51:48Z</time>
      </trkpt>
      <trkpt lat="49.17848" lon="2.11016">
        <ele>106.6</ele>
        <time>2023-05-21T11:51:54Z</time>
      </trkpt>
      <trkpt lat="49.17848" lon="2.11015">
        <ele>106.6</ele>
        <time>2023-05-21T11:51:59Z</time>
      </trkpt>
      <trkpt lat="49.17846" lon="2.1102">
        <ele>106.5</ele>
        <time>2023-05-21T11:52:05Z</time>
      </trkpt>
      <trkpt lat="49.17849" lon="2.1102">
        <ele>106.2</ele>
        <time>2023-05-21T11:52:10Z</time>
      </trkpt>
      <trkpt lat="49.17855" lon="2.11015">
        <ele>106.1</ele>
        <time>2023-05-21T11:52:16Z</time>
      </trkpt>
      <trkpt lat="49.17862" lon="2.11013">
        <ele>106</ele>
        <time>2023-05-21T11:52:22Z</time>
      </trkpt>
      <trkpt lat="49.17867" lon="2.1101">
        <ele>106</ele>
        <time>2023-05-21T11:52:27Z</time>
      </trkpt>
      <trkpt lat="49.17871" lon="2.11009">
        <ele>105.9</ele>
        <time>2023-05-21T11:52:33Z</time>
      </trkpt>
      <trkpt lat="49.17871" lon="2.11009">
        <ele>105.9</ele>
        <time>2023-05-21T11:52:38Z</time>
      </trkpt>
      <trkpt lat="49.17869" lon="2.1101">
        <ele>105.8</ele>
        <time>2023-05-21T11:52:43Z</time>
      </trkpt>
      <trkpt lat="49.17868" lon="2.1101">
        <ele>105.8</ele>
        <time>2023-05-21T11:52:49Z</time>
      </trkpt>
      <trkpt lat="49.17868" lon="2.11009">
        <ele>105.8</ele>
        <time>2023-05-21T11:52:55Z</time>
      </trkpt>
      <trkpt lat="49.17866" lon="2.11012">
        <ele>105.8</ele>
        <time>2023-05-21T11:53:01Z</time>
      </trkpt>
      <trkpt lat="49.17866" lon="2.11012">
        <ele>105.9</ele>
        <time>2023-05-21T11:53:06Z</time>
      </trkpt>
      <trkpt lat="49.17866" lon="2.11016">
        <ele>106.2</ele>
        <time>2023-05-21T11:53:12Z</time>
      </trkpt>
      <trkpt lat="49.17866" lon="2.11013">
        <ele>106.1</ele>
        <time>2023-05-21T11:53:18Z</time>
      </trkpt>
      <trkpt lat="49.17866" lon="2.11012">
        <ele>106.1</ele>
        <time>2023-05-21T11:53:23Z</time>
      </trkpt>
      <trkpt lat="49.17865" lon="2.11011">
        <ele>106</ele>
        <time>2023-05-21T11:53:29Z</time>
      </trkpt>
      <trkpt lat="49.17865" lon="2.1101">
        <ele>106</ele>
        <time>2023-05-21T11:53:34Z</time>
      </trkpt>
      <trkpt lat="49.17865" lon="2.11009">
        <ele>106</ele>
        <time>2023-05-21T11:53:40Z</time>
      </trkpt>
      <trkpt lat="49.17865" lon="2.11009">
        <ele>106</ele>
        <time>2023-05-21T11:53:45Z</time>
      </trkpt>
      <trkpt lat="49.17865" lon="2.11009">
        <ele>106.1</ele>
        <time>2023-05-21T11:53:51Z</time>
      </trkpt>
      <trkpt lat="49.17865" lon="2.11008">
        <ele>106.1</ele>
        <time>2023-05-21T11:53:56Z</time>
      </trkpt>
      <trkpt lat="49.17865" lon="2.11008">
        <ele>106.2</ele>
        <time>2023-05-21T11:54:02Z</time>
      </trkpt>
      <trkpt lat="49.17865" lon="2.11008">
        <ele>106.5</ele>
        <time>2023-05-21T11:54:07Z</time>
      </trkpt>
      <trkpt lat="49.17865" lon="2.11009">
        <ele>106.5</ele>
        <time>2023-05-21T11:54:13Z</time>
      </trkpt>
      <trkpt lat="49.17865" lon="2.11007">
        <ele>106.5</ele>
        <time>2023-05-21T11:54:18Z</time>
      </trkpt>
      <trkpt lat="49.17864" lon="2.11006">
        <ele>106.4</ele>
        <time>2023-05-21T11:54:24Z</time>
      </trkpt>
      <trkpt lat="49.17864" lon="2.11005">
        <ele>106.3</ele>
        <time>2023-05-21T11:54:30Z</time>
      </trkpt>
      <trkpt lat="49.17864" lon="2.11006">
        <ele>106.3</ele>
        <time>2023-05-21T11:54:36Z</time>
      </trkpt>
      <trkpt lat="49.17864" lon="2.11008">
        <ele>106</ele>
        <time>2023-05-21T11:54:42Z</time>
      </trkpt>
      <trkpt lat="49.17862" lon="2.11009">
        <ele>106</ele>
        <time>2023-05-21T11:54:47Z</time>
      </trkpt>
      <trkpt lat="49.17856" lon="2.11011">
        <ele>106.3</ele>
        <time>2023-05-21T11:54:52Z</time>
      </trkpt>
      <trkpt lat="49.17849" lon="2.11015">
        <ele>106.6</ele>
        <time>2023-05-21T11:54:58Z</time>
      </trkpt>
      <trkpt lat="49.17846" lon="2.11018">
        <ele>106.8</ele>
        <time>2023-05-21T11:55:04Z</time>
      </trkpt>
      <trkpt lat="49.17846" lon="2.11019">
        <ele>106.7</ele>
        <time>2023-05-21T11:55:10Z</time>
      </trkpt>
      <trkpt lat="49.17846" lon="2.11019">
        <ele>106.6</ele>
        <time>2023-05-21T11:55:16Z</time>
      </trkpt>
      <trkpt lat="49.17846" lon="2.11019">
        <ele>106.5</ele>
        <time>2023-05-21T11:55:22Z</time>
      </trkpt>
      <trkpt lat="49.17846" lon="2.1102">
        <ele>106.5</ele>
        <time>2023-05-21T11:55:27Z</time>
      </trkpt>
      <trkpt lat="49.17846" lon="2.1102">
        <ele>106.4</ele>
        <time>2023-05-21T11:55:33Z</time>
      </trkpt>
      <trkpt lat="49.17846" lon="2.11021">
        <ele>106.3</ele>
        <time>2023-05-21T11:55:38Z</time>
      </trkpt>
      <trkpt lat="49.17846" lon="2.11024">
        <ele>106.3</ele>
        <time>2023-05-21T11:55:43Z</time>
      </trkpt>
      <trkpt lat="49.17846" lon="2.11024">
        <ele>106</ele>
        <time>2023-05-21T11:55:48Z</time>
      </trkpt>
      <trkpt lat="49.17843" lon="2.11031">
        <ele>105.4</ele>
        <time>2023-05-21T11:55:54Z</time>
      </trkpt>
      <trkpt lat="49.1784" lon="2.11041">
        <ele>104.9</ele>
        <time>2023-05-21T11:56:00Z</time>
      </trkpt>
      <trkpt lat="49.17837" lon="2.11052">
        <ele>104.5</ele>
        <time>2023-05-21T11:56:06Z</time>
      </trkpt>
      <trkpt lat="49.17836" lon="2.11061">
        <ele>104.2</ele>
        <time>2023-05-21T11:56:11Z</time>
      </trkpt>
      <trkpt lat="49.17836" lon="2.11072">
        <ele>103.9</ele>
        <time>2023-05-21T11:56:16Z</time>
      </trkpt>
      <trkpt lat="49.17836" lon="2.11084">
        <ele>103.5</ele>
        <time>2023-05-21T11:56:22Z</time>
      </trkpt>
      <trkpt lat="49.17836" lon="2.11091">
        <ele>103.4</ele>
        <time>2023-05-21T11:56:27Z</time>
      </trkpt>
      <trkpt lat="49.17839" lon="2.11103">
        <ele>103.1</ele>
        <time>2023-05-21T11:56:33Z</time>
      </trkpt>
      <trkpt lat="49.17844" lon="2.11112">
        <ele>102.9</ele>
        <time>2023-05-21T11:56:39Z</time>
      </trkpt>
      <trkpt lat="49.17849" lon="2.1112">
        <ele>102.6</ele>
        <time>2023-05-21T11:56:45Z</time>
      </trkpt>
      <trkpt lat="49.17856" lon="2.11129">
        <ele>102.6</ele>
        <time>2023-05-21T11:56:51Z</time>
      </trkpt>
      <trkpt lat="49.17858" lon="2.11137">
        <ele>102.7</ele>
        <time>2023-05-21T11:56:56Z</time>
      </trkpt>
      <trkpt lat="49.17864" lon="2.11148">
        <ele>103.1</ele>
        <time>2023-05-21T11:57:02Z</time>
      </trkpt>
      <trkpt lat="49.17867" lon="2.11155">
        <ele>103.2</ele>
        <time>2023-05-21T11:57:07Z</time>
      </trkpt>
      <trkpt lat="49.17871" lon="2.11162">
        <ele>103.3</ele>
        <time>2023-05-21T11:57:12Z</time>
      </trkpt>
      <trkpt lat="49.17878" lon="2.1117">
        <ele>103.7</ele>
        <time>2023-05-21T11:57:18Z</time>
      </trkpt>
      <trkpt lat="49.17881" lon="2.11177">
        <ele>104</ele>
        <time>2023-05-21T11:57:23Z</time>
      </trkpt>
      <trkpt lat="49.17885" lon="2.11186">
        <ele>104.2</ele>
        <time>2023-05-21T11:57:29Z</time>
      </trkpt>
      <trkpt lat="49.17888" lon="2.11196">
        <ele>104.3</ele>
        <time>2023-05-21T11:57:35Z</time>
      </trkpt>
      <trkpt lat="49.17891" lon="2.11203">
        <ele>104.2</ele>
        <time>2023-05-21T11:57:40Z</time>
      </trkpt>
      <trkpt lat="49.17895" lon="2.11211">
        <ele>104.2</ele>
        <time>2023-05-21T11:57:46Z</time>
      </trkpt>
      <trkpt lat="49.17898" lon="2.1122">
        <ele>104.5</ele>
        <time>2023-05-21T11:57:51Z</time>
      </trkpt>
      <trkpt lat="49.17905" lon="2.1123">
        <ele>105.1</ele>
        <time>2023-05-21T11:57:57Z</time>
      </trkpt>
      <trkpt lat="49.17912" lon="2.11236">
        <ele>105.9</ele>
        <time>2023-05-21T11:58:03Z</time>
      </trkpt>
      <trkpt lat="49.17915" lon="2.11244">
        <ele>106.4</ele>
        <time>2023-05-21T11:58:08Z</time>
      </trkpt>
      <trkpt lat="49.17919" lon="2.11252">
        <ele>107.3</ele>
        <time>2023-05-21T11:58:14Z</time>
      </trkpt>
      <trkpt lat="49.17923" lon="2.11257">
        <ele>107.9</ele>
        <time>2023-05-21T11:58:19Z</time>
      </trkpt>
      <trkpt lat="49.17928" lon="2.11265">
        <ele>108.3</ele>
        <time>2023-05-21T11:58:25Z</time>
      </trkpt>
      <trkpt lat="49.17932" lon="2.11271">
        <ele>108.5</ele>
        <time>2023-05-21T11:58:30Z</time>
      </trkpt>
      <trkpt lat="49.1794" lon="2.11277">
        <ele>108.7</ele>
        <time>2023-05-21T11:58:36Z</time>
      </trkpt>
      <trkpt lat="49.17948" lon="2.11283">
        <ele>108.8</ele>
        <time>2023-05-21T11:58:42Z</time>
      </trkpt>
      <trkpt lat="49.17953" lon="2.11285">
        <ele>109</ele>
        <time>2023-05-21T11:58:47Z</time>
      </trkpt>
      <trkpt lat="49.17959" lon="2.11292">
        <ele>109.3</ele>
        <time>2023-05-21T11:58:53Z</time>
      </trkpt>
      <trkpt lat="49.17963" lon="2.11299">
        <ele>109.5</ele>
        <time>2023-05-21T11:58:58Z</time>
      </trkpt>
      <trkpt lat="49.1797" lon="2.11305">
        <ele>110</ele>
        <time>2023-05-21T11:59:03Z</time>
      </trkpt>
      <trkpt lat="49.17978" lon="2.11309">
        <ele>110.7</ele>
        <time>2023-05-21T11:59:09Z</time>
      </trkpt>
      <trkpt lat="49.17985" lon="2.11317">
        <ele>111.3</ele>
        <time>2023-05-21T11:59:15Z</time>
      </trkpt>
      <trkpt lat="49.1799" lon="2.11323">
        <ele>112</ele>
        <time>2023-05-21T11:59:21Z</time>
      </trkpt>
      <trkpt lat="49.17996" lon="2.1133">
        <ele>112.3</ele>
        <time>2023-05-21T11:59:27Z</time>
      </trkpt>
      <trkpt lat="49.18004" lon="2.11337">
        <ele>112.6</ele>
        <time>2023-05-21T11:59:33Z</time>
      </trkpt>
      <trkpt lat="49.18012" lon="2.11342">
        <ele>112.8</ele>
        <time>2023-05-21T11:59:38Z</time>
      </trkpt>
      <trkpt lat="49.18018" lon="2.11346">
        <ele>113.2</ele>
        <time>2023-05-21T11:59:43Z</time>
      </trkpt>
      <trkpt lat="49.18024" lon="2.1135">
        <ele>113.8</ele>
        <time>2023-05-21T11:59:49Z</time>
      </trkpt>
      <trkpt lat="49.18029" lon="2.11357">
        <ele>114.3</ele>
        <time>2023-05-21T11:59:55Z</time>
      </trkpt>
      <trkpt lat="49.18035" lon="2.11363">
        <ele>114.8</ele>
        <time>2023-05-21T12:00:00Z</time>
      </trkpt>
      <trkpt lat="49.18043" lon="2.11366">
        <ele>115</ele>
        <time>2023-05-21T12:00:06Z</time>
      </trkpt>
      <trkpt lat="49.18048" lon="2.11367">
        <ele>115</ele>
        <time>2023-05-21T12:00:11Z</time>
      </trkpt>
      <trkpt lat="49.18054" lon="2.11375">
        <ele>115.3</ele>
        <time>2023-05-21T12:00:17Z</time>
      </trkpt>
      <trkpt lat="49.1806" lon="2.11381">
        <ele>115.7</ele>
        <time>2023-05-21T12:00:22Z</time>
      </trkpt>
      <trkpt lat="49.18065" lon="2.11387">
        <ele>116</ele>
        <time>2023-05-21T12:00:28Z</time>
      </trkpt>
      <trkpt lat="49.18072" lon="2.1139">
        <ele>116.2</ele>
        <time>2023-05-21T12:00:34Z</time>
      </trkpt>
      <trkpt lat="49.18077" lon="2.1139">
        <ele>116.4</ele>
        <time>2023-05-21T12:00:40Z</time>
      </trkpt>
      <trkpt lat="49.18083" lon="2.11392">
        <ele>116.8</ele>
        <time>2023-05-21T12:00:46Z</time>
      </trkpt>
      <trkpt lat="49.18089" lon="2.11395">
        <ele>117.1</ele>
        <time>2023-05-21T12:00:52Z</time>
      </trkpt>
      <trkpt lat="49.18095" lon="2.11394">
        <ele>117.4</ele>
        <time>2023-05-21T12:00:57Z</time>
      </trkpt>
      <trkpt lat="49.18103" lon="2.11394">
        <ele>118.3</ele>
        <time>2023-05-21T12:01:03Z</time>
      </trkpt>
      <trkpt lat="49.18109" lon="2.11394">
        <ele>119</ele>
        <time>2023-05-21T12:01:08Z</time>
      </trkpt>
      <trkpt lat="49.18114" lon="2.11391">
        <ele>119.8</ele>
        <time>2023-05-21T12:01:13Z</time>
      </trkpt>
      <trkpt lat="49.1812" lon="2.11388">
        <ele>120.8</ele>
        <time>2023-05-21T12:01:19Z</time>
      </trkpt>
      <trkpt lat="49.18126" lon="2.11384">
        <ele>121.8</ele>
        <time>2023-05-21T12:01:25Z</time>
      </trkpt>
      <trkpt lat="49.18131" lon="2.11379">
        <ele>122.7</ele>
        <time>2023-05-21T12:01:30Z</time>
      </trkpt>
      <trkpt lat="49.18139" lon="2.11374">
        <ele>123.6</ele>
        <time>2023-05-21T12:01:35Z</time>
      </trkpt>
      <trkpt lat="49.18145" lon="2.11367">
        <ele>124.8</ele>
        <time>2023-05-21T12:01:41Z</time>
      </trkpt>
      <trkpt lat="49.18149" lon="2.11369">
        <ele>126.4</ele>
        <time>2023-05-21T12:01:47Z</time>
      </trkpt>
      <trkpt lat="49.18154" lon="2.11378">
        <ele>127.5</ele>
        <time>2023-05-21T12:01:52Z</time>
      </trkpt>
      <trkpt lat="49.1816" lon="2.11387">
        <ele>128.5</ele>
        <time>2023-05-21T12:01:58Z</time>
      </trkpt>
      <trkpt lat="49.18168" lon="2.1139">
        <ele>129.5</ele>
        <time>2023-05-21T12:02:03Z</time>
      </trkpt>
      <trkpt lat="49.18174" lon="2.11396">
        <ele>130.9</ele>
        <time>2023-05-21T12:02:09Z</time>
      </trkpt>
      <trkpt lat="49.18179" lon="2.11403">
        <ele>131.9</ele>
        <time>2023-05-21T12:02:14Z</time>
      </trkpt>
      <trkpt lat="49.18184" lon="2.11409">
        <ele>132.7</ele>
        <time>2023-05-21T12:02:19Z</time>
      </trkpt>
      <trkpt lat="49.18189" lon="2.11411">
        <ele>133</ele>
        <time>2023-05-21T12:02:25Z</time>
      </trkpt>
      <trkpt lat="49.18193" lon="2.11412">
        <ele>132.9</ele>
        <time>2023-05-21T12:02:30Z</time>
      </trkpt>
      <trkpt lat="49.18199" lon="2.11414">
        <ele>132.4</ele>
        <time>2023-05-21T12:02:36Z</time>
      </trkpt>
      <trkpt lat="49.18203" lon="2.11417">
        <ele>132.1</ele>
        <time>2023-05-21T12:02:41Z</time>
      </trkpt>
      <trkpt lat="49.18207" lon="2.11417">
        <ele>132.1</ele>
        <time>2023-05-21T12:02:47Z</time>
      </trkpt>
      <trkpt lat="49.18205" lon="2.11414">
        <ele>132.1</ele>
        <time>2023-05-21T12:02:52Z</time>
      </trkpt>
      <trkpt lat="49.18199" lon="2.11412">
        <ele>132.2</ele>
        <time>2023-05-21T12:02:57Z</time>
      </trkpt>
      <trkpt lat="49.1819" lon="2.11411">
        <ele>132.6</ele>
        <time>2023-05-21T12:03:03Z</time>
      </trkpt>
      <trkpt lat="49.18183" lon="2.11408">
        <ele>133</ele>
        <time>2023-05-21T12:03:09Z</time>
      </trkpt>
      <trkpt lat="49.18178" lon="2.11403">
        <ele>133.3</ele>
        <time>2023-05-21T12:03:14Z</time>
      </trkpt>
      <trkpt lat="49.18173" lon="2.11396">
        <ele>133.6</ele>
        <time>2023-05-21T12:03:20Z</time>
      </trkpt>
      <trkpt lat="49.18167" lon="2.11391">
        <ele>133.6</ele>
        <time>2023-05-21T12:03:25Z</time>
      </trkpt>
      <trkpt lat="49.18162" lon="2.11385">
        <ele>133.7</ele>
        <time>2023-05-21T12:03:30Z</time>
      </trkpt>
      <trkpt lat="49.18156" lon="2.11376">
        <ele>133.7</ele>
        <time>2023-05-21T12:03:36Z</time>
      </trkpt>
      <trkpt lat="49.18151" lon="2.11371">
        <ele>133.6</ele>
        <time>2023-05-21T12:03:42Z</time>
      </trkpt>
      <trkpt lat="49.18151" lon="2.11363">
        <ele>133.4</ele>
        <time>2023-05-21T12:03:48Z</time>
      </trkpt>
      <trkpt lat="49.18154" lon="2.11358">
        <ele>133.2</ele>
        <time>2023-05-21T12:03:54Z</time>
      </trkpt>
      <trkpt lat="49.18159" lon="2.11359">
        <ele>133.2</ele>
        <time>2023-05-21T12:04:00Z</time>
      </trkpt>
      <trkpt lat="49.18162" lon="2.11357">
        <ele>133.3</ele>
        <time>2023-05-21T12:04:05Z</time>
      </trkpt>
      <trkpt lat="49.18163" lon="2.11358">
        <ele>133.4</ele>
        <time>2023-05-21T12:04:10Z</time>
      </trkpt>
      <trkpt lat="49.18165" lon="2.11359">
        <ele>133.6</ele>
        <time>2023-05-21T12:04:16Z</time>
      </trkpt>
      <trkpt lat="49.18168" lon="2.11357">
        <ele>134</ele>
        <time>2023-05-21T12:04:21Z</time>
      </trkpt>
      <trkpt lat="49.18174" lon="2.11353">
        <ele>134.2</ele>
        <time>2023-05-21T12:04:26Z</time>
      </trkpt>
      <trkpt lat="49.18176" lon="2.11349">
        <ele>134.4</ele>
        <time>2023-05-21T12:04:32Z</time>
      </trkpt>
      <trkpt lat="49.18176" lon="2.11348">
        <ele>134.5</ele>
        <time>2023-05-21T12:04:37Z</time>
      </trkpt>
      <trkpt lat="49.18176" lon="2.11348">
        <ele>134.5</ele>
        <time>2023-05-21T12:04:42Z</time>
      </trkpt>
      <trkpt lat="49.18176" lon="2.11346">
        <ele>134.8</ele>
        <time>2023-05-21T12:04:47Z</time>
      </trkpt>
      <trkpt lat="49.1818" lon="2.11346">
        <ele>135.5</ele>
        <time>2023-05-21T12:04:53Z</time>
      </trkpt>
      <trkpt lat="49.18183" lon="2.11343">
        <ele>136</ele>
        <time>2023-05-21T12:04:59Z</time>
      </trkpt>
      <trkpt lat="49.18184" lon="2.11339">
        <ele>136.2</ele>
        <time>2023-05-21T12:05:05Z</time>
      </trkpt>
      <trkpt lat="49.18181" lon="2.11336">
        <ele>136.5</ele>
        <time>2023-05-21T12:05:11Z</time>
      </trkpt>
      <trkpt lat="49.18182" lon="2.11336">
        <ele>136.6</ele>
        <time>2023-05-21T12:05:16Z</time>
      </trkpt>
      <trkpt lat="49.18181" lon="2.11333">
        <ele>136.7</ele>
        <time>2023-05-21T12:05:22Z</time>
      </trkpt>
      <trkpt lat="49.18181" lon="2.11331">
        <ele>136.7</ele>
        <time>2023-05-21T12:05:28Z</time>
      </trkpt>
      <trkpt lat="49.18185" lon="2.11331">
        <ele>136.9</ele>
        <time>2023-05-21T12:05:34Z</time>
      </trkpt>
      <trkpt lat="49.18188" lon="2.11335">
        <ele>137</ele>
        <time>2023-05-21T12:05:39Z</time>
      </trkpt>
      <trkpt lat="49.18188" lon="2.11335">
        <ele>136.8</ele>
        <time>2023-05-21T12:05:45Z</time>
      </trkpt>
      <trkpt lat="49.18184" lon="2.11342">
        <ele>136.5</ele>
        <time>2023-05-21T12:05:51Z</time>
      </trkpt>
      <trkpt lat="49.18182" lon="2.11346">
        <ele>136.5</ele>
        <time>2023-05-21T12:05:56Z</time>
      </trkpt>
      <trkpt lat="49.1818" lon="2.11346">
        <ele>136.7</ele>
        <time>2023-05-21T12:06:01Z</time>
      </trkpt>
      <trkpt lat="49.18176" lon="2.1135">
        <ele>136.9</ele>
        <time>2023-05-21T12:06:07Z</time>
      </trkpt>
      <trkpt lat="49.18175" lon="2.11352">
        <ele>137.1</ele>
        <time>2023-05-21T12:06:13Z</time>
      </trkpt>
      <trkpt lat="49.18175" lon="2.11352">
        <ele>137.3</ele>
        <time>2023-05-21T12:06:18Z</time>
      </trkpt>
      <trkpt lat="49.1817" lon="2.11355">
        <ele>137.6</ele>
        <time>2023-05-21T12:06:24Z</time>
      </trkpt>
      <trkpt lat="49.18162" lon="2.1136">
        <ele>137.6</ele>
        <time>2023-05-21T12:06:29Z</time>
      </trkpt>
      <trkpt lat="49.18159" lon="2.11361">
        <ele>137.4</ele>
        <time>2023-05-21T12:06:34Z</time>
      </trkpt>
      <trkpt lat="49.18158" lon="2.11357">
        <ele>137.3</ele>
        <time>2023-05-21T12:06:40Z</time>
      </trkpt>
      <trkpt lat="49.18158" lon="2.11357">
        <ele>137.3</ele>
        <time>2023-05-21T12:06:46Z</time>
      </trkpt>
      <trkpt lat="49.18158" lon="2.11356">
        <ele>137.2</ele>
        <time>2023-05-21T12:06:52Z</time>
      </trkpt>
      <trkpt lat="49.18158" lon="2.11354">
        <ele>136.7</ele>
        <time>2023-05-21T12:06:57Z</time>
      </trkpt>
      <trkpt lat="49.1816" lon="2.11348">
        <ele>136</ele>
        <time>2023-05-21T12:07:03Z</time>
      </trkpt>
      <trkpt lat="49.1816" lon="2.11341">
        <ele>135.5</ele>
        <time>2023-05-21T12:07:08Z</time>
      </trkpt>
      <trkpt lat="49.1816" lon="2.11333">
        <ele>134.9</ele>
        <time>2023-05-21T12:07:13Z</time>
      </trkpt>
      <trkpt lat="49.18159" lon="2.11318">
        <ele>134.5</ele>
        <time>2023-05-21T12:07:19Z</time>
      </trkpt>
      <trkpt lat="49.18158" lon="2.11307">
        <ele>134.9</ele>
        <time>2023-05-21T12:07:25Z</time>
      </trkpt>
      <trkpt lat="49.18156" lon="2.11298">
        <ele>135.1</ele>
        <time>2023-05-21T12:07:31Z</time>
      </trkpt>
      <trkpt lat="49.1815" lon="2.11295">
        <ele>135.1</ele>
        <time>2023-05-21T12:07:36Z</time>
      </trkpt>
      <trkpt lat="49.18145" lon="2.11289">
        <ele>134.8</ele>
        <time>2023-05-21T12:07:42Z</time>
      </trkpt>
      <trkpt lat="49.18139" lon="2.11283">
        <ele>134</ele>
        <time>2023-05-21T12:07:48Z</time>
      </trkpt>
      <trkpt lat="49.18134" lon="2.11277">
        <ele>133.3</ele>
        <time>2023-05-21T12:07:53Z</time>
      </trkpt>
      <trkpt lat="49.18128" lon="2.11267">
        <ele>132.2</ele>
        <time>2023-05-21T12:07:59Z</time>
      </trkpt>
      <trkpt lat="49.18124" lon="2.11258">
        <ele>131</ele>
        <time>2023-05-21T12:08:04Z</time>
      </trkpt>
      <trkpt lat="49.18119" lon="2.11251">
        <ele>129.9</ele>
        <time>2023-05-21T12:08:09Z</time>
      </trkpt>
      <trkpt lat="49.18114" lon="2.11244">
        <ele>129.1</ele>
        <time>2023-05-21T12:08:15Z</time>
      </trkpt>
      <trkpt lat="49.18112" lon="2.11237">
        <ele>128.7</ele>
        <time>2023-05-21T12:08:20Z</time>
      </trkpt>
      <trkpt lat="49.18109" lon="2.11228">
        <ele>128</ele>
        <time>2023-05-21T12:08:26Z</time>
      </trkpt>
      <trkpt lat="49.18104" lon="2.11215">
        <ele>127</ele>
        <time>2023-05-21T12:08:32Z</time>
      </trkpt>
      <trkpt lat="49.18102" lon="2.11205">
        <ele>126</ele>
        <time>2023-05-21T12:08:37Z</time>
      </trkpt>
      <trkpt lat="49.18099" lon="2.11198">
        <ele>124.7</ele>
        <time>2023-05-21T12:08:43Z</time>
      </trkpt>
      <trkpt lat="49.18094" lon="2.11194">
        <ele>123.7</ele>
        <time>2023-05-21T12:08:48Z</time>
      </trkpt>
      <trkpt lat="49.18087" lon="2.11191">
        <ele>123</ele>
        <time>2023-05-21T12:08:54Z</time>
      </trkpt>
      <trkpt lat="49.18081" lon="2.11181">
        <ele>122.7</ele>
        <time>2023-05-21T12:09:00Z</time>
      </trkpt>
      <trkpt lat="49.18077" lon="2.11176">
        <ele>122.4</ele>
        <time>2023-05-21T12:09:05Z</time>
      </trkpt>
      <trkpt lat="49.18073" lon="2.11163">
        <ele>122</ele>
        <time>2023-05-21T12:09:11Z</time>
      </trkpt>
      <trkpt lat="49.18068" lon="2.11152">
        <ele>121.7</ele>
        <time>2023-05-21T12:09:16Z</time>
      </trkpt>
      <trkpt lat="49.18065" lon="2.11144">
        <ele>121.5</ele>
        <time>2023-05-21T12:09:21Z</time>
      </trkpt>
      <trkpt lat="49.18059" lon="2.11135">
        <ele>121.2</ele>
        <time>2023-05-21T12:09:27Z</time>
      </trkpt>
      <trkpt lat="49.18058" lon="2.11129">
        <ele>120.7</ele>
        <time>2023-05-21T12:09:33Z</time>
      </trkpt>
      <trkpt lat="49.18065" lon="2.11124">
        <ele>120.1</ele>
        <time>2023-05-21T12:09:38Z</time>
      </trkpt>
      <trkpt lat="49.18073" lon="2.11117">
        <ele>119.4</ele>
        <time>2023-05-21T12:09:44Z</time>
      </trkpt>
      <trkpt lat="49.18077" lon="2.11111">
        <ele>118.8</ele>
        <time>2023-05-21T12:09:49Z</time>
      </trkpt>
      <trkpt lat="49.18082" lon="2.11104">
        <ele>118.1</ele>
        <time>2023-05-21T12:09:54Z</time>
      </trkpt>
      <trkpt lat="49.18089" lon="2.11096">
        <ele>117.4</ele>
        <time>2023-05-21T12:10:00Z</time>
      </trkpt>
      <trkpt lat="49.18095" lon="2.11089">
        <ele>116.8</ele>
        <time>2023-05-21T12:10:05Z</time>
      </trkpt>
      <trkpt lat="49.18099" lon="2.11081">
        <ele>116.1</ele>
        <time>2023-05-21T12:10:11Z</time>
      </trkpt>
      <trkpt lat="49.18105" lon="2.11076">
        <ele>115.6</ele>
        <time>2023-05-21T12:10:16Z</time>
      </trkpt>
      <trkpt lat="49.18112" lon="2.11069">
        <ele>115.1</ele>
        <time>2023-05-21T12:10:22Z</time>
      </trkpt>
      <trkpt lat="49.18112" lon="2.11058">
        <ele>114.7</ele>
        <time>2023-05-21T12:10:28Z</time>
      </trkpt>
      <trkpt lat="49.18109" lon="2.11048">
        <ele>114.1</ele>
        <time>2023-05-21T12:10:33Z</time>
      </trkpt>
      <trkpt lat="49.18103" lon="2.11039">
        <ele>113.8</ele>
        <time>2023-05-21T12:10:39Z</time>
      </trkpt>
      <trkpt lat="49.18098" lon="2.11031">
        <ele>113.6</ele>
        <time>2023-05-21T12:10:44Z</time>
      </trkpt>
      <trkpt lat="49.18094" lon="2.11022">
        <ele>113.5</ele>
        <time>2023-05-21T12:10:50Z</time>
      </trkpt>
      <trkpt lat="49.1809" lon="2.11012">
        <ele>113.2</ele>
        <time>2023-05-21T12:10:56Z</time>
      </trkpt>
      <trkpt lat="49.18084" lon="2.11002">
        <ele>112.8</ele>
        <time>2023-05-21T12:11:02Z</time>
      </trkpt>
      <trkpt lat="49.18082" lon="2.10993">
        <ele>112.5</ele>
        <time>2023-05-21T12:11:07Z</time>
      </trkpt>
      <trkpt lat="49.18079" lon="2.10985">
        <ele>112.1</ele>
        <time>2023-05-21T12:11:12Z</time>
      </trkpt>
      <trkpt lat="49.18075" lon="2.10974">
        <ele>111.6</ele>
        <time>2023-05-21T12:11:18Z</time>
      </trkpt>
      <trkpt lat="49.18068" lon="2.10965">
        <ele>111</ele>
        <time>2023-05-21T12:11:24Z</time>
      </trkpt>
      <trkpt lat="49.1806" lon="2.10963">
        <ele>110.1</ele>
        <time>2023-05-21T12:11:30Z</time>
      </trkpt>
      <trkpt lat="49.18052" lon="2.1096">
        <ele>109.3</ele>
        <time>2023-05-21T12:11:36Z</time>
      </trkpt>
      <trkpt lat="49.18047" lon="2.10955">
        <ele>108.8</ele>
        <time>2023-05-21T12:11:41Z</time>
      </trkpt>
      <trkpt lat="49.18044" lon="2.10945">
        <ele>108.7</ele>
        <time>2023-05-21T12:11:47Z</time>
      </trkpt>
      <trkpt lat="49.1804" lon="2.10935">
        <ele>108.6</ele>
        <time>2023-05-21T12:11:52Z</time>
      </trkpt>
      <trkpt lat="49.18035" lon="2.10927">
        <ele>108.7</ele>
        <time>2023-05-21T12:11:58Z</time>
      </trkpt>
      <trkpt lat="49.18029" lon="2.10924">
        <ele>108.6</ele>
        <time>2023-05-21T12:12:03Z</time>
      </trkpt>
      <trkpt lat="49.18022" lon="2.10929">
        <ele>108.6</ele>
        <time>2023-05-21T12:12:09Z</time>
      </trkpt>
      <trkpt lat="49.18016" lon="2.10932">
        <ele>108.7</ele>
        <time>2023-05-21T12:12:15Z</time>
      </trkpt>
      <trkpt lat="49.18013" lon="2.10926">
        <ele>108.7</ele>
        <time>2023-05-21T12:12:21Z</time>
      </trkpt>
      <trkpt lat="49.18011" lon="2.10926">
        <ele>108.8</ele>
        <time>2023-05-21T12:12:26Z</time>
      </trkpt>
      <trkpt lat="49.1801" lon="2.10924">
        <ele>108.9</ele>
        <time>2023-05-21T12:12:32Z</time>
      </trkpt>
      <trkpt lat="49.18005" lon="2.10918">
        <ele>109</ele>
        <time>2023-05-21T12:12:37Z</time>
      </trkpt>
      <trkpt lat="49.18001" lon="2.10908">
        <ele>109.1</ele>
        <time>2023-05-21T12:12:42Z</time>
      </trkpt>
      <trkpt lat="49.17997" lon="2.10897">
        <ele>108.7</ele>
        <time>2023-05-21T12:12:48Z</time>
      </trkpt>
      <trkpt lat="49.17993" lon="2.10887">
        <ele>108.3</ele>
        <time>2023-05-21T12:12:53Z</time>
      </trkpt>
      <trkpt lat="49.1799" lon="2.10879">
        <ele>107.8</ele>
        <time>2023-05-21T12:12:58Z</time>
      </trkpt>
      <trkpt lat="49.17984" lon="2.10867">
        <ele>107</ele>
        <time>2023-05-21T12:13:04Z</time>
      </trkpt>
      <trkpt lat="49.17979" lon="2.10858">
        <ele>106.3</ele>
        <time>2023-05-21T12:13:09Z</time>
      </trkpt>
      <trkpt lat="49.17977" lon="2.10851">
        <ele>105.8</ele>
        <time>2023-05-21T12:13:14Z</time>
      </trkpt>
      <trkpt lat="49.17974" lon="2.10842">
        <ele>105.7</ele>
        <time>2023-05-21T12:13:20Z</time>
      </trkpt>
      <trkpt lat="49.17971" lon="2.10835">
        <ele>105.7</ele>
        <time>2023-05-21T12:13:26Z</time>
      </trkpt>
      <trkpt lat="49.17969" lon="2.10826">
        <ele>105.8</ele>
        <time>2023-05-21T12:13:31Z</time>
      </trkpt>
      <trkpt lat="49.17966" lon="2.10818">
        <ele>106</ele>
        <time>2023-05-21T12:13:36Z</time>
      </trkpt>
      <trkpt lat="49.17961" lon="2.1081">
        <ele>106.5</ele>
        <time>2023-05-21T12:13:42Z</time>
      </trkpt>
      <trkpt lat="49.17956" lon="2.108">
        <ele>107.1</ele>
        <time>2023-05-21T12:13:48Z</time>
      </trkpt>
      <trkpt lat="49.17952" lon="2.10791">
        <ele>108</ele>
        <time>2023-05-21T12:13:54Z</time>
      </trkpt>
      <trkpt lat="49.17952" lon="2.10782">
        <ele>108.5</ele>
        <time>2023-05-21T12:14:00Z</time>
      </trkpt>
      <trkpt lat="49.17959" lon="2.10777">
        <ele>108.7</ele>
        <time>2023-05-21T12:14:06Z</time>
      </trkpt>
      <trkpt lat="49.17967" lon="2.10772">
        <ele>108.4</ele>
        <time>2023-05-21T12:14:12Z</time>
      </trkpt>
      <trkpt lat="49.17975" lon="2.10762">
        <ele>107.8</ele>
        <time>2023-05-21T12:14:18Z</time>
      </trkpt>
      <trkpt lat="49.1798" lon="2.10756">
        <ele>107.6</ele>
        <time>2023-05-21T12:14:23Z</time>
      </trkpt>
      <trkpt lat="49.17985" lon="2.10751">
        <ele>107.8</ele>
        <time>2023-05-21T12:14:29Z</time>
      </trkpt>
      <trkpt lat="49.17993" lon="2.10745">
        <ele>108.4</ele>
        <time>2023-05-21T12:14:35Z</time>
      </trkpt>
      <trkpt lat="49.17998" lon="2.10733">
        <ele>108.8</ele>
        <time>2023-05-21T12:14:41Z</time>
      </trkpt>
      <trkpt lat="49.18004" lon="2.10726">
        <ele>109.1</ele>
        <time>2023-05-21T12:14:46Z</time>
      </trkpt>
      <trkpt lat="49.1801" lon="2.10718">
        <ele>109.4</ele>
        <time>2023-05-21T12:14:52Z</time>
      </trkpt>
      <trkpt lat="49.18015" lon="2.1071">
        <ele>109.5</ele>
        <time>2023-05-21T12:14:57Z</time>
      </trkpt>
      <trkpt lat="49.1802" lon="2.10702">
        <ele>109.6</ele>
        <time>2023-05-21T12:15:03Z</time>
      </trkpt>
      <trkpt lat="49.18023" lon="2.10694">
        <ele>109.8</ele>
        <time>2023-05-21T12:15:08Z</time>
      </trkpt>
      <trkpt lat="49.18029" lon="2.10686">
        <ele>110</ele>
        <time>2023-05-21T12:15:13Z</time>
      </trkpt>
      <trkpt lat="49.18035" lon="2.10675">
        <ele>110.3</ele>
        <time>2023-05-21T12:15:19Z</time>
      </trkpt>
      <trkpt lat="49.18042" lon="2.10666">
        <ele>110.6</ele>
        <time>2023-05-21T12:15:25Z</time>
      </trkpt>
      <trkpt lat="49.18046" lon="2.10657">
        <ele>110.7</ele>
        <time>2023-05-21T12:15:31Z</time>
      </trkpt>
      <trkpt lat="49.18048" lon="2.10644">
        <ele>110.7</ele>
        <time>2023-05-21T12:15:37Z</time>
      </trkpt>
      <trkpt lat="49.18051" lon="2.10635">
        <ele>110.8</ele>
        <time>2023-05-21T12:15:42Z</time>
      </trkpt>
      <trkpt lat="49.18055" lon="2.10624">
        <ele>110.8</ele>
        <time>2023-05-21T12:15:48Z</time>
      </trkpt>
      <trkpt lat="49.18057" lon="2.10613">
        <ele>110.6</ele>
        <time>2023-05-21T12:15:53Z</time>
      </trkpt>
      <trkpt lat="49.18059" lon="2.10603">
        <ele>110.5</ele>
        <time>2023-05-21T12:15:59Z</time>
      </trkpt>
      <trkpt lat="49.18061" lon="2.10593">
        <ele>110.4</ele>
        <time>2023-05-21T12:16:04Z</time>
      </trkpt>
      <trkpt lat="49.18064" lon="2.10582">
        <ele>110.1</ele>
        <time>2023-05-21T12:16:09Z</time>
      </trkpt>
      <trkpt lat="49.18066" lon="2.1057">
        <ele>109.7</ele>
        <time>2023-05-21T12:16:15Z</time>
      </trkpt>
      <trkpt lat="49.18067" lon="2.10558">
        <ele>109.3</ele>
        <time>2023-05-21T12:16:21Z</time>
      </trkpt>
      <trkpt lat="49.18068" lon="2.10545">
        <ele>108.9</ele>
        <time>2023-05-21T12:16:27Z</time>
      </trkpt>
      <trkpt lat="49.18069" lon="2.10536">
        <ele>108.6</ele>
        <time>2023-05-21T12:16:32Z</time>
      </trkpt>
      <trkpt lat="49.1807" lon="2.10524">
        <ele>108.4</ele>
        <time>2023-05-21T12:16:38Z</time>
      </trkpt>
      <trkpt lat="49.18073" lon="2.10516">
        <ele>108.2</ele>
        <time>2023-05-21T12:16:43Z</time>
      </trkpt>
      <trkpt lat="49.18079" lon="2.10508">
        <ele>107.9</ele>
        <time>2023-05-21T12:16:49Z</time>
      </trkpt>
      <trkpt lat="49.18084" lon="2.10502">
        <ele>107.6</ele>
        <time>2023-05-21T12:16:54Z</time>
      </trkpt>
      <trkpt lat="49.1809" lon="2.10496">
        <ele>107.4</ele>
        <time>2023-05-21T12:16:59Z</time>
      </trkpt>
      <trkpt lat="49.18098" lon="2.1049">
        <ele>107.2</ele>
        <time>2023-05-21T12:17:05Z</time>
      </trkpt>
      <trkpt lat="49.18105" lon="2.10483">
        <ele>106.9</ele>
        <time>2023-05-21T12:17:11Z</time>
      </trkpt>
      <trkpt lat="49.18111" lon="2.10476">
        <ele>106.7</ele>
        <time>2023-05-21T12:17:16Z</time>
      </trkpt>
      <trkpt lat="49.18117" lon="2.1047">
        <ele>106.6</ele>
        <time>2023-05-21T12:17:21Z</time>
      </trkpt>
      <trkpt lat="49.18123" lon="2.10464">
        <ele>106.6</ele>
        <time>2023-05-21T12:17:27Z</time>
      </trkpt>
      <trkpt lat="49.1813" lon="2.10457">
        <ele>106.8</ele>
        <time>2023-05-21T12:17:33Z</time>
      </trkpt>
      <trkpt lat="49.18136" lon="2.1045">
        <ele>107</ele>
        <time>2023-05-21T12:17:39Z</time>
      </trkpt>
      <trkpt lat="49.18141" lon="2.10444">
        <ele>107.1</ele>
        <time>2023-05-21T12:17:44Z</time>
      </trkpt>
      <trkpt lat="49.18149" lon="2.10436">
        <ele>107.5</ele>
        <time>2023-05-21T12:17:52Z</time>
      </trkpt>
      <trkpt lat="49.1815" lon="2.10435">
        <ele>107.7</ele>
        <time>2023-05-21T12:17:58Z</time>
      </trkpt>
      <trkpt lat="49.18149" lon="2.10436">
        <ele>107.7</ele>
        <time>2023-05-21T12:18:04Z</time>
      </trkpt>
      <trkpt lat="49.18149" lon="2.10434">
        <ele>107.8</ele>
        <time>2023-05-21T12:18:09Z</time>
      </trkpt>
      <trkpt lat="49.18146" lon="2.10428">
        <ele>108.1</ele>
        <time>2023-05-21T12:18:15Z</time>
      </trkpt>
      <trkpt lat="49.18143" lon="2.10418">
        <ele>108.3</ele>
        <time>2023-05-21T12:18:21Z</time>
      </trkpt>
      <trkpt lat="49.18139" lon="2.10406">
        <ele>108.7</ele>
        <time>2023-05-21T12:18:26Z</time>
      </trkpt>
      <trkpt lat="49.18137" lon="2.10396">
        <ele>109</ele>
        <time>2023-05-21T12:18:32Z</time>
      </trkpt>
      <trkpt lat="49.18134" lon="2.10387">
        <ele>109.3</ele>
        <time>2023-05-21T12:18:37Z</time>
      </trkpt>
      <trkpt lat="49.18131" lon="2.1038">
        <ele>109.9</ele>
        <time>2023-05-21T12:18:42Z</time>
      </trkpt>
      <trkpt lat="49.18127" lon="2.1037">
        <ele>110.6</ele>
        <time>2023-05-21T12:18:48Z</time>
      </trkpt>
      <trkpt lat="49.18123" lon="2.10361">
        <ele>111.2</ele>
        <time>2023-05-21T12:18:53Z</time>
      </trkpt>
      <trkpt lat="49.18119" lon="2.1035">
        <ele>111.9</ele>
        <time>2023-05-21T12:18:59Z</time>
      </trkpt>
      <trkpt lat="49.18117" lon="2.10339">
        <ele>112.5</ele>
        <time>2023-05-21T12:19:05Z</time>
      </trkpt>
      <trkpt lat="49.18114" lon="2.10329">
        <ele>112.7</ele>
        <time>2023-05-21T12:19:10Z</time>
      </trkpt>
      <trkpt lat="49.18111" lon="2.10317">
        <ele>112.8</ele>
        <time>2023-05-21T12:19:16Z</time>
      </trkpt>
      <trkpt lat="49.18108" lon="2.10307">
        <ele>112.8</ele>
        <time>2023-05-21T12:19:22Z</time>
      </trkpt>
      <trkpt lat="49.18104" lon="2.10296">
        <ele>112.8</ele>
        <time>2023-05-21T12:19:28Z</time>
      </trkpt>
      <trkpt lat="49.18103" lon="2.10287">
        <ele>113</ele>
        <time>2023-05-21T12:19:33Z</time>
      </trkpt>
      <trkpt lat="49.18102" lon="2.10278">
        <ele>113.3</ele>
        <time>2023-05-21T12:19:38Z</time>
      </trkpt>
      <trkpt lat="49.181" lon="2.10268">
        <ele>113.8</ele>
        <time>2023-05-21T12:19:44Z</time>
      </trkpt>
      <trkpt lat="49.181" lon="2.10258">
        <ele>114.2</ele>
        <time>2023-05-21T12:19:50Z</time>
      </trkpt>
      <trkpt lat="49.18097" lon="2.10247">
        <ele>114.8</ele>
        <time>2023-05-21T12:19:56Z</time>
      </trkpt>
      <trkpt lat="49.18096" lon="2.10236">
        <ele>115.5</ele>
        <time>2023-05-21T12:20:02Z</time>
      </trkpt>
      <trkpt lat="49.18095" lon="2.10226">
        <ele>115.9</ele>
        <time>2023-05-21T12:20:07Z</time>
      </trkpt>
      <trkpt lat="49.18095" lon="2.10216">
        <ele>116.3</ele>
        <time>2023-05-21T12:20:13Z</time>
      </trkpt>
      <trkpt lat="49.18095" lon="2.10209">
        <ele>116.5</ele>
        <time>2023-05-21T12:20:18Z</time>
      </trkpt>
      <trkpt lat="49.18097" lon="2.10199">
        <ele>116.8</ele>
        <time>2023-05-21T12:20:23Z</time>
      </trkpt>
      <trkpt lat="49.18101" lon="2.10187">
        <ele>117.1</ele>
        <time>2023-05-21T12:20:29Z</time>
      </trkpt>
      <trkpt lat="49.18106" lon="2.10178">
        <ele>117.6</ele>
        <time>2023-05-21T12:20:35Z</time>
      </trkpt>
      <trkpt lat="49.18111" lon="2.1017">
        <ele>118.1</ele>
        <time>2023-05-21T12:20:41Z</time>
      </trkpt>
      <trkpt lat="49.18116" lon="2.10161">
        <ele>118.6</ele>
        <time>2023-05-21T12:20:47Z</time>
      </trkpt>
      <trkpt lat="49.1812" lon="2.10153">
        <ele>118.9</ele>
        <time>2023-05-21T12:20:52Z</time>
      </trkpt>
      <trkpt lat="49.18125" lon="2.10144">
        <ele>119.3</ele>
        <time>2023-05-21T12:20:58Z</time>
      </trkpt>
      <trkpt lat="49.18129" lon="2.10135">
        <ele>119.5</ele>
        <time>2023-05-21T12:21:04Z</time>
      </trkpt>
      <trkpt lat="49.18132" lon="2.10125">
        <ele>119.8</ele>
        <time>2023-05-21T12:21:10Z</time>
      </trkpt>
      <trkpt lat="49.18135" lon="2.10117">
        <ele>120.1</ele>
        <time>2023-05-21T12:21:15Z</time>
      </trkpt>
      <trkpt lat="49.18139" lon="2.10106">
        <ele>120.6</ele>
        <time>2023-05-21T12:21:21Z</time>
      </trkpt>
      <trkpt lat="49.18141" lon="2.10096">
        <ele>121</ele>
        <time>2023-05-21T12:21:26Z</time>
      </trkpt>
      <trkpt lat="49.18144" lon="2.10085">
        <ele>121.6</ele>
        <time>2023-05-21T12:21:32Z</time>
      </trkpt>
      <trkpt lat="49.18145" lon="2.10077">
        <ele>122</ele>
        <time>2023-05-21T12:21:37Z</time>
      </trkpt>
      <trkpt lat="49.18146" lon="2.10065">
        <ele>122.5</ele>
        <time>2023-05-21T12:21:44Z</time>
      </trkpt>
      <trkpt lat="49.18148" lon="2.10055">
        <ele>122.9</ele>
        <time>2023-05-21T12:21:50Z</time>
      </trkpt>
      <trkpt lat="49.18151" lon="2.10045">
        <ele>123.3</ele>
        <time>2023-05-21T12:21:56Z</time>
      </trkpt>
      <trkpt lat="49.18155" lon="2.10035">
        <ele>123.6</ele>
        <time>2023-05-21T12:22:02Z</time>
      </trkpt>
      <trkpt lat="49.1816" lon="2.10028">
        <ele>123.9</ele>
        <time>2023-05-21T12:22:07Z</time>
      </trkpt>
      <trkpt lat="49.18166" lon="2.1002">
        <ele>124.2</ele>
        <time>2023-05-21T12:22:13Z</time>
      </trkpt>
      <trkpt lat="49.18171" lon="2.10015">
        <ele>124.6</ele>
        <time>2023-05-21T12:22:18Z</time>
      </trkpt>
      <trkpt lat="49.18175" lon="2.10008">
        <ele>125.1</ele>
        <time>2023-05-21T12:22:23Z</time>
      </trkpt>
      <trkpt lat="49.18179" lon="2.10001">
        <ele>125.8</ele>
        <time>2023-05-21T12:22:29Z</time>
      </trkpt>
      <trkpt lat="49.18183" lon="2.09994">
        <ele>126.8</ele>
        <time>2023-05-21T12:22:35Z</time>
      </trkpt>
      <trkpt lat="49.18188" lon="2.09986">
        <ele>127.7</ele>
        <time>2023-05-21T12:22:41Z</time>
      </trkpt>
      <trkpt lat="49.18192" lon="2.09979">
        <ele>128.5</ele>
        <time>2023-05-21T12:22:47Z</time>
      </trkpt>
      <trkpt lat="49.18196" lon="2.09973">
        <ele>129.3</ele>
        <time>2023-05-21T12:22:52Z</time>
      </trkpt>
      <trkpt lat="49.18199" lon="2.09966">
        <ele>130.1</ele>
        <time>2023-05-21T12:22:58Z</time>
      </trkpt>
      <trkpt lat="49.18203" lon="2.09958">
        <ele>130.6</ele>
        <time>2023-05-21T12:23:04Z</time>
      </trkpt>
      <trkpt lat="49.18209" lon="2.09951">
        <ele>131.2</ele>
        <time>2023-05-21T12:23:09Z</time>
      </trkpt>
      <trkpt lat="49.18215" lon="2.09944">
        <ele>132</ele>
        <time>2023-05-21T12:23:15Z</time>
      </trkpt>
      <trkpt lat="49.18221" lon="2.09936">
        <ele>133.2</ele>
        <time>2023-05-21T12:23:21Z</time>
      </trkpt>
      <trkpt lat="49.18226" lon="2.09928">
        <ele>134.4</ele>
        <time>2023-05-21T12:23:27Z</time>
      </trkpt>
      <trkpt lat="49.18232" lon="2.0992">
        <ele>135.6</ele>
        <time>2023-05-21T12:23:34Z</time>
      </trkpt>
      <trkpt lat="49.18235" lon="2.09919">
        <ele>135.8</ele>
        <time>2023-05-21T12:23:40Z</time>
      </trkpt>
      <trkpt lat="49.18235" lon="2.0992">
        <ele>135.9</ele>
        <time>2023-05-21T12:23:46Z</time>
      </trkpt>
      <trkpt lat="49.18236" lon="2.09922">
        <ele>136.5</ele>
        <time>2023-05-21T12:23:51Z</time>
      </trkpt>
      <trkpt lat="49.18237" lon="2.09924">
        <ele>137</ele>
        <time>2023-05-21T12:23:56Z</time>
      </trkpt>
      <trkpt lat="49.18237" lon="2.09925">
        <ele>137.3</ele>
        <time>2023-05-21T12:24:02Z</time>
      </trkpt>
      <trkpt lat="49.18237" lon="2.09925">
        <ele>137.5</ele>
        <time>2023-05-21T12:24:09Z</time>
      </trkpt>
      <trkpt lat="49.18234" lon="2.09926">
        <ele>137.9</ele>
        <time>2023-05-21T12:24:15Z</time>
      </trkpt>
      <trkpt lat="49.18229" lon="2.09928">
        <ele>138.2</ele>
        <time>2023-05-21T12:24:20Z</time>
      </trkpt>
      <trkpt lat="49.18228" lon="2.09931">
        <ele>138.4</ele>
        <time>2023-05-21T12:24:26Z</time>
      </trkpt>
      <trkpt lat="49.18228" lon="2.0993">
        <ele>138.6</ele>
        <time>2023-05-21T12:24:32Z</time>
      </trkpt>
      <trkpt lat="49.1823" lon="2.0993">
        <ele>138.8</ele>
        <time>2023-05-21T12:24:37Z</time>
      </trkpt>
      <trkpt lat="49.18232" lon="2.09932">
        <ele>139.1</ele>
        <time>2023-05-21T12:24:42Z</time>
      </trkpt>
      <trkpt lat="49.18233" lon="2.09931">
        <ele>139.5</ele>
        <time>2023-05-21T12:24:48Z</time>
      </trkpt>
      <trkpt lat="49.18234" lon="2.09928">
        <ele>139.8</ele>
        <time>2023-05-21T12:24:54Z</time>
      </trkpt>
      <trkpt lat="49.18234" lon="2.09925">
        <ele>140.5</ele>
        <time>2023-05-21T12:25:00Z</time>
      </trkpt>
      <trkpt lat="49.18239" lon="2.09922">
        <ele>141.4</ele>
        <time>2023-05-21T12:25:05Z</time>
      </trkpt>
      <trkpt lat="49.18242" lon="2.09919">
        <ele>142.3</ele>
        <time>2023-05-21T12:25:10Z</time>
      </trkpt>
      <trkpt lat="49.18239" lon="2.09919">
        <ele>142.6</ele>
        <time>2023-05-21T12:25:16Z</time>
      </trkpt>
      <trkpt lat="49.18232" lon="2.09916">
        <ele>142.9</ele>
        <time>2023-05-21T12:25:21Z</time>
      </trkpt>
      <trkpt lat="49.18227" lon="2.09913">
        <ele>143.1</ele>
        <time>2023-05-21T12:25:26Z</time>
      </trkpt>
      <trkpt lat="49.1822" lon="2.0991">
        <ele>143.2</ele>
        <time>2023-05-21T12:25:32Z</time>
      </trkpt>
      <trkpt lat="49.18216" lon="2.09908">
        <ele>143.3</ele>
        <time>2023-05-21T12:25:37Z</time>
      </trkpt>
      <trkpt lat="49.18216" lon="2.09908">
        <ele>143.3</ele>
        <time>2023-05-21T12:25:43Z</time>
      </trkpt>
      <trkpt lat="49.18217" lon="2.09909">
        <ele>143.4</ele>
        <time>2023-05-21T12:25:48Z</time>
      </trkpt>
      <trkpt lat="49.18217" lon="2.09909">
        <ele>143.4</ele>
        <time>2023-05-21T12:25:53Z</time>
      </trkpt>
      <trkpt lat="49.18217" lon="2.09909">
        <ele>143.4</ele>
        <time>2023-05-21T12:25:59Z</time>
      </trkpt>
      <trkpt lat="49.18217" lon="2.09909">
        <ele>143.5</ele>
        <time>2023-05-21T12:26:05Z</time>
      </trkpt>
      <trkpt lat="49.18217" lon="2.09909">
        <ele>143.5</ele>
        <time>2023-05-21T12:26:10Z</time>
      </trkpt>
      <trkpt lat="49.18217" lon="2.09909">
        <ele>143.5</ele>
        <time>2023-05-21T12:26:16Z</time>
      </trkpt>
      <trkpt lat="49.18216" lon="2.09909">
        <ele>143.8</ele>
        <time>2023-05-21T12:26:21Z</time>
      </trkpt>
      <trkpt lat="49.18216" lon="2.0991">
        <ele>143.8</ele>
        <time>2023-05-21T12:26:27Z</time>
      </trkpt>
      <trkpt lat="49.18216" lon="2.0991">
        <ele>143.8</ele>
        <time>2023-05-21T12:26:32Z</time>
      </trkpt>
      <trkpt lat="49.18216" lon="2.09909">
        <ele>143.6</ele>
        <time>2023-05-21T12:26:38Z</time>
      </trkpt>
      <trkpt lat="49.18216" lon="2.09912">
        <ele>143.5</ele>
        <time>2023-05-21T12:26:44Z</time>
      </trkpt>
      <trkpt lat="49.18215" lon="2.09912">
        <ele>143.4</ele>
        <time>2023-05-21T12:26:49Z</time>
      </trkpt>
      <trkpt lat="49.18215" lon="2.09912">
        <ele>143.4</ele>
        <time>2023-05-21T12:26:54Z</time>
      </trkpt>
      <trkpt lat="49.18215" lon="2.09912">
        <ele>143.4</ele>
        <time>2023-05-21T12:27:00Z</time>
      </trkpt>
      <trkpt lat="49.18216" lon="2.09912">
        <ele>143.4</ele>
        <time>2023-05-21T12:27:05Z</time>
      </trkpt>
      <trkpt lat="49.18216" lon="2.09911">
        <ele>143.4</ele>
        <time>2023-05-21T12:27:10Z</time>
      </trkpt>
      <trkpt lat="49.18216" lon="2.09911">
        <ele>143.4</ele>
        <time>2023-05-21T12:27:16Z</time>
      </trkpt>
      <trkpt lat="49.18213" lon="2.09907">
        <ele>143</ele>
        <time>2023-05-21T12:27:21Z</time>
      </trkpt>
      <trkpt lat="49.18213" lon="2.09909">
        <ele>142.7</ele>
        <time>2023-05-21T12:27:27Z</time>
      </trkpt>
      <trkpt lat="49.18212" lon="2.09908">
        <ele>142.6</ele>
        <time>2023-05-21T12:27:32Z</time>
      </trkpt>
      <trkpt lat="49.18209" lon="2.09905">
        <ele>142.3</ele>
        <time>2023-05-21T12:27:38Z</time>
      </trkpt>
      <trkpt lat="49.18204" lon="2.09902">
        <ele>142.1</ele>
        <time>2023-05-21T12:27:43Z</time>
      </trkpt>
      <trkpt lat="49.18195" lon="2.09901">
        <ele>142.1</ele>
        <time>2023-05-21T12:27:49Z</time>
      </trkpt>
      <trkpt lat="49.18191" lon="2.09897">
        <ele>142.3</ele>
        <time>2023-05-21T12:27:54Z</time>
      </trkpt>
      <trkpt lat="49.18185" lon="2.09892">
        <ele>142.4</ele>
        <time>2023-05-21T12:28:00Z</time>
      </trkpt>
      <trkpt lat="49.1818" lon="2.09889">
        <ele>142.4</ele>
        <time>2023-05-21T12:28:06Z</time>
      </trkpt>
      <trkpt lat="49.18173" lon="2.09884">
        <ele>142.4</ele>
        <time>2023-05-21T12:28:11Z</time>
      </trkpt>
      <trkpt lat="49.18165" lon="2.0988">
        <ele>142.4</ele>
        <time>2023-05-21T12:28:17Z</time>
      </trkpt>
      <trkpt lat="49.18158" lon="2.09877">
        <ele>142.8</ele>
        <time>2023-05-21T12:28:23Z</time>
      </trkpt>
      <trkpt lat="49.18153" lon="2.09875">
        <ele>143.4</ele>
        <time>2023-05-21T12:28:28Z</time>
      </trkpt>
      <trkpt lat="49.18146" lon="2.09875">
        <ele>143.9</ele>
        <time>2023-05-21T12:28:34Z</time>
      </trkpt>
      <trkpt lat="49.18139" lon="2.09873">
        <ele>144.3</ele>
        <time>2023-05-21T12:28:40Z</time>
      </trkpt>
      <trkpt lat="49.1813" lon="2.09871">
        <ele>144.7</ele>
        <time>2023-05-21T12:28:46Z</time>
      </trkpt>
      <trkpt lat="49.18121" lon="2.09869">
        <ele>145.2</ele>
        <time>2023-05-21T12:28:52Z</time>
      </trkpt>
      <trkpt lat="49.18115" lon="2.09868">
        <ele>145.6</ele>
        <time>2023-05-21T12:28:58Z</time>
      </trkpt>
      <trkpt lat="49.18107" lon="2.09866">
        <ele>145.8</ele>
        <time>2023-05-21T12:29:04Z</time>
      </trkpt>
      <trkpt lat="49.18099" lon="2.09863">
        <ele>146.1</ele>
        <time>2023-05-21T12:29:10Z</time>
      </trkpt>
      <trkpt lat="49.18092" lon="2.0986">
        <ele>146.4</ele>
        <time>2023-05-21T12:29:15Z</time>
      </trkpt>
      <trkpt lat="49.18084" lon="2.09856">
        <ele>146.8</ele>
        <time>2023-05-21T12:29:21Z</time>
      </trkpt>
      <trkpt lat="49.18078" lon="2.09853">
        <ele>147.1</ele>
        <time>2023-05-21T12:29:26Z</time>
      </trkpt>
      <trkpt lat="49.18069" lon="2.09848">
        <ele>147.4</ele>
        <time>2023-05-21T12:29:32Z</time>
      </trkpt>
      <trkpt lat="49.18064" lon="2.09845">
        <ele>147.7</ele>
        <time>2023-05-21T12:29:37Z</time>
      </trkpt>
      <trkpt lat="49.18055" lon="2.0984">
        <ele>148.1</ele>
        <time>2023-05-21T12:29:43Z</time>
      </trkpt>
      <trkpt lat="49.18047" lon="2.09838">
        <ele>148.6</ele>
        <time>2023-05-21T12:29:49Z</time>
      </trkpt>
      <trkpt lat="49.18042" lon="2.09833">
        <ele>149</ele>
        <time>2023-05-21T12:29:54Z</time>
      </trkpt>
      <trkpt lat="49.18035" lon="2.09828">
        <ele>149.4</ele>
        <time>2023-05-21T12:30:00Z</time>
      </trkpt>
      <trkpt lat="49.18025" lon="2.0982">
        <ele>149.7</ele>
        <time>2023-05-21T12:30:06Z</time>
      </trkpt>
      <trkpt lat="49.18018" lon="2.09814">
        <ele>150.1</ele>
        <time>2023-05-21T12:30:12Z</time>
      </trkpt>
      <trkpt lat="49.18011" lon="2.09808">
        <ele>150.5</ele>
        <time>2023-05-21T12:30:18Z</time>
      </trkpt>
      <trkpt lat="49.18001" lon="2.09801">
        <ele>151.1</ele>
        <time>2023-05-21T12:30:24Z</time>
      </trkpt>
      <trkpt lat="49.17994" lon="2.09796">
        <ele>151.4</ele>
        <time>2023-05-21T12:30:29Z</time>
      </trkpt>
      <trkpt lat="49.17988" lon="2.09794">
        <ele>151.6</ele>
        <time>2023-05-21T12:30:35Z</time>
      </trkpt>
      <trkpt lat="49.17981" lon="2.09789">
        <ele>151.7</ele>
        <time>2023-05-21T12:30:40Z</time>
      </trkpt>
      <trkpt lat="49.17975" lon="2.09784">
        <ele>151.9</ele>
        <time>2023-05-21T12:30:45Z</time>
      </trkpt>
      <trkpt lat="49.17967" lon="2.09779">
        <ele>152.3</ele>
        <time>2023-05-21T12:30:51Z</time>
      </trkpt>
      <trkpt lat="49.1796" lon="2.09783">
        <ele>152.6</ele>
        <time>2023-05-21T12:30:57Z</time>
      </trkpt>
      <trkpt lat="49.17953" lon="2.09793">
        <ele>152.8</ele>
        <time>2023-05-21T12:31:03Z</time>
      </trkpt>
      <trkpt lat="49.1795" lon="2.09799">
        <ele>152.8</ele>
        <time>2023-05-21T12:31:08Z</time>
      </trkpt>
      <trkpt lat="49.17943" lon="2.09809">
        <ele>152.8</ele>
        <time>2023-05-21T12:31:14Z</time>
      </trkpt>
      <trkpt lat="49.17937" lon="2.09817">
        <ele>153</ele>
        <time>2023-05-21T12:31:19Z</time>
      </trkpt>
      <trkpt lat="49.17932" lon="2.09824">
        <ele>153.1</ele>
        <time>2023-05-21T12:31:24Z</time>
      </trkpt>
      <trkpt lat="49.17926" lon="2.09831">
        <ele>153.2</ele>
        <time>2023-05-21T12:31:30Z</time>
      </trkpt>
      <trkpt lat="49.17917" lon="2.0984">
        <ele>153.3</ele>
        <time>2023-05-21T12:31:36Z</time>
      </trkpt>
      <trkpt lat="49.17911" lon="2.09848">
        <ele>153.5</ele>
        <time>2023-05-21T12:31:42Z</time>
      </trkpt>
      <trkpt lat="49.17906" lon="2.09856">
        <ele>153.7</ele>
        <time>2023-05-21T12:31:48Z</time>
      </trkpt>
      <trkpt lat="49.17898" lon="2.09863">
        <ele>153.7</ele>
        <time>2023-05-21T12:31:54Z</time>
      </trkpt>
      <trkpt lat="49.17892" lon="2.09871">
        <ele>153.5</ele>
        <time>2023-05-21T12:32:00Z</time>
      </trkpt>
      <trkpt lat="49.17887" lon="2.09878">
        <ele>153.3</ele>
        <time>2023-05-21T12:32:05Z</time>
      </trkpt>
      <trkpt lat="49.1788" lon="2.09886">
        <ele>153.1</ele>
        <time>2023-05-21T12:32:11Z</time>
      </trkpt>
      <trkpt lat="49.17875" lon="2.09892">
        <ele>152.8</ele>
        <time>2023-05-21T12:32:17Z</time>
      </trkpt>
      <trkpt lat="49.17868" lon="2.09899">
        <ele>152.6</ele>
        <time>2023-05-21T12:32:22Z</time>
      </trkpt>
      <trkpt lat="49.1786" lon="2.09906">
        <ele>152.4</ele>
        <time>2023-05-21T12:32:28Z</time>
      </trkpt>
      <trkpt lat="49.17856" lon="2.09912">
        <ele>152.3</ele>
        <time>2023-05-21T12:32:33Z</time>
      </trkpt>
      <trkpt lat="49.1785" lon="2.09918">
        <ele>152.3</ele>
        <time>2023-05-21T12:32:38Z</time>
      </trkpt>
      <trkpt lat="49.17842" lon="2.09927">
        <ele>152.2</ele>
        <time>2023-05-21T12:32:44Z</time>
      </trkpt>
      <trkpt lat="49.17837" lon="2.09933">
        <ele>152</ele>
        <time>2023-05-21T12:32:50Z</time>
      </trkpt>
      <trkpt lat="49.17831" lon="2.09941">
        <ele>151.9</ele>
        <time>2023-05-21T12:32:55Z</time>
      </trkpt>
      <trkpt lat="49.17824" lon="2.09947">
        <ele>151.8</ele>
        <time>2023-05-21T12:33:01Z</time>
      </trkpt>
      <trkpt lat="49.1782" lon="2.09953">
        <ele>151.8</ele>
        <time>2023-05-21T12:33:06Z</time>
      </trkpt>
      <trkpt lat="49.17812" lon="2.09962">
        <ele>151.5</ele>
        <time>2023-05-21T12:33:12Z</time>
      </trkpt>
      <trkpt lat="49.17804" lon="2.0997">
        <ele>151.4</ele>
        <time>2023-05-21T12:33:18Z</time>
      </trkpt>
      <trkpt lat="49.178" lon="2.09978">
        <ele>151.1</ele>
        <time>2023-05-21T12:33:24Z</time>
      </trkpt>
      <trkpt lat="49.17792" lon="2.09987">
        <ele>151</ele>
        <time>2023-05-21T12:33:30Z</time>
      </trkpt>
      <trkpt lat="49.17785" lon="2.09994">
        <ele>151.1</ele>
        <time>2023-05-21T12:33:35Z</time>
      </trkpt>
      <trkpt lat="49.1778" lon="2.1">
        <ele>151</ele>
        <time>2023-05-21T12:33:41Z</time>
      </trkpt>
      <trkpt lat="49.17774" lon="2.10008">
        <ele>150.8</ele>
        <time>2023-05-21T12:33:47Z</time>
      </trkpt>
      <trkpt lat="49.17768" lon="2.10018">
        <ele>150.6</ele>
        <time>2023-05-21T12:33:52Z</time>
      </trkpt>
      <trkpt lat="49.1776" lon="2.10026">
        <ele>150.3</ele>
        <time>2023-05-21T12:33:58Z</time>
      </trkpt>
      <trkpt lat="49.17754" lon="2.10032">
        <ele>150.2</ele>
        <time>2023-05-21T12:34:04Z</time>
      </trkpt>
      <trkpt lat="49.17747" lon="2.10041">
        <ele>150</ele>
        <time>2023-05-21T12:34:10Z</time>
      </trkpt>
      <trkpt lat="49.1774" lon="2.10048">
        <ele>149.7</ele>
        <time>2023-05-21T12:34:15Z</time>
      </trkpt>
      <trkpt lat="49.17736" lon="2.10052">
        <ele>149.5</ele>
        <time>2023-05-21T12:34:20Z</time>
      </trkpt>
      <trkpt lat="49.1773" lon="2.10061">
        <ele>149.4</ele>
        <time>2023-05-21T12:34:26Z</time>
      </trkpt>
      <trkpt lat="49.17723" lon="2.10069">
        <ele>149.4</ele>
        <time>2023-05-21T12:34:32Z</time>
      </trkpt>
      <trkpt lat="49.17719" lon="2.10075">
        <ele>149.3</ele>
        <time>2023-05-21T12:34:37Z</time>
      </trkpt>
      <trkpt lat="49.17713" lon="2.10083">
        <ele>149.2</ele>
        <time>2023-05-21T12:34:42Z</time>
      </trkpt>
      <trkpt lat="49.17705" lon="2.10091">
        <ele>149</ele>
        <time>2023-05-21T12:34:48Z</time>
      </trkpt>
      <trkpt lat="49.177" lon="2.10097">
        <ele>148.8</ele>
        <time>2023-05-21T12:34:53Z</time>
      </trkpt>
      <trkpt lat="49.17693" lon="2.10105">
        <ele>148.6</ele>
        <time>2023-05-21T12:34:59Z</time>
      </trkpt>
      <trkpt lat="49.17686" lon="2.10112">
        <ele>148.6</ele>
        <time>2023-05-21T12:35:04Z</time>
      </trkpt>
      <trkpt lat="49.1768" lon="2.10119">
        <ele>148.7</ele>
        <time>2023-05-21T12:35:10Z</time>
      </trkpt>
      <trkpt lat="49.17673" lon="2.10127">
        <ele>148.9</ele>
        <time>2023-05-21T12:35:16Z</time>
      </trkpt>
      <trkpt lat="49.17667" lon="2.10137">
        <ele>149</ele>
        <time>2023-05-21T12:35:21Z</time>
      </trkpt>
      <trkpt lat="49.17666" lon="2.10148">
        <ele>149.2</ele>
        <time>2023-05-21T12:35:27Z</time>
      </trkpt>
      <trkpt lat="49.1767" lon="2.10155">
        <ele>149.1</ele>
        <time>2023-05-21T12:35:32Z</time>
      </trkpt>
      <trkpt lat="49.17674" lon="2.10159">
        <ele>149.1</ele>
        <time>2023-05-21T12:35:39Z</time>
      </trkpt>
      <trkpt lat="49.17668" lon="2.10152">
        <ele>149.2</ele>
        <time>2023-05-21T12:35:45Z</time>
      </trkpt>
      <trkpt lat="49.17663" lon="2.10145">
        <ele>149.2</ele>
        <time>2023-05-21T12:35:50Z</time>
      </trkpt>
      <trkpt lat="49.1766" lon="2.10143">
        <ele>149.2</ele>
        <time>2023-05-21T12:35:56Z</time>
      </trkpt>
      <trkpt lat="49.1766" lon="2.10144">
        <ele>149.2</ele>
        <time>2023-05-21T12:36:01Z</time>
      </trkpt>
      <trkpt lat="49.1766" lon="2.10144">
        <ele>149.3</ele>
        <time>2023-05-21T12:36:07Z</time>
      </trkpt>
      <trkpt lat="49.1766" lon="2.10142">
        <ele>149.5</ele>
        <time>2023-05-21T12:36:12Z</time>
      </trkpt>
      <trkpt lat="49.17656" lon="2.10131">
        <ele>149.7</ele>
        <time>2023-05-21T12:36:18Z</time>
      </trkpt>
      <trkpt lat="49.17651" lon="2.10123">
        <ele>149.8</ele>
        <time>2023-05-21T12:36:24Z</time>
      </trkpt>
      <trkpt lat="49.17649" lon="2.1012">
        <ele>149.8</ele>
        <time>2023-05-21T12:36:29Z</time>
      </trkpt>
      <trkpt lat="49.17646" lon="2.10114">
        <ele>149.5</ele>
        <time>2023-05-21T12:36:35Z</time>
      </trkpt>
      <trkpt lat="49.17641" lon="2.10107">
        <ele>149.2</ele>
        <time>2023-05-21T12:36:40Z</time>
      </trkpt>
      <trkpt lat="49.17634" lon="2.10096">
        <ele>149.2</ele>
        <time>2023-05-21T12:36:46Z</time>
      </trkpt>
      <trkpt lat="49.17629" lon="2.1009">
        <ele>149.3</ele>
        <time>2023-05-21T12:36:51Z</time>
      </trkpt>
      <trkpt lat="49.17622" lon="2.10079">
        <ele>149.5</ele>
        <time>2023-05-21T12:36:57Z</time>
      </trkpt>
      <trkpt lat="49.17617" lon="2.10071">
        <ele>149.7</ele>
        <time>2023-05-21T12:37:03Z</time>
      </trkpt>
      <trkpt lat="49.17613" lon="2.1006">
        <ele>149.9</ele>
        <time>2023-05-21T12:37:09Z</time>
      </trkpt>
      <trkpt lat="49.17609" lon="2.10053">
        <ele>150</ele>
        <time>2023-05-21T12:37:14Z</time>
      </trkpt>
      <trkpt lat="49.17602" lon="2.10043">
        <ele>150.2</ele>
        <time>2023-05-21T12:37:20Z</time>
      </trkpt>
      <trkpt lat="49.17597" lon="2.10036">
        <ele>150.2</ele>
        <time>2023-05-21T12:37:26Z</time>
      </trkpt>
      <trkpt lat="49.17593" lon="2.10028">
        <ele>150.2</ele>
        <time>2023-05-21T12:37:31Z</time>
      </trkpt>
      <trkpt lat="49.17588" lon="2.10021">
        <ele>150.1</ele>
        <time>2023-05-21T12:37:36Z</time>
      </trkpt>
      <trkpt lat="49.17583" lon="2.10011">
        <ele>149.9</ele>
        <time>2023-05-21T12:37:42Z</time>
      </trkpt>
      <trkpt lat="49.17581" lon="2.10003">
        <ele>149.6</ele>
        <time>2023-05-21T12:37:47Z</time>
      </trkpt>
      <trkpt lat="49.17576" lon="2.09994">
        <ele>149.2</ele>
        <time>2023-05-21T12:37:53Z</time>
      </trkpt>
      <trkpt lat="49.17571" lon="2.09987">
        <ele>149</ele>
        <time>2023-05-21T12:37:58Z</time>
      </trkpt>
      <trkpt lat="49.17567" lon="2.09979">
        <ele>148.8</ele>
        <time>2023-05-21T12:38:04Z</time>
      </trkpt>
      <trkpt lat="49.17562" lon="2.09968">
        <ele>148.6</ele>
        <time>2023-05-21T12:38:10Z</time>
      </trkpt>
      <trkpt lat="49.17557" lon="2.09962">
        <ele>148.4</ele>
        <time>2023-05-21T12:38:15Z</time>
      </trkpt>
      <trkpt lat="49.17552" lon="2.09956">
        <ele>148.1</ele>
        <time>2023-05-21T12:38:21Z</time>
      </trkpt>
      <trkpt lat="49.17549" lon="2.09951">
        <ele>147.6</ele>
        <time>2023-05-21T12:38:26Z</time>
      </trkpt>
      <trkpt lat="49.17541" lon="2.09942">
        <ele>147</ele>
        <time>2023-05-21T12:38:32Z</time>
      </trkpt>
      <trkpt lat="49.17534" lon="2.09937">
        <ele>146.4</ele>
        <time>2023-05-21T12:38:38Z</time>
      </trkpt>
      <trkpt lat="49.17528" lon="2.09931">
        <ele>146.1</ele>
        <time>2023-05-21T12:38:45Z</time>
      </trkpt>
      <trkpt lat="49.17521" lon="2.09926">
        <ele>146.1</ele>
        <time>2023-05-21T12:38:51Z</time>
      </trkpt>
      <trkpt lat="49.17514" lon="2.09922">
        <ele>146.1</ele>
        <time>2023-05-21T12:38:56Z</time>
      </trkpt>
      <trkpt lat="49.17508" lon="2.09919">
        <ele>146.2</ele>
        <time>2023-05-21T12:39:02Z</time>
      </trkpt>
      <trkpt lat="49.17505" lon="2.09917">
        <ele>146.1</ele>
        <time>2023-05-21T12:39:07Z</time>
      </trkpt>
      <trkpt lat="49.17501" lon="2.09903">
        <ele>145.6</ele>
        <time>2023-05-21T12:39:13Z</time>
      </trkpt>
      <trkpt lat="49.17495" lon="2.09891">
        <ele>145</ele>
        <time>2023-05-21T12:39:19Z</time>
      </trkpt>
      <trkpt lat="49.17491" lon="2.09883">
        <ele>144.3</ele>
        <time>2023-05-21T12:39:24Z</time>
      </trkpt>
      <trkpt lat="49.17487" lon="2.09875">
        <ele>143.6</ele>
        <time>2023-05-21T12:39:30Z</time>
      </trkpt>
      <trkpt lat="49.17486" lon="2.09867">
        <ele>143.2</ele>
        <time>2023-05-21T12:39:35Z</time>
      </trkpt>
      <trkpt lat="49.17484" lon="2.09854">
        <ele>142.6</ele>
        <time>2023-05-21T12:39:41Z</time>
      </trkpt>
      <trkpt lat="49.17481" lon="2.09845">
        <ele>141.6</ele>
        <time>2023-05-21T12:39:47Z</time>
      </trkpt>
      <trkpt lat="49.17475" lon="2.09834">
        <ele>140.8</ele>
        <time>2023-05-21T12:39:53Z</time>
      </trkpt>
      <trkpt lat="49.17473" lon="2.09831">
        <ele>140.4</ele>
        <time>2023-05-21T12:39:58Z</time>
      </trkpt>
      <trkpt lat="49.17464" lon="2.09829">
        <ele>139.9</ele>
        <time>2023-05-21T12:40:04Z</time>
      </trkpt>
      <trkpt lat="49.17455" lon="2.09826">
        <ele>139.4</ele>
        <time>2023-05-21T12:40:09Z</time>
      </trkpt>
      <trkpt lat="49.17448" lon="2.09825">
        <ele>139</ele>
        <time>2023-05-21T12:40:14Z</time>
      </trkpt>
      <trkpt lat="49.17441" lon="2.09824">
        <ele>138.5</ele>
        <time>2023-05-21T12:40:20Z</time>
      </trkpt>
      <trkpt lat="49.17434" lon="2.09822">
        <ele>138.3</ele>
        <time>2023-05-21T12:40:25Z</time>
      </trkpt>
      <trkpt lat="49.17431" lon="2.09819">
        <ele>138.4</ele>
        <time>2023-05-21T12:40:30Z</time>
      </trkpt>
      <trkpt lat="49.17431" lon="2.09811">
        <ele>138.6</ele>
        <time>2023-05-21T12:40:36Z</time>
      </trkpt>
      <trkpt lat="49.17428" lon="2.09802">
        <ele>138.8</ele>
        <time>2023-05-21T12:40:42Z</time>
      </trkpt>
      <trkpt lat="49.17425" lon="2.09798">
        <ele>138.9</ele>
        <time>2023-05-21T12:40:47Z</time>
      </trkpt>
      <trkpt lat="49.1742" lon="2.09793">
        <ele>139</ele>
        <time>2023-05-21T12:40:53Z</time>
      </trkpt>
      <trkpt lat="49.17417" lon="2.09785">
        <ele>139</ele>
        <time>2023-05-21T12:40:58Z</time>
      </trkpt>
      <trkpt lat="49.17415" lon="2.09779">
        <ele>139.1</ele>
        <time>2023-05-21T12:41:04Z</time>
      </trkpt>
      <trkpt lat="49.17413" lon="2.0977">
        <ele>139</ele>
        <time>2023-05-21T12:41:10Z</time>
      </trkpt>
      <trkpt lat="49.1741" lon="2.09765">
        <ele>139</ele>
        <time>2023-05-21T12:41:15Z</time>
      </trkpt>
      <trkpt lat="49.17405" lon="2.0976">
        <ele>139.1</ele>
        <time>2023-05-21T12:41:21Z</time>
      </trkpt>
      <trkpt lat="49.17405" lon="2.09758">
        <ele>139.2</ele>
        <time>2023-05-21T12:41:27Z</time>
      </trkpt>
      <trkpt lat="49.17405" lon="2.09759">
        <ele>139.3</ele>
        <time>2023-05-21T12:41:32Z</time>
      </trkpt>
      <trkpt lat="49.17406" lon="2.09759">
        <ele>139.3</ele>
        <time>2023-05-21T12:41:38Z</time>
      </trkpt>
      <trkpt lat="49.17406" lon="2.0976">
        <ele>139.4</ele>
        <time>2023-05-21T12:41:44Z</time>
      </trkpt>
      <trkpt lat="49.17403" lon="2.0976">
        <ele>139.7</ele>
        <time>2023-05-21T12:41:49Z</time>
      </trkpt>
      <trkpt lat="49.17397" lon="2.09762">
        <ele>139.7</ele>
        <time>2023-05-21T12:41:54Z</time>
      </trkpt>
      <trkpt lat="49.1739" lon="2.09764">
        <ele>139.8</ele>
        <time>2023-05-21T12:41:59Z</time>
      </trkpt>
      <trkpt lat="49.17384" lon="2.09771">
        <ele>140</ele>
        <time>2023-05-21T12:42:05Z</time>
      </trkpt>
      <trkpt lat="49.1738" lon="2.09781">
        <ele>140</ele>
        <time>2023-05-21T12:42:10Z</time>
      </trkpt>
      <trkpt lat="49.17377" lon="2.09791">
        <ele>140.2</ele>
        <time>2023-05-21T12:42:15Z</time>
      </trkpt>
      <trkpt lat="49.17375" lon="2.098">
        <ele>140.5</ele>
        <time>2023-05-21T12:42:20Z</time>
      </trkpt>
      <trkpt lat="49.17374" lon="2.09811">
        <ele>140.7</ele>
        <time>2023-05-21T12:42:25Z</time>
      </trkpt>
      <trkpt lat="49.17374" lon="2.09823">
        <ele>140.8</ele>
        <time>2023-05-21T12:42:31Z</time>
      </trkpt>
      <trkpt lat="49.17375" lon="2.09832">
        <ele>140.8</ele>
        <time>2023-05-21T12:42:36Z</time>
      </trkpt>
      <trkpt lat="49.17375" lon="2.09842">
        <ele>140.8</ele>
        <time>2023-05-21T12:42:42Z</time>
      </trkpt>
      <trkpt lat="49.17374" lon="2.09854">
        <ele>140.9</ele>
        <time>2023-05-21T12:42:48Z</time>
      </trkpt>
      <trkpt lat="49.17371" lon="2.09865">
        <ele>141.1</ele>
        <time>2023-05-21T12:42:53Z</time>
      </trkpt>
      <trkpt lat="49.17366" lon="2.09874">
        <ele>141.6</ele>
        <time>2023-05-21T12:42:58Z</time>
      </trkpt>
      <trkpt lat="49.17364" lon="2.09884">
        <ele>142</ele>
        <time>2023-05-21T12:43:04Z</time>
      </trkpt>
      <trkpt lat="49.17361" lon="2.09894">
        <ele>142.2</ele>
        <time>2023-05-21T12:43:09Z</time>
      </trkpt>
      <trkpt lat="49.17356" lon="2.09905">
        <ele>142.4</ele>
        <time>2023-05-21T12:43:15Z</time>
      </trkpt>
      <trkpt lat="49.17353" lon="2.09917">
        <ele>142.6</ele>
        <time>2023-05-21T12:43:21Z</time>
      </trkpt>
      <trkpt lat="49.17349" lon="2.09928">
        <ele>142.8</ele>
        <time>2023-05-21T12:43:26Z</time>
      </trkpt>
      <trkpt lat="49.17347" lon="2.09936">
        <ele>142.8</ele>
        <time>2023-05-21T12:43:31Z</time>
      </trkpt>
      <trkpt lat="49.17343" lon="2.09948">
        <ele>142.7</ele>
        <time>2023-05-21T12:43:37Z</time>
      </trkpt>
      <trkpt lat="49.17339" lon="2.0996">
        <ele>142.7</ele>
        <time>2023-05-21T12:43:42Z</time>
      </trkpt>
      <trkpt lat="49.17336" lon="2.09969">
        <ele>142.5</ele>
        <time>2023-05-21T12:43:47Z</time>
      </trkpt>
      <trkpt lat="49.17332" lon="2.0998">
        <ele>142.1</ele>
        <time>2023-05-21T12:43:53Z</time>
      </trkpt>
      <trkpt lat="49.17327" lon="2.09992">
        <ele>141.7</ele>
        <time>2023-05-21T12:43:58Z</time>
      </trkpt>
      <trkpt lat="49.17324" lon="2.1">
        <ele>141.5</ele>
        <time>2023-05-21T12:44:03Z</time>
      </trkpt>
      <trkpt lat="49.1732" lon="2.1001">
        <ele>141.5</ele>
        <time>2023-05-21T12:44:09Z</time>
      </trkpt>
      <trkpt lat="49.17315" lon="2.10021">
        <ele>141.5</ele>
        <time>2023-05-21T12:44:14Z</time>
      </trkpt>
      <trkpt lat="49.17312" lon="2.10032">
        <ele>141.7</ele>
        <time>2023-05-21T12:44:20Z</time>
      </trkpt>
      <trkpt lat="49.17309" lon="2.1004">
        <ele>141.8</ele>
        <time>2023-05-21T12:44:25Z</time>
      </trkpt>
      <trkpt lat="49.17305" lon="2.10051">
        <ele>141.8</ele>
        <time>2023-05-21T12:44:30Z</time>
      </trkpt>
      <trkpt lat="49.173" lon="2.10064">
        <ele>141.7</ele>
        <time>2023-05-21T12:44:36Z</time>
      </trkpt>
      <trkpt lat="49.17297" lon="2.10071">
        <ele>141.7</ele>
        <time>2023-05-21T12:44:41Z</time>
      </trkpt>
      <trkpt lat="49.17294" lon="2.10082">
        <ele>141.7</ele>
        <time>2023-05-21T12:44:47Z</time>
      </trkpt>
      <trkpt lat="49.17289" lon="2.10091">
        <ele>142</ele>
        <time>2023-05-21T12:44:52Z</time>
      </trkpt>
      <trkpt lat="49.17284" lon="2.10104">
        <ele>142.3</ele>
        <time>2023-05-21T12:44:58Z</time>
      </trkpt>
      <trkpt lat="49.17277" lon="2.10112">
        <ele>142.6</ele>
        <time>2023-05-21T12:45:03Z</time>
      </trkpt>
      <trkpt lat="49.17271" lon="2.10121">
        <ele>143.1</ele>
        <time>2023-05-21T12:45:09Z</time>
      </trkpt>
      <trkpt lat="49.17267" lon="2.10128">
        <ele>143.5</ele>
        <time>2023-05-21T12:45:14Z</time>
      </trkpt>
      <trkpt lat="49.17259" lon="2.10136">
        <ele>144</ele>
        <time>2023-05-21T12:45:20Z</time>
      </trkpt>
      <trkpt lat="49.17252" lon="2.10142">
        <ele>144.4</ele>
        <time>2023-05-21T12:45:25Z</time>
      </trkpt>
      <trkpt lat="49.17245" lon="2.10149">
        <ele>144.8</ele>
        <time>2023-05-21T12:45:31Z</time>
      </trkpt>
      <trkpt lat="49.17239" lon="2.10154">
        <ele>145.2</ele>
        <time>2023-05-21T12:45:36Z</time>
      </trkpt>
      <trkpt lat="49.17233" lon="2.1016">
        <ele>145.6</ele>
        <time>2023-05-21T12:45:41Z</time>
      </trkpt>
      <trkpt lat="49.17227" lon="2.10167">
        <ele>146</ele>
        <time>2023-05-21T12:45:47Z</time>
      </trkpt>
      <trkpt lat="49.17222" lon="2.10176">
        <ele>146.3</ele>
        <time>2023-05-21T12:45:52Z</time>
      </trkpt>
      <trkpt lat="49.17217" lon="2.10187">
        <ele>146.5</ele>
        <time>2023-05-21T12:45:58Z</time>
      </trkpt>
      <trkpt lat="49.17212" lon="2.10195">
        <ele>146.6</ele>
        <time>2023-05-21T12:46:04Z</time>
      </trkpt>
      <trkpt lat="49.17206" lon="2.10202">
        <ele>146.5</ele>
        <time>2023-05-21T12:46:09Z</time>
      </trkpt>
      <trkpt lat="49.17199" lon="2.10214">
        <ele>146</ele>
        <time>2023-05-21T12:46:15Z</time>
      </trkpt>
      <trkpt lat="49.17195" lon="2.10222">
        <ele>145.5</ele>
        <time>2023-05-21T12:46:20Z</time>
      </trkpt>
      <trkpt lat="49.17188" lon="2.10231">
        <ele>145</ele>
        <time>2023-05-21T12:46:26Z</time>
      </trkpt>
      <trkpt lat="49.17182" lon="2.10239">
        <ele>144.6</ele>
        <time>2023-05-21T12:46:31Z</time>
      </trkpt>
      <trkpt lat="49.17176" lon="2.10245">
        <ele>144</ele>
        <time>2023-05-21T12:46:37Z</time>
      </trkpt>
      <trkpt lat="49.1717" lon="2.1025">
        <ele>143.5</ele>
        <time>2023-05-21T12:46:43Z</time>
      </trkpt>
      <trkpt lat="49.17164" lon="2.10257">
        <ele>143.2</ele>
        <time>2023-05-21T12:46:48Z</time>
      </trkpt>
      <trkpt lat="49.17156" lon="2.10267">
        <ele>142.8</ele>
        <time>2023-05-21T12:46:54Z</time>
      </trkpt>
      <trkpt lat="49.1715" lon="2.10276">
        <ele>142.4</ele>
        <time>2023-05-21T12:47:00Z</time>
      </trkpt>
      <trkpt lat="49.17143" lon="2.10285">
        <ele>142.1</ele>
        <time>2023-05-21T12:47:06Z</time>
      </trkpt>
      <trkpt lat="49.17137" lon="2.10297">
        <ele>142</ele>
        <time>2023-05-21T12:47:12Z</time>
      </trkpt>
      <trkpt lat="49.17132" lon="2.10308">
        <ele>141.8</ele>
        <time>2023-05-21T12:47:18Z</time>
      </trkpt>
      <trkpt lat="49.17129" lon="2.10316">
        <ele>141.6</ele>
        <time>2023-05-21T12:47:24Z</time>
      </trkpt>
      <trkpt lat="49.17125" lon="2.10322">
        <ele>141.3</ele>
        <time>2023-05-21T12:47:29Z</time>
      </trkpt>
      <trkpt lat="49.17122" lon="2.10328">
        <ele>141</ele>
        <time>2023-05-21T12:47:34Z</time>
      </trkpt>
      <trkpt lat="49.17118" lon="2.10337">
        <ele>140.6</ele>
        <time>2023-05-21T12:47:40Z</time>
      </trkpt>
      <trkpt lat="49.17113" lon="2.10345">
        <ele>140</ele>
        <time>2023-05-21T12:47:45Z</time>
      </trkpt>
      <trkpt lat="49.17108" lon="2.10353">
        <ele>139.5</ele>
        <time>2023-05-21T12:47:50Z</time>
      </trkpt>
      <trkpt lat="49.171" lon="2.10363">
        <ele>138.8</ele>
        <time>2023-05-21T12:47:56Z</time>
      </trkpt>
      <trkpt lat="49.17095" lon="2.10373">
        <ele>138.4</ele>
        <time>2023-05-21T12:48:02Z</time>
      </trkpt>
      <trkpt lat="49.1709" lon="2.1038">
        <ele>138.3</ele>
        <time>2023-05-21T12:48:07Z</time>
      </trkpt>
      <trkpt lat="49.17081" lon="2.10388">
        <ele>138.2</ele>
        <time>2023-05-21T12:48:13Z</time>
      </trkpt>
      <trkpt lat="49.17076" lon="2.10396">
        <ele>138.1</ele>
        <time>2023-05-21T12:48:18Z</time>
      </trkpt>
      <trkpt lat="49.17071" lon="2.10401">
        <ele>138.1</ele>
        <time>2023-05-21T12:48:23Z</time>
      </trkpt>
      <trkpt lat="49.17062" lon="2.10412">
        <ele>138.1</ele>
        <time>2023-05-21T12:48:29Z</time>
      </trkpt>
      <trkpt lat="49.17056" lon="2.10421">
        <ele>138.2</ele>
        <time>2023-05-21T12:48:34Z</time>
      </trkpt>
      <trkpt lat="49.1705" lon="2.10431">
        <ele>138.1</ele>
        <time>2023-05-21T12:48:40Z</time>
      </trkpt>
      <trkpt lat="49.17046" lon="2.10435">
        <ele>138</ele>
        <time>2023-05-21T12:48:45Z</time>
      </trkpt>
      <trkpt lat="49.1704" lon="2.10442">
        <ele>138</ele>
        <time>2023-05-21T12:48:51Z</time>
      </trkpt>
      <trkpt lat="49.17033" lon="2.10453">
        <ele>138.2</ele>
        <time>2023-05-21T12:48:57Z</time>
      </trkpt>
      <trkpt lat="49.17027" lon="2.10467">
        <ele>138.4</ele>
        <time>2023-05-21T12:49:03Z</time>
      </trkpt>
      <trkpt lat="49.17021" lon="2.10473">
        <ele>138.7</ele>
        <time>2023-05-21T12:49:08Z</time>
      </trkpt>
      <trkpt lat="49.17018" lon="2.10481">
        <ele>139.1</ele>
        <time>2023-05-21T12:49:14Z</time>
      </trkpt>
      <trkpt lat="49.17012" lon="2.10488">
        <ele>139.6</ele>
        <time>2023-05-21T12:49:20Z</time>
      </trkpt>
      <trkpt lat="49.17008" lon="2.10497">
        <ele>139.8</ele>
        <time>2023-05-21T12:49:26Z</time>
      </trkpt>
      <trkpt lat="49.17005" lon="2.10501">
        <ele>140.1</ele>
        <time>2023-05-21T12:49:32Z</time>
      </trkpt>
      <trkpt lat="49.17001" lon="2.1051">
        <ele>139.9</ele>
        <time>2023-05-21T12:49:38Z</time>
      </trkpt>
      <trkpt lat="49.16998" lon="2.10518">
        <ele>139.5</ele>
        <time>2023-05-21T12:49:44Z</time>
      </trkpt>
      <trkpt lat="49.16994" lon="2.10526">
        <ele>139.5</ele>
        <time>2023-05-21T12:49:49Z</time>
      </trkpt>
      <trkpt lat="49.1699" lon="2.10535">
        <ele>139.8</ele>
        <time>2023-05-21T12:49:55Z</time>
      </trkpt>
      <trkpt lat="49.16987" lon="2.10546">
        <ele>140</ele>
        <time>2023-05-21T12:50:01Z</time>
      </trkpt>
      <trkpt lat="49.16982" lon="2.10554">
        <ele>140</ele>
        <time>2023-05-21T12:50:06Z</time>
      </trkpt>
      <trkpt lat="49.16977" lon="2.10562">
        <ele>139.8</ele>
        <time>2023-05-21T12:50:11Z</time>
      </trkpt>
      <trkpt lat="49.16971" lon="2.10573">
        <ele>139.7</ele>
        <time>2023-05-21T12:50:17Z</time>
      </trkpt>
      <trkpt lat="49.16966" lon="2.10582">
        <ele>139.6</ele>
        <time>2023-05-21T12:50:23Z</time>
      </trkpt>
      <trkpt lat="49.16961" lon="2.10589">
        <ele>139.6</ele>
        <time>2023-05-21T12:50:28Z</time>
      </trkpt>
      <trkpt lat="49.16956" lon="2.10597">
        <ele>139.6</ele>
        <time>2023-05-21T12:50:33Z</time>
      </trkpt>
      <trkpt lat="49.1695" lon="2.10608">
        <ele>139.7</ele>
        <time>2023-05-21T12:50:39Z</time>
      </trkpt>
      <trkpt lat="49.16944" lon="2.10616">
        <ele>139.7</ele>
        <time>2023-05-21T12:50:44Z</time>
      </trkpt>
      <trkpt lat="49.16939" lon="2.10625">
        <ele>139.6</ele>
        <time>2023-05-21T12:50:50Z</time>
      </trkpt>
      <trkpt lat="49.16935" lon="2.10634">
        <ele>139.5</ele>
        <time>2023-05-21T12:50:56Z</time>
      </trkpt>
      <trkpt lat="49.1693" lon="2.10642">
        <ele>139.3</ele>
        <time>2023-05-21T12:51:01Z</time>
      </trkpt>
      <trkpt lat="49.16927" lon="2.1065">
        <ele>139</ele>
        <time>2023-05-21T12:51:07Z</time>
      </trkpt>
      <trkpt lat="49.16924" lon="2.10655">
        <ele>139</ele>
        <time>2023-05-21T12:51:12Z</time>
      </trkpt>
      <trkpt lat="49.16918" lon="2.10662">
        <ele>139</ele>
        <time>2023-05-21T12:51:18Z</time>
      </trkpt>
      <trkpt lat="49.16911" lon="2.10672">
        <ele>139.1</ele>
        <time>2023-05-21T12:51:24Z</time>
      </trkpt>
      <trkpt lat="49.16905" lon="2.10677">
        <ele>139.3</ele>
        <time>2023-05-21T12:51:29Z</time>
      </trkpt>
      <trkpt lat="49.16899" lon="2.10684">
        <ele>139.5</ele>
        <time>2023-05-21T12:51:35Z</time>
      </trkpt>
      <trkpt lat="49.16892" lon="2.10694">
        <ele>139.5</ele>
        <time>2023-05-21T12:51:40Z</time>
      </trkpt>
      <trkpt lat="49.16886" lon="2.10707">
        <ele>139.4</ele>
        <time>2023-05-21T12:51:46Z</time>
      </trkpt>
      <trkpt lat="49.16879" lon="2.10717">
        <ele>139.3</ele>
        <time>2023-05-21T12:51:52Z</time>
      </trkpt>
      <trkpt lat="49.16874" lon="2.1072">
        <ele>139.3</ele>
        <time>2023-05-21T12:51:57Z</time>
      </trkpt>
      <trkpt lat="49.16863" lon="2.10723">
        <ele>138.9</ele>
        <time>2023-05-21T12:52:03Z</time>
      </trkpt>
      <trkpt lat="49.16854" lon="2.10727">
        <ele>138.5</ele>
        <time>2023-05-21T12:52:09Z</time>
      </trkpt>
      <trkpt lat="49.16848" lon="2.10729">
        <ele>138.5</ele>
        <time>2023-05-21T12:52:14Z</time>
      </trkpt>
      <trkpt lat="49.16839" lon="2.10733">
        <ele>138.5</ele>
        <time>2023-05-21T12:52:20Z</time>
      </trkpt>
      <trkpt lat="49.16833" lon="2.10736">
        <ele>138.6</ele>
        <time>2023-05-21T12:52:25Z</time>
      </trkpt>
      <trkpt lat="49.16824" lon="2.10739">
        <ele>138.8</ele>
        <time>2023-05-21T12:52:31Z</time>
      </trkpt>
      <trkpt lat="49.16815" lon="2.10743">
        <ele>138.9</ele>
        <time>2023-05-21T12:52:36Z</time>
      </trkpt>
      <trkpt lat="49.16808" lon="2.10748">
        <ele>139.1</ele>
        <time>2023-05-21T12:52:42Z</time>
      </trkpt>
      <trkpt lat="49.16801" lon="2.10751">
        <ele>139.2</ele>
        <time>2023-05-21T12:52:48Z</time>
      </trkpt>
      <trkpt lat="49.16794" lon="2.10748">
        <ele>139.1</ele>
        <time>2023-05-21T12:52:54Z</time>
      </trkpt>
      <trkpt lat="49.16784" lon="2.10748">
        <ele>138.8</ele>
        <time>2023-05-21T12:53:00Z</time>
      </trkpt>
      <trkpt lat="49.16778" lon="2.1075">
        <ele>138.4</ele>
        <time>2023-05-21T12:53:06Z</time>
      </trkpt>
      <trkpt lat="49.16771" lon="2.10751">
        <ele>138.2</ele>
        <time>2023-05-21T12:53:11Z</time>
      </trkpt>
      <trkpt lat="49.1676" lon="2.10752">
        <ele>138</ele>
        <time>2023-05-21T12:53:17Z</time>
      </trkpt>
      <trkpt lat="49.16753" lon="2.10754">
        <ele>137.8</ele>
        <time>2023-05-21T12:53:22Z</time>
      </trkpt>
      <trkpt lat="49.16745" lon="2.10755">
        <ele>137.5</ele>
        <time>2023-05-21T12:53:28Z</time>
      </trkpt>
      <trkpt lat="49.16739" lon="2.10755">
        <ele>137.3</ele>
        <time>2023-05-21T12:53:33Z</time>
      </trkpt>
      <trkpt lat="49.16731" lon="2.10758">
        <ele>137.3</ele>
        <time>2023-05-21T12:53:39Z</time>
      </trkpt>
      <trkpt lat="49.16721" lon="2.10761">
        <ele>137.1</ele>
        <time>2023-05-21T12:53:45Z</time>
      </trkpt>
      <trkpt lat="49.16712" lon="2.10764">
        <ele>136.8</ele>
        <time>2023-05-21T12:53:50Z</time>
      </trkpt>
      <trkpt lat="49.16703" lon="2.10767">
        <ele>136.4</ele>
        <time>2023-05-21T12:53:56Z</time>
      </trkpt>
      <trkpt lat="49.16697" lon="2.10771">
        <ele>136.2</ele>
        <time>2023-05-21T12:54:01Z</time>
      </trkpt>
      <trkpt lat="49.16689" lon="2.10774">
        <ele>136.3</ele>
        <time>2023-05-21T12:54:07Z</time>
      </trkpt>
      <trkpt lat="49.1668" lon="2.10777">
        <ele>136.5</ele>
        <time>2023-05-21T12:54:13Z</time>
      </trkpt>
      <trkpt lat="49.16671" lon="2.10782">
        <ele>136.7</ele>
        <time>2023-05-21T12:54:18Z</time>
      </trkpt>
      <trkpt lat="49.16661" lon="2.10788">
        <ele>136.7</ele>
        <time>2023-05-21T12:54:24Z</time>
      </trkpt>
      <trkpt lat="49.16654" lon="2.1079">
        <ele>136.7</ele>
        <time>2023-05-21T12:54:29Z</time>
      </trkpt>
      <trkpt lat="49.16646" lon="2.10794">
        <ele>136.8</ele>
        <time>2023-05-21T12:54:35Z</time>
      </trkpt>
      <trkpt lat="49.16639" lon="2.10796">
        <ele>136.8</ele>
        <time>2023-05-21T12:54:41Z</time>
      </trkpt>
      <trkpt lat="49.16633" lon="2.10798">
        <ele>137</ele>
        <time>2023-05-21T12:54:46Z</time>
      </trkpt>
      <trkpt lat="49.16624" lon="2.10803">
        <ele>137.3</ele>
        <time>2023-05-21T12:54:52Z</time>
      </trkpt>
      <trkpt lat="49.16614" lon="2.1081">
        <ele>137.5</ele>
        <time>2023-05-21T12:54:58Z</time>
      </trkpt>
      <trkpt lat="49.16604" lon="2.10814">
        <ele>137.5</ele>
        <time>2023-05-21T12:55:04Z</time>
      </trkpt>
      <trkpt lat="49.16595" lon="2.10817">
        <ele>137.5</ele>
        <time>2023-05-21T12:55:09Z</time>
      </trkpt>
      <trkpt lat="49.16587" lon="2.10819">
        <ele>137.6</ele>
        <time>2023-05-21T12:55:14Z</time>
      </trkpt>
      <trkpt lat="49.1658" lon="2.10822">
        <ele>137.7</ele>
        <time>2023-05-21T12:55:20Z</time>
      </trkpt>
      <trkpt lat="49.16573" lon="2.10824">
        <ele>138</ele>
        <time>2023-05-21T12:55:26Z</time>
      </trkpt>
      <trkpt lat="49.16566" lon="2.10828">
        <ele>138.2</ele>
        <time>2023-05-21T12:55:31Z</time>
      </trkpt>
      <trkpt lat="49.16556" lon="2.10832">
        <ele>138.5</ele>
        <time>2023-05-21T12:55:37Z</time>
      </trkpt>
      <trkpt lat="49.16548" lon="2.10832">
        <ele>138.9</ele>
        <time>2023-05-21T12:55:42Z</time>
      </trkpt>
      <trkpt lat="49.16543" lon="2.10833">
        <ele>139.3</ele>
        <time>2023-05-21T12:55:47Z</time>
      </trkpt>
      <trkpt lat="49.16533" lon="2.10835">
        <ele>139.8</ele>
        <time>2023-05-21T12:55:53Z</time>
      </trkpt>
      <trkpt lat="49.16526" lon="2.10837">
        <ele>140.4</ele>
        <time>2023-05-21T12:55:58Z</time>
      </trkpt>
      <trkpt lat="49.16519" lon="2.1084">
        <ele>141</ele>
        <time>2023-05-21T12:56:04Z</time>
      </trkpt>
      <trkpt lat="49.1651" lon="2.10842">
        <ele>141.4</ele>
        <time>2023-05-21T12:56:10Z</time>
      </trkpt>
      <trkpt lat="49.16501" lon="2.10844">
        <ele>141.7</ele>
        <time>2023-05-21T12:56:15Z</time>
      </trkpt>
      <trkpt lat="49.16491" lon="2.10846">
        <ele>141.8</ele>
        <time>2023-05-21T12:56:21Z</time>
      </trkpt>
      <trkpt lat="49.16484" lon="2.10845">
        <ele>141.9</ele>
        <time>2023-05-21T12:56:26Z</time>
      </trkpt>
      <trkpt lat="49.16479" lon="2.10847">
        <ele>142.1</ele>
        <time>2023-05-21T12:56:34Z</time>
      </trkpt>
      <trkpt lat="49.1648" lon="2.10845">
        <ele>142.3</ele>
        <time>2023-05-21T12:56:39Z</time>
      </trkpt>
      <trkpt lat="49.16481" lon="2.10845">
        <ele>142.6</ele>
        <time>2023-05-21T12:56:45Z</time>
      </trkpt>
      <trkpt lat="49.16481" lon="2.10845">
        <ele>142.8</ele>
        <time>2023-05-21T12:56:51Z</time>
      </trkpt>
      <trkpt lat="49.16481" lon="2.10845">
        <ele>143.4</ele>
        <time>2023-05-21T12:56:57Z</time>
      </trkpt>
      <trkpt lat="49.16481" lon="2.10847">
        <ele>143.8</ele>
        <time>2023-05-21T12:57:02Z</time>
      </trkpt>
      <trkpt lat="49.16481" lon="2.10847">
        <ele>143.8</ele>
        <time>2023-05-21T12:57:07Z</time>
      </trkpt>
      <trkpt lat="49.16481" lon="2.10847">
        <ele>143.9</ele>
        <time>2023-05-21T12:57:12Z</time>
      </trkpt>
      <trkpt lat="49.16481" lon="2.10847">
        <ele>143.9</ele>
        <time>2023-05-21T12:57:18Z</time>
      </trkpt>
      <trkpt lat="49.16481" lon="2.10847">
        <ele>144.1</ele>
        <time>2023-05-21T12:57:24Z</time>
      </trkpt>
      <trkpt lat="49.1648" lon="2.10847">
        <ele>144.3</ele>
        <time>2023-05-21T12:57:30Z</time>
      </trkpt>
      <trkpt lat="49.1648" lon="2.10847">
        <ele>144.4</ele>
        <time>2023-05-21T12:57:35Z</time>
      </trkpt>
      <trkpt lat="49.1648" lon="2.10847">
        <ele>144.5</ele>
        <time>2023-05-21T12:57:41Z</time>
      </trkpt>
      <trkpt lat="49.1648" lon="2.10847">
        <ele>144.5</ele>
        <time>2023-05-21T12:57:46Z</time>
      </trkpt>
      <trkpt lat="49.1648" lon="2.10847">
        <ele>144.5</ele>
        <time>2023-05-21T12:57:51Z</time>
      </trkpt>
      <trkpt lat="49.1648" lon="2.10847">
        <ele>144.5</ele>
        <time>2023-05-21T12:57:57Z</time>
      </trkpt>
      <trkpt lat="49.16479" lon="2.10847">
        <ele>144.4</ele>
        <time>2023-05-21T12:58:03Z</time>
      </trkpt>
      <trkpt lat="49.16473" lon="2.10852">
        <ele>144</ele>
        <time>2023-05-21T12:58:09Z</time>
      </trkpt>
      <trkpt lat="49.16467" lon="2.10855">
        <ele>143.7</ele>
        <time>2023-05-21T12:58:14Z</time>
      </trkpt>
      <trkpt lat="49.16459" lon="2.10854">
        <ele>143.5</ele>
        <time>2023-05-21T12:58:20Z</time>
      </trkpt>
      <trkpt lat="49.16452" lon="2.10857">
        <ele>143.5</ele>
        <time>2023-05-21T12:58:26Z</time>
      </trkpt>
      <trkpt lat="49.16443" lon="2.1086">
        <ele>143.7</ele>
        <time>2023-05-21T12:58:31Z</time>
      </trkpt>
      <trkpt lat="49.16434" lon="2.1086">
        <ele>144.4</ele>
        <time>2023-05-21T12:58:37Z</time>
      </trkpt>
      <trkpt lat="49.16428" lon="2.10862">
        <ele>145</ele>
        <time>2023-05-21T12:58:42Z</time>
      </trkpt>
      <trkpt lat="49.16421" lon="2.10867">
        <ele>145.3</ele>
        <time>2023-05-21T12:58:48Z</time>
      </trkpt>
      <trkpt lat="49.16413" lon="2.1087">
        <ele>144.9</ele>
        <time>2023-05-21T12:58:54Z</time>
      </trkpt>
      <trkpt lat="49.16408" lon="2.10875">
        <ele>144.5</ele>
        <time>2023-05-21T12:59:00Z</time>
      </trkpt>
      <trkpt lat="49.16396" lon="2.10878">
        <ele>144.6</ele>
        <time>2023-05-21T12:59:06Z</time>
      </trkpt>
      <trkpt lat="49.16388" lon="2.10881">
        <ele>144.6</ele>
        <time>2023-05-21T12:59:12Z</time>
      </trkpt>
      <trkpt lat="49.1638" lon="2.10881">
        <ele>144.7</ele>
        <time>2023-05-21T12:59:18Z</time>
      </trkpt>
      <trkpt lat="49.16371" lon="2.10883">
        <ele>144.6</ele>
        <time>2023-05-21T12:59:24Z</time>
      </trkpt>
      <trkpt lat="49.16363" lon="2.10884">
        <ele>144.5</ele>
        <time>2023-05-21T12:59:30Z</time>
      </trkpt>
      <trkpt lat="49.16356" lon="2.10885">
        <ele>144.3</ele>
        <time>2023-05-21T12:59:36Z</time>
      </trkpt>
      <trkpt lat="49.16348" lon="2.10886">
        <ele>144.1</ele>
        <time>2023-05-21T12:59:41Z</time>
      </trkpt>
      <trkpt lat="49.16341" lon="2.10887">
        <ele>144</ele>
        <time>2023-05-21T12:59:46Z</time>
      </trkpt>
      <trkpt lat="49.16331" lon="2.1089">
        <ele>143.7</ele>
        <time>2023-05-21T12:59:52Z</time>
      </trkpt>
      <trkpt lat="49.1632" lon="2.10891">
        <ele>143.4</ele>
        <time>2023-05-21T12:59:58Z</time>
      </trkpt>
      <trkpt lat="49.16311" lon="2.10894">
        <ele>143.1</ele>
        <time>2023-05-21T13:00:04Z</time>
      </trkpt>
      <trkpt lat="49.16304" lon="2.10895">
        <ele>142.8</ele>
        <time>2023-05-21T13:00:10Z</time>
      </trkpt>
      <trkpt lat="49.16296" lon="2.10896">
        <ele>142.3</ele>
        <time>2023-05-21T13:00:16Z</time>
      </trkpt>
      <trkpt lat="49.16288" lon="2.10898">
        <ele>141.8</ele>
        <time>2023-05-21T13:00:22Z</time>
      </trkpt>
      <trkpt lat="49.16279" lon="2.10898">
        <ele>141.4</ele>
        <time>2023-05-21T13:00:28Z</time>
      </trkpt>
      <trkpt lat="49.16271" lon="2.10898">
        <ele>141.1</ele>
        <time>2023-05-21T13:00:33Z</time>
      </trkpt>
      <trkpt lat="49.16261" lon="2.109">
        <ele>140.8</ele>
        <time>2023-05-21T13:00:39Z</time>
      </trkpt>
      <trkpt lat="49.16253" lon="2.10901">
        <ele>140.7</ele>
        <time>2023-05-21T13:00:44Z</time>
      </trkpt>
      <trkpt lat="49.16246" lon="2.10901">
        <ele>140.6</ele>
        <time>2023-05-21T13:00:50Z</time>
      </trkpt>
      <trkpt lat="49.1624" lon="2.10902">
        <ele>140.7</ele>
        <time>2023-05-21T13:00:55Z</time>
      </trkpt>
      <trkpt lat="49.16233" lon="2.10904">
        <ele>140.7</ele>
        <time>2023-05-21T13:01:00Z</time>
      </trkpt>
      <trkpt lat="49.16224" lon="2.10905">
        <ele>140.3</ele>
        <time>2023-05-21T13:01:06Z</time>
      </trkpt>
      <trkpt lat="49.16216" lon="2.10902">
        <ele>139.8</ele>
        <time>2023-05-21T13:01:12Z</time>
      </trkpt>
      <trkpt lat="49.16211" lon="2.10902">
        <ele>139.4</ele>
        <time>2023-05-21T13:01:17Z</time>
      </trkpt>
      <trkpt lat="49.16203" lon="2.10904">
        <ele>139</ele>
        <time>2023-05-21T13:01:22Z</time>
      </trkpt>
      <trkpt lat="49.16196" lon="2.1091">
        <ele>138.4</ele>
        <time>2023-05-21T13:01:28Z</time>
      </trkpt>
      <trkpt lat="49.16191" lon="2.10914">
        <ele>137.6</ele>
        <time>2023-05-21T13:01:34Z</time>
      </trkpt>
      <trkpt lat="49.16183" lon="2.10917">
        <ele>137</ele>
        <time>2023-05-21T13:01:39Z</time>
      </trkpt>
      <trkpt lat="49.16176" lon="2.10919">
        <ele>136.5</ele>
        <time>2023-05-21T13:01:44Z</time>
      </trkpt>
      <trkpt lat="49.16167" lon="2.1092">
        <ele>136.1</ele>
        <time>2023-05-21T13:01:49Z</time>
      </trkpt>
      <trkpt lat="49.1616" lon="2.10922">
        <ele>135.9</ele>
        <time>2023-05-21T13:01:54Z</time>
      </trkpt>
      <trkpt lat="49.16154" lon="2.10925">
        <ele>135.8</ele>
        <time>2023-05-21T13:02:00Z</time>
      </trkpt>
      <trkpt lat="49.16146" lon="2.10928">
        <ele>135.7</ele>
        <time>2023-05-21T13:02:05Z</time>
      </trkpt>
      <trkpt lat="49.16137" lon="2.1093">
        <ele>135.3</ele>
        <time>2023-05-21T13:02:11Z</time>
      </trkpt>
      <trkpt lat="49.1613" lon="2.10933">
        <ele>134.9</ele>
        <time>2023-05-21T13:02:16Z</time>
      </trkpt>
      <trkpt lat="49.1612" lon="2.10931">
        <ele>134.5</ele>
        <time>2023-05-21T13:02:22Z</time>
      </trkpt>
      <trkpt lat="49.16114" lon="2.10932">
        <ele>134.1</ele>
        <time>2023-05-21T13:02:28Z</time>
      </trkpt>
      <trkpt lat="49.16109" lon="2.10934">
        <ele>133.7</ele>
        <time>2023-05-21T13:02:33Z</time>
      </trkpt>
      <trkpt lat="49.16101" lon="2.10933">
        <ele>133.4</ele>
        <time>2023-05-21T13:02:38Z</time>
      </trkpt>
      <trkpt lat="49.16092" lon="2.10934">
        <ele>133.2</ele>
        <time>2023-05-21T13:02:44Z</time>
      </trkpt>
      <trkpt lat="49.16082" lon="2.10931">
        <ele>133</ele>
        <time>2023-05-21T13:02:49Z</time>
      </trkpt>
      <trkpt lat="49.16071" lon="2.10928">
        <ele>132.9</ele>
        <time>2023-05-21T13:02:55Z</time>
      </trkpt>
      <trkpt lat="49.16064" lon="2.10928">
        <ele>132.7</ele>
        <time>2023-05-21T13:03:00Z</time>
      </trkpt>
      <trkpt lat="49.16058" lon="2.10928">
        <ele>132.4</ele>
        <time>2023-05-21T13:03:06Z</time>
      </trkpt>
      <trkpt lat="49.16053" lon="2.10928">
        <ele>132.1</ele>
        <time>2023-05-21T13:03:11Z</time>
      </trkpt>
      <trkpt lat="49.16044" lon="2.10928">
        <ele>132</ele>
        <time>2023-05-21T13:03:17Z</time>
      </trkpt>
      <trkpt lat="49.16033" lon="2.10928">
        <ele>132</ele>
        <time>2023-05-21T13:03:23Z</time>
      </trkpt>
      <trkpt lat="49.16025" lon="2.10928">
        <ele>132.1</ele>
        <time>2023-05-21T13:03:28Z</time>
      </trkpt>
      <trkpt lat="49.16018" lon="2.10928">
        <ele>132.4</ele>
        <time>2023-05-21T13:03:34Z</time>
      </trkpt>
      <trkpt lat="49.16009" lon="2.10928">
        <ele>133</ele>
        <time>2023-05-21T13:03:40Z</time>
      </trkpt>
      <trkpt lat="49.16002" lon="2.1093">
        <ele>133.4</ele>
        <time>2023-05-21T13:03:45Z</time>
      </trkpt>
      <trkpt lat="49.15994" lon="2.10933">
        <ele>133.7</ele>
        <time>2023-05-21T13:03:51Z</time>
      </trkpt>
      <trkpt lat="49.15986" lon="2.10932">
        <ele>133.8</ele>
        <time>2023-05-21T13:03:56Z</time>
      </trkpt>
      <trkpt lat="49.15978" lon="2.10929">
        <ele>133.8</ele>
        <time>2023-05-21T13:04:01Z</time>
      </trkpt>
      <trkpt lat="49.15971" lon="2.10928">
        <ele>133.6</ele>
        <time>2023-05-21T13:04:07Z</time>
      </trkpt>
      <trkpt lat="49.15964" lon="2.10926">
        <ele>133.4</ele>
        <time>2023-05-21T13:04:12Z</time>
      </trkpt>
      <trkpt lat="49.1596" lon="2.10921">
        <ele>133.1</ele>
        <time>2023-05-21T13:04:17Z</time>
      </trkpt>
      <trkpt lat="49.15952" lon="2.10918">
        <ele>132.7</ele>
        <time>2023-05-21T13:04:23Z</time>
      </trkpt>
      <trkpt lat="49.15944" lon="2.10914">
        <ele>132.4</ele>
        <time>2023-05-21T13:04:29Z</time>
      </trkpt>
      <trkpt lat="49.15936" lon="2.1091">
        <ele>132.1</ele>
        <time>2023-05-21T13:04:34Z</time>
      </trkpt>
      <trkpt lat="49.15929" lon="2.10901">
        <ele>131.7</ele>
        <time>2023-05-21T13:04:40Z</time>
      </trkpt>
      <trkpt lat="49.15924" lon="2.10891">
        <ele>131.4</ele>
        <time>2023-05-21T13:04:46Z</time>
      </trkpt>
      <trkpt lat="49.15922" lon="2.10885">
        <ele>130.8</ele>
        <time>2023-05-21T13:04:51Z</time>
      </trkpt>
      <trkpt lat="49.15917" lon="2.10876">
        <ele>130</ele>
        <time>2023-05-21T13:04:56Z</time>
      </trkpt>
      <trkpt lat="49.15915" lon="2.10864">
        <ele>129.2</ele>
        <time>2023-05-21T13:05:02Z</time>
      </trkpt>
      <trkpt lat="49.15911" lon="2.10856">
        <ele>128.7</ele>
        <time>2023-05-21T13:05:07Z</time>
      </trkpt>
      <trkpt lat="49.15908" lon="2.1085">
        <ele>128.3</ele>
        <time>2023-05-21T13:05:13Z</time>
      </trkpt>
      <trkpt lat="49.15903" lon="2.10844">
        <ele>127.9</ele>
        <time>2023-05-21T13:05:19Z</time>
      </trkpt>
      <trkpt lat="49.15899" lon="2.10842">
        <ele>127.3</ele>
        <time>2023-05-21T13:05:25Z</time>
      </trkpt>
      <trkpt lat="49.15898" lon="2.10841">
        <ele>126.4</ele>
        <time>2023-05-21T13:05:31Z</time>
      </trkpt>
      <trkpt lat="49.15899" lon="2.10839">
        <ele>126</ele>
        <time>2023-05-21T13:05:37Z</time>
      </trkpt>
      <trkpt lat="49.15899" lon="2.10839">
        <ele>125.8</ele>
        <time>2023-05-21T13:05:43Z</time>
      </trkpt>
      <trkpt lat="49.15899" lon="2.10839">
        <ele>125.7</ele>
        <time>2023-05-21T13:05:49Z</time>
      </trkpt>
      <trkpt lat="49.15899" lon="2.10839">
        <ele>125.5</ele>
        <time>2023-05-21T13:05:55Z</time>
      </trkpt>
      <trkpt lat="49.15898" lon="2.10839">
        <ele>125.5</ele>
        <time>2023-05-21T13:06:01Z</time>
      </trkpt>
      <trkpt lat="49.15898" lon="2.10839">
        <ele>125.5</ele>
        <time>2023-05-21T13:06:07Z</time>
      </trkpt>
      <trkpt lat="49.15898" lon="2.10839">
        <ele>125.4</ele>
        <time>2023-05-21T13:06:13Z</time>
      </trkpt>
      <trkpt lat="49.15898" lon="2.10838">
        <ele>125.1</ele>
        <time>2023-05-21T13:06:18Z</time>
      </trkpt>
      <trkpt lat="49.15898" lon="2.10839">
        <ele>125.1</ele>
        <time>2023-05-21T13:06:23Z</time>
      </trkpt>
      <trkpt lat="49.15898" lon="2.10839">
        <ele>124.9</ele>
        <time>2023-05-21T13:06:29Z</time>
      </trkpt>
      <trkpt lat="49.15898" lon="2.1084">
        <ele>124.8</ele>
        <time>2023-05-21T13:06:35Z</time>
      </trkpt>
      <trkpt lat="49.15899" lon="2.1084">
        <ele>124.4</ele>
        <time>2023-05-21T13:06:40Z</time>
      </trkpt>
      <trkpt lat="49.15899" lon="2.1084">
        <ele>124.3</ele>
        <time>2023-05-21T13:06:46Z</time>
      </trkpt>
      <trkpt lat="49.15898" lon="2.1084">
        <ele>124.1</ele>
        <time>2023-05-21T13:06:52Z</time>
      </trkpt>
      <trkpt lat="49.15898" lon="2.10839">
        <ele>123.9</ele>
        <time>2023-05-21T13:06:57Z</time>
      </trkpt>
      <trkpt lat="49.15898" lon="2.10839">
        <ele>123.8</ele>
        <time>2023-05-21T13:07:02Z</time>
      </trkpt>
      <trkpt lat="49.15898" lon="2.10838">
        <ele>123.7</ele>
        <time>2023-05-21T13:07:08Z</time>
      </trkpt>
      <trkpt lat="49.15898" lon="2.10838">
        <ele>123.6</ele>
        <time>2023-05-21T13:07:13Z</time>
      </trkpt>
      <trkpt lat="49.15898" lon="2.10838">
        <ele>123.5</ele>
        <time>2023-05-21T13:07:18Z</time>
      </trkpt>
      <trkpt lat="49.15897" lon="2.10837">
        <ele>123.3</ele>
        <time>2023-05-21T13:07:24Z</time>
      </trkpt>
      <trkpt lat="49.15897" lon="2.10837">
        <ele>123.2</ele>
        <time>2023-05-21T13:07:30Z</time>
      </trkpt>
      <trkpt lat="49.15897" lon="2.10837">
        <ele>123.1</ele>
        <time>2023-05-21T13:07:36Z</time>
      </trkpt>
      <trkpt lat="49.15897" lon="2.10837">
        <ele>122.6</ele>
        <time>2023-05-21T13:07:41Z</time>
      </trkpt>
      <trkpt lat="49.159" lon="2.1083">
        <ele>121.4</ele>
        <time>2023-05-21T13:07:47Z</time>
      </trkpt>
      <trkpt lat="49.15901" lon="2.10821">
        <ele>120.7</ele>
        <time>2023-05-21T13:07:52Z</time>
      </trkpt>
      <trkpt lat="49.15904" lon="2.1081">
        <ele>120.4</ele>
        <time>2023-05-21T13:07:57Z</time>
      </trkpt>
      <trkpt lat="49.15906" lon="2.108">
        <ele>120.4</ele>
        <time>2023-05-21T13:08:03Z</time>
      </trkpt>
      <trkpt lat="49.15906" lon="2.10793">
        <ele>120.5</ele>
        <time>2023-05-21T13:08:08Z</time>
      </trkpt>
      <trkpt lat="49.15905" lon="2.10779">
        <ele>120.4</ele>
        <time>2023-05-21T13:08:14Z</time>
      </trkpt>
      <trkpt lat="49.15905" lon="2.10766">
        <ele>120.1</ele>
        <time>2023-05-21T13:08:20Z</time>
      </trkpt>
      <trkpt lat="49.15903" lon="2.10756">
        <ele>119.4</ele>
        <time>2023-05-21T13:08:26Z</time>
      </trkpt>
      <trkpt lat="49.15901" lon="2.1075">
        <ele>119</ele>
        <time>2023-05-21T13:08:31Z</time>
      </trkpt>
      <trkpt lat="49.15897" lon="2.10748">
        <ele>118.3</ele>
        <time>2023-05-21T13:08:36Z</time>
      </trkpt>
      <trkpt lat="49.1589" lon="2.10742">
        <ele>117.5</ele>
        <time>2023-05-21T13:08:42Z</time>
      </trkpt>
      <trkpt lat="49.15884" lon="2.10739">
        <ele>116.8</ele>
        <time>2023-05-21T13:08:48Z</time>
      </trkpt>
      <trkpt lat="49.15878" lon="2.10737">
        <ele>116.1</ele>
        <time>2023-05-21T13:08:54Z</time>
      </trkpt>
      <trkpt lat="49.15872" lon="2.10734">
        <ele>115.2</ele>
        <time>2023-05-21T13:09:00Z</time>
      </trkpt>
      <trkpt lat="49.15866" lon="2.10728">
        <ele>114.3</ele>
        <time>2023-05-21T13:09:06Z</time>
      </trkpt>
      <trkpt lat="49.1586" lon="2.10724">
        <ele>113.4</ele>
        <time>2023-05-21T13:09:12Z</time>
      </trkpt>
      <trkpt lat="49.15852" lon="2.10718">
        <ele>112.6</ele>
        <time>2023-05-21T13:09:18Z</time>
      </trkpt>
      <trkpt lat="49.15847" lon="2.10713">
        <ele>111.6</ele>
        <time>2023-05-21T13:09:23Z</time>
      </trkpt>
      <trkpt lat="49.15841" lon="2.1071">
        <ele>110.9</ele>
        <time>2023-05-21T13:09:28Z</time>
      </trkpt>
      <trkpt lat="49.15835" lon="2.10704">
        <ele>109.9</ele>
        <time>2023-05-21T13:09:34Z</time>
      </trkpt>
      <trkpt lat="49.15827" lon="2.10701">
        <ele>109</ele>
        <time>2023-05-21T13:09:40Z</time>
      </trkpt>
      <trkpt lat="49.15821" lon="2.10696">
        <ele>108.3</ele>
        <time>2023-05-21T13:09:46Z</time>
      </trkpt>
      <trkpt lat="49.15816" lon="2.10693">
        <ele>107.6</ele>
        <time>2023-05-21T13:09:51Z</time>
      </trkpt>
      <trkpt lat="49.1581" lon="2.10689">
        <ele>106.7</ele>
        <time>2023-05-21T13:09:57Z</time>
      </trkpt>
      <trkpt lat="49.15801" lon="2.10685">
        <ele>105.9</ele>
        <time>2023-05-21T13:10:03Z</time>
      </trkpt>
      <trkpt lat="49.15794" lon="2.10681">
        <ele>104.9</ele>
        <time>2023-05-21T13:10:09Z</time>
      </trkpt>
      <trkpt lat="49.15787" lon="2.10679">
        <ele>104.1</ele>
        <time>2023-05-21T13:10:14Z</time>
      </trkpt>
      <trkpt lat="49.1578" lon="2.10674">
        <ele>103</ele>
        <time>2023-05-21T13:10:20Z</time>
      </trkpt>
      <trkpt lat="49.15772" lon="2.10665">
        <ele>102.3</ele>
        <time>2023-05-21T13:10:26Z</time>
      </trkpt>
      <trkpt lat="49.15764" lon="2.1066">
        <ele>102</ele>
        <time>2023-05-21T13:10:31Z</time>
      </trkpt>
      <trkpt lat="49.1576" lon="2.10655">
        <ele>101.8</ele>
        <time>2023-05-21T13:10:36Z</time>
      </trkpt>
      <trkpt lat="49.1575" lon="2.1065">
        <ele>101.7</ele>
        <time>2023-05-21T13:10:42Z</time>
      </trkpt>
      <trkpt lat="49.15742" lon="2.10645">
        <ele>101.7</ele>
        <time>2023-05-21T13:10:47Z</time>
      </trkpt>
      <trkpt lat="49.15735" lon="2.10642">
        <ele>101.9</ele>
        <time>2023-05-21T13:10:53Z</time>
      </trkpt>
      <trkpt lat="49.15731" lon="2.10638">
        <ele>102</ele>
        <time>2023-05-21T13:10:58Z</time>
      </trkpt>
      <trkpt lat="49.15724" lon="2.10632">
        <ele>102.1</ele>
        <time>2023-05-21T13:11:04Z</time>
      </trkpt>
      <trkpt lat="49.15717" lon="2.10626">
        <ele>102.1</ele>
        <time>2023-05-21T13:11:09Z</time>
      </trkpt>
      <trkpt lat="49.15711" lon="2.10623">
        <ele>102.1</ele>
        <time>2023-05-21T13:11:14Z</time>
      </trkpt>
      <trkpt lat="49.15701" lon="2.10618">
        <ele>102.1</ele>
        <time>2023-05-21T13:11:20Z</time>
      </trkpt>
      <trkpt lat="49.15694" lon="2.10613">
        <ele>102.1</ele>
        <time>2023-05-21T13:11:25Z</time>
      </trkpt>
      <trkpt lat="49.1569" lon="2.1061">
        <ele>102.2</ele>
        <time>2023-05-21T13:11:30Z</time>
      </trkpt>
      <trkpt lat="49.15684" lon="2.10606">
        <ele>102.3</ele>
        <time>2023-05-21T13:11:35Z</time>
      </trkpt>
      <trkpt lat="49.15676" lon="2.10598">
        <ele>102.8</ele>
        <time>2023-05-21T13:11:41Z</time>
      </trkpt>
      <trkpt lat="49.15668" lon="2.10594">
        <ele>103.5</ele>
        <time>2023-05-21T13:11:47Z</time>
      </trkpt>
      <trkpt lat="49.15662" lon="2.1059">
        <ele>104.3</ele>
        <time>2023-05-21T13:11:52Z</time>
      </trkpt>
      <trkpt lat="49.15657" lon="2.10587">
        <ele>105.1</ele>
        <time>2023-05-21T13:11:57Z</time>
      </trkpt>
      <trkpt lat="49.15651" lon="2.10584">
        <ele>106.1</ele>
        <time>2023-05-21T13:12:03Z</time>
      </trkpt>
      <trkpt lat="49.15647" lon="2.10586">
        <ele>107.4</ele>
        <time>2023-05-21T13:12:09Z</time>
      </trkpt>
      <trkpt lat="49.15643" lon="2.10595">
        <ele>108.6</ele>
        <time>2023-05-21T13:12:15Z</time>
      </trkpt>
      <trkpt lat="49.15643" lon="2.10604">
        <ele>109.7</ele>
        <time>2023-05-21T13:12:20Z</time>
      </trkpt>
      <trkpt lat="49.1564" lon="2.10614">
        <ele>110.9</ele>
        <time>2023-05-21T13:12:25Z</time>
      </trkpt>
      <trkpt lat="49.15636" lon="2.10626">
        <ele>112.1</ele>
        <time>2023-05-21T13:12:31Z</time>
      </trkpt>
      <trkpt lat="49.15634" lon="2.10636">
        <ele>112.7</ele>
        <time>2023-05-21T13:12:36Z</time>
      </trkpt>
      <trkpt lat="49.15627" lon="2.10647">
        <ele>113.2</ele>
        <time>2023-05-21T13:12:42Z</time>
      </trkpt>
      <trkpt lat="49.1562" lon="2.10658">
        <ele>113.3</ele>
        <time>2023-05-21T13:12:48Z</time>
      </trkpt>
      <trkpt lat="49.15617" lon="2.10667">
        <ele>113.2</ele>
        <time>2023-05-21T13:12:54Z</time>
      </trkpt>
      <trkpt lat="49.15615" lon="2.1068">
        <ele>113</ele>
        <time>2023-05-21T13:13:00Z</time>
      </trkpt>
      <trkpt lat="49.1561" lon="2.10692">
        <ele>113.1</ele>
        <time>2023-05-21T13:13:06Z</time>
      </trkpt>
      <trkpt lat="49.15602" lon="2.10703">
        <ele>113.2</ele>
        <time>2023-05-21T13:13:11Z</time>
      </trkpt>
      <trkpt lat="49.15598" lon="2.10711">
        <ele>113.4</ele>
        <time>2023-05-21T13:13:16Z</time>
      </trkpt>
      <trkpt lat="49.15596" lon="2.10722">
        <ele>113.7</ele>
        <time>2023-05-21T13:13:22Z</time>
      </trkpt>
      <trkpt lat="49.15591" lon="2.10734">
        <ele>114.2</ele>
        <time>2023-05-21T13:13:27Z</time>
      </trkpt>
      <trkpt lat="49.15583" lon="2.10745">
        <ele>114.6</ele>
        <time>2023-05-21T13:13:33Z</time>
      </trkpt>
      <trkpt lat="49.15581" lon="2.10752">
        <ele>115.2</ele>
        <time>2023-05-21T13:13:38Z</time>
      </trkpt>
      <trkpt lat="49.15577" lon="2.10763">
        <ele>115.9</ele>
        <time>2023-05-21T13:13:44Z</time>
      </trkpt>
      <trkpt lat="49.15575" lon="2.10775">
        <ele>116.6</ele>
        <time>2023-05-21T13:13:50Z</time>
      </trkpt>
      <trkpt lat="49.15572" lon="2.10783">
        <ele>116.9</ele>
        <time>2023-05-21T13:13:55Z</time>
      </trkpt>
      <trkpt lat="49.15571" lon="2.10794">
        <ele>117.4</ele>
        <time>2023-05-21T13:14:00Z</time>
      </trkpt>
      <trkpt lat="49.15563" lon="2.10804">
        <ele>118</ele>
        <time>2023-05-21T13:14:06Z</time>
      </trkpt>
      <trkpt lat="49.15556" lon="2.10816">
        <ele>118</ele>
        <time>2023-05-21T13:14:12Z</time>
      </trkpt>
      <trkpt lat="49.15552" lon="2.10827">
        <ele>118.1</ele>
        <time>2023-05-21T13:14:18Z</time>
      </trkpt>
      <trkpt lat="49.15547" lon="2.10835">
        <ele>118.3</ele>
        <time>2023-05-21T13:14:23Z</time>
      </trkpt>
      <trkpt lat="49.15545" lon="2.10843">
        <ele>118.6</ele>
        <time>2023-05-21T13:14:28Z</time>
      </trkpt>
      <trkpt lat="49.1554" lon="2.10851">
        <ele>119</ele>
        <time>2023-05-21T13:14:33Z</time>
      </trkpt>
      <trkpt lat="49.15533" lon="2.10854">
        <ele>119.8</ele>
        <time>2023-05-21T13:14:39Z</time>
      </trkpt>
      <trkpt lat="49.15527" lon="2.10856">
        <ele>120.6</ele>
        <time>2023-05-21T13:14:45Z</time>
      </trkpt>
      <trkpt lat="49.15516" lon="2.10859">
        <ele>121</ele>
        <time>2023-05-21T13:14:51Z</time>
      </trkpt>
      <trkpt lat="49.1551" lon="2.10863">
        <ele>121.1</ele>
        <time>2023-05-21T13:14:56Z</time>
      </trkpt>
      <trkpt lat="49.15502" lon="2.10865">
        <ele>121.1</ele>
        <time>2023-05-21T13:15:02Z</time>
      </trkpt>
      <trkpt lat="49.15493" lon="2.10865">
        <ele>121.1</ele>
        <time>2023-05-21T13:15:07Z</time>
      </trkpt>
      <trkpt lat="49.15482" lon="2.10862">
        <ele>120.8</ele>
        <time>2023-05-21T13:15:13Z</time>
      </trkpt>
      <trkpt lat="49.15473" lon="2.10861">
        <ele>120.4</ele>
        <time>2023-05-21T13:15:19Z</time>
      </trkpt>
      <trkpt lat="49.15467" lon="2.1086">
        <ele>120</ele>
        <time>2023-05-21T13:15:24Z</time>
      </trkpt>
      <trkpt lat="49.1546" lon="2.1086">
        <ele>120</ele>
        <time>2023-05-21T13:15:30Z</time>
      </trkpt>
      <trkpt lat="49.15449" lon="2.10857">
        <ele>120.2</ele>
        <time>2023-05-21T13:15:36Z</time>
      </trkpt>
      <trkpt lat="49.15443" lon="2.10852">
        <ele>120.5</ele>
        <time>2023-05-21T13:15:41Z</time>
      </trkpt>
      <trkpt lat="49.15437" lon="2.1085">
        <ele>120.7</ele>
        <time>2023-05-21T13:15:47Z</time>
      </trkpt>
      <trkpt lat="49.15428" lon="2.10848">
        <ele>120.7</ele>
        <time>2023-05-21T13:15:52Z</time>
      </trkpt>
      <trkpt lat="49.15419" lon="2.10846">
        <ele>120.7</ele>
        <time>2023-05-21T13:15:58Z</time>
      </trkpt>
      <trkpt lat="49.15414" lon="2.10842">
        <ele>120.8</ele>
        <time>2023-05-21T13:16:03Z</time>
      </trkpt>
      <trkpt lat="49.15408" lon="2.1084">
        <ele>120.9</ele>
        <time>2023-05-21T13:16:08Z</time>
      </trkpt>
      <trkpt lat="49.15401" lon="2.10835">
        <ele>120.9</ele>
        <time>2023-05-21T13:16:14Z</time>
      </trkpt>
      <trkpt lat="49.15395" lon="2.10833">
        <ele>120.9</ele>
        <time>2023-05-21T13:16:19Z</time>
      </trkpt>
      <trkpt lat="49.15389" lon="2.10832">
        <ele>120.6</ele>
        <time>2023-05-21T13:16:24Z</time>
      </trkpt>
      <trkpt lat="49.1538" lon="2.10828">
        <ele>120.2</ele>
        <time>2023-05-21T13:16:30Z</time>
      </trkpt>
      <trkpt lat="49.15374" lon="2.10824">
        <ele>119.9</ele>
        <time>2023-05-21T13:16:35Z</time>
      </trkpt>
      <trkpt lat="49.15367" lon="2.10821">
        <ele>119.7</ele>
        <time>2023-05-21T13:16:41Z</time>
      </trkpt>
      <trkpt lat="49.15359" lon="2.10824">
        <ele>119.5</ele>
        <time>2023-05-21T13:16:46Z</time>
      </trkpt>
      <trkpt lat="49.15352" lon="2.10823">
        <ele>119.7</ele>
        <time>2023-05-21T13:16:52Z</time>
      </trkpt>
      <trkpt lat="49.15344" lon="2.10828">
        <ele>120.1</ele>
        <time>2023-05-21T13:16:58Z</time>
      </trkpt>
      <trkpt lat="49.15336" lon="2.10828">
        <ele>120.3</ele>
        <time>2023-05-21T13:17:03Z</time>
      </trkpt>
      <trkpt lat="49.15328" lon="2.10829">
        <ele>120.3</ele>
        <time>2023-05-21T13:17:08Z</time>
      </trkpt>
      <trkpt lat="49.15322" lon="2.10828">
        <ele>119.9</ele>
        <time>2023-05-21T13:17:14Z</time>
      </trkpt>
      <trkpt lat="49.15321" lon="2.10827">
        <ele>119.4</ele>
        <time>2023-05-21T13:17:19Z</time>
      </trkpt>
      <trkpt lat="49.1532" lon="2.10828">
        <ele>118.8</ele>
        <time>2023-05-21T13:17:25Z</time>
      </trkpt>
      <trkpt lat="49.15319" lon="2.10828">
        <ele>118.6</ele>
        <time>2023-05-21T13:17:31Z</time>
      </trkpt>
      <trkpt lat="49.15319" lon="2.10829">
        <ele>118.6</ele>
        <time>2023-05-21T13:17:37Z</time>
      </trkpt>
      <trkpt lat="49.15318" lon="2.10829">
        <ele>118.5</ele>
        <time>2023-05-21T13:17:42Z</time>
      </trkpt>
      <trkpt lat="49.15317" lon="2.10828">
        <ele>118.4</ele>
        <time>2023-05-21T13:17:48Z</time>
      </trkpt>
      <trkpt lat="49.15317" lon="2.10829">
        <ele>118.3</ele>
        <time>2023-05-21T13:17:54Z</time>
      </trkpt>
      <trkpt lat="49.15316" lon="2.10829">
        <ele>117.7</ele>
        <time>2023-05-21T13:17:59Z</time>
      </trkpt>
      <trkpt lat="49.15316" lon="2.10828">
        <ele>117.6</ele>
        <time>2023-05-21T13:18:04Z</time>
      </trkpt>
      <trkpt lat="49.15316" lon="2.10828">
        <ele>117.4</ele>
        <time>2023-05-21T13:18:09Z</time>
      </trkpt>
      <trkpt lat="49.15316" lon="2.10828">
        <ele>116.9</ele>
        <time>2023-05-21T13:18:15Z</time>
      </trkpt>
      <trkpt lat="49.15316" lon="2.10827">
        <ele>116.7</ele>
        <time>2023-05-21T13:18:21Z</time>
      </trkpt>
      <trkpt lat="49.15316" lon="2.10827">
        <ele>116.5</ele>
        <time>2023-05-21T13:18:27Z</time>
      </trkpt>
      <trkpt lat="49.15316" lon="2.10827">
        <ele>116.3</ele>
        <time>2023-05-21T13:18:32Z</time>
      </trkpt>
      <trkpt lat="49.15315" lon="2.10827">
        <ele>116.2</ele>
        <time>2023-05-21T13:18:37Z</time>
      </trkpt>
      <trkpt lat="49.15315" lon="2.10828">
        <ele>116</ele>
        <time>2023-05-21T13:18:42Z</time>
      </trkpt>
      <trkpt lat="49.15315" lon="2.10828">
        <ele>115.4</ele>
        <time>2023-05-21T13:18:48Z</time>
      </trkpt>
      <trkpt lat="49.15308" lon="2.10826">
        <ele>114.3</ele>
        <time>2023-05-21T13:18:54Z</time>
      </trkpt>
      <trkpt lat="49.15302" lon="2.10825">
        <ele>113.6</ele>
        <time>2023-05-21T13:19:00Z</time>
      </trkpt>
      <trkpt lat="49.15295" lon="2.10823">
        <ele>112.9</ele>
        <time>2023-05-21T13:19:06Z</time>
      </trkpt>
      <trkpt lat="49.15287" lon="2.10823">
        <ele>112.3</ele>
        <time>2023-05-21T13:19:12Z</time>
      </trkpt>
      <trkpt lat="49.1528" lon="2.10823">
        <ele>112</ele>
        <time>2023-05-21T13:19:17Z</time>
      </trkpt>
      <trkpt lat="49.15272" lon="2.10825">
        <ele>111.8</ele>
        <time>2023-05-21T13:19:23Z</time>
      </trkpt>
      <trkpt lat="49.15266" lon="2.10826">
        <ele>111.7</ele>
        <time>2023-05-21T13:19:28Z</time>
      </trkpt>
      <trkpt lat="49.15259" lon="2.10828">
        <ele>111.7</ele>
        <time>2023-05-21T13:19:34Z</time>
      </trkpt>
      <trkpt lat="49.1525" lon="2.1083">
        <ele>111.8</ele>
        <time>2023-05-21T13:19:40Z</time>
      </trkpt>
      <trkpt lat="49.15241" lon="2.10831">
        <ele>111.7</ele>
        <time>2023-05-21T13:19:46Z</time>
      </trkpt>
      <trkpt lat="49.15234" lon="2.10832">
        <ele>111.3</ele>
        <time>2023-05-21T13:19:51Z</time>
      </trkpt>
      <trkpt lat="49.15227" lon="2.10832">
        <ele>111</ele>
        <time>2023-05-21T13:19:56Z</time>
      </trkpt>
      <trkpt lat="49.15219" lon="2.10831">
        <ele>110.7</ele>
        <time>2023-05-21T13:20:02Z</time>
      </trkpt>
      <trkpt lat="49.15213" lon="2.10832">
        <ele>110.6</ele>
        <time>2023-05-21T13:20:07Z</time>
      </trkpt>
      <trkpt lat="49.15207" lon="2.10839">
        <ele>110.6</ele>
        <time>2023-05-21T13:20:13Z</time>
      </trkpt>
      <trkpt lat="49.15204" lon="2.1085">
        <ele>110.6</ele>
        <time>2023-05-21T13:20:18Z</time>
      </trkpt>
      <trkpt lat="49.15201" lon="2.10866">
        <ele>110.5</ele>
        <time>2023-05-21T13:20:24Z</time>
      </trkpt>
      <trkpt lat="49.15199" lon="2.10881">
        <ele>110.3</ele>
        <time>2023-05-21T13:20:30Z</time>
      </trkpt>
      <trkpt lat="49.15199" lon="2.10891">
        <ele>110.1</ele>
        <time>2023-05-21T13:20:35Z</time>
      </trkpt>
      <trkpt lat="49.15199" lon="2.10905">
        <ele>109.9</ele>
        <time>2023-05-21T13:20:41Z</time>
      </trkpt>
      <trkpt lat="49.15197" lon="2.1092">
        <ele>109.7</ele>
        <time>2023-05-21T13:20:47Z</time>
      </trkpt>
      <trkpt lat="49.15194" lon="2.10932">
        <ele>109.7</ele>
        <time>2023-05-21T13:20:53Z</time>
      </trkpt>
      <trkpt lat="49.15191" lon="2.10939">
        <ele>109.5</ele>
        <time>2023-05-21T13:20:58Z</time>
      </trkpt>
      <trkpt lat="49.15184" lon="2.10945">
        <ele>109.3</ele>
        <time>2023-05-21T13:21:04Z</time>
      </trkpt>
      <trkpt lat="49.15176" lon="2.1095">
        <ele>109.4</ele>
        <time>2023-05-21T13:21:10Z</time>
      </trkpt>
      <trkpt lat="49.15172" lon="2.10955">
        <ele>109.7</ele>
        <time>2023-05-21T13:21:15Z</time>
      </trkpt>
      <trkpt lat="49.15162" lon="2.10962">
        <ele>109.7</ele>
        <time>2023-05-21T13:21:21Z</time>
      </trkpt>
      <trkpt lat="49.15153" lon="2.10964">
        <ele>109.1</ele>
        <time>2023-05-21T13:21:27Z</time>
      </trkpt>
      <trkpt lat="49.15147" lon="2.10967">
        <ele>108.5</ele>
        <time>2023-05-21T13:21:32Z</time>
      </trkpt>
      <trkpt lat="49.1514" lon="2.10969">
        <ele>107.9</ele>
        <time>2023-05-21T13:21:38Z</time>
      </trkpt>
      <trkpt lat="49.15132" lon="2.10966">
        <ele>107.2</ele>
        <time>2023-05-21T13:21:44Z</time>
      </trkpt>
      <trkpt lat="49.15126" lon="2.1097">
        <ele>106.7</ele>
        <time>2023-05-21T13:21:50Z</time>
      </trkpt>
      <trkpt lat="49.15117" lon="2.10971">
        <ele>106.4</ele>
        <time>2023-05-21T13:21:56Z</time>
      </trkpt>
      <trkpt lat="49.1511" lon="2.10974">
        <ele>106.4</ele>
        <time>2023-05-21T13:22:01Z</time>
      </trkpt>
      <trkpt lat="49.151" lon="2.10976">
        <ele>106.7</ele>
        <time>2023-05-21T13:22:07Z</time>
      </trkpt>
      <trkpt lat="49.15095" lon="2.1098">
        <ele>107.1</ele>
        <time>2023-05-21T13:22:12Z</time>
      </trkpt>
      <trkpt lat="49.15089" lon="2.10991">
        <ele>107.6</ele>
        <time>2023-05-21T13:22:18Z</time>
      </trkpt>
      <trkpt lat="49.15085" lon="2.10998">
        <ele>108.2</ele>
        <time>2023-05-21T13:22:23Z</time>
      </trkpt>
      <trkpt lat="49.1508" lon="2.11008">
        <ele>108.8</ele>
        <time>2023-05-21T13:22:29Z</time>
      </trkpt>
      <trkpt lat="49.15074" lon="2.11017">
        <ele>109.2</ele>
        <time>2023-05-21T13:22:35Z</time>
      </trkpt>
      <trkpt lat="49.15068" lon="2.11021">
        <ele>109.9</ele>
        <time>2023-05-21T13:22:40Z</time>
      </trkpt>
      <trkpt lat="49.15062" lon="2.11027">
        <ele>110.3</ele>
        <time>2023-05-21T13:22:46Z</time>
      </trkpt>
      <trkpt lat="49.15063" lon="2.11027">
        <ele>110.2</ele>
        <time>2023-05-21T13:22:52Z</time>
      </trkpt>
      <trkpt lat="49.15062" lon="2.11032">
        <ele>110.1</ele>
        <time>2023-05-21T13:22:58Z</time>
      </trkpt>
      <trkpt lat="49.15064" lon="2.11038">
        <ele>110</ele>
        <time>2023-05-21T13:23:04Z</time>
      </trkpt>
      <trkpt lat="49.15068" lon="2.11048">
        <ele>109.6</ele>
        <time>2023-05-21T13:23:10Z</time>
      </trkpt>
      <trkpt lat="49.1507" lon="2.11057">
        <ele>109.3</ele>
        <time>2023-05-21T13:23:16Z</time>
      </trkpt>
      <trkpt lat="49.15072" lon="2.11066">
        <ele>109</ele>
        <time>2023-05-21T13:23:22Z</time>
      </trkpt>
      <trkpt lat="49.15072" lon="2.11075">
        <ele>108.7</ele>
        <time>2023-05-21T13:23:27Z</time>
      </trkpt>
      <trkpt lat="49.15073" lon="2.11084">
        <ele>108.2</ele>
        <time>2023-05-21T13:23:32Z</time>
      </trkpt>
      <trkpt lat="49.15077" lon="2.11092">
        <ele>107.6</ele>
        <time>2023-05-21T13:23:38Z</time>
      </trkpt>
      <trkpt lat="49.1508" lon="2.11102">
        <ele>107.1</ele>
        <time>2023-05-21T13:23:43Z</time>
      </trkpt>
      <trkpt lat="49.15082" lon="2.11112">
        <ele>106.6</ele>
        <time>2023-05-21T13:23:49Z</time>
      </trkpt>
      <trkpt lat="49.15084" lon="2.11124">
        <ele>106.1</ele>
        <time>2023-05-21T13:23:55Z</time>
      </trkpt>
      <trkpt lat="49.15087" lon="2.11132">
        <ele>105.5</ele>
        <time>2023-05-21T13:24:00Z</time>
      </trkpt>
      <trkpt lat="49.15086" lon="2.11144">
        <ele>104.8</ele>
        <time>2023-05-21T13:24:06Z</time>
      </trkpt>
      <trkpt lat="49.15088" lon="2.11154">
        <ele>104.4</ele>
        <time>2023-05-21T13:24:11Z</time>
      </trkpt>
      <trkpt lat="49.15091" lon="2.11165">
        <ele>104</ele>
        <time>2023-05-21T13:24:17Z</time>
      </trkpt>
      <trkpt lat="49.15096" lon="2.11176">
        <ele>103.4</ele>
        <time>2023-05-21T13:24:23Z</time>
      </trkpt>
      <trkpt lat="49.15102" lon="2.11181">
        <ele>103</ele>
        <time>2023-05-21T13:24:28Z</time>
      </trkpt>
      <trkpt lat="49.15108" lon="2.11189">
        <ele>102.2</ele>
        <time>2023-05-21T13:24:34Z</time>
      </trkpt>
      <trkpt lat="49.15114" lon="2.11193">
        <ele>101.4</ele>
        <time>2023-05-21T13:24:40Z</time>
      </trkpt>
      <trkpt lat="49.15116" lon="2.11202">
        <ele>101.3</ele>
        <time>2023-05-21T13:24:45Z</time>
      </trkpt>
      <trkpt lat="49.15121" lon="2.11212">
        <ele>101.2</ele>
        <time>2023-05-21T13:24:50Z</time>
      </trkpt>
      <trkpt lat="49.15125" lon="2.1122">
        <ele>101</ele>
        <time>2023-05-21T13:24:55Z</time>
      </trkpt>
      <trkpt lat="49.1513" lon="2.11227">
        <ele>100.8</ele>
        <time>2023-05-21T13:25:01Z</time>
      </trkpt>
      <trkpt lat="49.15131" lon="2.11235">
        <ele>101</ele>
        <time>2023-05-21T13:25:06Z</time>
      </trkpt>
      <trkpt lat="49.15132" lon="2.11247">
        <ele>101.4</ele>
        <time>2023-05-21T13:25:12Z</time>
      </trkpt>
      <trkpt lat="49.15137" lon="2.11246">
        <ele>101.6</ele>
        <time>2023-05-21T13:25:17Z</time>
      </trkpt>
      <trkpt lat="49.1514" lon="2.11241">
        <ele>101.8</ele>
        <time>2023-05-21T13:25:23Z</time>
      </trkpt>
      <trkpt lat="49.15141" lon="2.11238">
        <ele>101.8</ele>
        <time>2023-05-21T13:25:29Z</time>
      </trkpt>
      <trkpt lat="49.15141" lon="2.11238">
        <ele>101.8</ele>
        <time>2023-05-21T13:25:34Z</time>
      </trkpt>
      <trkpt lat="49.15142" lon="2.11238">
        <ele>101.6</ele>
        <time>2023-05-21T13:25:40Z</time>
      </trkpt>
      <trkpt lat="49.15142" lon="2.11238">
        <ele>101.4</ele>
        <time>2023-05-21T13:25:45Z</time>
      </trkpt>
      <trkpt lat="49.15143" lon="2.11239">
        <ele>101.1</ele>
        <time>2023-05-21T13:25:51Z</time>
      </trkpt>
      <trkpt lat="49.15144" lon="2.11239">
        <ele>100.6</ele>
        <time>2023-05-21T13:25:57Z</time>
      </trkpt>
      <trkpt lat="49.15144" lon="2.11237">
        <ele>100</ele>
        <time>2023-05-21T13:26:02Z</time>
      </trkpt>
      <trkpt lat="49.15143" lon="2.11237">
        <ele>99.5</ele>
        <time>2023-05-21T13:26:08Z</time>
      </trkpt>
      <trkpt lat="49.15143" lon="2.11237">
        <ele>99.4</ele>
        <time>2023-05-21T13:26:14Z</time>
      </trkpt>
      <trkpt lat="49.15142" lon="2.11237">
        <ele>99.3</ele>
        <time>2023-05-21T13:26:20Z</time>
      </trkpt>
      <trkpt lat="49.15142" lon="2.11238">
        <ele>99.2</ele>
        <time>2023-05-21T13:26:26Z</time>
      </trkpt>
      <trkpt lat="49.15143" lon="2.11237">
        <ele>98.6</ele>
        <time>2023-05-21T13:26:32Z</time>
      </trkpt>
      <trkpt lat="49.15144" lon="2.11241">
        <ele>98.4</ele>
        <time>2023-05-21T13:26:37Z</time>
      </trkpt>
      <trkpt lat="49.15144" lon="2.11242">
        <ele>98.4</ele>
        <time>2023-05-21T13:26:42Z</time>
      </trkpt>
      <trkpt lat="49.15145" lon="2.11242">
        <ele>98.3</ele>
        <time>2023-05-21T13:26:48Z</time>
      </trkpt>
      <trkpt lat="49.15148" lon="2.11242">
        <ele>98.3</ele>
        <time>2023-05-21T13:26:54Z</time>
      </trkpt>
      <trkpt lat="49.15147" lon="2.11242">
        <ele>98.2</ele>
        <time>2023-05-21T13:27:00Z</time>
      </trkpt>
      <trkpt lat="49.15148" lon="2.11242">
        <ele>98.2</ele>
        <time>2023-05-21T13:27:05Z</time>
      </trkpt>
      <trkpt lat="49.15147" lon="2.11244">
        <ele>98.2</ele>
        <time>2023-05-21T13:27:10Z</time>
      </trkpt>
      <trkpt lat="49.15147" lon="2.11245">
        <ele>98.2</ele>
        <time>2023-05-21T13:27:16Z</time>
      </trkpt>
      <trkpt lat="49.15147" lon="2.11245">
        <ele>98.2</ele>
        <time>2023-05-21T13:27:22Z</time>
      </trkpt>
      <trkpt lat="49.15147" lon="2.11245">
        <ele>98.2</ele>
        <time>2023-05-21T13:27:28Z</time>
      </trkpt>
      <trkpt lat="49.15147" lon="2.11246">
        <ele>98.2</ele>
        <time>2023-05-21T13:27:33Z</time>
      </trkpt>
      <trkpt lat="49.15147" lon="2.11246">
        <ele>98.2</ele>
        <time>2023-05-21T13:27:39Z</time>
      </trkpt>
      <trkpt lat="49.15147" lon="2.11246">
        <ele>98.2</ele>
        <time>2023-05-21T13:27:44Z</time>
      </trkpt>
      <trkpt lat="49.15147" lon="2.11246">
        <ele>98.3</ele>
        <time>2023-05-21T13:27:50Z</time>
      </trkpt>
      <trkpt lat="49.15147" lon="2.11246">
        <ele>98.3</ele>
        <time>2023-05-21T13:27:56Z</time>
      </trkpt>
      <trkpt lat="49.15146" lon="2.11246">
        <ele>98.5</ele>
        <time>2023-05-21T13:28:02Z</time>
      </trkpt>
      <trkpt lat="49.15145" lon="2.11246">
        <ele>98.5</ele>
        <time>2023-05-21T13:28:07Z</time>
      </trkpt>
      <trkpt lat="49.15145" lon="2.11246">
        <ele>98.5</ele>
        <time>2023-05-21T13:28:13Z</time>
      </trkpt>
      <trkpt lat="49.15145" lon="2.11246">
        <ele>98.5</ele>
        <time>2023-05-21T13:28:19Z</time>
      </trkpt>
      <trkpt lat="49.15145" lon="2.11246">
        <ele>98.5</ele>
        <time>2023-05-21T13:28:24Z</time>
      </trkpt>
      <trkpt lat="49.15145" lon="2.11246">
        <ele>98.5</ele>
        <time>2023-05-21T13:28:30Z</time>
      </trkpt>
      <trkpt lat="49.15145" lon="2.11246">
        <ele>98.6</ele>
        <time>2023-05-21T13:28:36Z</time>
      </trkpt>
      <trkpt lat="49.15145" lon="2.11246">
        <ele>98.6</ele>
        <time>2023-05-21T13:28:42Z</time>
      </trkpt>
      <trkpt lat="49.15145" lon="2.11246">
        <ele>98.6</ele>
        <time>2023-05-21T13:28:48Z</time>
      </trkpt>
      <trkpt lat="49.15145" lon="2.11246">
        <ele>98.6</ele>
        <time>2023-05-21T13:28:54Z</time>
      </trkpt>
      <trkpt lat="49.15145" lon="2.11245">
        <ele>98.7</ele>
        <time>2023-05-21T13:29:00Z</time>
      </trkpt>
      <trkpt lat="49.15145" lon="2.11245">
        <ele>98.7</ele>
        <time>2023-05-21T13:29:05Z</time>
      </trkpt>
      <trkpt lat="49.15145" lon="2.11245">
        <ele>98.7</ele>
        <time>2023-05-21T13:29:11Z</time>
      </trkpt>
      <trkpt lat="49.15145" lon="2.11245">
        <ele>98.8</ele>
        <time>2023-05-21T13:29:16Z</time>
      </trkpt>
      <trkpt lat="49.15145" lon="2.11245">
        <ele>98.8</ele>
        <time>2023-05-21T13:29:22Z</time>
      </trkpt>
      <trkpt lat="49.15145" lon="2.11246">
        <ele>98.8</ele>
        <time>2023-05-21T13:29:27Z</time>
      </trkpt>
      <trkpt lat="49.15145" lon="2.11246">
        <ele>98.8</ele>
        <time>2023-05-21T13:29:33Z</time>
      </trkpt>
      <trkpt lat="49.15146" lon="2.11246">
        <ele>98.9</ele>
        <time>2023-05-21T13:29:39Z</time>
      </trkpt>
      <trkpt lat="49.15147" lon="2.11247">
        <ele>98.9</ele>
        <time>2023-05-21T13:29:44Z</time>
      </trkpt>
      <trkpt lat="49.15147" lon="2.11247">
        <ele>98.9</ele>
        <time>2023-05-21T13:29:50Z</time>
      </trkpt>
      <trkpt lat="49.15148" lon="2.11245">
        <ele>99.1</ele>
        <time>2023-05-21T13:29:56Z</time>
      </trkpt>
      <trkpt lat="49.15148" lon="2.11244">
        <ele>99.2</ele>
        <time>2023-05-21T13:30:01Z</time>
      </trkpt>
      <trkpt lat="49.15149" lon="2.11244">
        <ele>99.3</ele>
        <time>2023-05-21T13:30:06Z</time>
      </trkpt>
      <trkpt lat="49.15149" lon="2.11244">
        <ele>99.5</ele>
        <time>2023-05-21T13:30:12Z</time>
      </trkpt>
      <trkpt lat="49.1515" lon="2.11248">
        <ele>99.8</ele>
        <time>2023-05-21T13:30:18Z</time>
      </trkpt>
      <trkpt lat="49.15148" lon="2.11249">
        <ele>99.8</ele>
        <time>2023-05-21T13:30:24Z</time>
      </trkpt>
      <trkpt lat="49.15147" lon="2.11249">
        <ele>99.9</ele>
        <time>2023-05-21T13:30:29Z</time>
      </trkpt>
      <trkpt lat="49.15147" lon="2.11249">
        <ele>100</ele>
        <time>2023-05-21T13:30:35Z</time>
      </trkpt>
      <trkpt lat="49.15147" lon="2.11249">
        <ele>100</ele>
        <time>2023-05-21T13:30:40Z</time>
      </trkpt>
      <trkpt lat="49.15148" lon="2.1125">
        <ele>100.1</ele>
        <time>2023-05-21T13:30:46Z</time>
      </trkpt>
      <trkpt lat="49.15148" lon="2.11251">
        <ele>100.2</ele>
        <time>2023-05-21T13:30:52Z</time>
      </trkpt>
      <trkpt lat="49.15148" lon="2.11251">
        <ele>100.3</ele>
        <time>2023-05-21T13:30:58Z</time>
      </trkpt>
      <trkpt lat="49.15148" lon="2.11252">
        <ele>100.4</ele>
        <time>2023-05-21T13:31:04Z</time>
      </trkpt>
      <trkpt lat="49.15148" lon="2.11252">
        <ele>100.4</ele>
        <time>2023-05-21T13:31:09Z</time>
      </trkpt>
      <trkpt lat="49.15148" lon="2.11252">
        <ele>100.5</ele>
        <time>2023-05-21T13:31:14Z</time>
      </trkpt>
      <trkpt lat="49.15148" lon="2.11252">
        <ele>100.6</ele>
        <time>2023-05-21T13:31:20Z</time>
      </trkpt>
      <trkpt lat="49.15148" lon="2.11251">
        <ele>100.9</ele>
        <time>2023-05-21T13:31:26Z</time>
      </trkpt>
      <trkpt lat="49.15144" lon="2.11249">
        <ele>101.3</ele>
        <time>2023-05-21T13:31:32Z</time>
      </trkpt>
      <trkpt lat="49.15142" lon="2.11249">
        <ele>101.4</ele>
        <time>2023-05-21T13:31:37Z</time>
      </trkpt>
      <trkpt lat="49.15142" lon="2.11249">
        <ele>101.4</ele>
        <time>2023-05-21T13:31:43Z</time>
      </trkpt>
      <trkpt lat="49.15142" lon="2.11248">
        <ele>101.6</ele>
        <time>2023-05-21T13:31:49Z</time>
      </trkpt>
      <trkpt lat="49.15142" lon="2.11248">
        <ele>101.7</ele>
        <time>2023-05-21T13:31:54Z</time>
      </trkpt>
      <trkpt lat="49.15142" lon="2.11247">
        <ele>101.8</ele>
        <time>2023-05-21T13:31:59Z</time>
      </trkpt>
      <trkpt lat="49.15142" lon="2.11247">
        <ele>102.1</ele>
        <time>2023-05-21T13:32:05Z</time>
      </trkpt>
      <trkpt lat="49.15139" lon="2.11247">
        <ele>102.5</ele>
        <time>2023-05-21T13:32:11Z</time>
      </trkpt>
      <trkpt lat="49.15135" lon="2.11248">
        <ele>102.6</ele>
        <time>2023-05-21T13:32:16Z</time>
      </trkpt>
      <trkpt lat="49.15133" lon="2.11246">
        <ele>102.6</ele>
        <time>2023-05-21T13:32:22Z</time>
      </trkpt>
      <trkpt lat="49.15133" lon="2.11245">
        <ele>102.5</ele>
        <time>2023-05-21T13:32:28Z</time>
      </trkpt>
      <trkpt lat="49.15133" lon="2.11245">
        <ele>102.5</ele>
        <time>2023-05-21T13:32:33Z</time>
      </trkpt>
      <trkpt lat="49.15133" lon="2.11244">
        <ele>102.5</ele>
        <time>2023-05-21T13:32:39Z</time>
      </trkpt>
      <trkpt lat="49.15133" lon="2.11244">
        <ele>102.5</ele>
        <time>2023-05-21T13:32:45Z</time>
      </trkpt>
      <trkpt lat="49.15133" lon="2.11244">
        <ele>102.5</ele>
        <time>2023-05-21T13:32:50Z</time>
      </trkpt>
      <trkpt lat="49.15132" lon="2.11244">
        <ele>102.5</ele>
        <time>2023-05-21T13:32:56Z</time>
      </trkpt>
      <trkpt lat="49.15132" lon="2.11243">
        <ele>102.5</ele>
        <time>2023-05-21T13:33:02Z</time>
      </trkpt>
      <trkpt lat="49.15131" lon="2.11244">
        <ele>102.5</ele>
        <time>2023-05-21T13:33:08Z</time>
      </trkpt>
      <trkpt lat="49.15131" lon="2.11244">
        <ele>102.6</ele>
        <time>2023-05-21T13:33:13Z</time>
      </trkpt>
      <trkpt lat="49.15132" lon="2.11245">
        <ele>102.5</ele>
        <time>2023-05-21T13:33:18Z</time>
      </trkpt>
      <trkpt lat="49.15133" lon="2.11246">
        <ele>102.5</ele>
        <time>2023-05-21T13:33:23Z</time>
      </trkpt>
      <trkpt lat="49.15133" lon="2.11249">
        <ele>102.3</ele>
        <time>2023-05-21T13:33:29Z</time>
      </trkpt>
      <trkpt lat="49.15133" lon="2.11251">
        <ele>102.3</ele>
        <time>2023-05-21T13:33:35Z</time>
      </trkpt>
      <trkpt lat="49.15133" lon="2.11251">
        <ele>102.2</ele>
        <time>2023-05-21T13:33:41Z</time>
      </trkpt>
      <trkpt lat="49.1513" lon="2.11236">
        <ele>101.9</ele>
        <time>2023-05-21T13:33:47Z</time>
      </trkpt>
      <trkpt lat="49.15129" lon="2.11219">
        <ele>101.8</ele>
        <time>2023-05-21T13:33:53Z</time>
      </trkpt>
      <trkpt lat="49.15125" lon="2.11207">
        <ele>101.8</ele>
        <time>2023-05-21T13:33:59Z</time>
      </trkpt>
      <trkpt lat="49.15122" lon="2.11199">
        <ele>101.5</ele>
        <time>2023-05-21T13:34:04Z</time>
      </trkpt>
      <trkpt lat="49.15118" lon="2.1119">
        <ele>101.1</ele>
        <time>2023-05-21T13:34:10Z</time>
      </trkpt>
      <trkpt lat="49.15115" lon="2.11181">
        <ele>100.7</ele>
        <time>2023-05-21T13:34:15Z</time>
      </trkpt>
      <trkpt lat="49.15108" lon="2.11177">
        <ele>100.3</ele>
        <time>2023-05-21T13:34:21Z</time>
      </trkpt>
      <trkpt lat="49.151" lon="2.11171">
        <ele>99.8</ele>
        <time>2023-05-21T13:34:27Z</time>
      </trkpt>
      <trkpt lat="49.15096" lon="2.11167">
        <ele>99.5</ele>
        <time>2023-05-21T13:34:32Z</time>
      </trkpt>
      <trkpt lat="49.15088" lon="2.11159">
        <ele>99.4</ele>
        <time>2023-05-21T13:34:38Z</time>
      </trkpt>
      <trkpt lat="49.15085" lon="2.11151">
        <ele>99.4</ele>
        <time>2023-05-21T13:34:43Z</time>
      </trkpt>
      <trkpt lat="49.15084" lon="2.11143">
        <ele>99.5</ele>
        <time>2023-05-21T13:34:48Z</time>
      </trkpt>
      <trkpt lat="49.15083" lon="2.11134">
        <ele>99.5</ele>
        <time>2023-05-21T13:34:54Z</time>
      </trkpt>
      <trkpt lat="49.15082" lon="2.11126">
        <ele>99.4</ele>
        <time>2023-05-21T13:34:59Z</time>
      </trkpt>
      <trkpt lat="49.15082" lon="2.11116">
        <ele>99.3</ele>
        <time>2023-05-21T13:35:05Z</time>
      </trkpt>
      <trkpt lat="49.15082" lon="2.11105">
        <ele>99.3</ele>
        <time>2023-05-21T13:35:11Z</time>
      </trkpt>
      <trkpt lat="49.15082" lon="2.11095">
        <ele>99.2</ele>
        <time>2023-05-21T13:35:17Z</time>
      </trkpt>
      <trkpt lat="49.15079" lon="2.11083">
        <ele>99.1</ele>
        <time>2023-05-21T13:35:23Z</time>
      </trkpt>
      <trkpt lat="49.15073" lon="2.11074">
        <ele>99.3</ele>
        <time>2023-05-21T13:35:28Z</time>
      </trkpt>
      <trkpt lat="49.15071" lon="2.11066">
        <ele>99.7</ele>
        <time>2023-05-21T13:35:33Z</time>
      </trkpt>
      <trkpt lat="49.15068" lon="2.11056">
        <ele>100</ele>
        <time>2023-05-21T13:35:39Z</time>
      </trkpt>
      <trkpt lat="49.15067" lon="2.11046">
        <ele>100.4</ele>
        <time>2023-05-21T13:35:44Z</time>
      </trkpt>
      <trkpt lat="49.15065" lon="2.11038">
        <ele>100.9</ele>
        <time>2023-05-21T13:35:49Z</time>
      </trkpt>
      <trkpt lat="49.15058" lon="2.11031">
        <ele>101.7</ele>
        <time>2023-05-21T13:35:55Z</time>
      </trkpt>
      <trkpt lat="49.15049" lon="2.11025">
        <ele>102.1</ele>
        <time>2023-05-21T13:36:01Z</time>
      </trkpt>
      <trkpt lat="49.15043" lon="2.11022">
        <ele>102.6</ele>
        <time>2023-05-21T13:36:06Z</time>
      </trkpt>
      <trkpt lat="49.15034" lon="2.11016">
        <ele>103.3</ele>
        <time>2023-05-21T13:36:12Z</time>
      </trkpt>
      <trkpt lat="49.15027" lon="2.11015">
        <ele>103.7</ele>
        <time>2023-05-21T13:36:17Z</time>
      </trkpt>
      <trkpt lat="49.15017" lon="2.11016">
        <ele>104.2</ele>
        <time>2023-05-21T13:36:23Z</time>
      </trkpt>
      <trkpt lat="49.1501" lon="2.11017">
        <ele>104.6</ele>
        <time>2023-05-21T13:36:28Z</time>
      </trkpt>
      <trkpt lat="49.15003" lon="2.11017">
        <ele>104.9</ele>
        <time>2023-05-21T13:36:34Z</time>
      </trkpt>
      <trkpt lat="49.14995" lon="2.11018">
        <ele>105.1</ele>
        <time>2023-05-21T13:36:39Z</time>
      </trkpt>
      <trkpt lat="49.14988" lon="2.11018">
        <ele>105.1</ele>
        <time>2023-05-21T13:36:45Z</time>
      </trkpt>
      <trkpt lat="49.14979" lon="2.11019">
        <ele>105.3</ele>
        <time>2023-05-21T13:36:50Z</time>
      </trkpt>
      <trkpt lat="49.14971" lon="2.11021">
        <ele>105.6</ele>
        <time>2023-05-21T13:36:56Z</time>
      </trkpt>
      <trkpt lat="49.14963" lon="2.11023">
        <ele>105.6</ele>
        <time>2023-05-21T13:37:02Z</time>
      </trkpt>
      <trkpt lat="49.14955" lon="2.11021">
        <ele>105.6</ele>
        <time>2023-05-21T13:37:07Z</time>
      </trkpt>
      <trkpt lat="49.14946" lon="2.11022">
        <ele>105.6</ele>
        <time>2023-05-21T13:37:13Z</time>
      </trkpt>
      <trkpt lat="49.14939" lon="2.11023">
        <ele>105.7</ele>
        <time>2023-05-21T13:37:18Z</time>
      </trkpt>
      <trkpt lat="49.14931" lon="2.11022">
        <ele>106.2</ele>
        <time>2023-05-21T13:37:23Z</time>
      </trkpt>
      <trkpt lat="49.14925" lon="2.11022">
        <ele>106.5</ele>
        <time>2023-05-21T13:37:28Z</time>
      </trkpt>
      <trkpt lat="49.14916" lon="2.11022">
        <ele>106.5</ele>
        <time>2023-05-21T13:37:34Z</time>
      </trkpt>
      <trkpt lat="49.14907" lon="2.11023">
        <ele>106.5</ele>
        <time>2023-05-21T13:37:40Z</time>
      </trkpt>
      <trkpt lat="49.149" lon="2.11024">
        <ele>106.9</ele>
        <time>2023-05-21T13:37:46Z</time>
      </trkpt>
      <trkpt lat="49.14893" lon="2.11025">
        <ele>107.4</ele>
        <time>2023-05-21T13:37:52Z</time>
      </trkpt>
      <trkpt lat="49.14887" lon="2.11024">
        <ele>107.9</ele>
        <time>2023-05-21T13:37:57Z</time>
      </trkpt>
      <trkpt lat="49.14878" lon="2.11025">
        <ele>108.2</ele>
        <time>2023-05-21T13:38:03Z</time>
      </trkpt>
      <trkpt lat="49.14871" lon="2.11026">
        <ele>108.4</ele>
        <time>2023-05-21T13:38:08Z</time>
      </trkpt>
      <trkpt lat="49.14864" lon="2.11029">
        <ele>108.5</ele>
        <time>2023-05-21T13:38:14Z</time>
      </trkpt>
      <trkpt lat="49.14855" lon="2.11031">
        <ele>108.6</ele>
        <time>2023-05-21T13:38:20Z</time>
      </trkpt>
      <trkpt lat="49.14848" lon="2.11033">
        <ele>108.5</ele>
        <time>2023-05-21T13:38:25Z</time>
      </trkpt>
      <trkpt lat="49.14842" lon="2.11036">
        <ele>108.2</ele>
        <time>2023-05-21T13:38:31Z</time>
      </trkpt>
      <trkpt lat="49.14836" lon="2.11041">
        <ele>107.8</ele>
        <time>2023-05-21T13:38:36Z</time>
      </trkpt>
      <trkpt lat="49.14828" lon="2.11047">
        <ele>107.5</ele>
        <time>2023-05-21T13:38:41Z</time>
      </trkpt>
      <trkpt lat="49.14818" lon="2.11053">
        <ele>107.6</ele>
        <time>2023-05-21T13:38:47Z</time>
      </trkpt>
      <trkpt lat="49.14811" lon="2.11059">
        <ele>108</ele>
        <time>2023-05-21T13:38:52Z</time>
      </trkpt>
      <trkpt lat="49.14803" lon="2.11066">
        <ele>108.5</ele>
        <time>2023-05-21T13:38:58Z</time>
      </trkpt>
      <trkpt lat="49.14797" lon="2.11072">
        <ele>109.1</ele>
        <time>2023-05-21T13:39:04Z</time>
      </trkpt>
      <trkpt lat="49.14789" lon="2.11077">
        <ele>109.3</ele>
        <time>2023-05-21T13:39:09Z</time>
      </trkpt>
      <trkpt lat="49.14781" lon="2.11083">
        <ele>109.3</ele>
        <time>2023-05-21T13:39:14Z</time>
      </trkpt>
      <trkpt lat="49.14773" lon="2.11087">
        <ele>109.1</ele>
        <time>2023-05-21T13:39:20Z</time>
      </trkpt>
      <trkpt lat="49.14766" lon="2.11093">
        <ele>108.6</ele>
        <time>2023-05-21T13:39:26Z</time>
      </trkpt>
      <trkpt lat="49.14762" lon="2.11094">
        <ele>108.3</ele>
        <time>2023-05-21T13:39:31Z</time>
      </trkpt>
      <trkpt lat="49.14754" lon="2.11098">
        <ele>107.9</ele>
        <time>2023-05-21T13:39:37Z</time>
      </trkpt>
      <trkpt lat="49.14746" lon="2.11101">
        <ele>107.5</ele>
        <time>2023-05-21T13:39:42Z</time>
      </trkpt>
      <trkpt lat="49.1474" lon="2.11103">
        <ele>107.2</ele>
        <time>2023-05-21T13:39:47Z</time>
      </trkpt>
      <trkpt lat="49.1473" lon="2.11106">
        <ele>106.9</ele>
        <time>2023-05-21T13:39:53Z</time>
      </trkpt>
      <trkpt lat="49.14721" lon="2.11111">
        <ele>106.9</ele>
        <time>2023-05-21T13:39:58Z</time>
      </trkpt>
      <trkpt lat="49.14712" lon="2.11116">
        <ele>106.9</ele>
        <time>2023-05-21T13:40:04Z</time>
      </trkpt>
      <trkpt lat="49.14702" lon="2.11121">
        <ele>107.1</ele>
        <time>2023-05-21T13:40:10Z</time>
      </trkpt>
      <trkpt lat="49.14695" lon="2.11122">
        <ele>107.2</ele>
        <time>2023-05-21T13:40:15Z</time>
      </trkpt>
      <trkpt lat="49.14689" lon="2.11126">
        <ele>107.5</ele>
        <time>2023-05-21T13:40:20Z</time>
      </trkpt>
      <trkpt lat="49.1468" lon="2.11131">
        <ele>107.5</ele>
        <time>2023-05-21T13:40:26Z</time>
      </trkpt>
      <trkpt lat="49.14673" lon="2.11138">
        <ele>107.4</ele>
        <time>2023-05-21T13:40:31Z</time>
      </trkpt>
      <trkpt lat="49.14664" lon="2.11147">
        <ele>107.1</ele>
        <time>2023-05-21T13:40:37Z</time>
      </trkpt>
      <trkpt lat="49.14656" lon="2.11153">
        <ele>106.9</ele>
        <time>2023-05-21T13:40:42Z</time>
      </trkpt>
      <trkpt lat="49.1465" lon="2.11159">
        <ele>106.4</ele>
        <time>2023-05-21T13:40:47Z</time>
      </trkpt>
      <trkpt lat="49.14646" lon="2.11165">
        <ele>105.6</ele>
        <time>2023-05-21T13:40:53Z</time>
      </trkpt>
      <trkpt lat="49.14642" lon="2.11168">
        <ele>105.1</ele>
        <time>2023-05-21T13:40:58Z</time>
      </trkpt>
      <trkpt lat="49.14637" lon="2.11173">
        <ele>104.7</ele>
        <time>2023-05-21T13:41:04Z</time>
      </trkpt>
      <trkpt lat="49.1463" lon="2.1118">
        <ele>104.3</ele>
        <time>2023-05-21T13:41:09Z</time>
      </trkpt>
      <trkpt lat="49.14621" lon="2.11189">
        <ele>103.9</ele>
        <time>2023-05-21T13:41:15Z</time>
      </trkpt>
      <trkpt lat="49.14609" lon="2.11197">
        <ele>103.6</ele>
        <time>2023-05-21T13:41:21Z</time>
      </trkpt>
      <trkpt lat="49.14603" lon="2.11202">
        <ele>103.7</ele>
        <time>2023-05-21T13:41:26Z</time>
      </trkpt>
      <trkpt lat="49.14595" lon="2.11209">
        <ele>103.8</ele>
        <time>2023-05-21T13:41:32Z</time>
      </trkpt>
      <trkpt lat="49.1459" lon="2.11215">
        <ele>103.6</ele>
        <time>2023-05-21T13:41:38Z</time>
      </trkpt>
      <trkpt lat="49.14585" lon="2.1122">
        <ele>103.5</ele>
        <time>2023-05-21T13:41:43Z</time>
      </trkpt>
      <trkpt lat="49.14579" lon="2.11228">
        <ele>103.5</ele>
        <time>2023-05-21T13:41:49Z</time>
      </trkpt>
      <trkpt lat="49.1457" lon="2.11235">
        <ele>103.3</ele>
        <time>2023-05-21T13:41:55Z</time>
      </trkpt>
      <trkpt lat="49.14565" lon="2.11241">
        <ele>103.1</ele>
        <time>2023-05-21T13:42:00Z</time>
      </trkpt>
      <trkpt lat="49.14556" lon="2.11244">
        <ele>103.2</ele>
        <time>2023-05-21T13:42:06Z</time>
      </trkpt>
      <trkpt lat="49.14547" lon="2.11244">
        <ele>103.5</ele>
        <time>2023-05-21T13:42:11Z</time>
      </trkpt>
      <trkpt lat="49.14539" lon="2.11243">
        <ele>103.7</ele>
        <time>2023-05-21T13:42:17Z</time>
      </trkpt>
      <trkpt lat="49.14532" lon="2.1124">
        <ele>103.7</ele>
        <time>2023-05-21T13:42:23Z</time>
      </trkpt>
      <trkpt lat="49.14525" lon="2.11238">
        <ele>103.8</ele>
        <time>2023-05-21T13:42:28Z</time>
      </trkpt>
      <trkpt lat="49.14516" lon="2.11232">
        <ele>103.7</ele>
        <time>2023-05-21T13:42:34Z</time>
      </trkpt>
      <trkpt lat="49.14506" lon="2.11226">
        <ele>103.2</ele>
        <time>2023-05-21T13:42:40Z</time>
      </trkpt>
      <trkpt lat="49.14496" lon="2.1122">
        <ele>102.6</ele>
        <time>2023-05-21T13:42:46Z</time>
      </trkpt>
      <trkpt lat="49.1449" lon="2.11214">
        <ele>102.2</ele>
        <time>2023-05-21T13:42:52Z</time>
      </trkpt>
      <trkpt lat="49.14485" lon="2.1121">
        <ele>102.2</ele>
        <time>2023-05-21T13:42:57Z</time>
      </trkpt>
      <trkpt lat="49.14478" lon="2.11207">
        <ele>102.4</ele>
        <time>2023-05-21T13:43:03Z</time>
      </trkpt>
      <trkpt lat="49.14471" lon="2.11204">
        <ele>102.5</ele>
        <time>2023-05-21T13:43:08Z</time>
      </trkpt>
      <trkpt lat="49.1446" lon="2.11197">
        <ele>102.5</ele>
        <time>2023-05-21T13:43:14Z</time>
      </trkpt>
      <trkpt lat="49.14452" lon="2.11194">
        <ele>102.5</ele>
        <time>2023-05-21T13:43:19Z</time>
      </trkpt>
      <trkpt lat="49.14446" lon="2.1119">
        <ele>102.8</ele>
        <time>2023-05-21T13:43:25Z</time>
      </trkpt>
      <trkpt lat="49.14439" lon="2.11188">
        <ele>102.8</ele>
        <time>2023-05-21T13:43:30Z</time>
      </trkpt>
      <trkpt lat="49.1443" lon="2.11182">
        <ele>102.7</ele>
        <time>2023-05-21T13:43:36Z</time>
      </trkpt>
      <trkpt lat="49.14422" lon="2.11176">
        <ele>102.5</ele>
        <time>2023-05-21T13:43:41Z</time>
      </trkpt>
      <trkpt lat="49.14413" lon="2.11169">
        <ele>102.4</ele>
        <time>2023-05-21T13:43:47Z</time>
      </trkpt>
      <trkpt lat="49.1441" lon="2.11171">
        <ele>102.5</ele>
        <time>2023-05-21T13:43:53Z</time>
      </trkpt>
      <trkpt lat="49.1441" lon="2.11172">
        <ele>102.5</ele>
        <time>2023-05-21T13:43:58Z</time>
      </trkpt>
      <trkpt lat="49.1441" lon="2.11173">
        <ele>102.4</ele>
        <time>2023-05-21T13:44:03Z</time>
      </trkpt>
      <trkpt lat="49.1441" lon="2.11173">
        <ele>102.3</ele>
        <time>2023-05-21T13:44:09Z</time>
      </trkpt>
      <trkpt lat="49.1441" lon="2.11173">
        <ele>102.2</ele>
        <time>2023-05-21T13:44:14Z</time>
      </trkpt>
      <trkpt lat="49.1441" lon="2.11173">
        <ele>102.1</ele>
        <time>2023-05-21T13:44:19Z</time>
      </trkpt>
      <trkpt lat="49.14409" lon="2.11175">
        <ele>101.8</ele>
        <time>2023-05-21T13:44:25Z</time>
      </trkpt>
      <trkpt lat="49.14408" lon="2.11175">
        <ele>101.7</ele>
        <time>2023-05-21T13:44:31Z</time>
      </trkpt>
      <trkpt lat="49.14408" lon="2.11175">
        <ele>101.6</ele>
        <time>2023-05-21T13:44:36Z</time>
      </trkpt>
      <trkpt lat="49.14412" lon="2.11173">
        <ele>101</ele>
        <time>2023-05-21T13:44:42Z</time>
      </trkpt>
      <trkpt lat="49.14413" lon="2.11171">
        <ele>101</ele>
        <time>2023-05-21T13:44:48Z</time>
      </trkpt>
      <trkpt lat="49.14413" lon="2.1117">
        <ele>100.9</ele>
        <time>2023-05-21T13:44:54Z</time>
      </trkpt>
      <trkpt lat="49.14414" lon="2.1117">
        <ele>100.9</ele>
        <time>2023-05-21T13:45:00Z</time>
      </trkpt>
      <trkpt lat="49.14416" lon="2.11172">
        <ele>100.8</ele>
        <time>2023-05-21T13:45:05Z</time>
      </trkpt>
      <trkpt lat="49.14412" lon="2.11163">
        <ele>101.1</ele>
        <time>2023-05-21T13:45:11Z</time>
      </trkpt>
      <trkpt lat="49.14405" lon="2.11158">
        <ele>101.5</ele>
        <time>2023-05-21T13:45:16Z</time>
      </trkpt>
      <trkpt lat="49.14401" lon="2.11152">
        <ele>101.9</ele>
        <time>2023-05-21T13:45:22Z</time>
      </trkpt>
      <trkpt lat="49.14395" lon="2.11144">
        <ele>102.2</ele>
        <time>2023-05-21T13:45:27Z</time>
      </trkpt>
      <trkpt lat="49.14392" lon="2.11137">
        <ele>102.4</ele>
        <time>2023-05-21T13:45:32Z</time>
      </trkpt>
      <trkpt lat="49.14388" lon="2.11129">
        <ele>102.5</ele>
        <time>2023-05-21T13:45:38Z</time>
      </trkpt>
      <trkpt lat="49.14383" lon="2.11117">
        <ele>102.4</ele>
        <time>2023-05-21T13:45:44Z</time>
      </trkpt>
      <trkpt lat="49.14383" lon="2.11105">
        <ele>102.2</ele>
        <time>2023-05-21T13:45:49Z</time>
      </trkpt>
      <trkpt lat="49.14381" lon="2.11095">
        <ele>102</ele>
        <time>2023-05-21T13:45:55Z</time>
      </trkpt>
      <trkpt lat="49.1438" lon="2.11085">
        <ele>101.9</ele>
        <time>2023-05-21T13:46:00Z</time>
      </trkpt>
      <trkpt lat="49.14378" lon="2.11073">
        <ele>101.8</ele>
        <time>2023-05-21T13:46:06Z</time>
      </trkpt>
      <trkpt lat="49.14376" lon="2.11065">
        <ele>101.7</ele>
        <time>2023-05-21T13:46:11Z</time>
      </trkpt>
      <trkpt lat="49.14375" lon="2.11056">
        <ele>101.9</ele>
        <time>2023-05-21T13:46:16Z</time>
      </trkpt>
      <trkpt lat="49.14377" lon="2.11042">
        <ele>102.3</ele>
        <time>2023-05-21T13:46:22Z</time>
      </trkpt>
      <trkpt lat="49.14377" lon="2.11032">
        <ele>102.6</ele>
        <time>2023-05-21T13:46:28Z</time>
      </trkpt>
      <trkpt lat="49.14377" lon="2.11021">
        <ele>102.5</ele>
        <time>2023-05-21T13:46:33Z</time>
      </trkpt>
      <trkpt lat="49.14376" lon="2.11009">
        <ele>102.6</ele>
        <time>2023-05-21T13:46:39Z</time>
      </trkpt>
      <trkpt lat="49.14377" lon="2.10996">
        <ele>102.8</ele>
        <time>2023-05-21T13:46:45Z</time>
      </trkpt>
      <trkpt lat="49.14378" lon="2.10981">
        <ele>102.8</ele>
        <time>2023-05-21T13:46:51Z</time>
      </trkpt>
      <trkpt lat="49.14379" lon="2.10972">
        <ele>102.5</ele>
        <time>2023-05-21T13:46:56Z</time>
      </trkpt>
      <trkpt lat="49.14379" lon="2.10961">
        <ele>102.4</ele>
        <time>2023-05-21T13:47:02Z</time>
      </trkpt>
      <trkpt lat="49.14381" lon="2.10952">
        <ele>102.6</ele>
        <time>2023-05-21T13:47:07Z</time>
      </trkpt>
      <trkpt lat="49.14384" lon="2.10942">
        <ele>102.7</ele>
        <time>2023-05-21T13:47:12Z</time>
      </trkpt>
      <trkpt lat="49.14388" lon="2.10931">
        <ele>102.8</ele>
        <time>2023-05-21T13:47:18Z</time>
      </trkpt>
      <trkpt lat="49.14391" lon="2.10922">
        <ele>102.8</ele>
        <time>2023-05-21T13:47:24Z</time>
      </trkpt>
      <trkpt lat="49.14393" lon="2.10913">
        <ele>102.7</ele>
        <time>2023-05-21T13:47:29Z</time>
      </trkpt>
      <trkpt lat="49.144" lon="2.10902">
        <ele>102.6</ele>
        <time>2023-05-21T13:47:35Z</time>
      </trkpt>
      <trkpt lat="49.14405" lon="2.10891">
        <ele>102.2</ele>
        <time>2023-05-21T13:47:41Z</time>
      </trkpt>
      <trkpt lat="49.14407" lon="2.1088">
        <ele>101.7</ele>
        <time>2023-05-21T13:47:46Z</time>
      </trkpt>
      <trkpt lat="49.14407" lon="2.1087">
        <ele>101.4</ele>
        <time>2023-05-21T13:47:51Z</time>
      </trkpt>
      <trkpt lat="49.14403" lon="2.10855">
        <ele>100.9</ele>
        <time>2023-05-21T13:47:57Z</time>
      </trkpt>
      <trkpt lat="49.14397" lon="2.10846">
        <ele>100.2</ele>
        <time>2023-05-21T13:48:02Z</time>
      </trkpt>
      <trkpt lat="49.14388" lon="2.10839">
        <ele>99.4</ele>
        <time>2023-05-21T13:48:08Z</time>
      </trkpt>
      <trkpt lat="49.14377" lon="2.10837">
        <ele>99.2</ele>
        <time>2023-05-21T13:48:14Z</time>
      </trkpt>
      <trkpt lat="49.1437" lon="2.10839">
        <ele>99</ele>
        <time>2023-05-21T13:48:19Z</time>
      </trkpt>
      <trkpt lat="49.14362" lon="2.10838">
        <ele>98.8</ele>
        <time>2023-05-21T13:48:25Z</time>
      </trkpt>
      <trkpt lat="49.14352" lon="2.10842">
        <ele>98.6</ele>
        <time>2023-05-21T13:48:31Z</time>
      </trkpt>
      <trkpt lat="49.14341" lon="2.10845">
        <ele>98.4</ele>
        <time>2023-05-21T13:48:37Z</time>
      </trkpt>
      <trkpt lat="49.14331" lon="2.10845">
        <ele>98.3</ele>
        <time>2023-05-21T13:48:43Z</time>
      </trkpt>
      <trkpt lat="49.14327" lon="2.10848">
        <ele>98.2</ele>
        <time>2023-05-21T13:48:48Z</time>
      </trkpt>
      <trkpt lat="49.14327" lon="2.10854">
        <ele>97.9</ele>
        <time>2023-05-21T13:48:53Z</time>
      </trkpt>
      <trkpt lat="49.14328" lon="2.10865">
        <ele>97.2</ele>
        <time>2023-05-21T13:48:59Z</time>
      </trkpt>
      <trkpt lat="49.14328" lon="2.10874">
        <ele>96.6</ele>
        <time>2023-05-21T13:49:05Z</time>
      </trkpt>
      <trkpt lat="49.14325" lon="2.10885">
        <ele>96.5</ele>
        <time>2023-05-21T13:49:10Z</time>
      </trkpt>
      <trkpt lat="49.14321" lon="2.10898">
        <ele>96.2</ele>
        <time>2023-05-21T13:49:16Z</time>
      </trkpt>
      <trkpt lat="49.14316" lon="2.10909">
        <ele>96.1</ele>
        <time>2023-05-21T13:49:21Z</time>
      </trkpt>
      <trkpt lat="49.14314" lon="2.10917">
        <ele>96.2</ele>
        <time>2023-05-21T13:49:26Z</time>
      </trkpt>
      <trkpt lat="49.14314" lon="2.10925">
        <ele>96.5</ele>
        <time>2023-05-21T13:49:31Z</time>
      </trkpt>
      <trkpt lat="49.14311" lon="2.10939">
        <ele>97</ele>
        <time>2023-05-21T13:49:37Z</time>
      </trkpt>
      <trkpt lat="49.14305" lon="2.10947">
        <ele>97.4</ele>
        <time>2023-05-21T13:49:42Z</time>
      </trkpt>
      <trkpt lat="49.14304" lon="2.10958">
        <ele>97.8</ele>
        <time>2023-05-21T13:49:48Z</time>
      </trkpt>
      <trkpt lat="49.14305" lon="2.10965">
        <ele>97.9</ele>
        <time>2023-05-21T13:49:53Z</time>
      </trkpt>
      <trkpt lat="49.143" lon="2.10979">
        <ele>98.3</ele>
        <time>2023-05-21T13:49:59Z</time>
      </trkpt>
      <trkpt lat="49.14295" lon="2.10993">
        <ele>98.4</ele>
        <time>2023-05-21T13:50:05Z</time>
      </trkpt>
      <trkpt lat="49.14293" lon="2.11003">
        <ele>98.7</ele>
        <time>2023-05-21T13:50:10Z</time>
      </trkpt>
      <trkpt lat="49.1429" lon="2.11012">
        <ele>99.3</ele>
        <time>2023-05-21T13:50:15Z</time>
      </trkpt>
      <trkpt lat="49.14285" lon="2.11023">
        <ele>100.3</ele>
        <time>2023-05-21T13:50:21Z</time>
      </trkpt>
      <trkpt lat="49.14281" lon="2.11034">
        <ele>101.3</ele>
        <time>2023-05-21T13:50:27Z</time>
      </trkpt>
      <trkpt lat="49.14278" lon="2.11047">
        <ele>101.8</ele>
        <time>2023-05-21T13:50:33Z</time>
      </trkpt>
      <trkpt lat="49.14272" lon="2.11058">
        <ele>102</ele>
        <time>2023-05-21T13:50:39Z</time>
      </trkpt>
      <trkpt lat="49.14269" lon="2.11066">
        <ele>102.2</ele>
        <time>2023-05-21T13:50:44Z</time>
      </trkpt>
      <trkpt lat="49.14265" lon="2.11075">
        <ele>102.6</ele>
        <time>2023-05-21T13:50:49Z</time>
      </trkpt>
      <trkpt lat="49.14258" lon="2.11082">
        <ele>103</ele>
        <time>2023-05-21T13:50:55Z</time>
      </trkpt>
      <trkpt lat="49.14252" lon="2.11089">
        <ele>103.1</ele>
        <time>2023-05-21T13:51:00Z</time>
      </trkpt>
      <trkpt lat="49.14251" lon="2.11093">
        <ele>103</ele>
        <time>2023-05-21T13:51:06Z</time>
      </trkpt>
      <trkpt lat="49.14252" lon="2.11094">
        <ele>103</ele>
        <time>2023-05-21T13:51:11Z</time>
      </trkpt>
      <trkpt lat="49.14251" lon="2.11096">
        <ele>102.6</ele>
        <time>2023-05-21T13:51:16Z</time>
      </trkpt>
      <trkpt lat="49.14248" lon="2.11104">
        <ele>102.2</ele>
        <time>2023-05-21T13:51:22Z</time>
      </trkpt>
      <trkpt lat="49.14245" lon="2.1111">
        <ele>102</ele>
        <time>2023-05-21T13:51:27Z</time>
      </trkpt>
      <trkpt lat="49.14239" lon="2.1112">
        <ele>101.3</ele>
        <time>2023-05-21T13:51:33Z</time>
      </trkpt>
      <trkpt lat="49.14233" lon="2.11126">
        <ele>100.7</ele>
        <time>2023-05-21T13:51:39Z</time>
      </trkpt>
      <trkpt lat="49.14228" lon="2.11132">
        <ele>100.3</ele>
        <time>2023-05-21T13:51:44Z</time>
      </trkpt>
      <trkpt lat="49.14218" lon="2.11139">
        <ele>99.7</ele>
        <time>2023-05-21T13:51:50Z</time>
      </trkpt>
      <trkpt lat="49.14218" lon="2.11149">
        <ele>99</ele>
        <time>2023-05-21T13:51:56Z</time>
      </trkpt>
      <trkpt lat="49.14215" lon="2.1116">
        <ele>98.5</ele>
        <time>2023-05-21T13:52:01Z</time>
      </trkpt>
      <trkpt lat="49.14208" lon="2.11169">
        <ele>98.2</ele>
        <time>2023-05-21T13:52:07Z</time>
      </trkpt>
      <trkpt lat="49.14205" lon="2.11174">
        <ele>98.3</ele>
        <time>2023-05-21T13:52:12Z</time>
      </trkpt>
      <trkpt lat="49.14199" lon="2.11184">
        <ele>98.4</ele>
        <time>2023-05-21T13:52:17Z</time>
      </trkpt>
      <trkpt lat="49.14192" lon="2.11193">
        <ele>98.7</ele>
        <time>2023-05-21T13:52:23Z</time>
      </trkpt>
      <trkpt lat="49.14187" lon="2.11199">
        <ele>99.2</ele>
        <time>2023-05-21T13:52:28Z</time>
      </trkpt>
      <trkpt lat="49.14185" lon="2.11208">
        <ele>99.7</ele>
        <time>2023-05-21T13:52:34Z</time>
      </trkpt>
      <trkpt lat="49.14183" lon="2.11216">
        <ele>99.7</ele>
        <time>2023-05-21T13:52:39Z</time>
      </trkpt>
      <trkpt lat="49.14181" lon="2.11226">
        <ele>98.6</ele>
        <time>2023-05-21T13:52:45Z</time>
      </trkpt>
      <trkpt lat="49.14172" lon="2.11233">
        <ele>97.7</ele>
        <time>2023-05-21T13:52:51Z</time>
      </trkpt>
      <trkpt lat="49.14166" lon="2.11237">
        <ele>97.5</ele>
        <time>2023-05-21T13:52:56Z</time>
      </trkpt>
      <trkpt lat="49.14159" lon="2.11247">
        <ele>97.5</ele>
        <time>2023-05-21T13:53:02Z</time>
      </trkpt>
      <trkpt lat="49.14151" lon="2.11252">
        <ele>98</ele>
        <time>2023-05-21T13:53:08Z</time>
      </trkpt>
      <trkpt lat="49.14148" lon="2.11256">
        <ele>98.6</ele>
        <time>2023-05-21T13:53:14Z</time>
      </trkpt>
      <trkpt lat="49.14144" lon="2.11265">
        <ele>99.5</ele>
        <time>2023-05-21T13:53:20Z</time>
      </trkpt>
      <trkpt lat="49.1414" lon="2.11272">
        <ele>99.9</ele>
        <time>2023-05-21T13:53:26Z</time>
      </trkpt>
      <trkpt lat="49.14136" lon="2.11279">
        <ele>100.3</ele>
        <time>2023-05-21T13:53:32Z</time>
      </trkpt>
      <trkpt lat="49.14133" lon="2.11289">
        <ele>100.7</ele>
        <time>2023-05-21T13:53:37Z</time>
      </trkpt>
      <trkpt lat="49.14126" lon="2.11299">
        <ele>100.9</ele>
        <time>2023-05-21T13:53:42Z</time>
      </trkpt>
      <trkpt lat="49.14125" lon="2.11308">
        <ele>100.8</ele>
        <time>2023-05-21T13:53:47Z</time>
      </trkpt>
      <trkpt lat="49.14125" lon="2.11315">
        <ele>100.8</ele>
        <time>2023-05-21T13:53:52Z</time>
      </trkpt>
      <trkpt lat="49.14124" lon="2.11317">
        <ele>100.7</ele>
        <time>2023-05-21T13:53:58Z</time>
      </trkpt>
      <trkpt lat="49.14125" lon="2.11319">
        <ele>100.6</ele>
        <time>2023-05-21T13:54:03Z</time>
      </trkpt>
      <trkpt lat="49.14125" lon="2.1132">
        <ele>100.6</ele>
        <time>2023-05-21T13:54:08Z</time>
      </trkpt>
      <trkpt lat="49.14126" lon="2.11321">
        <ele>100.6</ele>
        <time>2023-05-21T13:54:14Z</time>
      </trkpt>
      <trkpt lat="49.14126" lon="2.11321">
        <ele>100.6</ele>
        <time>2023-05-21T13:54:19Z</time>
      </trkpt>
      <trkpt lat="49.14126" lon="2.11321">
        <ele>100.6</ele>
        <time>2023-05-21T13:54:25Z</time>
      </trkpt>
      <trkpt lat="49.14126" lon="2.1132">
        <ele>100.7</ele>
        <time>2023-05-21T13:54:30Z</time>
      </trkpt>
      <trkpt lat="49.14127" lon="2.11319">
        <ele>100.7</ele>
        <time>2023-05-21T13:54:35Z</time>
      </trkpt>
      <trkpt lat="49.14128" lon="2.11318">
        <ele>100.4</ele>
        <time>2023-05-21T13:54:41Z</time>
      </trkpt>
      <trkpt lat="49.14129" lon="2.11317">
        <ele>100.4</ele>
        <time>2023-05-21T13:54:46Z</time>
      </trkpt>
      <trkpt lat="49.14129" lon="2.11317">
        <ele>100.3</ele>
        <time>2023-05-21T13:54:52Z</time>
      </trkpt>
      <trkpt lat="49.1413" lon="2.11316">
        <ele>100</ele>
        <time>2023-05-21T13:54:58Z</time>
      </trkpt>
      <trkpt lat="49.1413" lon="2.11318">
        <ele>100</ele>
        <time>2023-05-21T13:55:04Z</time>
      </trkpt>
      <trkpt lat="49.1413" lon="2.11318">
        <ele>99.9</ele>
        <time>2023-05-21T13:55:10Z</time>
      </trkpt>
      <trkpt lat="49.1413" lon="2.11319">
        <ele>99.9</ele>
        <time>2023-05-21T13:55:15Z</time>
      </trkpt>
      <trkpt lat="49.1413" lon="2.11319">
        <ele>100</ele>
        <time>2023-05-21T13:55:21Z</time>
      </trkpt>
      <trkpt lat="49.14129" lon="2.11318">
        <ele>100.1</ele>
        <time>2023-05-21T13:55:27Z</time>
      </trkpt>
      <trkpt lat="49.14126" lon="2.11319">
        <ele>100.3</ele>
        <time>2023-05-21T13:55:33Z</time>
      </trkpt>
      <trkpt lat="49.14116" lon="2.11326">
        <ele>100.4</ele>
        <time>2023-05-21T13:55:39Z</time>
      </trkpt>
      <trkpt lat="49.14108" lon="2.11332">
        <ele>100.4</ele>
        <time>2023-05-21T13:55:45Z</time>
      </trkpt>
      <trkpt lat="49.14101" lon="2.1134">
        <ele>100.6</ele>
        <time>2023-05-21T13:55:51Z</time>
      </trkpt>
      <trkpt lat="49.14097" lon="2.11346">
        <ele>100.9</ele>
        <time>2023-05-21T13:55:56Z</time>
      </trkpt>
      <trkpt lat="49.1409" lon="2.11354">
        <ele>101.7</ele>
        <time>2023-05-21T13:56:02Z</time>
      </trkpt>
      <trkpt lat="49.14084" lon="2.11362">
        <ele>102.9</ele>
        <time>2023-05-21T13:56:08Z</time>
      </trkpt>
      <trkpt lat="49.14078" lon="2.11368">
        <ele>103.8</ele>
        <time>2023-05-21T13:56:13Z</time>
      </trkpt>
      <trkpt lat="49.14072" lon="2.11376">
        <ele>104.6</ele>
        <time>2023-05-21T13:56:18Z</time>
      </trkpt>
      <trkpt lat="49.14065" lon="2.11385">
        <ele>105.3</ele>
        <time>2023-05-21T13:56:23Z</time>
      </trkpt>
      <trkpt lat="49.14062" lon="2.11393">
        <ele>105.6</ele>
        <time>2023-05-21T13:56:28Z</time>
      </trkpt>
      <trkpt lat="49.14055" lon="2.11403">
        <ele>105.8</ele>
        <time>2023-05-21T13:56:34Z</time>
      </trkpt>
      <trkpt lat="49.14051" lon="2.1141">
        <ele>105.9</ele>
        <time>2023-05-21T13:56:40Z</time>
      </trkpt>
      <trkpt lat="49.14046" lon="2.11416">
        <ele>105.9</ele>
        <time>2023-05-21T13:56:46Z</time>
      </trkpt>
      <trkpt lat="49.14044" lon="2.11421">
        <ele>105.7</ele>
        <time>2023-05-21T13:56:51Z</time>
      </trkpt>
      <trkpt lat="49.1404" lon="2.11429">
        <ele>105.4</ele>
        <time>2023-05-21T13:56:56Z</time>
      </trkpt>
      <trkpt lat="49.14036" lon="2.11439">
        <ele>104.8</ele>
        <time>2023-05-21T13:57:02Z</time>
      </trkpt>
      <trkpt lat="49.14032" lon="2.11444">
        <ele>104.3</ele>
        <time>2023-05-21T13:57:07Z</time>
      </trkpt>
      <trkpt lat="49.1403" lon="2.11439">
        <ele>103.6</ele>
        <time>2023-05-21T13:57:12Z</time>
      </trkpt>
      <trkpt lat="49.14028" lon="2.11428">
        <ele>102.6</ele>
        <time>2023-05-21T13:57:17Z</time>
      </trkpt>
      <trkpt lat="49.14026" lon="2.11419">
        <ele>101.2</ele>
        <time>2023-05-21T13:57:23Z</time>
      </trkpt>
      <trkpt lat="49.1402" lon="2.11411">
        <ele>100.1</ele>
        <time>2023-05-21T13:57:29Z</time>
      </trkpt>
      <trkpt lat="49.14014" lon="2.11401">
        <ele>99.1</ele>
        <time>2023-05-21T13:57:35Z</time>
      </trkpt>
      <trkpt lat="49.14011" lon="2.11394">
        <ele>98.4</ele>
        <time>2023-05-21T13:57:40Z</time>
      </trkpt>
      <trkpt lat="49.14008" lon="2.11384">
        <ele>97.8</ele>
        <time>2023-05-21T13:57:46Z</time>
      </trkpt>
      <trkpt lat="49.14003" lon="2.11373">
        <ele>97.4</ele>
        <time>2023-05-21T13:57:52Z</time>
      </trkpt>
      <trkpt lat="49.14001" lon="2.11367">
        <ele>97.1</ele>
        <time>2023-05-21T13:57:57Z</time>
      </trkpt>
      <trkpt lat="49.13998" lon="2.11358">
        <ele>96.8</ele>
        <time>2023-05-21T13:58:02Z</time>
      </trkpt>
      <trkpt lat="49.13995" lon="2.11347">
        <ele>96.4</ele>
        <time>2023-05-21T13:58:08Z</time>
      </trkpt>
      <trkpt lat="49.13991" lon="2.11341">
        <ele>96.2</ele>
        <time>2023-05-21T13:58:13Z</time>
      </trkpt>
      <trkpt lat="49.13986" lon="2.11332">
        <ele>96.1</ele>
        <time>2023-05-21T13:58:18Z</time>
      </trkpt>
      <trkpt lat="49.13981" lon="2.11324">
        <ele>95.9</ele>
        <time>2023-05-21T13:58:24Z</time>
      </trkpt>
      <trkpt lat="49.13979" lon="2.11315">
        <ele>95.8</ele>
        <time>2023-05-21T13:58:29Z</time>
      </trkpt>
      <trkpt lat="49.13976" lon="2.11307">
        <ele>95.5</ele>
        <time>2023-05-21T13:58:34Z</time>
      </trkpt>
      <trkpt lat="49.13973" lon="2.11296">
        <ele>95.2</ele>
        <time>2023-05-21T13:58:40Z</time>
      </trkpt>
      <trkpt lat="49.1397" lon="2.11287">
        <ele>95.1</ele>
        <time>2023-05-21T13:58:45Z</time>
      </trkpt>
      <trkpt lat="49.13968" lon="2.11276">
        <ele>94.9</ele>
        <time>2023-05-21T13:58:51Z</time>
      </trkpt>
      <trkpt lat="49.13963" lon="2.1127">
        <ele>95</ele>
        <time>2023-05-21T13:58:56Z</time>
      </trkpt>
      <trkpt lat="49.13958" lon="2.1126">
        <ele>95</ele>
        <time>2023-05-21T13:59:02Z</time>
      </trkpt>
      <trkpt lat="49.13955" lon="2.11253">
        <ele>95</ele>
        <time>2023-05-21T13:59:07Z</time>
      </trkpt>
      <trkpt lat="49.1395" lon="2.11245">
        <ele>95</ele>
        <time>2023-05-21T13:59:12Z</time>
      </trkpt>
      <trkpt lat="49.13946" lon="2.11236">
        <ele>95.2</ele>
        <time>2023-05-21T13:59:18Z</time>
      </trkpt>
      <trkpt lat="49.13942" lon="2.11227">
        <ele>95.2</ele>
        <time>2023-05-21T13:59:24Z</time>
      </trkpt>
      <trkpt lat="49.13941" lon="2.11219">
        <ele>95.4</ele>
        <time>2023-05-21T13:59:29Z</time>
      </trkpt>
      <trkpt lat="49.13937" lon="2.11223">
        <ele>95.7</ele>
        <time>2023-05-21T13:59:35Z</time>
      </trkpt>
      <trkpt lat="49.13927" lon="2.11231">
        <ele>95.7</ele>
        <time>2023-05-21T13:59:41Z</time>
      </trkpt>
      <trkpt lat="49.13916" lon="2.11233">
        <ele>96.1</ele>
        <time>2023-05-21T13:59:47Z</time>
      </trkpt>
      <trkpt lat="49.1391" lon="2.11237">
        <ele>96.6</ele>
        <time>2023-05-21T13:59:53Z</time>
      </trkpt>
      <trkpt lat="49.13901" lon="2.11243">
        <ele>97.1</ele>
        <time>2023-05-21T13:59:58Z</time>
      </trkpt>
      <trkpt lat="49.13894" lon="2.11248">
        <ele>97.7</ele>
        <time>2023-05-21T14:00:04Z</time>
      </trkpt>
      <trkpt lat="49.13889" lon="2.11254">
        <ele>98.1</ele>
        <time>2023-05-21T14:00:09Z</time>
      </trkpt>
      <trkpt lat="49.13881" lon="2.11262">
        <ele>98.5</ele>
        <time>2023-05-21T14:00:15Z</time>
      </trkpt>
      <trkpt lat="49.1388" lon="2.11274">
        <ele>98.4</ele>
        <time>2023-05-21T14:00:21Z</time>
      </trkpt>
      <trkpt lat="49.13875" lon="2.11281">
        <ele>98.3</ele>
        <time>2023-05-21T14:00:26Z</time>
      </trkpt>
      <trkpt lat="49.13872" lon="2.1129">
        <ele>98.3</ele>
        <time>2023-05-21T14:00:32Z</time>
      </trkpt>
      <trkpt lat="49.13869" lon="2.11301">
        <ele>98.2</ele>
        <time>2023-05-21T14:00:38Z</time>
      </trkpt>
      <trkpt lat="49.13868" lon="2.11309">
        <ele>97.9</ele>
        <time>2023-05-21T14:00:43Z</time>
      </trkpt>
      <trkpt lat="49.13864" lon="2.11314">
        <ele>97.7</ele>
        <time>2023-05-21T14:00:49Z</time>
      </trkpt>
      <trkpt lat="49.1386" lon="2.11315">
        <ele>97.7</ele>
        <time>2023-05-21T14:00:54Z</time>
      </trkpt>
      <trkpt lat="49.13855" lon="2.11313">
        <ele>97.5</ele>
        <time>2023-05-21T14:01:00Z</time>
      </trkpt>
      <trkpt lat="49.13855" lon="2.11312">
        <ele>97.6</ele>
        <time>2023-05-21T14:01:05Z</time>
      </trkpt>
      <trkpt lat="49.13853" lon="2.11313">
        <ele>97.6</ele>
        <time>2023-05-21T14:01:10Z</time>
      </trkpt>
      <trkpt lat="49.13848" lon="2.11312">
        <ele>97.8</ele>
        <time>2023-05-21T14:01:16Z</time>
      </trkpt>
      <trkpt lat="49.13846" lon="2.11312">
        <ele>98.2</ele>
        <time>2023-05-21T14:01:22Z</time>
      </trkpt>
      <trkpt lat="49.13842" lon="2.1131">
        <ele>98.6</ele>
        <time>2023-05-21T14:01:28Z</time>
      </trkpt>
      <trkpt lat="49.13837" lon="2.1131">
        <ele>99.1</ele>
        <time>2023-05-21T14:01:34Z</time>
      </trkpt>
      <trkpt lat="49.13835" lon="2.11304">
        <ele>99.4</ele>
        <time>2023-05-21T14:01:39Z</time>
      </trkpt>
      <trkpt lat="49.13834" lon="2.11299">
        <ele>100.1</ele>
        <time>2023-05-21T14:01:45Z</time>
      </trkpt>
      <trkpt lat="49.13832" lon="2.11294">
        <ele>100.5</ele>
        <time>2023-05-21T14:01:50Z</time>
      </trkpt>
      <trkpt lat="49.13827" lon="2.11294">
        <ele>101.3</ele>
        <time>2023-05-21T14:01:56Z</time>
      </trkpt>
      <trkpt lat="49.13824" lon="2.11288">
        <ele>101.9</ele>
        <time>2023-05-21T14:02:01Z</time>
      </trkpt>
      <trkpt lat="49.13826" lon="2.11279">
        <ele>102.8</ele>
        <time>2023-05-21T14:02:06Z</time>
      </trkpt>
      <trkpt lat="49.13825" lon="2.11277">
        <ele>103.3</ele>
        <time>2023-05-21T14:02:12Z</time>
      </trkpt>
      <trkpt lat="49.13825" lon="2.11277">
        <ele>104.3</ele>
        <time>2023-05-21T14:02:17Z</time>
      </trkpt>
      <trkpt lat="49.13825" lon="2.11276">
        <ele>104.7</ele>
        <time>2023-05-21T14:02:23Z</time>
      </trkpt>
      <trkpt lat="49.13825" lon="2.11277">
        <ele>105.1</ele>
        <time>2023-05-21T14:02:28Z</time>
      </trkpt>
      <trkpt lat="49.13825" lon="2.11276">
        <ele>105.1</ele>
        <time>2023-05-21T14:02:33Z</time>
      </trkpt>
      <trkpt lat="49.13825" lon="2.11276">
        <ele>105.2</ele>
        <time>2023-05-21T14:02:39Z</time>
      </trkpt>
      <trkpt lat="49.13825" lon="2.11276">
        <ele>105.4</ele>
        <time>2023-05-21T14:02:45Z</time>
      </trkpt>
      <trkpt lat="49.13826" lon="2.11275">
        <ele>105.6</ele>
        <time>2023-05-21T14:02:51Z</time>
      </trkpt>
      <trkpt lat="49.13826" lon="2.11275">
        <ele>105.9</ele>
        <time>2023-05-21T14:02:57Z</time>
      </trkpt>
      <trkpt lat="49.13826" lon="2.11276">
        <ele>106.1</ele>
        <time>2023-05-21T14:03:02Z</time>
      </trkpt>
      <trkpt lat="49.13826" lon="2.11278">
        <ele>106.2</ele>
        <time>2023-05-21T14:03:08Z</time>
      </trkpt>
      <trkpt lat="49.13825" lon="2.11278">
        <ele>106.3</ele>
        <time>2023-05-21T14:03:14Z</time>
      </trkpt>
      <trkpt lat="49.13825" lon="2.11279">
        <ele>106.4</ele>
        <time>2023-05-21T14:03:20Z</time>
      </trkpt>
      <trkpt lat="49.13825" lon="2.11279">
        <ele>106.9</ele>
        <time>2023-05-21T14:03:25Z</time>
      </trkpt>
      <trkpt lat="49.13823" lon="2.11276">
        <ele>107.8</ele>
        <time>2023-05-21T14:03:30Z</time>
      </trkpt>
      <trkpt lat="49.13822" lon="2.11275">
        <ele>107.9</ele>
        <time>2023-05-21T14:03:36Z</time>
      </trkpt>
      <trkpt lat="49.13823" lon="2.11273">
        <ele>108.4</ele>
        <time>2023-05-21T14:03:42Z</time>
      </trkpt>
      <trkpt lat="49.13827" lon="2.11275">
        <ele>109.3</ele>
        <time>2023-05-21T14:03:48Z</time>
      </trkpt>
      <trkpt lat="49.13829" lon="2.11275">
        <ele>109.8</ele>
        <time>2023-05-21T14:03:54Z</time>
      </trkpt>
      <trkpt lat="49.13832" lon="2.1127">
        <ele>110.2</ele>
        <time>2023-05-21T14:03:59Z</time>
      </trkpt>
      <trkpt lat="49.13837" lon="2.11266">
        <ele>110.7</ele>
        <time>2023-05-21T14:04:04Z</time>
      </trkpt>
      <trkpt lat="49.13841" lon="2.11259">
        <ele>111.2</ele>
        <time>2023-05-21T14:04:09Z</time>
      </trkpt>
      <trkpt lat="49.13843" lon="2.11252">
        <ele>111.6</ele>
        <time>2023-05-21T14:04:14Z</time>
      </trkpt>
      <trkpt lat="49.13846" lon="2.11246">
        <ele>111.9</ele>
        <time>2023-05-21T14:04:20Z</time>
      </trkpt>
      <trkpt lat="49.13849" lon="2.1124">
        <ele>112.2</ele>
        <time>2023-05-21T14:04:26Z</time>
      </trkpt>
      <trkpt lat="49.13852" lon="2.11231">
        <ele>112.1</ele>
        <time>2023-05-21T14:04:31Z</time>
      </trkpt>
      <trkpt lat="49.13855" lon="2.11219">
        <ele>112</ele>
        <time>2023-05-21T14:04:37Z</time>
      </trkpt>
      <trkpt lat="49.13856" lon="2.11211">
        <ele>111.4</ele>
        <time>2023-05-21T14:04:42Z</time>
      </trkpt>
      <trkpt lat="49.13857" lon="2.11202">
        <ele>110.6</ele>
        <time>2023-05-21T14:04:48Z</time>
      </trkpt>
      <trkpt lat="49.13856" lon="2.11194">
        <ele>110</ele>
        <time>2023-05-21T14:04:53Z</time>
      </trkpt>
      <trkpt lat="49.13856" lon="2.11187">
        <ele>109.4</ele>
        <time>2023-05-21T14:04:59Z</time>
      </trkpt>
      <trkpt lat="49.13858" lon="2.1118">
        <ele>108.7</ele>
        <time>2023-05-21T14:05:05Z</time>
      </trkpt>
      <trkpt lat="49.13863" lon="2.11174">
        <ele>108.2</ele>
        <time>2023-05-21T14:05:10Z</time>
      </trkpt>
      <trkpt lat="49.13867" lon="2.11165">
        <ele>107.7</ele>
        <time>2023-05-21T14:05:15Z</time>
      </trkpt>
      <trkpt lat="49.13863" lon="2.11156">
        <ele>107.4</ele>
        <time>2023-05-21T14:05:21Z</time>
      </trkpt>
      <trkpt lat="49.13856" lon="2.11143">
        <ele>106.8</ele>
        <time>2023-05-21T14:05:27Z</time>
      </trkpt>
      <trkpt lat="49.13852" lon="2.11136">
        <ele>106.4</ele>
        <time>2023-05-21T14:05:32Z</time>
      </trkpt>
      <trkpt lat="49.13849" lon="2.11129">
        <ele>105.8</ele>
        <time>2023-05-21T14:05:37Z</time>
      </trkpt>
      <trkpt lat="49.13843" lon="2.11119">
        <ele>105.4</ele>
        <time>2023-05-21T14:05:43Z</time>
      </trkpt>
      <trkpt lat="49.13839" lon="2.11112">
        <ele>105.2</ele>
        <time>2023-05-21T14:05:48Z</time>
      </trkpt>
      <trkpt lat="49.13833" lon="2.11106">
        <ele>104.9</ele>
        <time>2023-05-21T14:05:54Z</time>
      </trkpt>
      <trkpt lat="49.13826" lon="2.11099">
        <ele>104.6</ele>
        <time>2023-05-21T14:06:00Z</time>
      </trkpt>
      <trkpt lat="49.13822" lon="2.11093">
        <ele>104.4</ele>
        <time>2023-05-21T14:06:05Z</time>
      </trkpt>
      <trkpt lat="49.13817" lon="2.11082">
        <ele>104.1</ele>
        <time>2023-05-21T14:06:11Z</time>
      </trkpt>
      <trkpt lat="49.13814" lon="2.11075">
        <ele>103.8</ele>
        <time>2023-05-21T14:06:16Z</time>
      </trkpt>
      <trkpt lat="49.13809" lon="2.11068">
        <ele>103.5</ele>
        <time>2023-05-21T14:06:22Z</time>
      </trkpt>
      <trkpt lat="49.13805" lon="2.11061">
        <ele>103.2</ele>
        <time>2023-05-21T14:06:28Z</time>
      </trkpt>
      <trkpt lat="49.138" lon="2.11056">
        <ele>102.8</ele>
        <time>2023-05-21T14:06:34Z</time>
      </trkpt>
      <trkpt lat="49.13794" lon="2.11051">
        <ele>102.5</ele>
        <time>2023-05-21T14:06:39Z</time>
      </trkpt>
      <trkpt lat="49.13789" lon="2.11046">
        <ele>102</ele>
        <time>2023-05-21T14:06:44Z</time>
      </trkpt>
      <trkpt lat="49.13785" lon="2.1104">
        <ele>101.3</ele>
        <time>2023-05-21T14:06:50Z</time>
      </trkpt>
      <trkpt lat="49.13782" lon="2.11037">
        <ele>100.8</ele>
        <time>2023-05-21T14:06:55Z</time>
      </trkpt>
      <trkpt lat="49.13773" lon="2.11029">
        <ele>100.3</ele>
        <time>2023-05-21T14:07:01Z</time>
      </trkpt>
      <trkpt lat="49.13768" lon="2.11024">
        <ele>100.3</ele>
        <time>2023-05-21T14:07:06Z</time>
      </trkpt>
      <trkpt lat="49.13763" lon="2.11019">
        <ele>100.5</ele>
        <time>2023-05-21T14:07:11Z</time>
      </trkpt>
      <trkpt lat="49.13759" lon="2.11014">
        <ele>100.8</ele>
        <time>2023-05-21T14:07:16Z</time>
      </trkpt>
      <trkpt lat="49.13754" lon="2.11006">
        <ele>101.5</ele>
        <time>2023-05-21T14:07:22Z</time>
      </trkpt>
      <trkpt lat="49.13751" lon="2.11001">
        <ele>102.5</ele>
        <time>2023-05-21T14:07:28Z</time>
      </trkpt>
      <trkpt lat="49.13746" lon="2.10995">
        <ele>103</ele>
        <time>2023-05-21T14:07:33Z</time>
      </trkpt>
      <trkpt lat="49.13741" lon="2.10987">
        <ele>103.4</ele>
        <time>2023-05-21T14:07:39Z</time>
      </trkpt>
      <trkpt lat="49.13737" lon="2.10978">
        <ele>103.9</ele>
        <time>2023-05-21T14:07:45Z</time>
      </trkpt>
      <trkpt lat="49.13732" lon="2.10971">
        <ele>104.3</ele>
        <time>2023-05-21T14:07:51Z</time>
      </trkpt>
      <trkpt lat="49.13726" lon="2.10966">
        <ele>104.7</ele>
        <time>2023-05-21T14:07:57Z</time>
      </trkpt>
      <trkpt lat="49.13724" lon="2.10962">
        <ele>104.8</ele>
        <time>2023-05-21T14:08:03Z</time>
      </trkpt>
      <trkpt lat="49.13722" lon="2.10959">
        <ele>105</ele>
        <time>2023-05-21T14:08:08Z</time>
      </trkpt>
      <trkpt lat="49.13718" lon="2.10956">
        <ele>105.2</ele>
        <time>2023-05-21T14:08:13Z</time>
      </trkpt>
      <trkpt lat="49.13712" lon="2.1095">
        <ele>105.6</ele>
        <time>2023-05-21T14:08:19Z</time>
      </trkpt>
      <trkpt lat="49.13707" lon="2.10947">
        <ele>105.8</ele>
        <time>2023-05-21T14:08:25Z</time>
      </trkpt>
      <trkpt lat="49.13702" lon="2.10944">
        <ele>105.9</ele>
        <time>2023-05-21T14:08:30Z</time>
      </trkpt>
      <trkpt lat="49.13696" lon="2.1094">
        <ele>105.9</ele>
        <time>2023-05-21T14:08:36Z</time>
      </trkpt>
      <trkpt lat="49.1369" lon="2.10936">
        <ele>105.9</ele>
        <time>2023-05-21T14:08:42Z</time>
      </trkpt>
      <trkpt lat="49.13684" lon="2.10932">
        <ele>105.8</ele>
        <time>2023-05-21T14:08:48Z</time>
      </trkpt>
      <trkpt lat="49.13679" lon="2.10927">
        <ele>105.7</ele>
        <time>2023-05-21T14:08:54Z</time>
      </trkpt>
      <trkpt lat="49.13675" lon="2.10925">
        <ele>105.6</ele>
        <time>2023-05-21T14:09:00Z</time>
      </trkpt>
      <trkpt lat="49.13673" lon="2.10923">
        <ele>105.6</ele>
        <time>2023-05-21T14:09:06Z</time>
      </trkpt>
      <trkpt lat="49.1367" lon="2.10921">
        <ele>105.8</ele>
        <time>2023-05-21T14:09:11Z</time>
      </trkpt>
      <trkpt lat="49.13666" lon="2.1092">
        <ele>106.6</ele>
        <time>2023-05-21T14:09:17Z</time>
      </trkpt>
      <trkpt lat="49.13666" lon="2.10921">
        <ele>107.6</ele>
        <time>2023-05-21T14:09:22Z</time>
      </trkpt>
      <trkpt lat="49.13668" lon="2.10927">
        <ele>108.6</ele>
        <time>2023-05-21T14:09:27Z</time>
      </trkpt>
      <trkpt lat="49.13671" lon="2.10937">
        <ele>109.6</ele>
        <time>2023-05-21T14:09:33Z</time>
      </trkpt>
      <trkpt lat="49.13675" lon="2.10945">
        <ele>110.1</ele>
        <time>2023-05-21T14:09:38Z</time>
      </trkpt>
      <trkpt lat="49.13679" lon="2.10954">
        <ele>110.6</ele>
        <time>2023-05-21T14:09:44Z</time>
      </trkpt>
      <trkpt lat="49.13684" lon="2.10962">
        <ele>111.2</ele>
        <time>2023-05-21T14:09:50Z</time>
      </trkpt>
      <trkpt lat="49.13688" lon="2.10969">
        <ele>111.8</ele>
        <time>2023-05-21T14:09:55Z</time>
      </trkpt>
      <trkpt lat="49.13693" lon="2.10976">
        <ele>112.2</ele>
        <time>2023-05-21T14:10:00Z</time>
      </trkpt>
      <trkpt lat="49.137" lon="2.10983">
        <ele>112.8</ele>
        <time>2023-05-21T14:10:06Z</time>
      </trkpt>
      <trkpt lat="49.13705" lon="2.1099">
        <ele>113.2</ele>
        <time>2023-05-21T14:10:11Z</time>
      </trkpt>
      <trkpt lat="49.13712" lon="2.10996">
        <ele>113.7</ele>
        <time>2023-05-21T14:10:17Z</time>
      </trkpt>
      <trkpt lat="49.13718" lon="2.11003">
        <ele>114.1</ele>
        <time>2023-05-21T14:10:23Z</time>
      </trkpt>
      <trkpt lat="49.13724" lon="2.11009">
        <ele>114.5</ele>
        <time>2023-05-21T14:10:28Z</time>
      </trkpt>
      <trkpt lat="49.13728" lon="2.11018">
        <ele>115</ele>
        <time>2023-05-21T14:10:34Z</time>
      </trkpt>
      <trkpt lat="49.13732" lon="2.11027">
        <ele>115.2</ele>
        <time>2023-05-21T14:10:39Z</time>
      </trkpt>
      <trkpt lat="49.13734" lon="2.11038">
        <ele>115.2</ele>
        <time>2023-05-21T14:10:45Z</time>
      </trkpt>
      <trkpt lat="49.13734" lon="2.11047">
        <ele>115</ele>
        <time>2023-05-21T14:10:50Z</time>
      </trkpt>
      <trkpt lat="49.13732" lon="2.1106">
        <ele>114.8</ele>
        <time>2023-05-21T14:10:56Z</time>
      </trkpt>
      <trkpt lat="49.13729" lon="2.11071">
        <ele>114.6</ele>
        <time>2023-05-21T14:11:02Z</time>
      </trkpt>
      <trkpt lat="49.13726" lon="2.11082">
        <ele>114.6</ele>
        <time>2023-05-21T14:11:07Z</time>
      </trkpt>
      <trkpt lat="49.13723" lon="2.11093">
        <ele>114.6</ele>
        <time>2023-05-21T14:11:13Z</time>
      </trkpt>
      <trkpt lat="49.1372" lon="2.11102">
        <ele>114.6</ele>
        <time>2023-05-21T14:11:18Z</time>
      </trkpt>
      <trkpt lat="49.13713" lon="2.11108">
        <ele>114.7</ele>
        <time>2023-05-21T14:11:24Z</time>
      </trkpt>
      <trkpt lat="49.13709" lon="2.11112">
        <ele>114.9</ele>
        <time>2023-05-21T14:11:29Z</time>
      </trkpt>
      <trkpt lat="49.13706" lon="2.11124">
        <ele>115</ele>
        <time>2023-05-21T14:11:35Z</time>
      </trkpt>
      <trkpt lat="49.13707" lon="2.11133">
        <ele>115</ele>
        <time>2023-05-21T14:11:40Z</time>
      </trkpt>
      <trkpt lat="49.13715" lon="2.1114">
        <ele>115</ele>
        <time>2023-05-21T14:11:46Z</time>
      </trkpt>
      <trkpt lat="49.1372" lon="2.11147">
        <ele>115.1</ele>
        <time>2023-05-21T14:11:52Z</time>
      </trkpt>
      <trkpt lat="49.13725" lon="2.11153">
        <ele>115.2</ele>
        <time>2023-05-21T14:11:57Z</time>
      </trkpt>
      <trkpt lat="49.13732" lon="2.11159">
        <ele>115.1</ele>
        <time>2023-05-21T14:12:03Z</time>
      </trkpt>
      <trkpt lat="49.13738" lon="2.11163">
        <ele>115.2</ele>
        <time>2023-05-21T14:12:08Z</time>
      </trkpt>
      <trkpt lat="49.1374" lon="2.11163">
        <ele>115.3</ele>
        <time>2023-05-21T14:12:13Z</time>
      </trkpt>
      <trkpt lat="49.13742" lon="2.11171">
        <ele>115.6</ele>
        <time>2023-05-21T14:12:19Z</time>
      </trkpt>
      <trkpt lat="49.13746" lon="2.11174">
        <ele>115.7</ele>
        <time>2023-05-21T14:12:25Z</time>
      </trkpt>
      <trkpt lat="49.13749" lon="2.11177">
        <ele>116</ele>
        <time>2023-05-21T14:12:30Z</time>
      </trkpt>
      <trkpt lat="49.13754" lon="2.11184">
        <ele>116.4</ele>
        <time>2023-05-21T14:12:35Z</time>
      </trkpt>
      <trkpt lat="49.13762" lon="2.11192">
        <ele>116.8</ele>
        <time>2023-05-21T14:12:41Z</time>
      </trkpt>
      <trkpt lat="49.13764" lon="2.11196">
        <ele>117.1</ele>
        <time>2023-05-21T14:12:46Z</time>
      </trkpt>
      <trkpt lat="49.13768" lon="2.11204">
        <ele>117.3</ele>
        <time>2023-05-21T14:12:52Z</time>
      </trkpt>
      <trkpt lat="49.13772" lon="2.11217">
        <ele>117</ele>
        <time>2023-05-21T14:12:58Z</time>
      </trkpt>
      <trkpt lat="49.13777" lon="2.11224">
        <ele>116.5</ele>
        <time>2023-05-21T14:13:04Z</time>
      </trkpt>
      <trkpt lat="49.13778" lon="2.11234">
        <ele>116.3</ele>
        <time>2023-05-21T14:13:09Z</time>
      </trkpt>
      <trkpt lat="49.13779" lon="2.11245">
        <ele>115.8</ele>
        <time>2023-05-21T14:13:15Z</time>
      </trkpt>
      <trkpt lat="49.1378" lon="2.11253">
        <ele>115.1</ele>
        <time>2023-05-21T14:13:20Z</time>
      </trkpt>
      <trkpt lat="49.13785" lon="2.11262">
        <ele>114.7</ele>
        <time>2023-05-21T14:13:26Z</time>
      </trkpt>
      <trkpt lat="49.13788" lon="2.1127">
        <ele>114.6</ele>
        <time>2023-05-21T14:13:31Z</time>
      </trkpt>
      <trkpt lat="49.1379" lon="2.11276">
        <ele>114.7</ele>
        <time>2023-05-21T14:13:37Z</time>
      </trkpt>
      <trkpt lat="49.13792" lon="2.11283">
        <ele>114.4</ele>
        <time>2023-05-21T14:13:43Z</time>
      </trkpt>
      <trkpt lat="49.13794" lon="2.11285">
        <ele>114.3</ele>
        <time>2023-05-21T14:13:49Z</time>
      </trkpt>
      <trkpt lat="49.13794" lon="2.11284">
        <ele>114.3</ele>
        <time>2023-05-21T14:13:54Z</time>
      </trkpt>
      <trkpt lat="49.13794" lon="2.11284">
        <ele>114.1</ele>
        <time>2023-05-21T14:14:00Z</time>
      </trkpt>
      <trkpt lat="49.13792" lon="2.11287">
        <ele>113.9</ele>
        <time>2023-05-21T14:14:06Z</time>
      </trkpt>
      <trkpt lat="49.13792" lon="2.11288">
        <ele>113.7</ele>
        <time>2023-05-21T14:14:12Z</time>
      </trkpt>
      <trkpt lat="49.13793" lon="2.11289">
        <ele>113.6</ele>
        <time>2023-05-21T14:14:18Z</time>
      </trkpt>
      <trkpt lat="49.13794" lon="2.11289">
        <ele>113.3</ele>
        <time>2023-05-21T14:14:24Z</time>
      </trkpt>
      <trkpt lat="49.13795" lon="2.11289">
        <ele>113.2</ele>
        <time>2023-05-21T14:14:29Z</time>
      </trkpt>
      <trkpt lat="49.13796" lon="2.11287">
        <ele>113.1</ele>
        <time>2023-05-21T14:14:34Z</time>
      </trkpt>
      <trkpt lat="49.13797" lon="2.11283">
        <ele>112.9</ele>
        <time>2023-05-21T14:14:40Z</time>
      </trkpt>
      <trkpt lat="49.13797" lon="2.11282">
        <ele>112.7</ele>
        <time>2023-05-21T14:14:46Z</time>
      </trkpt>
      <trkpt lat="49.13796" lon="2.11284">
        <ele>112.5</ele>
        <time>2023-05-21T14:14:52Z</time>
      </trkpt>
      <trkpt lat="49.13796" lon="2.11285">
        <ele>111.9</ele>
        <time>2023-05-21T14:14:57Z</time>
      </trkpt>
      <trkpt lat="49.13797" lon="2.11285">
        <ele>110.5</ele>
        <time>2023-05-21T14:15:03Z</time>
      </trkpt>
      <trkpt lat="49.13798" lon="2.11297">
        <ele>109.6</ele>
        <time>2023-05-21T14:15:09Z</time>
      </trkpt>
      <trkpt lat="49.13795" lon="2.1131">
        <ele>109</ele>
        <time>2023-05-21T14:15:14Z</time>
      </trkpt>
      <trkpt lat="49.13795" lon="2.11317">
        <ele>108.3</ele>
        <time>2023-05-21T14:15:19Z</time>
      </trkpt>
      <trkpt lat="49.13796" lon="2.11323">
        <ele>107.8</ele>
        <time>2023-05-21T14:15:24Z</time>
      </trkpt>
      <trkpt lat="49.13798" lon="2.11328">
        <ele>107.4</ele>
        <time>2023-05-21T14:15:30Z</time>
      </trkpt>
      <trkpt lat="49.13799" lon="2.1133">
        <ele>107.2</ele>
        <time>2023-05-21T14:15:35Z</time>
      </trkpt>
      <trkpt lat="49.13799" lon="2.1133">
        <ele>107.1</ele>
        <time>2023-05-21T14:15:40Z</time>
      </trkpt>
      <trkpt lat="49.13799" lon="2.1133">
        <ele>106.8</ele>
        <time>2023-05-21T14:15:46Z</time>
      </trkpt>
      <trkpt lat="49.13802" lon="2.11331">
        <ele>106.2</ele>
        <time>2023-05-21T14:15:52Z</time>
      </trkpt>
      <trkpt lat="49.13808" lon="2.11335">
        <ele>105.4</ele>
        <time>2023-05-21T14:15:58Z</time>
      </trkpt>
      <trkpt lat="49.13815" lon="2.1134">
        <ele>104.7</ele>
        <time>2023-05-21T14:16:04Z</time>
      </trkpt>
      <trkpt lat="49.13819" lon="2.11343">
        <ele>104.1</ele>
        <time>2023-05-21T14:16:09Z</time>
      </trkpt>
      <trkpt lat="49.13826" lon="2.11351">
        <ele>103.4</ele>
        <time>2023-05-21T14:16:15Z</time>
      </trkpt>
      <trkpt lat="49.1383" lon="2.11359">
        <ele>103.1</ele>
        <time>2023-05-21T14:16:20Z</time>
      </trkpt>
      <trkpt lat="49.13829" lon="2.11368">
        <ele>102.9</ele>
        <time>2023-05-21T14:16:26Z</time>
      </trkpt>
      <trkpt lat="49.13833" lon="2.11376">
        <ele>102.8</ele>
        <time>2023-05-21T14:16:31Z</time>
      </trkpt>
      <trkpt lat="49.13837" lon="2.11385">
        <ele>102.7</ele>
        <time>2023-05-21T14:16:36Z</time>
      </trkpt>
      <trkpt lat="49.13843" lon="2.11395">
        <ele>102.5</ele>
        <time>2023-05-21T14:16:42Z</time>
      </trkpt>
      <trkpt lat="49.13846" lon="2.11405">
        <ele>102.4</ele>
        <time>2023-05-21T14:16:48Z</time>
      </trkpt>
      <trkpt lat="49.1385" lon="2.11415">
        <ele>102.4</ele>
        <time>2023-05-21T14:16:53Z</time>
      </trkpt>
      <trkpt lat="49.13854" lon="2.11426">
        <ele>102.4</ele>
        <time>2023-05-21T14:16:59Z</time>
      </trkpt>
      <trkpt lat="49.13858" lon="2.11437">
        <ele>102.4</ele>
        <time>2023-05-21T14:17:04Z</time>
      </trkpt>
      <trkpt lat="49.1386" lon="2.11448">
        <ele>102.2</ele>
        <time>2023-05-21T14:17:09Z</time>
      </trkpt>
      <trkpt lat="49.13862" lon="2.11458">
        <ele>102</ele>
        <time>2023-05-21T14:17:14Z</time>
      </trkpt>
      <trkpt lat="49.13867" lon="2.11465">
        <ele>101.6</ele>
        <time>2023-05-21T14:17:20Z</time>
      </trkpt>
      <trkpt lat="49.13872" lon="2.1147">
        <ele>101</ele>
        <time>2023-05-21T14:17:26Z</time>
      </trkpt>
      <trkpt lat="49.13873" lon="2.1148">
        <ele>100.4</ele>
        <time>2023-05-21T14:17:31Z</time>
      </trkpt>
      <trkpt lat="49.13874" lon="2.11487">
        <ele>99.7</ele>
        <time>2023-05-21T14:17:36Z</time>
      </trkpt>
      <trkpt lat="49.13875" lon="2.11499">
        <ele>99.1</ele>
        <time>2023-05-21T14:17:41Z</time>
      </trkpt>
      <trkpt lat="49.13876" lon="2.11511">
        <ele>98.5</ele>
        <time>2023-05-21T14:17:46Z</time>
      </trkpt>
      <trkpt lat="49.13876" lon="2.11519">
        <ele>97.8</ele>
        <time>2023-05-21T14:17:51Z</time>
      </trkpt>
      <trkpt lat="49.13875" lon="2.11531">
        <ele>97.2</ele>
        <time>2023-05-21T14:17:57Z</time>
      </trkpt>
      <trkpt lat="49.13875" lon="2.11541">
        <ele>96.7</ele>
        <time>2023-05-21T14:18:02Z</time>
      </trkpt>
      <trkpt lat="49.13875" lon="2.11552">
        <ele>96.4</ele>
        <time>2023-05-21T14:18:07Z</time>
      </trkpt>
      <trkpt lat="49.13875" lon="2.1156">
        <ele>96</ele>
        <time>2023-05-21T14:18:12Z</time>
      </trkpt>
      <trkpt lat="49.13874" lon="2.1157">
        <ele>95.4</ele>
        <time>2023-05-21T14:18:18Z</time>
      </trkpt>
      <trkpt lat="49.13874" lon="2.11578">
        <ele>94.7</ele>
        <time>2023-05-21T14:18:23Z</time>
      </trkpt>
      <trkpt lat="49.13874" lon="2.1159">
        <ele>93.6</ele>
        <time>2023-05-21T14:18:29Z</time>
      </trkpt>
      <trkpt lat="49.13874" lon="2.11599">
        <ele>92.8</ele>
        <time>2023-05-21T14:18:34Z</time>
      </trkpt>
      <trkpt lat="49.13874" lon="2.11612">
        <ele>92</ele>
        <time>2023-05-21T14:18:40Z</time>
      </trkpt>
      <trkpt lat="49.13874" lon="2.11625">
        <ele>91.2</ele>
        <time>2023-05-21T14:18:46Z</time>
      </trkpt>
      <trkpt lat="49.13875" lon="2.11638">
        <ele>90.6</ele>
        <time>2023-05-21T14:18:52Z</time>
      </trkpt>
      <trkpt lat="49.13878" lon="2.11644">
        <ele>90.4</ele>
        <time>2023-05-21T14:18:57Z</time>
      </trkpt>
      <trkpt lat="49.13886" lon="2.11639">
        <ele>90.2</ele>
        <time>2023-05-21T14:19:03Z</time>
      </trkpt>
      <trkpt lat="49.13893" lon="2.1163">
        <ele>89.9</ele>
        <time>2023-05-21T14:19:09Z</time>
      </trkpt>
      <trkpt lat="49.13897" lon="2.11623">
        <ele>89.8</ele>
        <time>2023-05-21T14:19:14Z</time>
      </trkpt>
      <trkpt lat="49.13902" lon="2.11614">
        <ele>89.7</ele>
        <time>2023-05-21T14:19:20Z</time>
      </trkpt>
      <trkpt lat="49.13908" lon="2.11606">
        <ele>89.8</ele>
        <time>2023-05-21T14:19:25Z</time>
      </trkpt>
      <trkpt lat="49.13912" lon="2.116">
        <ele>89.9</ele>
        <time>2023-05-21T14:19:30Z</time>
      </trkpt>
      <trkpt lat="49.1392" lon="2.11593">
        <ele>90</ele>
        <time>2023-05-21T14:19:36Z</time>
      </trkpt>
      <trkpt lat="49.13925" lon="2.11589">
        <ele>90.1</ele>
        <time>2023-05-21T14:19:41Z</time>
      </trkpt>
      <trkpt lat="49.13925" lon="2.11583">
        <ele>90.1</ele>
        <time>2023-05-21T14:19:46Z</time>
      </trkpt>
    </trkseg>
  </trk>
</gpx>